BA296 / G-ZBLB 7700 Squawk Report (16th of January, 2022)

Time Lat Lon Altitude Heading Speed Vertical Rate
2022-01-16 10:26:58 GMT 51.471157 -0.482063 0 90 0 0
2022-01-16 10:26:03 GMT 51.471146 -0.482769 0 87 4 0
2022-01-16 10:25:58 GMT 51.471157 -0.482903 0 81 4 0
2022-01-16 10:25:57 GMT 51.471157 -0.482922 0 81 4 0
2022-01-16 10:25:54 GMT 51.471157 -0.482979 0 78 3 0
2022-01-16 10:25:53 GMT 51.471157 -0.482998 0 78 2 0
2022-01-16 10:25:47 GMT 51.471153 -0.483046 0 75 0 0
2022-01-16 10:25:41 GMT 51.471165 -0.483102 0 70 5 0
2022-01-16 10:25:37 GMT 51.471180 -0.483227 0 53 5 0
2022-01-16 10:25:33 GMT 51.471191 -0.483379 0 30 5 0
2022-01-16 10:25:32 GMT 51.471199 -0.483398 0 28 5 0
2022-01-16 10:25:30 GMT 51.471180 -0.483475 0 22 5 0
2022-01-16 10:25:28 GMT 51.471169 -0.483513 0 11 5 0
2022-01-16 10:25:27 GMT 51.471142 -0.483547 0 5 5 0
2022-01-16 10:25:26 GMT 51.471130 -0.483565 0 2 5 0
2022-01-16 10:25:23 GMT 51.471062 -0.483584 0 357 6 0
2022-01-16 10:25:21 GMT 51.471027 -0.483570 0 357 7 0
2022-01-16 10:25:20 GMT 51.470982 -0.483584 0 357 7 0
2022-01-16 10:25:19 GMT 51.470936 -0.483570 0 357 8 0
2022-01-16 10:25:17 GMT 51.470867 -0.483570 0 357 9 0
2022-01-16 10:25:13 GMT 51.470703 -0.483570 0 357 10 0
2022-01-16 10:25:09 GMT 51.470562 -0.483551 0 357 10 0
2022-01-16 10:25:08 GMT 51.470524 -0.483565 0 0 10 0
2022-01-16 10:25:05 GMT 51.470318 -0.483551 0 0 11 0
2022-01-16 10:25:03 GMT 51.470238 -0.483551 0 0 11 0
2022-01-16 10:25:02 GMT 51.470192 -0.483547 0 0 11 0
2022-01-16 10:24:59 GMT 51.470066 -0.483547 0 0 12 0
2022-01-16 10:24:57 GMT 51.469917 -0.483547 0 0 12 0
2022-01-16 10:24:55 GMT 51.469807 -0.483551 0 0 12 0
2022-01-16 10:24:53 GMT 51.469749 -0.483551 0 0 12 0
2022-01-16 10:24:51 GMT 51.469608 -0.483547 0 0 11 0
2022-01-16 10:24:50 GMT 51.469563 -0.483551 0 0 12 0
2022-01-16 10:24:47 GMT 51.469398 -0.483551 0 0 12 0
2022-01-16 10:24:44 GMT 51.469273 -0.483551 0 0 12 0
2022-01-16 10:24:42 GMT 51.469105 -0.483547 0 0 12 0
2022-01-16 10:24:40 GMT 51.469059 -0.483547 0 0 12 0
2022-01-16 10:24:37 GMT 51.468910 -0.483551 0 0 11 0
2022-01-16 10:24:36 GMT 51.468842 -0.483547 0 0 11 0
2022-01-16 10:24:32 GMT 51.468601 -0.483547 0 0 11 0
2022-01-16 10:24:30 GMT 51.468536 -0.483532 0 0 10 0
2022-01-16 10:24:26 GMT 51.468361 -0.483547 0 2 10 0
2022-01-16 10:24:25 GMT 51.468327 -0.483547 0 2 9 0
2022-01-16 10:24:23 GMT 51.468246 -0.483532 0 2 9 0
2022-01-16 10:24:22 GMT 51.468212 -0.483547 0 2 8 0
2022-01-16 10:24:20 GMT 51.468098 -0.483551 0 2 7 0
2022-01-16 10:24:19 GMT 51.468086 -0.483547 0 2 7 0
2022-01-16 10:24:17 GMT 51.468052 -0.483547 0 2 7 0
2022-01-16 10:24:15 GMT 51.467957 -0.483551 0 2 6 0
2022-01-16 10:24:12 GMT 51.467892 -0.483565 0 357 6 0
2022-01-16 10:24:11 GMT 51.467854 -0.483570 0 354 5 0
2022-01-16 10:24:08 GMT 51.467793 -0.483608 0 345 6 0
2022-01-16 10:24:05 GMT 51.467747 -0.483627 0 340 6 0
2022-01-16 10:24:02 GMT 51.467655 -0.483646 0 320 7 0
2022-01-16 10:23:59 GMT 51.467583 -0.483646 0 306 7 0
2022-01-16 10:23:53 GMT 51.467434 -0.483436 0 275 7 0
2022-01-16 10:23:52 GMT 51.467422 -0.483380 0 275 7 0
2022-01-16 10:23:50 GMT 51.467422 -0.483284 0 272 7 0
2022-01-16 10:23:49 GMT 51.467422 -0.483189 0 272 7 0
2022-01-16 10:23:47 GMT 51.467411 -0.483157 0 272 7 0
2022-01-16 10:23:46 GMT 51.467411 -0.483120 0 275 7 0
2022-01-16 10:23:45 GMT 51.467422 -0.483046 0 275 6 0
2022-01-16 10:23:44 GMT 51.467422 -0.482953 0 278 6 0
2022-01-16 10:23:42 GMT 51.467422 -0.482953 0 278 6 0
2022-01-16 10:23:41 GMT 51.467434 -0.482879 0 284 6 0
2022-01-16 10:23:40 GMT 51.467434 -0.482842 0 286 6 0
2022-01-16 10:23:38 GMT 51.467434 -0.482750 0 292 6 0
2022-01-16 10:23:37 GMT 51.467445 -0.482693 0 295 6 0
2022-01-16 10:23:35 GMT 51.467434 -0.482616 0 303 6 0
2022-01-16 10:23:31 GMT 51.467434 -0.482464 0 320 6 0
2022-01-16 10:23:29 GMT 51.467400 -0.482368 0 331 6 0
2022-01-16 10:23:27 GMT 51.467365 -0.482304 0 340 6 0
2022-01-16 10:23:25 GMT 51.467331 -0.482248 0 345 6 0
2022-01-16 10:23:22 GMT 51.467270 -0.482197 0 351 6 0
2022-01-16 10:23:21 GMT 51.467251 -0.482174 0 354 6 0
2022-01-16 10:23:18 GMT 51.467190 -0.482140 0 357 5 0
2022-01-16 10:23:14 GMT 51.467083 -0.482140 0 357 6 0
2022-01-16 10:23:12 GMT 51.467045 -0.482136 0 357 6 0
2022-01-16 10:23:10 GMT 51.466991 -0.482159 0 351 6 0
2022-01-16 10:23:09 GMT 51.466965 -0.482174 0 348 6 0
2022-01-16 10:23:07 GMT 51.466908 -0.482174 0 343 6 0
2022-01-16 10:23:05 GMT 51.466862 -0.482197 0 334 6 0
2022-01-16 10:23:04 GMT 51.466839 -0.482197 0 331 7 0
2022-01-16 10:23:01 GMT 51.466782 -0.482192 0 320 7 0
2022-01-16 10:22:59 GMT 51.466690 -0.482174 0 303 8 0
2022-01-16 10:22:57 GMT 51.466572 -0.482044 0 286 7 0
2022-01-16 10:22:55 GMT 51.466572 -0.482044 0 281 8 0
2022-01-16 10:22:54 GMT 51.466560 -0.482006 0 278 7 0
2022-01-16 10:22:52 GMT 51.466518 -0.481858 0 270 7 0
2022-01-16 10:22:51 GMT 51.466518 -0.481858 0 270 7 0
2022-01-16 10:22:50 GMT 51.466526 -0.481815 0 270 8 0
2022-01-16 10:22:49 GMT 51.466526 -0.481739 0 270 9 0
2022-01-16 10:22:48 GMT 51.466526 -0.481701 0 270 10 0
2022-01-16 10:22:45 GMT 51.466530 -0.481524 0 270 11 0
2022-01-16 10:22:44 GMT 51.466526 -0.481453 0 270 12 0
2022-01-16 10:22:43 GMT 51.466526 -0.481358 0 270 14 0
2022-01-16 10:22:41 GMT 51.466530 -0.481171 0 270 14 0
2022-01-16 10:22:39 GMT 51.466530 -0.480875 0 270 15 0
2022-01-16 10:22:37 GMT 51.466537 -0.480766 0 270 15 0
2022-01-16 10:22:35 GMT 51.466537 -0.480537 0 270 15 0
2022-01-16 10:22:34 GMT 51.466541 -0.480448 0 270 15 0
2022-01-16 10:22:33 GMT 51.466537 -0.480328 0 270 15 0
2022-01-16 10:22:32 GMT 51.466537 -0.480213 0 270 15 0
2022-01-16 10:22:31 GMT 51.466537 -0.480099 0 270 15 0
2022-01-16 10:22:27 GMT 51.466541 -0.479650 0 270 15 0
2022-01-16 10:22:26 GMT 51.466541 -0.479538 0 270 15 0
2022-01-16 10:22:25 GMT 51.466541 -0.479446 0 270 15 0
2022-01-16 10:22:21 GMT 51.466549 -0.479088 0 270 14 0
2022-01-16 10:22:20 GMT 51.466549 -0.478992 0 270 14 0
2022-01-16 10:22:19 GMT 51.466549 -0.478821 0 270 14 0
2022-01-16 10:22:17 GMT 51.466541 -0.478648 0 270 14 0
2022-01-16 10:22:14 GMT 51.466549 -0.478268 0 270 14 0
2022-01-16 10:22:13 GMT 51.466549 -0.478172 0 270 14 0
2022-01-16 10:22:11 GMT 51.466549 -0.478020 0 270 14 0
2022-01-16 10:22:10 GMT 51.466553 -0.477924 0 270 14 0
2022-01-16 10:22:07 GMT 51.466549 -0.477428 0 270 14 0
2022-01-16 10:22:05 GMT 51.466549 -0.477428 0 270 14 0
2022-01-16 10:22:04 GMT 51.466549 -0.477333 0 270 14 0
2022-01-16 10:22:03 GMT 51.466549 -0.477200 0 270 13 0
2022-01-16 10:22:00 GMT 51.466553 -0.476922 0 270 13 0
2022-01-16 10:21:58 GMT 51.466553 -0.476773 0 270 13 0
2022-01-16 10:21:54 GMT 51.466553 -0.476328 0 270 14 0
2022-01-16 10:21:50 GMT 51.466560 -0.475922 0 270 14 0
2022-01-16 10:21:49 GMT 51.466560 -0.475826 0 270 15 0
2022-01-16 10:21:47 GMT 51.466553 -0.475586 0 270 15 0
2022-01-16 10:21:45 GMT 51.466553 -0.475400 0 270 15 0
2022-01-16 10:21:44 GMT 51.466553 -0.475307 0 270 15 0
2022-01-16 10:21:42 GMT 51.466553 -0.475084 0 270 15 0
2022-01-16 10:21:40 GMT 51.466560 -0.474873 0 270 15 0
2022-01-16 10:21:39 GMT 51.466553 -0.474769 0 270 15 0
2022-01-16 10:21:38 GMT 51.466553 -0.474639 0 270 14 0
2022-01-16 10:21:37 GMT 51.466560 -0.474529 0 270 14 0
2022-01-16 10:21:36 GMT 51.466553 -0.474194 0 270 14 0
2022-01-16 10:21:34 GMT 51.466553 -0.474194 0 270 14 0
2022-01-16 10:21:32 GMT 51.466564 -0.473990 0 270 14 0
2022-01-16 10:21:30 GMT 51.466560 -0.473843 0 270 13 0
2022-01-16 10:21:28 GMT 51.466564 -0.473618 0 270 13 0
2022-01-16 10:21:26 GMT 51.466564 -0.473433 0 270 13 0
2022-01-16 10:21:25 GMT 51.466560 -0.473347 0 270 13 0
2022-01-16 10:21:22 GMT 51.466564 -0.473099 0 270 13 0
2022-01-16 10:21:20 GMT 51.466564 -0.472950 0 270 13 0
2022-01-16 10:21:19 GMT 51.466564 -0.472839 0 270 13 0
2022-01-16 10:21:18 GMT 51.466564 -0.472746 0 270 13 0
2022-01-16 10:21:16 GMT 51.466564 -0.472579 0 270 13 0
2022-01-16 10:21:15 GMT 51.466572 -0.472507 0 270 13 0
2022-01-16 10:21:14 GMT 51.466564 -0.472319 0 270 12 0
2022-01-16 10:21:11 GMT 51.466572 -0.472145 0 270 12 0
2022-01-16 10:21:08 GMT 51.466564 -0.471781 0 270 11 0
2022-01-16 10:21:06 GMT 51.466572 -0.471706 0 270 11 0
2022-01-16 10:21:02 GMT 51.466576 -0.471447 0 270 11 0
2022-01-16 10:21:00 GMT 51.466572 -0.471249 0 270 11 0
2022-01-16 10:20:59 GMT 51.466576 -0.471169 0 270 10 0
2022-01-16 10:20:58 GMT 51.466572 -0.471058 0 270 10 0
2022-01-16 10:20:56 GMT 51.466576 -0.470946 0 270 10 0
2022-01-16 10:20:55 GMT 51.466576 -0.470872 0 270 10 0
2022-01-16 10:20:53 GMT 51.466576 -0.470742 0 270 10 0
2022-01-16 10:20:50 GMT 51.466576 -0.470538 0 270 9 0
2022-01-16 10:20:48 GMT 51.466576 -0.470389 0 270 9 0
2022-01-16 10:20:47 GMT 51.466576 -0.470315 0 270 9 0
2022-01-16 10:20:45 GMT 51.466583 -0.470200 0 270 9 0
2022-01-16 10:20:44 GMT 51.466583 -0.470142 0 270 8 0
2022-01-16 10:20:42 GMT 51.466583 -0.470028 0 270 8 0
2022-01-16 10:20:40 GMT 51.466576 -0.469925 0 272 8 0
2022-01-16 10:20:38 GMT 51.466583 -0.469780 0 272 8 0
2022-01-16 10:20:29 GMT 51.466587 -0.469331 0 278 7 0
2022-01-16 10:20:27 GMT 51.466583 -0.469246 0 284 6 0
2022-01-16 10:20:24 GMT 51.466595 -0.469131 0 289 6 0
2022-01-16 10:20:20 GMT 51.466599 -0.468942 0 309 6 0
2022-01-16 10:20:17 GMT 51.466599 -0.468830 0 323 6 0
2022-01-16 10:20:15 GMT 51.466583 -0.468750 0 334 6 0
2022-01-16 10:20:14 GMT 51.466572 -0.468712 0 340 6 0
2022-01-16 10:20:12 GMT 51.466541 -0.468645 0 348 6 0
2022-01-16 10:20:11 GMT 51.466526 -0.468616 0 351 6 0
2022-01-16 10:20:08 GMT 51.466438 -0.468589 0 357 7 0
2022-01-16 10:20:07 GMT 51.466408 -0.468578 0 357 7 0
2022-01-16 10:20:04 GMT 51.466328 -0.468578 0 354 7 0
2022-01-16 10:20:02 GMT 51.466278 -0.468571 0 354 7 0
2022-01-16 10:20:00 GMT 51.466187 -0.468571 0 351 8 0
2022-01-16 10:19:57 GMT 51.466095 -0.468589 0 337 8 0
2022-01-16 10:19:55 GMT 51.466049 -0.468589 0 337 8 0
2022-01-16 10:19:54 GMT 51.465981 -0.468589 0 329 8 0
2022-01-16 10:19:50 GMT 51.465843 -0.468515 0 300 8 0
2022-01-16 10:19:48 GMT 51.465786 -0.468459 0 300 8 0
2022-01-16 10:19:45 GMT 51.465694 -0.468274 0 295 8 0
2022-01-16 10:19:41 GMT 51.465652 -0.468102 0 295 9 0
2022-01-16 10:19:38 GMT 51.465595 -0.467892 0 295 13 0
2022-01-16 10:19:36 GMT 51.465546 -0.467698 0 295 16 0
2022-01-16 10:19:34 GMT 51.465477 -0.467439 0 295 19 0
2022-01-16 10:19:33 GMT 51.465454 -0.467383 0 295 19 0
2022-01-16 10:19:31 GMT 51.465385 -0.467129 0 295 21 0
2022-01-16 10:19:27 GMT 51.465294 -0.466808 0 292 22 0
2022-01-16 10:19:25 GMT 51.465191 -0.466455 0 289 25 0
2022-01-16 10:19:24 GMT 51.465153 -0.466232 0 289 27 0
2022-01-16 10:19:22 GMT 51.465088 -0.465935 0 286 31 0
2022-01-16 10:19:19 GMT 51.464951 -0.465156 0 281 32 0
2022-01-16 10:19:18 GMT 51.464909 -0.464859 0 278 33 0
2022-01-16 10:19:13 GMT 51.464859 -0.463467 0 270 34 0
2022-01-16 10:19:10 GMT 51.464859 -0.462873 0 270 34 0
2022-01-16 10:19:09 GMT 51.464870 -0.461311 0 270 48 0
2022-01-16 10:19:04 GMT 51.464870 -0.459050 0 270 65 0
2022-01-16 10:18:58 GMT 51.464870 -0.459050 0 270 65 0
2022-01-16 10:18:53 GMT 51.464886 -0.456219 0 270 86 0
2022-01-16 10:18:51 GMT 51.464893 -0.455005 -275 270 90 0
2022-01-16 10:18:47 GMT 51.464893 -0.451965 -300 270 121 0
2022-01-16 10:18:42 GMT 51.464893 -0.448456 -300 270 121 0
2022-01-16 10:18:41 GMT 51.464905 -0.447099 -300 270 125 0
2022-01-16 10:18:39 GMT 51.464951 -0.445614 -300 270 136 -64
2022-01-16 10:18:38 GMT 51.464951 -0.443239 -275 270 139 -128
2022-01-16 10:18:36 GMT 51.464943 -0.442123 -275 270 140 -128
2022-01-16 10:18:35 GMT 51.464943 -0.441055 -275 270 142 -192
2022-01-16 10:18:34 GMT 51.464943 -0.439606 -275 270 143 -256
2022-01-16 10:18:32 GMT 51.464951 -0.435445 -250 270 143 -640
2022-01-16 10:18:30 GMT 51.464951 -0.435445 -250 270 143 -640
2022-01-16 10:18:29 GMT 51.464951 -0.434405 -225 270 144 -768
2022-01-16 10:18:28 GMT 51.464943 -0.433197 -200 270 144 -768
2022-01-16 10:18:26 GMT 51.464951 -0.431213 -200 270 144 -768
2022-01-16 10:18:24 GMT 51.464951 -0.429061 -175 270 144 -768
2022-01-16 10:18:23 GMT 51.464996 -0.428021 -150 270 144 -768
2022-01-16 10:18:22 GMT 51.464996 -0.426982 -150 270 144 -768
2022-01-16 10:18:20 GMT 51.464989 -0.424881 -125 270 144 -768
2022-01-16 10:18:19 GMT 51.464989 -0.423431 -100 270 144 -768
2022-01-16 10:18:18 GMT 51.464996 -0.422454 -100 270 144 -768
2022-01-16 10:18:17 GMT 51.464989 -0.421524 -50 270 144 -768
2022-01-16 10:18:15 GMT 51.464996 -0.419262 -50 270 145 -704
2022-01-16 10:18:13 GMT 51.464989 -0.417252 -25 270 145 -704
2022-01-16 10:18:11 GMT 51.464989 -0.415268 -25 270 144 -704
2022-01-16 10:18:10 GMT 51.464996 -0.414363 0 270 144 -768
2022-01-16 10:18:09 GMT 51.464996 -0.413249 25 270 144 -768
2022-01-16 10:18:08 GMT 51.465034 -0.412064 25 270 144 -832
2022-01-16 10:18:06 GMT 51.465042 -0.409835 75 270 145 -832
2022-01-16 10:18:05 GMT 51.465042 -0.408795 75 270 145 -832
2022-01-16 10:18:04 GMT 51.465034 -0.407791 100 270 145 -832
2022-01-16 10:18:03 GMT 51.465042 -0.405529 125 270 146 -832
2022-01-16 10:18:01 GMT 51.465034 -0.404129 125 270 146 -832
2022-01-16 10:18:00 GMT 51.465042 -0.403154 150 270 146 -832
2022-01-16 10:17:59 GMT 51.465034 -0.402222 150 270 145 -832
2022-01-16 10:17:58 GMT 51.465034 -0.401306 175 270 145 -832
2022-01-16 10:17:57 GMT 51.465042 -0.399962 200 270 145 -832
2022-01-16 10:17:55 GMT 51.465042 -0.397809 225 270 145 -768
2022-01-16 10:17:54 GMT 51.465080 -0.396805 225 270 144 -768
2022-01-16 10:17:53 GMT 51.465088 -0.395656 250 270 144 -768
2022-01-16 10:17:52 GMT 51.465080 -0.394669 250 270 144 -768
2022-01-16 10:17:50 GMT 51.465080 -0.392532 275 270 144 -832
2022-01-16 10:17:49 GMT 51.465088 -0.391574 275 270 144 -832
2022-01-16 10:17:48 GMT 51.465080 -0.390244 300 270 145 -896
2022-01-16 10:17:47 GMT 51.465080 -0.389175 325 270 145 -896
2022-01-16 10:17:45 GMT 51.465088 -0.387120 350 270 146 -832
2022-01-16 10:17:44 GMT 51.465080 -0.385895 350 270 146 -832
2022-01-16 10:17:42 GMT 51.465080 -0.384827 375 270 147 -832
2022-01-16 10:17:40 GMT 51.465080 -0.382614 400 270 147 -832
2022-01-16 10:17:39 GMT 51.465080 -0.381546 425 270 147 -832
2022-01-16 10:17:38 GMT 51.465088 -0.380587 450 270 148 -832
2022-01-16 10:17:36 GMT 51.465080 -0.378265 475 270 148 -832
2022-01-16 10:17:35 GMT 51.465088 -0.377098 475 270 148 -832
2022-01-16 10:17:34 GMT 51.465088 -0.376208 500 270 148 -832
2022-01-16 10:17:33 GMT 51.465088 -0.375094 500 270 148 -832
2022-01-16 10:17:31 GMT 51.465130 -0.372772 525 270 148 -768
2022-01-16 10:17:30 GMT 51.465134 -0.371828 550 270 147 -768
2022-01-16 10:17:29 GMT 51.465130 -0.370636 550 270 146 -768
2022-01-16 10:17:28 GMT 51.465134 -0.369601 600 270 142 -832
2022-01-16 10:17:26 GMT 51.465130 -0.365906 625 270 142 -832
2022-01-16 10:17:23 GMT 51.465130 -0.364227 625 270 142 -832
2022-01-16 10:17:22 GMT 51.465134 -0.363068 650 270 141 -832
2022-01-16 10:17:21 GMT 51.465130 -0.361252 675 270 142 -832
2022-01-16 10:17:20 GMT 51.465134 -0.360099 700 270 142 -832
2022-01-16 10:17:18 GMT 51.465176 -0.358505 725 270 142 -832
2022-01-16 10:17:16 GMT 51.465176 -0.355988 750 270 143 -768
2022-01-16 10:17:14 GMT 51.465179 -0.354235 775 270 143 -704
2022-01-16 10:17:12 GMT 51.465176 -0.352402 775 270 143 -704
2022-01-16 10:17:11 GMT 51.465176 -0.351334 800 270 143 -704
2022-01-16 10:17:10 GMT 51.465179 -0.349781 825 270 143 -704
2022-01-16 10:17:08 GMT 51.465179 -0.346812 850 270 144 -768
2022-01-16 10:17:06 GMT 51.465179 -0.345921 875 270 144 -768
2022-01-16 10:17:05 GMT 51.465176 -0.344772 875 270 143 -704
2022-01-16 10:17:04 GMT 51.465176 -0.343704 875 270 143 -704
2022-01-16 10:17:03 GMT 51.465179 -0.342729 900 270 143 -704
2022-01-16 10:17:02 GMT 51.465221 -0.340729 925 270 144 -768
2022-01-16 10:16:59 GMT 51.465221 -0.337143 950 270 145 -768
2022-01-16 10:16:58 GMT 51.465221 -0.337143 950 270 145 -768
2022-01-16 10:16:56 GMT 51.465225 -0.334638 1,025 270 147 -832
2022-01-16 10:16:54 GMT 51.465225 -0.332708 1,025 270 147 -832
2022-01-16 10:16:52 GMT 51.465225 -0.330481 1,050 270 148 -832
2022-01-16 10:16:50 GMT 51.465225 -0.328105 1,075 270 148 -832
2022-01-16 10:16:49 GMT 51.465225 -0.326992 1,100 270 149 -896
2022-01-16 10:16:47 GMT 51.465225 -0.325507 1,100 270 149 -896
2022-01-16 10:16:46 GMT 51.465225 -0.323948 1,125 270 149 -896
2022-01-16 10:16:45 GMT 51.465221 -0.322266 1,150 270 149 -896
2022-01-16 10:16:43 GMT 51.465225 -0.320162 1,175 270 150 -896
2022-01-16 10:16:41 GMT 51.465267 -0.317383 1,225 270 150 -832
2022-01-16 10:16:39 GMT 51.465271 -0.316377 1,225 270 150 -832
2022-01-16 10:16:37 GMT 51.465271 -0.314001 1,250 270 150 -768
2022-01-16 10:16:36 GMT 51.465271 -0.312665 1,275 270 150 -704
2022-01-16 10:16:35 GMT 51.465271 -0.311551 1,275 270 150 -704
2022-01-16 10:16:32 GMT 51.465271 -0.307766 1,325 270 151 -768
2022-01-16 10:16:30 GMT 51.465267 -0.306091 1,325 270 151 -768
2022-01-16 10:16:29 GMT 51.465267 -0.303421 1,375 270 152 -832
2022-01-16 10:16:26 GMT 51.465271 -0.301679 1,400 270 152 -896
2022-01-16 10:16:24 GMT 51.465317 -0.299452 1,425 270 152 -896
2022-01-16 10:16:22 GMT 51.465317 -0.297225 1,450 270 152 -896
2022-01-16 10:16:20 GMT 51.465317 -0.294998 1,475 270 151 -896
2022-01-16 10:16:19 GMT 51.465317 -0.293810 1,500 270 151 -896
2022-01-16 10:16:18 GMT 51.465313 -0.292587 1,525 270 151 -896
2022-01-16 10:16:17 GMT 51.465313 -0.291519 1,525 270 151 -896
2022-01-16 10:16:16 GMT 51.465317 -0.289356 1,550 270 150 -832
2022-01-16 10:16:14 GMT 51.465317 -0.288243 1,575 270 150 -832
2022-01-16 10:16:13 GMT 51.465317 -0.286016 1,600 270 150 -768
2022-01-16 10:16:11 GMT 51.465317 -0.284902 1,625 270 150 -768
2022-01-16 10:16:10 GMT 51.465317 -0.283863 1,625 270 150 -768
2022-01-16 10:16:09 GMT 51.465313 -0.282364 1,650 270 150 -768
2022-01-16 10:16:08 GMT 51.465317 -0.281191 1,650 270 150 -768
2022-01-16 10:16:07 GMT 51.465313 -0.280609 1,650 270 150 -768
2022-01-16 10:16:05 GMT 51.465317 -0.277850 1,700 270 150 -832
2022-01-16 10:16:04 GMT 51.465317 -0.277182 1,700 270 151 -832
2022-01-16 10:16:03 GMT 51.465317 -0.276069 1,725 270 151 -832
2022-01-16 10:16:01 GMT 51.465317 -0.273842 1,750 270 151 -832
2022-01-16 10:15:58 GMT 51.465363 -0.270501 1,800 270 151 -896
2022-01-16 10:15:57 GMT 51.465363 -0.269314 1,800 270 151 -896
2022-01-16 10:15:56 GMT 51.465363 -0.268097 1,825 270 151 -896
2022-01-16 10:15:54 GMT 51.465363 -0.265750 1,850 270 151 -896
2022-01-16 10:15:52 GMT 51.465363 -0.263523 1,875 270 150 -896
2022-01-16 10:15:51 GMT 51.465363 -0.262410 1,900 270 151 -896
2022-01-16 10:15:50 GMT 51.465363 -0.259960 1,925 270 150 -896
2022-01-16 10:15:48 GMT 51.465363 -0.259292 1,925 270 151 -832
2022-01-16 10:15:47 GMT 51.465363 -0.258179 1,950 270 151 -832
2022-01-16 10:15:45 GMT 51.465363 -0.255432 1,975 270 151 -832
2022-01-16 10:15:44 GMT 51.465363 -0.253279 2,000 270 151 -832
2022-01-16 10:15:42 GMT 51.465363 -0.253279 2,050 270 151 -832
2022-01-16 10:15:40 GMT 51.465363 -0.250092 2,050 270 151 -832
2022-01-16 10:15:39 GMT 51.465363 -0.248947 2,075 270 151 -832
2022-01-16 10:15:37 GMT 51.465363 -0.246821 2,100 270 151 -832
2022-01-16 10:15:35 GMT 51.465363 -0.244675 2,125 270 151 -768
2022-01-16 10:15:33 GMT 51.465363 -0.242691 2,125 270 151 -768
2022-01-16 10:15:32 GMT 51.465408 -0.241547 2,150 270 151 -704
2022-01-16 10:15:30 GMT 51.465408 -0.239250 2,175 270 151 -768
2022-01-16 10:15:29 GMT 51.465408 -0.238136 2,200 270 151 -768
2022-01-16 10:15:28 GMT 51.465408 -0.235686 2,200 270 151 -768
2022-01-16 10:15:26 GMT 51.465408 -0.234680 2,225 270 151 -832
2022-01-16 10:15:25 GMT 51.465408 -0.233536 2,250 270 151 -896
2022-01-16 10:15:23 GMT 51.465408 -0.229154 2,300 270 151 -960
2022-01-16 10:15:21 GMT 51.465408 -0.229154 2,300 270 151 -960
2022-01-16 10:15:20 GMT 51.465408 -0.228195 2,325 270 151 -960
2022-01-16 10:15:18 GMT 51.465408 -0.226036 2,350 270 151 -960
2022-01-16 10:15:17 GMT 51.465408 -0.224923 2,350 270 151 -896
2022-01-16 10:15:16 GMT 51.465408 -0.223809 2,375 270 152 -896
2022-01-16 10:15:15 GMT 51.465408 -0.221137 2,400 270 152 -896
2022-01-16 10:15:13 GMT 51.465408 -0.220246 2,425 270 152 -896
2022-01-16 10:15:12 GMT 51.465408 -0.218964 2,425 270 152 -896
2022-01-16 10:15:11 GMT 51.465408 -0.218048 2,450 270 152 -832
2022-01-16 10:15:10 GMT 51.465408 -0.214382 2,475 270 153 -832
2022-01-16 10:15:08 GMT 51.465408 -0.214382 2,500 270 153 -704
2022-01-16 10:15:06 GMT 51.465408 -0.212081 2,525 270 154 -704
2022-01-16 10:15:04 GMT 51.465454 -0.209732 2,550 270 154 -896
2022-01-16 10:15:03 GMT 51.465454 -0.208130 2,550 270 155 -896
2022-01-16 10:15:02 GMT 51.465454 -0.206810 2,575 270 155 -896
2022-01-16 10:15:01 GMT 51.465454 -0.205765 2,575 270 156 -960
2022-01-16 10:15:00 GMT 51.465454 -0.205078 2,600 270 156 -960
2022-01-16 10:14:59 GMT 51.465454 -0.203934 2,600 270 156 -960
2022-01-16 10:14:57 GMT 51.465454 -0.201317 2,650 270 158 -960
2022-01-16 10:14:55 GMT 51.465454 -0.199509 2,675 270 159 -1024
2022-01-16 10:14:54 GMT 51.465454 -0.198496 2,675 270 160 -1024
2022-01-16 10:14:52 GMT 51.465454 -0.193634 2,725 270 162 -1024
2022-01-16 10:14:50 GMT 51.465454 -0.193634 2,750 270 163 -1024
2022-01-16 10:14:49 GMT 51.465454 -0.192483 2,775 270 164 -1024
2022-01-16 10:14:48 GMT 51.465454 -0.191296 2,800 270 166 -960
2022-01-16 10:14:47 GMT 51.465454 -0.188751 2,825 270 167 -1024
2022-01-16 10:14:45 GMT 51.465454 -0.187361 2,850 270 167 -1024
2022-01-16 10:14:44 GMT 51.465454 -0.186174 2,850 270 168 -1024
2022-01-16 10:14:43 GMT 51.465454 -0.184784 2,875 270 169 -960
2022-01-16 10:14:42 GMT 51.465454 -0.183563 2,900 270 169 -896
2022-01-16 10:14:40 GMT 51.465454 -0.181126 2,925 270 170 -960
2022-01-16 10:14:38 GMT 51.465454 -0.177563 2,975 270 171 -1088
2022-01-16 10:14:36 GMT 51.465454 -0.176239 3,000 270 171 -1088
2022-01-16 10:14:35 GMT 51.465454 -0.174816 3,025 270 171 -1024
2022-01-16 10:14:33 GMT 51.465454 -0.172292 3,025 270 171 -1024
2022-01-16 10:14:31 GMT 51.465454 -0.169768 3,075 270 171 -960
2022-01-16 10:14:30 GMT 51.465454 -0.168729 3,125 270 170 -896
2022-01-16 10:14:28 GMT 51.465454 -0.165760 3,125 270 170 -832
2022-01-16 10:14:26 GMT 51.465454 -0.163803 3,150 271 170 -704
2022-01-16 10:14:25 GMT 51.465454 -0.162419 3,175 271 169 -640
2022-01-16 10:14:24 GMT 51.465454 -0.161285 3,175 271 169 -512
2022-01-16 10:14:23 GMT 51.465454 -0.160065 3,175 271 169 -384
2022-01-16 10:14:22 GMT 51.465454 -0.158844 3,200 271 169 -320
2022-01-16 10:14:21 GMT 51.465408 -0.155792 3,200 271 169 -320
2022-01-16 10:14:19 GMT 51.465408 -0.154699 3,200 271 169 -320
2022-01-16 10:14:18 GMT 51.465408 -0.153437 3,200 271 169 -320
2022-01-16 10:14:17 GMT 51.465408 -0.152175 3,225 271 169 -320
2022-01-16 10:14:16 GMT 51.465408 -0.150833 3,225 271 169 -320
2022-01-16 10:14:14 GMT 51.465363 -0.148167 3,225 271 169 -320
2022-01-16 10:14:12 GMT 51.465363 -0.145717 3,250 271 169 -320
2022-01-16 10:14:09 GMT 51.465363 -0.141931 3,250 271 169 -320
2022-01-16 10:14:07 GMT 51.465313 -0.139618 3,275 271 169 -320
2022-01-16 10:14:06 GMT 51.465317 -0.138220 3,275 271 169 -320
2022-01-16 10:14:04 GMT 51.465317 -0.135696 3,275 271 169 -320
2022-01-16 10:14:03 GMT 51.465317 -0.134434 3,300 271 169 -320
2022-01-16 10:14:01 GMT 51.465271 -0.132430 3,300 271 169 -320
2022-01-16 10:14:00 GMT 51.465267 -0.130539 3,325 271 169 -320
2022-01-16 10:13:58 GMT 51.465267 -0.128326 3,325 271 169 -320
2022-01-16 10:13:57 GMT 51.465267 -0.127029 3,325 271 169 -320
2022-01-16 10:13:55 GMT 51.465221 -0.125046 3,325 271 169 -320
2022-01-16 10:13:54 GMT 51.465221 -0.123825 3,325 271 169 -320
2022-01-16 10:13:53 GMT 51.465221 -0.122070 3,350 271 169 -320
2022-01-16 10:13:52 GMT 51.465221 -0.119553 3,350 271 169 -320
2022-01-16 10:13:50 GMT 51.465221 -0.118256 3,350 270 169 -320
2022-01-16 10:13:49 GMT 51.465221 -0.117569 3,375 270 169 -320
2022-01-16 10:13:48 GMT 51.465225 -0.116173 3,375 270 169 -320
2022-01-16 10:13:47 GMT 51.465225 -0.113649 3,375 270 168 -320
2022-01-16 10:13:45 GMT 51.465225 -0.112387 3,375 270 168 -320
2022-01-16 10:13:44 GMT 51.465225 -0.111199 3,375 269 168 -320
2022-01-16 10:13:43 GMT 51.465271 -0.107414 3,400 269 168 -320
2022-01-16 10:13:41 GMT 51.465271 -0.107414 3,400 268 168 -256
2022-01-16 10:13:40 GMT 51.465317 -0.105706 3,400 268 168 -256
2022-01-16 10:13:39 GMT 51.465363 -0.104444 3,400 267 168 -256
2022-01-16 10:13:38 GMT 51.465408 -0.102440 3,400 265 168 -256
2022-01-16 10:13:36 GMT 51.465500 -0.100861 3,425 264 168 -256
2022-01-16 10:13:35 GMT 51.465595 -0.099335 3,425 263 169 -256
2022-01-16 10:13:34 GMT 51.465733 -0.098114 3,425 260 169 -256
2022-01-16 10:13:33 GMT 51.465820 -0.097021 3,425 260 169 -256
2022-01-16 10:13:31 GMT 51.466095 -0.094794 3,425 256 170 -256
2022-01-16 10:13:29 GMT 51.466850 -0.091019 3,450 247 172 -384
2022-01-16 10:13:26 GMT 51.467560 -0.088559 3,450 241 174 -384
2022-01-16 10:13:25 GMT 51.467922 -0.087585 3,475 237 175 -384
2022-01-16 10:13:23 GMT 51.468750 -0.085441 3,475 237 175 -384
2022-01-16 10:13:22 GMT 51.469208 -0.084402 3,475 235 176 -320
2022-01-16 10:13:21 GMT 51.469784 -0.083008 3,500 235 176 -320
2022-01-16 10:13:19 GMT 51.470482 -0.081558 3,500 234 176 -320
2022-01-16 10:13:18 GMT 51.471039 -0.080261 3,500 234 176 -320
2022-01-16 10:13:17 GMT 51.471504 -0.079193 3,500 234 176 -320
2022-01-16 10:13:16 GMT 51.472019 -0.078125 3,525 234 176 -320
2022-01-16 10:13:14 GMT 51.472950 -0.076065 3,525 234 176 -320
2022-01-16 10:13:13 GMT 51.473511 -0.074900 3,525 234 176 -320
2022-01-16 10:13:10 GMT 51.475021 -0.071485 3,550 234 176 -320
2022-01-16 10:13:08 GMT 51.475983 -0.069333 3,550 234 176 -320
2022-01-16 10:13:05 GMT 51.477219 -0.066586 3,575 234 176 -320
2022-01-16 10:13:04 GMT 51.477745 -0.065460 3,575 234 176 -320
2022-01-16 10:13:02 GMT 51.478813 -0.063095 3,600 234 176 -320
2022-01-16 10:13:01 GMT 51.479279 -0.062027 3,600 234 176 -320
2022-01-16 10:12:59 GMT 51.480072 -0.060349 3,600 234 176 -320
2022-01-16 10:12:57 GMT 51.480972 -0.058346 3,625 234 176 -320
2022-01-16 10:12:56 GMT 51.481659 -0.056862 3,625 234 176 -320
2022-01-16 10:12:54 GMT 51.482620 -0.054709 3,625 234 176 -320
2022-01-16 10:12:53 GMT 51.483078 -0.053670 3,650 234 176 -320
2022-01-16 10:12:51 GMT 51.483891 -0.051880 3,650 235 176 -320
2022-01-16 10:12:50 GMT 51.484402 -0.050812 3,650 235 176 -320
2022-01-16 10:12:49 GMT 51.484867 -0.049744 3,650 235 176 -320
2022-01-16 10:12:47 GMT 51.485798 -0.047607 3,675 235 176 -320
2022-01-16 10:12:45 GMT 51.486832 -0.045356 3,675 235 176 -320
2022-01-16 10:12:44 GMT 51.487289 -0.044316 3,675 235 176 -320
2022-01-16 10:12:43 GMT 51.487793 -0.043277 3,700 235 176 -320
2022-01-16 10:12:42 GMT 51.488708 -0.041124 3,700 235 176 -320
2022-01-16 10:12:40 GMT 51.489212 -0.040085 3,700 235 175 -320
2022-01-16 10:12:39 GMT 51.489708 -0.038910 3,700 235 175 -320
2022-01-16 10:12:38 GMT 51.490219 -0.037842 3,725 235 175 -320
2022-01-16 10:12:36 GMT 51.491226 -0.035631 3,725 235 175 -320
2022-01-16 10:12:35 GMT 51.491711 -0.034485 3,725 235 175 -320
2022-01-16 10:12:34 GMT 51.492222 -0.033417 3,750 235 175 -320
2022-01-16 10:12:33 GMT 51.492645 -0.032514 3,750 235 175 -320
2022-01-16 10:12:32 GMT 51.493618 -0.030289 3,750 235 175 -320
2022-01-16 10:12:30 GMT 51.494038 -0.029449 3,750 234 176 -320
2022-01-16 10:12:29 GMT 51.494568 -0.028282 3,775 234 176 -384
2022-01-16 10:12:28 GMT 51.494934 -0.027466 3,775 234 175 -384
2022-01-16 10:12:25 GMT 51.496399 -0.024348 3,800 234 175 -384
2022-01-16 10:12:24 GMT 51.497391 -0.022125 3,800 234 175 -384
2022-01-16 10:12:22 GMT 51.497902 -0.021057 3,800 233 175 -384
2022-01-16 10:12:21 GMT 51.498505 -0.019746 3,825 233 174 -384
2022-01-16 10:12:20 GMT 51.499008 -0.018706 3,825 233 175 -384
2022-01-16 10:12:19 GMT 51.500015 -0.016628 3,825 232 175 -384
2022-01-16 10:12:16 GMT 51.500793 -0.014995 3,850 231 175 -448
2022-01-16 10:12:15 GMT 51.501526 -0.013584 3,850 231 176 -448
2022-01-16 10:12:14 GMT 51.502579 -0.011580 3,850 229 176 -512
2022-01-16 10:12:12 GMT 51.503128 -0.010615 3,875 228 177 -512
2022-01-16 10:12:11 GMT 51.503628 -0.009766 3,875 226 177 -512
2022-01-16 10:12:10 GMT 51.504227 -0.008685 3,900 226 177 -512
2022-01-16 10:12:09 GMT 51.505302 -0.006943 3,900 222 178 -576
2022-01-16 10:12:07 GMT 51.505909 -0.006027 3,900 222 178 -576
2022-01-16 10:12:06 GMT 51.506790 -0.004807 3,925 220 179 -576
2022-01-16 10:12:05 GMT 51.507111 -0.004380 3,925 218 179 -576
2022-01-16 10:12:04 GMT 51.508621 -0.002672 3,950 213 181 -640
2022-01-16 10:12:02 GMT 51.509258 -0.001984 3,950 210 182 -640
2022-01-16 10:12:01 GMT 51.509903 -0.001336 3,975 208 183 -640
2022-01-16 10:11:59 GMT 51.511169 -0.000305 4,000 203 185 -640
2022-01-16 10:11:57 GMT 51.512753 0.000687 4,000 198 187 -640
2022-01-16 10:11:56 GMT 51.513519 0.001113 4,025 195 187 -640
2022-01-16 10:11:55 GMT 51.514709 0.001633 4,025 193 189 -704
2022-01-16 10:11:54 GMT 51.515533 0.001930 4,050 191 189 -704
2022-01-16 10:11:53 GMT 51.517090 0.002375 4,050 188 190 -704
2022-01-16 10:11:51 GMT 51.518005 0.002524 4,075 184 192 -704
2022-01-16 10:11:49 GMT 51.519875 0.002670 4,100 179 194 -640
2022-01-16 10:11:48 GMT 51.520760 0.002670 4,100 178 195 -640
2022-01-16 10:11:47 GMT 51.522629 0.002524 4,125 175 196 -640
2022-01-16 10:11:45 GMT 51.523643 0.002441 4,150 175 196 -640
2022-01-16 10:11:44 GMT 51.524643 0.002301 4,150 174 196 -640
2022-01-16 10:11:43 GMT 51.525089 0.002213 4,150 173 197 -640
2022-01-16 10:11:41 GMT 51.526978 0.001856 4,175 173 198 -640
2022-01-16 10:11:40 GMT 51.528160 0.001678 4,200 173 198 -640
2022-01-16 10:11:39 GMT 51.529091 0.001526 4,200 173 198 -640
2022-01-16 10:11:38 GMT 51.529976 0.001373 4,225 173 198 -640
2022-01-16 10:11:36 GMT 51.531555 0.001039 4,225 173 199 -640
2022-01-16 10:11:35 GMT 51.532536 0.000916 4,250 173 199 -576
2022-01-16 10:11:34 GMT 51.533752 0.000668 4,250 173 199 -576
2022-01-16 10:11:32 GMT 51.535217 0.000371 4,275 173 199 -576
2022-01-16 10:11:30 GMT 51.537048 0.000074 4,300 173 199 -576
2022-01-16 10:11:28 GMT 51.539246 -0.000297 4,300 173 199 -576
2022-01-16 10:11:26 GMT 51.540588 -0.000610 4,325 173 199 -512
2022-01-16 10:11:25 GMT 51.541443 -0.000742 4,325 173 199 -512
2022-01-16 10:11:24 GMT 51.542358 -0.000891 4,350 173 200 -512
2022-01-16 10:11:23 GMT 51.543335 -0.001068 4,350 173 200 -448
2022-01-16 10:11:22 GMT 51.545471 -0.001485 4,350 173 201 -384
2022-01-16 10:11:20 GMT 51.546501 -0.001678 4,375 173 201 -384
2022-01-16 10:11:19 GMT 51.547245 -0.001831 4,375 172 201 -384
2022-01-16 10:11:18 GMT 51.548264 -0.002004 4,375 172 202 -512
2022-01-16 10:11:17 GMT 51.549992 -0.002365 4,400 172 203 -576
2022-01-16 10:11:15 GMT 51.551056 -0.002598 4,400 172 203 -576
2022-01-16 10:11:14 GMT 51.552040 -0.002823 4,400 172 204 -576
2022-01-16 10:11:12 GMT 51.553848 -0.003192 4,425 171 205 -576
2022-01-16 10:11:11 GMT 51.554810 -0.003415 4,425 171 206 -448
2022-01-16 10:11:10 GMT 51.555908 -0.003712 4,450 170 207 -512
2022-01-16 10:11:09 GMT 51.556976 -0.003967 4,450 170 207 -512
2022-01-16 10:11:07 GMT 51.558464 -0.004349 4,475 170 208 -512
2022-01-16 10:11:06 GMT 51.559525 -0.004677 4,475 168 209 -512
2022-01-16 10:11:05 GMT 51.560486 -0.004974 4,475 167 209 -576
2022-01-16 10:11:03 GMT 51.561909 -0.005493 4,500 166 212 -576
2022-01-16 10:11:02 GMT 51.563213 -0.006027 4,500 166 212 -576
2022-01-16 10:11:01 GMT 51.564102 -0.006384 4,500 164 213 -576
2022-01-16 10:11:00 GMT 51.565063 -0.006755 4,525 162 216 -576
2022-01-16 10:10:59 GMT 51.566162 -0.007349 4,525 160 217 -576
2022-01-16 10:10:58 GMT 51.567032 -0.007858 4,550 158 218 -576
2022-01-16 10:10:56 GMT 51.568817 -0.008982 4,550 155 222 -576
2022-01-16 10:10:55 GMT 51.569778 -0.009650 4,575 153 224 -576
2022-01-16 10:10:54 GMT 51.570618 -0.010300 4,600 151 225 -576
2022-01-16 10:10:52 GMT 51.572342 -0.011803 4,600 148 228 -576
2022-01-16 10:10:51 GMT 51.574059 -0.013428 4,600 145 232 -512
2022-01-16 10:10:49 GMT 51.575043 -0.014549 4,625 145 232 -512
2022-01-16 10:10:48 GMT 51.576389 -0.016022 4,625 144 233 -512
2022-01-16 10:10:47 GMT 51.577148 -0.016925 4,625 142 238 -448
2022-01-16 10:10:46 GMT 51.577923 -0.017929 4,650 142 238 -448
2022-01-16 10:10:45 GMT 51.579254 -0.019523 4,650 141 239 -512
2022-01-16 10:10:43 GMT 51.580902 -0.021591 4,675 141 241 -576
2022-01-16 10:10:42 GMT 51.581680 -0.022641 4,675 141 241 -576
2022-01-16 10:10:41 GMT 51.582733 -0.023977 4,675 141 243 -640
2022-01-16 10:10:40 GMT 51.583511 -0.025024 4,700 141 244 -640
2022-01-16 10:10:39 GMT 51.584335 -0.025981 4,700 141 245 -640
2022-01-16 10:10:37 GMT 51.585754 -0.027837 4,725 141 246 -640
2022-01-16 10:10:36 GMT 51.586723 -0.029068 4,725 141 246 -640
2022-01-16 10:10:35 GMT 51.587540 -0.030138 4,750 141 248 -576
2022-01-16 10:10:34 GMT 51.588593 -0.031474 4,750 141 249 -576
2022-01-16 10:10:33 GMT 51.590424 -0.033776 4,775 141 250 -704
2022-01-16 10:10:30 GMT 51.592495 -0.036469 4,800 141 251 -768
2022-01-16 10:10:27 GMT 51.594685 -0.039215 4,825 141 254 -768
2022-01-16 10:10:26 GMT 51.595615 -0.040436 4,825 141 254 -640
2022-01-16 10:10:25 GMT 51.597477 -0.042801 4,850 141 256 -640
2022-01-16 10:10:23 GMT 51.598480 -0.044020 4,875 141 257 -704
2022-01-16 10:10:22 GMT 51.601200 -0.047455 4,875 141 257 -768
2022-01-16 10:10:20 GMT 51.601200 -0.047455 4,900 141 258 -768
2022-01-16 10:10:19 GMT 51.602131 -0.048676 4,925 141 258 -768
2022-01-16 10:10:18 GMT 51.602966 -0.049735 4,950 141 258 -768
2022-01-16 10:10:17 GMT 51.603928 -0.050923 4,950 141 259 -768
2022-01-16 10:10:16 GMT 51.606834 -0.054626 4,975 141 259 -768
2022-01-16 10:10:14 GMT 51.606834 -0.054626 5,000 141 259 -832
2022-01-16 10:10:12 GMT 51.608135 -0.056305 5,000 141 260 -832
2022-01-16 10:10:11 GMT 51.609486 -0.057983 5,025 141 260 -896
2022-01-16 10:10:10 GMT 51.610416 -0.059128 5,025 141 260 -896
2022-01-16 10:10:09 GMT 51.611767 -0.060806 5,050 141 261 -960
2022-01-16 10:10:08 GMT 51.612698 -0.062027 5,075 141 261 -1024
2022-01-16 10:10:07 GMT 51.615353 -0.065384 5,125 141 261 -1024
2022-01-16 10:10:05 GMT 51.615353 -0.065384 5,125 141 262 -1024
2022-01-16 10:10:03 GMT 51.617340 -0.067922 5,150 141 262 -1024
2022-01-16 10:10:02 GMT 51.618301 -0.069110 5,175 141 262 -1024
2022-01-16 10:10:01 GMT 51.620289 -0.071640 5,200 141 262 -960
2022-01-16 10:09:58 GMT 51.622196 -0.074005 5,250 141 262 -1024
2022-01-16 10:09:57 GMT 51.623062 -0.075123 5,275 141 262 -960
2022-01-16 10:09:55 GMT 51.624477 -0.076904 5,325 141 262 -960
2022-01-16 10:09:53 GMT 51.626862 -0.079948 5,325 141 262 -1024
2022-01-16 10:09:51 GMT 51.628296 -0.081787 5,350 141 262 -1024
2022-01-16 10:09:50 GMT 51.630947 -0.085144 5,400 141 262 -1024
2022-01-16 10:09:48 GMT 51.631924 -0.086365 5,425 141 262 -1024
2022-01-16 10:09:47 GMT 51.632767 -0.087445 5,450 141 262 -1024
2022-01-16 10:09:45 GMT 51.634579 -0.089722 5,450 141 262 -960
2022-01-16 10:09:43 GMT 51.636383 -0.092048 5,500 141 262 -960
2022-01-16 10:09:42 GMT 51.638260 -0.094423 5,525 141 261 -960
2022-01-16 10:09:40 GMT 51.639328 -0.095749 5,550 141 261 -960
2022-01-16 10:09:39 GMT 51.640182 -0.096873 5,550 141 261 -960
2022-01-16 10:09:37 GMT 51.643387 -0.100955 5,600 141 261 -896
2022-01-16 10:09:35 GMT 51.644348 -0.102217 5,625 141 261 -896
2022-01-16 10:09:34 GMT 51.645309 -0.103405 5,625 141 261 -896
2022-01-16 10:09:33 GMT 51.646225 -0.104593 5,650 141 261 -960
2022-01-16 10:09:32 GMT 51.647186 -0.105855 5,650 141 261 -960
2022-01-16 10:09:29 GMT 51.649475 -0.108750 5,700 141 261 -896
2022-01-16 10:09:28 GMT 51.650871 -0.110550 5,725 141 261 -832
2022-01-16 10:09:27 GMT 51.651352 -0.111125 5,750 141 261 -768
2022-01-16 10:09:26 GMT 51.652313 -0.112387 5,750 141 261 -704
2022-01-16 10:09:25 GMT 51.653275 -0.113575 5,775 141 261 -704
2022-01-16 10:09:24 GMT 51.655518 -0.116470 5,800 141 261 -704
2022-01-16 10:09:22 GMT 51.656479 -0.117732 5,800 141 261 -704
2022-01-16 10:09:21 GMT 51.657440 -0.118920 5,825 141 261 -704
2022-01-16 10:09:20 GMT 51.658401 -0.120107 5,825 141 261 -704
2022-01-16 10:09:19 GMT 51.659317 -0.121369 5,825 141 261 -704
2022-01-16 10:09:17 GMT 51.661240 -0.123745 5,850 141 261 -704
2022-01-16 10:09:16 GMT 51.662155 -0.125007 5,875 141 261 -704
2022-01-16 10:09:15 GMT 51.663116 -0.126194 5,875 141 261 -704
2022-01-16 10:09:14 GMT 51.664078 -0.127382 5,875 141 261 -704
2022-01-16 10:09:13 GMT 51.664993 -0.128644 5,900 141 261 -768
2022-01-16 10:09:11 GMT 51.666916 -0.131019 5,925 141 261 -768
2022-01-16 10:09:10 GMT 51.667957 -0.132370 5,925 141 261 -704
2022-01-16 10:09:09 GMT 51.668888 -0.133591 5,950 141 262 -704
2022-01-16 10:09:08 GMT 51.669937 -0.134954 5,950 141 262 -704
2022-01-16 10:09:07 GMT 51.671726 -0.137253 5,975 141 262 -640
2022-01-16 10:09:05 GMT 51.672520 -0.138245 5,975 141 262 -704
2022-01-16 10:09:04 GMT 51.674751 -0.141144 6,025 141 262 -768
2022-01-16 10:09:02 GMT 51.675545 -0.142136 6,025 141 262 -768
2022-01-16 10:09:01 GMT 51.676476 -0.143356 6,025 141 262 -768
2022-01-16 10:09:00 GMT 51.677307 -0.144455 6,075 141 262 -640
2022-01-16 10:08:58 GMT 51.679314 -0.147018 6,125 141 262 -704
2022-01-16 10:08:56 GMT 51.680851 -0.148926 6,125 141 262 -704
2022-01-16 10:08:54 GMT 51.683029 -0.151730 6,125 141 263 -704
2022-01-16 10:08:53 GMT 51.685787 -0.155334 6,150 141 263 -704
2022-01-16 10:08:51 GMT 51.685787 -0.155334 6,150 141 262 -704
2022-01-16 10:08:50 GMT 51.686718 -0.156555 6,175 141 262 -704
2022-01-16 10:08:48 GMT 51.688522 -0.158856 6,200 141 262 -704
2022-01-16 10:08:46 GMT 51.690445 -0.161306 6,225 141 262 -704
2022-01-16 10:08:45 GMT 51.691650 -0.162888 6,225 141 262 -640
2022-01-16 10:08:43 GMT 51.693562 -0.165329 6,250 141 263 -704
2022-01-16 10:08:41 GMT 51.695282 -0.167542 6,275 141 263 -768
2022-01-16 10:08:40 GMT 51.696304 -0.168878 6,275 141 263 -768
2022-01-16 10:08:39 GMT 51.697144 -0.169983 6,300 141 263 -704
2022-01-16 10:08:38 GMT 51.698227 -0.171327 6,300 141 263 -768
2022-01-16 10:08:36 GMT 51.700104 -0.173777 6,325 141 264 -832
2022-01-16 10:08:34 GMT 51.701569 -0.175629 6,350 141 264 -832
2022-01-16 10:08:33 GMT 51.703056 -0.177612 6,375 141 264 -832
2022-01-16 10:08:32 GMT 51.704033 -0.178833 6,375 141 264 -896
2022-01-16 10:08:31 GMT 51.705013 -0.180054 6,400 141 264 -896
2022-01-16 10:08:29 GMT 51.706833 -0.182388 6,425 141 265 -896
2022-01-16 10:08:27 GMT 51.708755 -0.184838 6,450 141 265 -896
2022-01-16 10:08:26 GMT 51.709991 -0.186462 6,475 141 265 -896
2022-01-16 10:08:25 GMT 51.710972 -0.187683 6,500 141 266 -896
2022-01-16 10:08:24 GMT 51.711903 -0.188904 6,500 141 266 -896
2022-01-16 10:08:22 GMT 51.713379 -0.190702 6,525 141 266 -896
2022-01-16 10:08:21 GMT 51.714417 -0.192108 6,550 141 266 -832
2022-01-16 10:08:20 GMT 51.715393 -0.193329 6,575 141 266 -832
2022-01-16 10:08:19 GMT 51.716263 -0.194413 6,575 141 266 -832
2022-01-16 10:08:18 GMT 51.717300 -0.195770 6,600 141 266 -832
2022-01-16 10:08:16 GMT 51.719147 -0.198125 6,625 141 266 -704
2022-01-16 10:08:14 GMT 51.721958 -0.201721 6,625 141 267 -704
2022-01-16 10:08:12 GMT 51.722935 -0.202942 6,650 141 267 -704
2022-01-16 10:08:11 GMT 51.723911 -0.204163 6,675 141 267 -704
2022-01-16 10:08:09 GMT 51.726238 -0.207138 6,700 141 267 -704
2022-01-16 10:08:08 GMT 51.727219 -0.208359 6,725 141 267 -704
2022-01-16 10:08:07 GMT 51.727776 -0.209122 6,725 141 267 -704
2022-01-16 10:08:06 GMT 51.729813 -0.211710 6,725 141 267 -704
2022-01-16 10:08:04 GMT 51.730820 -0.212971 6,750 141 268 -640
2022-01-16 10:08:03 GMT 51.731781 -0.214159 6,750 141 268 -640
2022-01-16 10:08:02 GMT 51.732849 -0.215530 6,775 141 268 -640
2022-01-16 10:08:01 GMT 51.734848 -0.218168 6,800 141 268 -704
2022-01-16 10:07:58 GMT 51.736900 -0.220795 6,825 141 267 -704
2022-01-16 10:07:56 GMT 51.739700 -0.224403 6,850 141 267 -640
2022-01-16 10:07:53 GMT 51.741741 -0.226974 6,875 141 268 -512
2022-01-16 10:07:52 GMT 51.742630 -0.228115 6,875 141 268 -512
2022-01-16 10:07:51 GMT 51.743698 -0.229492 6,875 141 268 -576
2022-01-16 10:07:50 GMT 51.746582 -0.233231 6,900 141 268 -640
2022-01-16 10:07:48 GMT 51.746582 -0.233231 6,925 141 268 -640
2022-01-16 10:07:47 GMT 51.747620 -0.234647 6,925 141 268 -512
2022-01-16 10:07:46 GMT 51.748627 -0.235835 6,925 141 268 -512
2022-01-16 10:07:45 GMT 51.750137 -0.237839 6,950 141 268 -448
2022-01-16 10:07:43 GMT 51.751144 -0.239101 6,950 141 269 -448
2022-01-16 10:07:42 GMT 51.752586 -0.241013 6,975 141 269 -320
2022-01-16 10:07:41 GMT 51.753662 -0.242367 6,975 141 269 -256
2022-01-16 10:07:40 GMT 51.754990 -0.244149 6,975 141 269 -256
2022-01-16 10:07:38 GMT 51.756451 -0.246048 6,975 141 269 -320
2022-01-16 10:07:37 GMT 51.757431 -0.247269 7,000 141 269 -192
2022-01-16 10:07:35 GMT 51.759064 -0.249419 7,000 141 269 -64
2022-01-16 10:07:33 GMT 51.760548 -0.251312 7,000 141 268 -64
2022-01-16 10:07:32 GMT 51.762875 -0.254364 6,975 140 269 64
2022-01-16 10:07:30 GMT 51.764694 -0.256768 6,975 140 269 -64
2022-01-16 10:07:28 GMT 51.765656 -0.258030 6,975 140 269 -128
2022-01-16 10:07:27 GMT 51.766506 -0.259171 6,975 140 270 -128
2022-01-16 10:07:26 GMT 51.767395 -0.260257 6,975 140 270 -128
2022-01-16 10:07:25 GMT 51.769730 -0.263375 7,000 140 270 -128
2022-01-16 10:07:23 GMT 51.770691 -0.264637 7,000 140 270 0
2022-01-16 10:07:22 GMT 51.771286 -0.265379 7,000 140 270 0
2022-01-16 10:07:21 GMT 51.772614 -0.267235 7,000 140 271 0
2022-01-16 10:07:20 GMT 51.774536 -0.269759 7,000 140 271 -64
2022-01-16 10:07:18 GMT 51.775444 -0.270920 7,000 140 272 -64
2022-01-16 10:07:17 GMT 51.776505 -0.272357 7,000 139 273 -64
2022-01-16 10:07:16 GMT 51.778427 -0.275029 6,975 139 275 0
2022-01-16 10:07:14 GMT 51.779308 -0.276184 6,975 139 275 0
2022-01-16 10:07:13 GMT 51.780350 -0.277702 7,000 138 276 0
2022-01-16 10:07:12 GMT 51.781219 -0.278931 7,000 138 277 64
2022-01-16 10:07:11 GMT 51.782196 -0.280228 6,975 138 278 64
2022-01-16 10:07:09 GMT 51.783916 -0.282745 6,975 137 280 0
2022-01-16 10:07:08 GMT 51.784847 -0.284195 6,975 136 282 64
2022-01-16 10:07:07 GMT 51.785828 -0.285568 6,975 136 282 128
2022-01-16 10:07:06 GMT 51.787766 -0.288688 6,975 134 284 128
2022-01-16 10:07:04 GMT 51.788727 -0.290173 6,975 133 286 0
2022-01-16 10:07:02 GMT 51.790436 -0.293121 6,975 131 288 0
2022-01-16 10:07:01 GMT 51.791428 -0.294849 6,975 130 290 0
2022-01-16 10:07:00 GMT 51.794437 -0.300674 6,975 128 292 -64
2022-01-16 10:06:58 GMT 51.794437 -0.300674 6,975 127 293 -128
2022-01-16 10:06:56 GMT 51.795822 -0.303683 6,975 125 295 -128
2022-01-16 10:06:54 GMT 51.797466 -0.307465 6,975 124 295 -128
2022-01-16 10:06:53 GMT 51.798157 -0.309102 6,975 123 296 -64
2022-01-16 10:06:52 GMT 51.799000 -0.311127 7,000 123 297 -64
2022-01-16 10:06:51 GMT 51.799747 -0.312958 6,975 122 297 -64
2022-01-16 10:06:49 GMT 51.801235 -0.316696 7,000 122 298 -64
2022-01-16 10:06:48 GMT 51.801910 -0.318381 7,000 122 298 -64
2022-01-16 10:06:47 GMT 51.802586 -0.320053 7,000 122 298 -64
2022-01-16 10:06:46 GMT 51.804073 -0.323868 7,000 122 299 -64
2022-01-16 10:06:44 GMT 51.804886 -0.325878 7,000 122 300 0
2022-01-16 10:06:43 GMT 51.805664 -0.327734 7,000 122 300 0
2022-01-16 10:06:42 GMT 51.806496 -0.329819 6,975 122 300 -64
2022-01-16 10:06:41 GMT 51.807240 -0.331726 6,975 122 301 -64
2022-01-16 10:06:38 GMT 51.809662 -0.337753 6,975 122 303 -64
2022-01-16 10:06:37 GMT 51.810127 -0.338898 6,975 122 305 -64
2022-01-16 10:06:36 GMT 51.812408 -0.344696 6,975 122 307 -64
2022-01-16 10:06:34 GMT 51.812408 -0.344696 6,975 122 308 -64
2022-01-16 10:06:33 GMT 51.813198 -0.346603 6,975 122 308 -64
2022-01-16 10:06:32 GMT 51.814041 -0.348742 6,975 122 309 0
2022-01-16 10:06:31 GMT 51.814922 -0.350876 6,975 122 310 0
2022-01-16 10:06:29 GMT 51.816101 -0.353789 6,975 122 313 -64
2022-01-16 10:06:28 GMT 51.816921 -0.355911 6,975 123 313 -64
2022-01-16 10:06:27 GMT 51.817795 -0.358095 6,975 122 314 -64
2022-01-16 10:06:26 GMT 51.818504 -0.359879 6,975 122 315 -64
2022-01-16 10:06:25 GMT 51.820415 -0.364609 6,975 123 317 -128
2022-01-16 10:06:23 GMT 51.821136 -0.366409 6,975 123 318 -64
2022-01-16 10:06:22 GMT 51.821960 -0.368413 6,975 122 319 -64
2022-01-16 10:06:21 GMT 51.822601 -0.369972 6,975 123 320 -128
2022-01-16 10:06:20 GMT 51.823486 -0.372162 6,975 122 321 -128
2022-01-16 10:06:19 GMT 51.824387 -0.374426 6,975 123 323 -128
2022-01-16 10:06:17 GMT 51.825909 -0.378265 7,000 123 324 -64
2022-01-16 10:06:16 GMT 51.826813 -0.380439 7,000 122 325 -192
2022-01-16 10:06:15 GMT 51.828049 -0.383530 7,000 123 326 -192
2022-01-16 10:06:14 GMT 51.828964 -0.385783 7,000 122 327 -128
2022-01-16 10:06:13 GMT 51.830292 -0.389050 7,000 122 328 -192
2022-01-16 10:06:11 GMT 51.831028 -0.390930 7,000 123 330 -256
2022-01-16 10:06:09 GMT 51.833450 -0.396918 7,025 122 332 -512
2022-01-16 10:06:07 GMT 51.834091 -0.398551 7,025 123 333 -448
2022-01-16 10:06:06 GMT 51.834961 -0.400630 7,025 122 334 -576
2022-01-16 10:06:05 GMT 51.836105 -0.403599 7,025 122 334 -640
2022-01-16 10:06:03 GMT 51.838570 -0.409698 7,075 122 337 -768
2022-01-16 10:06:01 GMT 51.839493 -0.411987 7,075 123 337 -896
2022-01-16 10:05:59 GMT 51.841187 -0.416219 7,125 122 339 -960
2022-01-16 10:05:58 GMT 51.842808 -0.420303 7,150 122 339 -960
2022-01-16 10:05:56 GMT 51.844017 -0.423279 7,175 122 340 -960
2022-01-16 10:05:54 GMT 51.844902 -0.425415 7,225 122 342 -1024
2022-01-16 10:05:52 GMT 51.846863 -0.430323 7,225 122 342 -1024
2022-01-16 10:05:51 GMT 51.847649 -0.432205 7,250 122 345 -960
2022-01-16 10:05:49 GMT 51.849976 -0.438043 7,275 122 345 -960
2022-01-16 10:05:47 GMT 51.851231 -0.441284 7,325 122 345 -1024
2022-01-16 10:05:45 GMT 51.852539 -0.444501 7,350 122 346 -1088
2022-01-16 10:05:44 GMT 51.853516 -0.446930 7,375 122 346 -1088
2022-01-16 10:05:43 GMT 51.855610 -0.452118 7,400 122 347 -1024
2022-01-16 10:05:41 GMT 51.856064 -0.453260 7,400 123 348 -1024
2022-01-16 10:05:40 GMT 51.857006 -0.455627 7,450 123 348 -1024
2022-01-16 10:05:38 GMT 51.859146 -0.460892 7,450 123 350 -1024
2022-01-16 10:05:37 GMT 51.860031 -0.463028 7,500 123 350 -1024
2022-01-16 10:05:35 GMT 51.861008 -0.465434 7,500 123 350 -1024
2022-01-16 10:05:34 GMT 51.864578 -0.474194 7,575 123 351 -1024
2022-01-16 10:05:32 GMT 51.864578 -0.474194 7,575 123 351 -1024
2022-01-16 10:05:30 GMT 51.866455 -0.478821 7,625 123 351 -1024
2022-01-16 10:05:28 GMT 51.868011 -0.482508 7,650 123 351 -1024
2022-01-16 10:05:27 GMT 51.869015 -0.484924 7,675 123 351 -1024
2022-01-16 10:05:26 GMT 51.869980 -0.487333 7,675 123 351 -1024
2022-01-16 10:05:24 GMT 51.872601 -0.493622 7,725 123 350 -960
2022-01-16 10:05:22 GMT 51.873413 -0.495572 7,750 123 350 -1088
2022-01-16 10:05:21 GMT 51.874229 -0.497513 7,800 123 350 -1088
2022-01-16 10:05:19 GMT 51.875931 -0.501659 7,800 123 350 -960
2022-01-16 10:05:18 GMT 51.876930 -0.504074 7,850 123 350 -960
2022-01-16 10:05:16 GMT 51.880047 -0.511475 7,850 123 351 -960
2022-01-16 10:05:15 GMT 51.880047 -0.511475 7,875 123 351 -960
2022-01-16 10:05:13 GMT 51.881863 -0.515823 7,900 123 351 -1024
2022-01-16 10:05:11 GMT 51.883209 -0.519030 7,925 123 351 -1024
2022-01-16 10:05:10 GMT 51.884125 -0.521257 7,950 123 351 -1024
2022-01-16 10:05:09 GMT 51.885040 -0.523409 7,975 123 351 -1024
2022-01-16 10:05:08 GMT 51.887123 -0.528412 8,000 123 351 -960
2022-01-16 10:05:06 GMT 51.888107 -0.530833 8,025 123 351 -960
2022-01-16 10:05:04 GMT 51.889824 -0.534973 8,050 123 353 -1024
2022-01-16 10:05:02 GMT 51.891724 -0.539592 8,075 123 353 -1024
2022-01-16 10:05:01 GMT 51.892570 -0.541534 8,100 123 353 -1024
2022-01-16 10:05:00 GMT 51.893456 -0.543745 8,125 123 353 -1024
2022-01-16 10:04:58 GMT 51.895084 -0.547668 8,150 123 353 -1024
2022-01-16 10:04:57 GMT 51.896118 -0.550079 8,150 123 353 -1024
2022-01-16 10:04:56 GMT 51.897133 -0.552534 8,175 123 354 -1024
2022-01-16 10:04:55 GMT 51.898018 -0.554731 8,200 123 354 -1024
2022-01-16 10:04:54 GMT 51.898949 -0.556928 8,200 123 355 -1024
2022-01-16 10:04:53 GMT 51.900951 -0.561794 8,250 123 355 -1024
2022-01-16 10:04:51 GMT 51.901932 -0.564194 8,275 123 355 -1024
2022-01-16 10:04:50 GMT 51.902847 -0.566406 8,300 123 355 -1024
2022-01-16 10:04:48 GMT 51.904442 -0.570112 8,325 123 355 -1024
2022-01-16 10:04:47 GMT 51.906509 -0.575180 8,350 123 354 -1024
2022-01-16 10:04:44 GMT 51.907974 -0.578690 8,400 123 354 -1024
2022-01-16 10:04:43 GMT 51.909256 -0.581818 8,400 123 354 -1024
2022-01-16 10:04:42 GMT 51.911751 -0.587769 8,425 123 354 -1024
2022-01-16 10:04:40 GMT 51.911751 -0.587769 8,450 123 354 -1024
2022-01-16 10:04:39 GMT 51.912636 -0.589966 8,475 124 355 -1024
2022-01-16 10:04:37 GMT 51.914383 -0.594101 8,475 124 355 -1024
2022-01-16 10:04:36 GMT 51.915428 -0.596558 8,525 124 355 -1024
2022-01-16 10:04:35 GMT 51.916214 -0.598526 8,550 124 355 -1024
2022-01-16 10:04:34 GMT 51.917988 -0.602679 8,575 124 355 -1024
2022-01-16 10:04:32 GMT 51.918823 -0.604630 8,575 124 355 -1024
2022-01-16 10:04:31 GMT 51.919739 -0.606842 8,600 124 355 -1024
2022-01-16 10:04:30 GMT 51.920654 -0.609055 8,625 124 356 -1024
2022-01-16 10:04:29 GMT 51.922970 -0.614528 8,650 124 356 -1088
2022-01-16 10:04:27 GMT 51.923901 -0.616804 8,675 124 356 -1088
2022-01-16 10:04:26 GMT 51.924458 -0.618059 8,700 124 356 -1024
2022-01-16 10:04:25 GMT 51.925716 -0.621198 8,725 124 356 -1024
2022-01-16 10:04:23 GMT 51.927475 -0.625381 8,725 124 356 -1024
2022-01-16 10:04:22 GMT 51.928436 -0.627594 8,775 124 357 -1024
2022-01-16 10:04:20 GMT 51.930370 -0.632185 8,800 124 357 -1024
2022-01-16 10:04:19 GMT 51.931412 -0.634613 8,825 124 357 -1024
2022-01-16 10:04:17 GMT 51.932877 -0.638199 8,825 124 357 -1024
2022-01-16 10:04:16 GMT 51.933792 -0.640411 8,850 124 357 -1024
2022-01-16 10:04:15 GMT 51.935028 -0.643250 8,875 124 357 -1024
2022-01-16 10:04:14 GMT 51.935772 -0.645054 8,875 124 357 -1024
2022-01-16 10:04:13 GMT 51.937634 -0.649449 8,925 124 358 -1024
2022-01-16 10:04:11 GMT 51.938644 -0.651932 8,950 124 358 -1024
2022-01-16 10:04:10 GMT 51.939377 -0.653687 8,975 124 359 -1024
2022-01-16 10:04:08 GMT 51.941437 -0.658569 8,975 124 360 -1024
2022-01-16 10:04:07 GMT 51.943314 -0.662994 9,025 124 360 -1088
2022-01-16 10:04:05 GMT 51.944412 -0.665665 9,050 124 360 -1088
2022-01-16 10:04:04 GMT 51.945267 -0.667733 9,050 124 360 -1088
2022-01-16 10:04:03 GMT 51.946289 -0.670166 9,075 124 360 -1088
2022-01-16 10:04:02 GMT 51.947205 -0.672379 9,100 124 360 -1088
2022-01-16 10:04:00 GMT 51.948994 -0.676679 9,125 124 361 -1216
2022-01-16 10:03:59 GMT 51.949924 -0.678877 9,150 124 361 -1216
2022-01-16 10:03:58 GMT 51.950775 -0.680847 9,175 124 360 -1152
2022-01-16 10:03:57 GMT 51.952652 -0.685349 9,225 124 360 -1152
2022-01-16 10:03:55 GMT 51.953568 -0.687561 9,225 124 360 -1152
2022-01-16 10:03:53 GMT 51.955555 -0.692296 9,275 124 360 -1216
2022-01-16 10:03:52 GMT 51.957417 -0.696690 9,325 124 360 -1152
2022-01-16 10:03:50 GMT 51.958397 -0.698966 9,325 124 360 -1152
2022-01-16 10:03:49 GMT 51.959244 -0.700989 9,350 124 360 -1152
2022-01-16 10:03:48 GMT 51.960159 -0.703201 9,375 124 360 -1152
2022-01-16 10:03:47 GMT 51.961121 -0.705414 9,375 124 360 -1152
2022-01-16 10:03:45 GMT 51.963051 -0.710109 9,425 124 360 -1152
2022-01-16 10:03:43 GMT 51.964588 -0.713640 9,475 124 359 -1088
2022-01-16 10:03:42 GMT 51.966450 -0.718113 9,500 124 359 -1088
2022-01-16 10:03:39 GMT 51.968811 -0.723648 9,525 124 359 -1024
2022-01-16 10:03:37 GMT 51.972198 -0.731659 9,575 124 359 -1024
2022-01-16 10:03:35 GMT 51.972198 -0.731659 9,600 124 359 -1024
2022-01-16 10:03:34 GMT 51.973015 -0.733651 9,625 124 359 -1024
2022-01-16 10:03:33 GMT 51.973946 -0.735849 9,625 124 360 -1024
2022-01-16 10:03:32 GMT 51.975292 -0.738988 9,650 124 360 -1024
2022-01-16 10:03:31 GMT 51.978088 -0.745658 9,675 124 360 -1024
2022-01-16 10:03:29 GMT 51.978088 -0.745658 9,700 124 360 -1024
2022-01-16 10:03:28 GMT 51.979156 -0.748138 9,725 124 361 -1024
2022-01-16 10:03:27 GMT 51.980072 -0.750351 9,725 124 361 -1088
2022-01-16 10:03:26 GMT 51.981949 -0.754776 9,775 124 361 -1088
2022-01-16 10:03:24 GMT 51.982910 -0.757065 9,775 124 361 -1024
2022-01-16 10:03:23 GMT 51.984238 -0.760117 9,825 124 361 -1024
2022-01-16 10:03:21 GMT 51.985630 -0.763471 9,825 124 361 -1024
2022-01-16 10:03:20 GMT 51.986481 -0.765533 9,850 124 361 -1088
2022-01-16 10:03:19 GMT 51.987537 -0.767944 9,875 124 361 -1088
2022-01-16 10:03:18 GMT 51.988468 -0.770220 9,900 124 361 -1088
2022-01-16 10:03:17 GMT 51.989399 -0.772417 9,900 124 361 -1088
2022-01-16 10:03:15 GMT 51.991013 -0.776215 9,925 124 361 -1088
2022-01-16 10:03:13 GMT 51.993073 -0.781174 9,975 124 362 -1088
2022-01-16 10:03:12 GMT 51.994034 -0.783386 10,000 124 363 -1088
2022-01-16 10:03:11 GMT 51.997173 -0.790859 10,025 124 364 -1088
2022-01-16 10:03:09 GMT 51.997173 -0.790859 10,050 124 364 -1088
2022-01-16 10:03:08 GMT 51.998016 -0.792847 10,050 124 364 -1088
2022-01-16 10:03:07 GMT 51.998566 -0.794220 10,075 124 365 -1088
2022-01-16 10:03:05 GMT 52.000854 -0.799637 10,125 124 365 -1152
2022-01-16 10:03:03 GMT 52.002064 -0.802551 10,150 124 365 -1152
2022-01-16 10:03:02 GMT 52.003510 -0.805969 10,175 124 365 -1152
2022-01-16 10:03:00 GMT 52.005386 -0.810471 10,200 124 365 -1216
2022-01-16 10:02:59 GMT 52.006714 -0.813675 10,225 124 365 -1216
2022-01-16 10:02:58 GMT 52.008533 -0.818011 10,275 124 365 -1216
2022-01-16 10:02:55 GMT 52.009918 -0.821381 10,300 123 366 -1344
2022-01-16 10:02:54 GMT 52.011139 -0.824367 10,350 123 366 -1344
2022-01-16 10:02:52 GMT 52.012985 -0.828629 10,350 123 366 -1344
2022-01-16 10:02:50 GMT 52.014496 -0.832291 10,400 123 366 -1344
2022-01-16 10:02:49 GMT 52.015514 -0.834804 10,425 123 367 -1344
2022-01-16 10:02:48 GMT 52.016968 -0.838242 10,475 124 368 -1408
2022-01-16 10:02:47 GMT 52.017883 -0.840530 10,475 123 368 -1408
2022-01-16 10:02:46 GMT 52.020584 -0.846939 10,525 123 368 -1408
2022-01-16 10:02:44 GMT 52.020584 -0.846939 10,550 123 368 -1408
2022-01-16 10:02:43 GMT 52.021614 -0.849479 10,575 123 369 -1408
2022-01-16 10:02:42 GMT 52.022644 -0.851974 10,600 123 369 -1408
2022-01-16 10:02:40 GMT 52.024082 -0.855443 10,625 123 369 -1408
2022-01-16 10:02:39 GMT 52.025116 -0.857925 10,650 123 370 -1408
2022-01-16 10:02:38 GMT 52.026077 -0.860291 10,675 123 370 -1472
2022-01-16 10:02:36 GMT 52.028000 -0.864868 10,725 123 371 -1472
2022-01-16 10:02:35 GMT 52.029991 -0.869725 10,775 123 371 -1536
2022-01-16 10:02:33 GMT 52.031067 -0.872269 10,825 123 371 -1536
2022-01-16 10:02:32 GMT 52.033356 -0.877838 10,875 123 371 -1600
2022-01-16 10:02:29 GMT 52.034786 -0.881260 10,900 123 371 -1664
2022-01-16 10:02:27 GMT 52.038418 -0.890128 11,000 123 373 -1920
2022-01-16 10:02:25 GMT 52.038418 -0.890128 11,025 123 373 -1920
2022-01-16 10:02:24 GMT 52.039398 -0.892404 11,075 123 373 -1920
2022-01-16 10:02:23 GMT 52.040817 -0.895920 11,100 123 373 -1920
2022-01-16 10:02:22 GMT 52.041306 -0.897034 11,125 123 374 -1920
2022-01-16 10:02:20 GMT 52.043335 -0.901947 11,175 123 374 -1920
2022-01-16 10:02:19 GMT 52.044479 -0.904770 11,275 123 374 -1920
2022-01-16 10:02:17 GMT 52.046288 -0.909197 11,275 123 374 -1856
2022-01-16 10:02:16 GMT 52.047546 -0.912247 11,325 123 374 -1856
2022-01-16 10:02:14 GMT 52.049103 -0.915985 11,375 123 374 -1856
2022-01-16 10:02:13 GMT 52.050152 -0.918536 11,400 123 375 -1856
2022-01-16 10:02:12 GMT 52.051025 -0.920639 11,425 123 375 -1856
2022-01-16 10:02:11 GMT 52.052059 -0.923244 11,475 123 376 -1856
2022-01-16 10:02:09 GMT 52.054012 -0.927874 11,525 123 376 -1856
2022-01-16 10:02:07 GMT 52.056061 -0.932846 11,600 123 376 -1856
2022-01-16 10:02:06 GMT 52.059044 -0.940116 11,675 123 376 -1920
2022-01-16 10:02:04 GMT 52.059044 -0.940116 11,700 123 376 -1920
2022-01-16 10:02:03 GMT 52.060089 -0.942688 11,725 123 376 -1920
2022-01-16 10:02:02 GMT 52.061096 -0.945053 11,750 123 377 -1920
2022-01-16 10:02:00 GMT 52.062950 -0.949454 11,775 123 378 -1920
2022-01-16 10:01:59 GMT 52.063931 -0.951808 11,850 123 378 -1856
2022-01-16 10:01:58 GMT 52.064804 -0.953979 11,875 123 378 -1856
2022-01-16 10:01:56 GMT 52.066631 -0.958400 11,925 124 378 -1920
2022-01-16 10:01:54 GMT 52.068512 -0.962906 11,975 124 378 -1920
2022-01-16 10:01:53 GMT 52.069561 -0.965463 12,050 124 378 -1920
2022-01-16 10:01:51 GMT 52.073891 -0.975821 12,125 124 380 -1920
2022-01-16 10:01:49 GMT 52.073891 -0.975821 12,175 124 380 -1920
2022-01-16 10:01:47 GMT 52.075848 -0.980608 12,225 124 380 -1920
2022-01-16 10:01:46 GMT 52.076870 -0.982962 12,250 124 380 -1920
2022-01-16 10:01:45 GMT 52.079803 -0.990025 12,350 124 380 -1920
2022-01-16 10:01:43 GMT 52.079803 -0.990025 12,350 124 380 -1920
2022-01-16 10:01:41 GMT 52.081573 -0.994263 12,425 124 380 -1920
2022-01-16 10:01:40 GMT 52.082657 -0.996857 12,450 124 380 -1920
2022-01-16 10:01:38 GMT 52.084259 -1.000671 12,500 124 380 -1984
2022-01-16 10:01:37 GMT 52.085449 -1.003494 12,550 124 380 -1984
2022-01-16 10:01:35 GMT 52.087418 -1.008224 12,600 124 381 -1984
2022-01-16 10:01:34 GMT 52.088425 -1.010590 12,625 124 381 -1984
2022-01-16 10:01:31 GMT 52.091400 -1.017685 12,750 124 382 -1984
2022-01-16 10:01:30 GMT 52.092361 -1.020050 12,775 124 382 -1984
2022-01-16 10:01:29 GMT 52.093369 -1.022415 12,800 124 382 -1984
2022-01-16 10:01:28 GMT 52.094147 -1.024323 12,825 124 383 -1984
2022-01-16 10:01:25 GMT 52.098053 -1.033578 12,950 124 383 -1984
2022-01-16 10:01:23 GMT 52.099136 -1.036224 13,000 124 383 -1984
2022-01-16 10:01:22 GMT 52.100006 -1.038365 13,025 124 383 -1984
2022-01-16 10:01:21 GMT 52.100922 -1.040497 13,050 124 384 -1984
2022-01-16 10:01:20 GMT 52.103825 -1.047389 13,150 124 384 -1984
2022-01-16 10:01:18 GMT 52.103825 -1.047389 13,150 124 384 -1920
2022-01-16 10:01:16 GMT 52.106197 -1.053118 13,225 124 384 -1984
2022-01-16 10:01:14 GMT 52.107697 -1.056747 13,275 124 384 -1984
2022-01-16 10:01:12 GMT 52.110203 -1.062692 13,350 124 384 -1920
2022-01-16 10:01:11 GMT 52.111130 -1.064835 13,375 124 385 -1984
2022-01-16 10:01:09 GMT 52.113144 -1.069641 13,425 124 385 -1984
2022-01-16 10:01:07 GMT 52.114517 -1.072922 13,500 124 386 -1856
2022-01-16 10:01:06 GMT 52.115936 -1.076279 13,550 124 386 -1856
2022-01-16 10:01:05 GMT 52.116859 -1.078465 13,575 124 386 -1856
2022-01-16 10:01:04 GMT 52.118069 -1.081290 13,600 124 386 -1856
2022-01-16 10:01:02 GMT 52.120071 -1.086077 13,675 124 386 -1792
2022-01-16 10:01:00 GMT 52.121613 -1.089706 13,700 124 386 -1728
2022-01-16 10:00:59 GMT 52.124168 -1.095729 13,775 124 387 -1664
2022-01-16 10:00:56 GMT 52.126282 -1.100769 13,875 124 389 -1664
2022-01-16 10:00:55 GMT 52.127193 -1.102949 13,875 124 389 -1600
2022-01-16 10:00:53 GMT 52.129616 -1.108677 13,975 124 389 -1536
2022-01-16 10:00:51 GMT 52.131664 -1.113543 13,975 124 391 -1536
2022-01-16 10:00:50 GMT 52.132782 -1.116180 14,000 124 391 -1536
2022-01-16 10:00:49 GMT 52.133713 -1.118408 14,025 124 391 -1536
2022-01-16 10:00:47 GMT 52.135620 -1.122971 14,100 124 392 -1536
2022-01-16 10:00:46 GMT 52.136551 -1.125235 14,100 124 393 -1536
2022-01-16 10:00:45 GMT 52.137573 -1.127668 14,125 124 393 -1536
2022-01-16 10:00:44 GMT 52.138599 -1.130101 14,175 124 393 -1600
2022-01-16 10:00:42 GMT 52.140518 -1.134720 14,225 124 393 -1600
2022-01-16 10:00:41 GMT 52.141571 -1.137161 14,225 124 394 -1664
2022-01-16 10:00:40 GMT 52.142578 -1.139603 14,250 124 395 -1728
2022-01-16 10:00:39 GMT 52.143997 -1.143036 14,300 124 395 -1728
2022-01-16 10:00:38 GMT 52.146057 -1.147995 14,350 124 395 -1856
2022-01-16 10:00:35 GMT 52.147705 -1.151886 14,425 124 395 -1920
2022-01-16 10:00:34 GMT 52.148712 -1.154327 14,450 124 396 -1920
2022-01-16 10:00:32 GMT 52.150658 -1.159058 14,525 124 396 -1984
2022-01-16 10:00:31 GMT 52.151680 -1.161490 14,525 124 396 -1984
2022-01-16 10:00:29 GMT 52.153656 -1.166153 14,575 124 396 -1984
2022-01-16 10:00:27 GMT 52.155304 -1.170120 14,650 124 396 -1920
2022-01-16 10:00:26 GMT 52.156799 -1.173811 14,700 124 396 -1920
2022-01-16 10:00:25 GMT 52.159378 -1.179962 14,775 124 396 -1920
2022-01-16 10:00:22 GMT 52.161209 -1.184387 14,825 124 396 -1920
2022-01-16 10:00:21 GMT 52.162262 -1.186905 14,875 124 396 -1920
2022-01-16 10:00:19 GMT 52.165226 -1.194057 14,950 124 397 -1920
2022-01-16 10:00:17 GMT 52.166252 -1.196568 15,000 124 397 -1920
2022-01-16 10:00:15 GMT 52.168396 -1.201706 15,025 124 397 -1920
2022-01-16 10:00:14 GMT 52.169449 -1.204224 15,100 124 398 -1920
2022-01-16 10:00:13 GMT 52.170502 -1.206665 15,125 124 398 -1920
2022-01-16 10:00:11 GMT 52.172676 -1.211870 15,200 124 399 -1856
2022-01-16 10:00:10 GMT 52.173698 -1.214382 15,225 124 399 -1856
2022-01-16 10:00:09 GMT 52.175674 -1.219025 15,275 124 399 -1856
2022-01-16 10:00:07 GMT 52.176956 -1.222000 15,325 125 399 -1856
2022-01-16 10:00:06 GMT 52.177891 -1.224191 15,350 125 399 -1856
2022-01-16 10:00:04 GMT 52.179192 -1.227173 15,375 125 399 -1856
2022-01-16 10:00:03 GMT 52.182312 -1.234207 15,450 128 401 -1856
2022-01-16 10:00:02 GMT 52.182312 -1.234207 15,500 128 401 -1856
2022-01-16 10:00:00 GMT 52.184097 -1.238098 15,550 128 401 -1856
2022-01-16 09:59:58 GMT 52.187618 -1.245457 15,600 129 401 -1856
2022-01-16 09:59:56 GMT 52.188904 -1.248016 15,650 129 401 -1856
2022-01-16 09:59:55 GMT 52.190094 -1.250305 15,675 130 402 -1856
2022-01-16 09:59:54 GMT 52.191158 -1.252441 15,725 131 402 -1856
2022-01-16 09:59:53 GMT 52.193527 -1.256714 15,775 132 402 -1856
2022-01-16 09:59:51 GMT 52.195267 -1.259842 15,800 133 403 -1856
2022-01-16 09:59:49 GMT 52.197720 -1.264056 15,850 134 403 -1856
2022-01-16 09:59:48 GMT 52.198883 -1.265945 15,900 134 403 -1856
2022-01-16 09:59:47 GMT 52.200165 -1.268158 15,925 135 403 -1856
2022-01-16 09:59:46 GMT 52.201630 -1.270490 15,975 135 403 -1856
2022-01-16 09:59:45 GMT 52.202980 -1.272609 16,000 136 404 -1856
2022-01-16 09:59:44 GMT 52.204468 -1.274948 16,025 136 403 -1920
2022-01-16 09:59:42 GMT 52.207169 -1.279144 16,100 136 404 -1920
2022-01-16 09:59:41 GMT 52.208496 -1.281204 16,125 136 405 -1920
2022-01-16 09:59:40 GMT 52.209732 -1.283125 16,175 136 405 -1920
2022-01-16 09:59:39 GMT 52.211243 -1.285400 16,200 136 405 -1920
2022-01-16 09:59:38 GMT 52.214619 -1.290658 16,275 136 406 -1920
2022-01-16 09:59:36 GMT 52.214619 -1.290658 16,300 136 406 -1920
2022-01-16 09:59:34 GMT 52.218716 -1.296936 16,375 136 406 -1920
2022-01-16 09:59:33 GMT 52.218716 -1.296936 16,375 136 406 -1920
2022-01-16 09:59:32 GMT 52.220066 -1.299055 16,500 136 407 -1920
2022-01-16 09:59:30 GMT 52.223511 -1.304321 16,500 136 407 -1984
2022-01-16 09:59:29 GMT 52.226761 -1.309357 16,550 136 408 -1984
2022-01-16 09:59:27 GMT 52.226761 -1.309357 16,575 136 408 -1984
2022-01-16 09:59:26 GMT 52.228260 -1.311689 16,650 136 408 -1920
2022-01-16 09:59:24 GMT 52.230606 -1.315308 16,650 136 408 -1920
2022-01-16 09:59:23 GMT 52.231979 -1.317444 16,700 136 408 -1920
2022-01-16 09:59:21 GMT 52.234589 -1.321420 16,775 136 408 -1920
2022-01-16 09:59:20 GMT 52.235939 -1.323539 16,800 136 408 -1920
2022-01-16 09:59:19 GMT 52.237617 -1.326128 16,850 136 410 -1920
2022-01-16 09:59:18 GMT 52.238968 -1.328247 16,875 136 410 -1920
2022-01-16 09:59:16 GMT 52.241714 -1.332485 16,900 136 410 -1920
2022-01-16 09:59:15 GMT 52.243240 -1.334763 16,950 136 411 -1920
2022-01-16 09:59:14 GMT 52.244614 -1.336899 17,000 136 411 -1984
2022-01-16 09:59:13 GMT 52.246033 -1.339035 17,050 136 411 -1920
2022-01-16 09:59:12 GMT 52.248650 -1.343079 17,100 136 411 -1920
2022-01-16 09:59:10 GMT 52.249878 -1.344986 17,100 136 411 -1920
2022-01-16 09:59:09 GMT 52.251396 -1.347316 17,175 136 411 -1920
2022-01-16 09:59:08 GMT 52.252625 -1.349258 17,175 136 411 -1920
2022-01-16 09:59:07 GMT 52.254318 -1.351776 17,225 136 413 -1920
2022-01-16 09:59:05 GMT 52.256935 -1.355870 17,275 136 413 -1920
2022-01-16 09:59:04 GMT 52.258484 -1.358185 17,350 136 413 -1920
2022-01-16 09:59:03 GMT 52.259727 -1.360107 17,375 136 413 -1920
2022-01-16 09:59:02 GMT 52.261230 -1.362457 17,400 136 413 -1920
2022-01-16 09:59:00 GMT 52.263592 -1.366150 17,425 136 413 -1920
2022-01-16 09:58:58 GMT 52.267044 -1.371460 17,575 136 413 -1920
2022-01-16 09:58:56 GMT 52.269836 -1.375732 17,650 136 414 -1920
2022-01-16 09:58:54 GMT 52.273323 -1.381138 17,650 136 414 -1920
2022-01-16 09:58:52 GMT 52.277344 -1.387329 17,750 136 414 -1920
2022-01-16 09:58:49 GMT 52.280411 -1.392059 17,825 136 415 -1920
2022-01-16 09:58:48 GMT 52.281235 -1.393356 17,850 136 415 -1984
2022-01-16 09:58:46 GMT 52.284027 -1.397705 17,900 136 415 -1984
2022-01-16 09:58:44 GMT 52.286961 -1.402169 17,975 136 416 -1984
2022-01-16 09:58:43 GMT 52.288467 -1.404572 18,050 136 416 -1984
2022-01-16 09:58:41 GMT 52.290546 -1.407819 18,075 136 416 -1984
2022-01-16 09:58:40 GMT 52.291809 -1.409760 18,175 136 416 -1984
2022-01-16 09:58:38 GMT 52.295296 -1.415118 18,225 136 416 -1856
2022-01-16 09:58:36 GMT 52.298218 -1.419678 18,225 136 416 -1856
2022-01-16 09:58:34 GMT 52.300880 -1.423828 18,325 136 417 -1856
2022-01-16 09:58:33 GMT 52.302429 -1.426163 18,350 136 417 -1856
2022-01-16 09:58:31 GMT 52.305069 -1.430263 18,400 136 417 -1856
2022-01-16 09:58:30 GMT 52.306465 -1.432460 18,450 136 418 -1856
2022-01-16 09:58:29 GMT 52.307739 -1.434402 18,475 136 418 -1856
2022-01-16 09:58:26 GMT 52.311630 -1.440506 18,575 136 418 -1856
2022-01-16 09:58:24 GMT 52.314289 -1.444624 18,625 136 418 -1856
2022-01-16 09:58:21 GMT 52.319080 -1.452000 18,725 136 418 -1856
2022-01-16 09:58:20 GMT 52.320480 -1.454197 18,750 136 418 -1856
2022-01-16 09:58:18 GMT 52.323273 -1.458514 18,825 136 419 -1856
2022-01-16 09:58:17 GMT 52.324669 -1.460711 18,850 136 419 -1856
2022-01-16 09:58:15 GMT 52.327461 -1.465105 18,900 136 420 -1856
2022-01-16 09:58:14 GMT 52.328857 -1.467224 18,950 136 420 -1856
2022-01-16 09:58:13 GMT 52.330124 -1.469193 18,975 136 420 -1856
2022-01-16 09:58:12 GMT 52.331421 -1.471226 19,000 136 420 -1856
2022-01-16 09:58:10 GMT 52.334106 -1.475372 19,075 136 421 -1920
2022-01-16 09:58:09 GMT 52.335609 -1.477740 19,125 136 421 -1920
2022-01-16 09:58:08 GMT 52.336899 -1.479721 19,125 136 421 -1920
2022-01-16 09:58:07 GMT 52.339737 -1.484146 19,175 136 421 -1920
2022-01-16 09:58:05 GMT 52.341156 -1.486282 19,250 136 422 -1920
2022-01-16 09:58:04 GMT 52.342255 -1.488037 19,275 136 422 -1920
2022-01-16 09:58:03 GMT 52.343948 -1.490707 19,300 136 422 -1984
2022-01-16 09:58:02 GMT 52.345367 -1.492920 19,325 136 422 -1984
2022-01-16 09:58:01 GMT 52.348366 -1.497515 19,375 136 422 -1920
2022-01-16 09:57:59 GMT 52.349758 -1.499712 19,425 136 424 -1984
2022-01-16 09:57:58 GMT 52.351158 -1.501910 19,475 136 424 -1984
2022-01-16 09:57:57 GMT 52.352737 -1.504364 19,500 136 424 -1920
2022-01-16 09:57:56 GMT 52.353996 -1.506383 19,550 136 424 -1920
2022-01-16 09:57:55 GMT 52.356834 -1.510777 19,575 136 425 -1920
2022-01-16 09:57:53 GMT 52.358280 -1.512974 19,650 136 425 -1920
2022-01-16 09:57:52 GMT 52.359398 -1.514779 19,725 136 425 -1984
2022-01-16 09:57:50 GMT 52.362797 -1.520115 19,725 136 425 -1984
2022-01-16 09:57:48 GMT 52.366798 -1.526315 19,800 136 425 -1984
2022-01-16 09:57:47 GMT 52.366798 -1.526315 19,825 136 426 -1984
2022-01-16 09:57:46 GMT 52.368347 -1.528778 19,950 136 427 -1984
2022-01-16 09:57:44 GMT 52.371506 -1.533661 19,950 136 427 -1984
2022-01-16 09:57:42 GMT 52.373642 -1.536987 19,975 136 427 -1984
2022-01-16 09:57:41 GMT 52.375214 -1.539459 20,050 136 427 -1984
2022-01-16 09:57:40 GMT 52.376480 -1.541460 20,050 136 427 -1984
2022-01-16 09:57:39 GMT 52.377926 -1.543658 20,100 136 427 -1984
2022-01-16 09:57:38 GMT 52.379368 -1.545855 20,125 136 428 -1984
2022-01-16 09:57:36 GMT 52.382534 -1.550799 20,225 136 428 -1984
2022-01-16 09:57:35 GMT 52.383930 -1.552996 20,250 136 429 -1984
2022-01-16 09:57:34 GMT 52.385094 -1.554801 20,250 136 429 -1984
2022-01-16 09:57:33 GMT 52.386814 -1.557469 20,325 136 430 -1984
2022-01-16 09:57:31 GMT 52.389423 -1.561471 20,350 136 430 -1984
2022-01-16 09:57:30 GMT 52.391006 -1.563950 20,425 136 430 -1984
2022-01-16 09:57:29 GMT 52.392426 -1.566238 20,425 136 430 -1984
2022-01-16 09:57:27 GMT 52.395630 -1.571121 20,500 136 430 -1984
2022-01-16 09:57:26 GMT 52.397049 -1.573410 20,550 136 431 -1984
2022-01-16 09:57:25 GMT 52.398514 -1.575623 20,575 136 431 -1984
2022-01-16 09:57:24 GMT 52.401398 -1.580124 20,625 136 431 -1984
2022-01-16 09:57:22 GMT 52.402691 -1.582188 20,675 136 432 -1984
2022-01-16 09:57:21 GMT 52.404411 -1.584856 20,725 136 432 -1984
2022-01-16 09:57:19 GMT 52.408184 -1.590742 20,800 136 433 -1984
2022-01-16 09:57:17 GMT 52.409775 -1.593246 20,850 136 433 -1984
2022-01-16 09:57:16 GMT 52.411072 -1.595215 20,925 136 433 -1984
2022-01-16 09:57:14 GMT 52.414124 -1.600037 20,925 136 433 -1984
2022-01-16 09:57:12 GMT 52.417168 -1.604789 20,975 136 433 -1984
2022-01-16 09:57:11 GMT 52.418610 -1.607064 21,025 136 434 -1984
2022-01-16 09:57:10 GMT 52.419891 -1.609116 21,075 136 434 -1984
2022-01-16 09:57:08 GMT 52.422939 -1.613892 21,150 136 434 -1984
2022-01-16 09:57:07 GMT 52.424385 -1.616167 21,175 136 435 -2048
2022-01-16 09:57:05 GMT 52.426991 -1.620248 21,225 136 435 -2048
2022-01-16 09:57:04 GMT 52.430481 -1.625741 21,325 136 436 -1984
2022-01-16 09:57:02 GMT 52.431927 -1.628017 21,350 136 437 -1984
2022-01-16 09:57:01 GMT 52.433414 -1.630293 21,375 136 437 -1984
2022-01-16 09:57:00 GMT 52.434998 -1.632767 21,425 136 437 -1984
2022-01-16 09:56:59 GMT 52.435867 -1.634140 21,450 136 437 -1984
2022-01-16 09:56:57 GMT 52.438797 -1.638718 21,500 136 437 -1984
2022-01-16 09:56:56 GMT 52.440811 -1.641922 21,550 136 437 -1984
2022-01-16 09:56:55 GMT 52.442276 -1.644211 21,600 136 438 -2048
2022-01-16 09:56:54 GMT 52.443741 -1.646576 21,625 136 438 -2048
2022-01-16 09:56:52 GMT 52.446823 -1.651402 21,675 136 438 -2048
2022-01-16 09:56:51 GMT 52.447540 -1.652527 21,725 136 439 -2048
2022-01-16 09:56:50 GMT 52.449150 -1.655012 21,750 136 439 -2048
2022-01-16 09:56:48 GMT 52.451935 -1.659393 21,825 136 439 -2048
2022-01-16 09:56:47 GMT 52.456650 -1.666794 21,900 136 440 -2048
2022-01-16 09:56:45 GMT 52.456650 -1.666794 21,925 136 440 -2048
2022-01-16 09:56:44 GMT 52.457947 -1.668823 21,950 136 440 -2048
2022-01-16 09:56:43 GMT 52.461205 -1.673924 22,000 136 441 -2048
2022-01-16 09:56:41 GMT 52.462372 -1.675729 22,100 136 441 -2048
2022-01-16 09:56:40 GMT 52.463699 -1.677856 22,125 136 442 -2048
2022-01-16 09:56:38 GMT 52.468281 -1.684989 22,225 136 442 -2048
2022-01-16 09:56:35 GMT 52.471344 -1.689835 22,275 136 442 -2048
2022-01-16 09:56:33 GMT 52.474194 -1.694249 22,300 136 443 -2048
2022-01-16 09:56:32 GMT 52.475510 -1.696396 22,325 136 443 -2048
2022-01-16 09:56:31 GMT 52.476379 -1.697769 22,475 136 444 -2048
2022-01-16 09:56:29 GMT 52.480106 -1.703587 22,475 136 444 -2048
2022-01-16 09:56:27 GMT 52.483040 -1.708217 22,525 136 444 -2048
2022-01-16 09:56:26 GMT 52.484528 -1.710571 22,575 136 444 -2048
2022-01-16 09:56:25 GMT 52.486019 -1.712847 22,625 136 444 -2048
2022-01-16 09:56:23 GMT 52.488831 -1.717300 22,675 136 445 -2048
2022-01-16 09:56:21 GMT 52.491806 -1.721954 22,750 136 446 -2048
2022-01-16 09:56:20 GMT 52.493748 -1.725010 22,800 136 446 -2048
2022-01-16 09:56:19 GMT 52.495377 -1.727600 22,825 136 446 -2048
2022-01-16 09:56:18 GMT 52.496727 -1.729640 22,875 136 446 -2048
2022-01-16 09:56:16 GMT 52.499542 -1.734161 22,925 136 446 -2048
2022-01-16 09:56:14 GMT 52.502403 -1.738586 23,000 136 447 -2048
2022-01-16 09:56:13 GMT 52.505493 -1.743469 23,075 136 447 -2048
2022-01-16 09:56:11 GMT 52.507153 -1.746120 23,100 136 448 -2048
2022-01-16 09:56:10 GMT 52.508514 -1.748199 23,150 136 448 -2048
2022-01-16 09:56:09 GMT 52.510132 -1.750750 23,175 136 448 -2048
2022-01-16 09:56:08 GMT 52.513275 -1.755753 23,225 136 449 -2048
2022-01-16 09:56:06 GMT 52.514786 -1.758041 23,300 136 449 -2048
2022-01-16 09:56:05 GMT 52.516090 -1.760167 23,325 136 449 -2048
2022-01-16 09:56:04 GMT 52.517761 -1.762772 23,350 136 449 -2048
2022-01-16 09:56:03 GMT 52.519272 -1.765137 23,400 136 449 -2048
2022-01-16 09:56:01 GMT 52.522377 -1.770133 23,450 136 450 -2048
2022-01-16 09:56:00 GMT 52.523758 -1.772232 23,500 136 450 -2048
2022-01-16 09:55:59 GMT 52.525543 -1.775055 23,525 136 450 -2048
2022-01-16 09:55:58 GMT 52.526894 -1.777196 23,575 136 450 -2048
2022-01-16 09:55:57 GMT 52.528244 -1.779327 23,600 136 450 -2048
2022-01-16 09:55:56 GMT 52.531265 -1.784058 23,675 136 451 -2048
2022-01-16 09:55:53 GMT 52.533371 -1.787338 23,750 136 451 -2048
2022-01-16 09:55:52 GMT 52.534882 -1.789703 23,775 136 451 -2112
2022-01-16 09:55:50 GMT 52.537739 -1.794224 23,825 136 452 -2112
2022-01-16 09:55:49 GMT 52.540009 -1.797791 23,875 136 452 -2112
2022-01-16 09:55:47 GMT 52.541649 -1.800345 23,925 136 452 -2112
2022-01-16 09:55:46 GMT 52.543900 -1.803970 23,950 136 453 -2112
2022-01-16 09:55:45 GMT 52.545605 -1.806545 24,050 136 453 -2048
2022-01-16 09:55:43 GMT 52.548477 -1.811066 24,075 136 454 -2048
2022-01-16 09:55:41 GMT 52.551773 -1.816330 24,150 136 454 -2048
2022-01-16 09:55:39 GMT 52.554199 -1.820145 24,200 136 454 -2048
2022-01-16 09:55:38 GMT 52.558136 -1.826324 24,300 136 454 -2048
2022-01-16 09:55:36 GMT 52.559647 -1.828690 24,325 136 454 -2048
2022-01-16 09:55:35 GMT 52.561012 -1.830872 24,375 136 454 -2048
2022-01-16 09:55:33 GMT 52.566010 -1.838684 24,475 136 454 -2048
2022-01-16 09:55:30 GMT 52.568275 -1.842250 24,550 136 454 -2048
2022-01-16 09:55:28 GMT 52.571457 -1.847305 24,625 136 454 -2048
2022-01-16 09:55:26 GMT 52.576355 -1.854935 24,675 136 456 -2048
2022-01-16 09:55:24 GMT 52.577679 -1.857082 24,750 136 456 -2048
2022-01-16 09:55:22 GMT 52.580566 -1.861649 24,800 136 456 -2048
2022-01-16 09:55:21 GMT 52.582241 -1.864301 24,850 136 456 -2048
2022-01-16 09:55:20 GMT 52.583908 -1.866913 24,925 136 456 -2048
2022-01-16 09:55:18 GMT 52.586803 -1.871443 24,950 136 456 -2048
2022-01-16 09:55:16 GMT 52.589828 -1.876229 25,025 136 456 -2048
2022-01-16 09:55:14 GMT 52.593018 -1.881256 25,100 136 456 -2048
2022-01-16 09:55:12 GMT 52.596085 -1.886063 25,175 136 456 -2048
2022-01-16 09:55:10 GMT 52.598675 -1.890198 25,275 136 457 -2048
2022-01-16 09:55:09 GMT 52.600937 -1.893768 25,275 136 457 -2048
2022-01-16 09:55:08 GMT 52.603409 -1.897583 25,350 136 457 -2048
2022-01-16 09:55:05 GMT 52.606590 -1.902675 25,425 136 458 -2048
2022-01-16 09:55:03 GMT 52.609940 -1.907933 25,475 136 459 -2048
2022-01-16 09:55:00 GMT 52.614716 -1.915436 25,600 136 459 -1984
2022-01-16 09:54:59 GMT 52.616364 -1.918056 25,625 136 459 0
2022-01-16 09:54:58 GMT 52.617737 -1.920242 25,650 136 459 -1984
2022-01-16 09:54:57 GMT 52.620804 -1.925125 25,700 136 460 -2048
2022-01-16 09:54:55 GMT 52.622360 -1.927490 25,775 136 461 -2048
2022-01-16 09:54:54 GMT 52.623718 -1.929670 25,800 136 461 -2048
2022-01-16 09:54:53 GMT 52.625256 -1.932103 25,825 136 461 -2048
2022-01-16 09:54:52 GMT 52.626793 -1.934535 25,900 135 461 -2048
2022-01-16 09:54:50 GMT 52.629864 -1.939401 25,950 135 461 -2112
2022-01-16 09:54:49 GMT 52.631401 -1.941833 26,000 135 461 -2112
2022-01-16 09:54:48 GMT 52.633072 -1.944504 26,025 135 462 -2176
2022-01-16 09:54:47 GMT 52.634628 -1.946945 26,050 135 462 -2176
2022-01-16 09:54:46 GMT 52.636009 -1.949132 26,075 135 462 -2176
2022-01-16 09:54:43 GMT 52.640442 -1.956253 26,200 135 463 -2176
2022-01-16 09:54:41 GMT 52.643364 -1.960903 26,250 135 463 -2176
2022-01-16 09:54:40 GMT 52.645065 -1.963577 26,300 135 463 -2240
2022-01-16 09:54:39 GMT 52.646576 -1.966019 26,350 135 463 -2240
2022-01-16 09:54:38 GMT 52.648300 -1.968750 26,375 135 463 -2240
2022-01-16 09:54:37 GMT 52.649963 -1.971436 26,425 135 463 -2240
2022-01-16 09:54:36 GMT 52.652908 -1.976127 26,500 135 464 -2176
2022-01-16 09:54:34 GMT 52.654266 -1.978302 26,525 135 464 -2112
2022-01-16 09:54:33 GMT 52.655823 -1.980743 26,575 135 464 -2112
2022-01-16 09:54:32 GMT 52.657238 -1.982954 26,600 135 464 -2048
2022-01-16 09:54:30 GMT 52.660309 -1.987898 26,650 135 464 -1984
2022-01-16 09:54:29 GMT 52.662323 -1.991043 26,700 135 464 -1920
2022-01-16 09:54:27 GMT 52.665245 -1.995745 26,775 135 464 -1792
2022-01-16 09:54:26 GMT 52.668316 -2.000610 26,850 135 464 -1664
2022-01-16 09:54:24 GMT 52.669739 -2.002869 26,850 135 465 -1600
2022-01-16 09:54:22 GMT 52.672646 -2.007516 26,900 135 465 -1536
2022-01-16 09:54:21 GMT 52.674183 -2.009949 26,900 135 465 -1472
2022-01-16 09:54:19 GMT 52.677303 -2.014893 26,975 135 466 -1472
2022-01-16 09:54:18 GMT 52.678837 -2.017325 27,000 135 466 -1472
2022-01-16 09:54:17 GMT 52.681778 -2.022018 27,025 135 466 -1472
2022-01-16 09:54:15 GMT 52.683495 -2.024780 27,075 135 467 -1472
2022-01-16 09:54:13 GMT 52.686565 -2.029724 27,125 135 467 -1472
2022-01-16 09:54:12 GMT 52.688103 -2.032157 27,200 135 467 -1472
2022-01-16 09:54:10 GMT 52.691711 -2.037811 27,200 136 468 -1472
2022-01-16 09:54:08 GMT 52.694668 -2.042515 27,275 135 468 -1472
2022-01-16 09:54:07 GMT 52.695877 -2.044477 27,275 135 468 -1472
2022-01-16 09:54:06 GMT 52.697460 -2.046988 27,300 136 469 -1472
2022-01-16 09:54:04 GMT 52.702286 -2.054672 27,375 135 470 -1472
2022-01-16 09:54:03 GMT 52.702286 -2.054672 27,375 135 470 -1472
2022-01-16 09:54:01 GMT 52.706955 -2.062149 27,425 136 471 -1472
2022-01-16 09:53:58 GMT 52.709332 -2.065822 27,500 136 471 -1472
2022-01-16 09:53:57 GMT 52.711029 -2.068558 27,525 136 472 -1472
2022-01-16 09:53:55 GMT 52.717800 -2.079320 27,600 136 473 -1472
2022-01-16 09:53:53 GMT 52.717800 -2.079320 27,625 136 473 -1472
2022-01-16 09:53:51 GMT 52.720642 -2.083793 27,675 136 474 -1472
2022-01-16 09:53:50 GMT 52.722382 -2.086563 27,700 136 474 -1472
2022-01-16 09:53:48 GMT 52.725220 -2.091064 27,750 136 474 -1536
2022-01-16 09:53:47 GMT 52.726974 -2.093759 27,775 136 475 -1536
2022-01-16 09:53:46 GMT 52.728699 -2.096558 27,825 136 475 -1536
2022-01-16 09:53:44 GMT 52.732002 -2.101842 27,900 136 475 -1536
2022-01-16 09:53:42 GMT 52.735336 -2.107086 27,900 136 477 -1536
2022-01-16 09:53:41 GMT 52.736618 -2.109070 27,925 136 477 -1472
2022-01-16 09:53:39 GMT 52.740288 -2.114868 27,975 136 477 -1472
2022-01-16 09:53:38 GMT 52.741871 -2.117379 28,025 136 478 -1536
2022-01-16 09:53:37 GMT 52.743301 -2.119675 28,050 136 478 -1536
2022-01-16 09:53:36 GMT 52.744904 -2.122192 28,075 136 478 -1536
2022-01-16 09:53:34 GMT 52.748062 -2.127228 28,125 136 479 -1536
2022-01-16 09:53:32 GMT 52.751266 -2.132339 28,175 136 480 -1536
2022-01-16 09:53:30 GMT 52.754471 -2.137375 28,225 136 481 -1536
2022-01-16 09:53:28 GMT 52.757511 -2.142177 28,275 136 482 -1536
2022-01-16 09:53:26 GMT 52.760559 -2.146988 28,325 136 483 -1536
2022-01-16 09:53:25 GMT 52.762161 -2.149582 28,350 136 483 -1536
2022-01-16 09:53:24 GMT 52.763935 -2.152379 28,375 136 483 -1536
2022-01-16 09:53:23 GMT 52.765518 -2.154890 28,400 136 483 -1600
2022-01-16 09:53:22 GMT 52.767147 -2.157479 28,425 136 483 -1600
2022-01-16 09:53:21 GMT 52.770035 -2.162109 28,500 136 485 -1536
2022-01-16 09:53:19 GMT 52.771988 -2.165170 28,500 136 485 -1536
2022-01-16 09:53:18 GMT 52.773422 -2.167435 28,550 136 485 -1536
2022-01-16 09:53:16 GMT 52.776672 -2.172623 28,625 136 485 -1728
2022-01-16 09:53:14 GMT 52.780369 -2.178510 28,650 135 486 -1728
2022-01-16 09:53:13 GMT 52.782120 -2.181320 28,675 135 486 -1728
2022-01-16 09:53:12 GMT 52.783768 -2.183914 28,700 135 486 -1664
2022-01-16 09:53:11 GMT 52.785210 -2.186201 28,725 135 486 -1600
2022-01-16 09:53:10 GMT 52.788422 -2.191380 28,775 135 486 -1664
2022-01-16 09:53:08 GMT 52.790051 -2.193970 28,800 135 486 -1600
2022-01-16 09:53:07 GMT 52.793106 -2.198868 28,850 135 486 -1664
2022-01-16 09:53:04 GMT 52.796356 -2.203979 28,925 135 486 -1728
2022-01-16 09:53:03 GMT 52.797958 -2.206573 28,950 135 486 -1664
2022-01-16 09:53:01 GMT 52.801037 -2.211469 28,975 135 486 -1664
2022-01-16 09:52:59 GMT 52.804413 -2.216949 29,075 135 487 -1664
2022-01-16 09:52:58 GMT 52.805878 -2.219238 29,100 135 487 -1600
2022-01-16 09:52:57 GMT 52.809090 -2.224418 29,175 135 487 -1600
2022-01-16 09:52:54 GMT 52.812302 -2.229597 29,200 135 487 -1664
2022-01-16 09:52:53 GMT 52.814072 -2.232437 29,225 135 487 -1664
2022-01-16 09:52:52 GMT 52.817001 -2.237091 29,275 135 487 -1664
2022-01-16 09:52:50 GMT 52.818604 -2.239685 29,300 135 488 -1664
2022-01-16 09:52:48 GMT 52.821056 -2.243565 29,375 135 488 -1664
2022-01-16 09:52:47 GMT 52.825424 -2.250595 29,425 135 489 -1664
2022-01-16 09:52:45 GMT 52.827202 -2.253453 29,475 135 489 -1664
2022-01-16 09:52:44 GMT 52.828674 -2.255783 29,500 135 489 -1664
2022-01-16 09:52:42 GMT 52.831715 -2.260751 29,575 135 490 -1664
2022-01-16 09:52:40 GMT 52.834972 -2.266009 29,575 135 490 -1664
2022-01-16 09:52:39 GMT 52.836731 -2.268829 29,625 135 490 -1664
2022-01-16 09:52:37 GMT 52.840302 -2.274628 29,700 135 490 -1664
2022-01-16 09:52:35 GMT 52.843029 -2.279035 29,750 135 490 -1664
2022-01-16 09:52:34 GMT 52.844788 -2.281952 29,750 135 490 -1664
2022-01-16 09:52:33 GMT 52.846436 -2.284546 29,800 135 490 -1728
2022-01-16 09:52:30 GMT 52.851780 -2.293239 29,900 135 491 -1728
2022-01-16 09:52:29 GMT 52.853531 -2.296143 29,900 135 491 -1728
2022-01-16 09:52:27 GMT 52.856621 -2.301086 29,975 135 491 -1728
2022-01-16 09:52:25 GMT 52.858250 -2.303755 30,025 135 492 -1792
2022-01-16 09:52:24 GMT 52.860855 -2.307914 30,050 135 492 -1856
2022-01-16 09:52:22 GMT 52.864071 -2.313171 30,125 135 492 -1856
2022-01-16 09:52:20 GMT 52.866531 -2.317123 30,175 135 492 -1920
2022-01-16 09:52:19 GMT 52.868820 -2.320786 30,225 135 493 -1984
2022-01-16 09:52:16 GMT 52.874218 -2.329415 30,350 135 493 -2112
2022-01-16 09:52:14 GMT 52.877476 -2.334673 30,400 135 493 -2176
2022-01-16 09:52:13 GMT 52.878937 -2.337036 30,425 135 493 -2240
2022-01-16 09:52:11 GMT 52.882038 -2.342050 30,500 135 494 -2304
2022-01-16 09:52:10 GMT 52.883881 -2.344971 30,550 135 494 -2368
2022-01-16 09:52:09 GMT 52.885483 -2.347565 30,600 135 494 -2496
2022-01-16 09:52:08 GMT 52.888603 -2.352565 30,675 135 494 -2624
2022-01-16 09:52:06 GMT 52.890556 -2.355704 30,725 135 494 -2688
2022-01-16 09:52:05 GMT 52.892185 -2.358372 30,775 135 493 -2944
2022-01-16 09:52:04 GMT 52.893818 -2.361040 30,825 135 493 -3008
2022-01-16 09:52:03 GMT 52.895599 -2.363892 30,875 135 493 -3008
2022-01-16 09:52:01 GMT 52.898705 -2.368888 30,975 135 493 -3200
2022-01-16 09:52:00 GMT 52.900333 -2.371556 31,075 135 493 -3264
2022-01-16 09:51:58 GMT 52.903748 -2.377090 31,100 135 493 -3328
2022-01-16 09:51:57 GMT 52.905548 -2.379953 31,225 135 492 -3456
2022-01-16 09:51:56 GMT 52.906525 -2.381522 31,250 135 492 -3520
2022-01-16 09:51:55 GMT 52.908966 -2.385483 31,375 135 492 -3520
2022-01-16 09:51:53 GMT 52.914825 -2.394943 31,475 135 491 -3520
2022-01-16 09:51:51 GMT 52.914825 -2.394943 31,600 135 491 -3264
2022-01-16 09:51:50 GMT 52.916473 -2.397537 31,625 135 491 -3264
2022-01-16 09:51:49 GMT 52.918255 -2.400434 31,700 135 491 -3136
2022-01-16 09:51:47 GMT 52.921516 -2.405613 31,800 135 491 -2496
2022-01-16 09:51:46 GMT 52.922974 -2.407990 31,850 135 491 -2240
2022-01-16 09:51:44 GMT 52.926029 -2.412990 31,925 135 492 -1728
2022-01-16 09:51:42 GMT 52.929939 -2.419268 32,000 135 492 -1472
2022-01-16 09:51:41 GMT 52.931568 -2.421936 32,000 135 492 -1344
2022-01-16 09:51:40 GMT 52.933044 -2.424240 32,025 135 494 -1344
2022-01-16 09:51:38 GMT 52.936340 -2.429581 32,050 135 495 -1344
2022-01-16 09:51:37 GMT 52.937809 -2.431902 32,050 135 496 -1344
2022-01-16 09:51:36 GMT 52.939590 -2.434845 32,075 135 497 -1280
2022-01-16 09:51:33 GMT 52.944046 -2.442025 32,125 135 499 -1216
2022-01-16 09:51:32 GMT 52.945862 -2.444916 32,175 135 499 -1216
2022-01-16 09:51:31 GMT 52.950485 -2.452393 32,225 135 502 -1216
2022-01-16 09:51:29 GMT 52.950485 -2.452393 32,225 135 502 -1152
2022-01-16 09:51:28 GMT 52.952332 -2.455366 32,250 135 502 -1152
2022-01-16 09:51:27 GMT 52.953960 -2.458034 32,275 135 504 -1152
2022-01-16 09:51:26 GMT 52.957642 -2.463998 32,275 135 504 -1152
2022-01-16 09:51:24 GMT 52.959316 -2.466666 32,350 135 505 -1088
2022-01-16 09:51:22 GMT 52.963486 -2.473373 32,400 135 507 -1152
2022-01-16 09:51:19 GMT 52.966507 -2.478256 32,400 135 507 -1152
2022-01-16 09:51:18 GMT 52.968201 -2.481003 32,425 135 508 -1216
2022-01-16 09:51:17 GMT 52.970535 -2.484818 32,450 135 508 -1216
2022-01-16 09:51:16 GMT 52.972229 -2.487488 32,475 135 509 -1216
2022-01-16 09:51:14 GMT 52.976074 -2.493740 32,525 135 510 -1216
2022-01-16 09:51:13 GMT 52.977798 -2.496486 32,550 135 510 -1216
2022-01-16 09:51:12 GMT 52.979279 -2.498932 32,550 135 511 -1216
2022-01-16 09:51:10 GMT 52.984360 -2.507172 32,600 135 511 -1216
2022-01-16 09:51:09 GMT 52.984360 -2.507172 32,625 135 511 -1216
2022-01-16 09:51:07 GMT 52.987900 -2.512887 32,650 135 513 -1280
2022-01-16 09:51:05 GMT 52.991135 -2.518158 32,700 135 514 -1344
2022-01-16 09:51:03 GMT 52.994522 -2.523651 32,750 135 514 -1408
2022-01-16 09:51:02 GMT 52.997768 -2.528896 32,775 135 516 -1408
2022-01-16 09:51:00 GMT 52.999443 -2.531642 32,825 135 516 -1472
2022-01-16 09:50:59 GMT 53.001167 -2.534389 32,850 135 516 -1472
2022-01-16 09:50:58 GMT 53.002888 -2.537136 32,875 135 517 -1536
2022-01-16 09:50:56 GMT 53.006287 -2.542707 32,925 135 518 -1600
2022-01-16 09:50:55 GMT 53.008011 -2.545454 32,950 135 518 -1600
2022-01-16 09:50:54 GMT 53.009686 -2.548279 32,975 135 518 -1600
2022-01-16 09:50:53 GMT 53.011406 -2.551025 32,975 135 519 -1664
2022-01-16 09:50:52 GMT 53.014805 -2.556597 33,000 135 519 -1792
2022-01-16 09:50:50 GMT 53.016678 -2.559662 33,075 135 519 -2048
2022-01-16 09:50:49 GMT 53.018250 -2.562169 33,100 135 519 -2112
2022-01-16 09:50:48 GMT 53.020111 -2.565231 33,150 135 519 -2240
2022-01-16 09:50:46 GMT 53.023373 -2.570565 33,200 135 519 -2432
2022-01-16 09:50:44 GMT 53.026772 -2.576137 33,275 135 519 -2624
2022-01-16 09:50:43 GMT 53.028625 -2.579269 33,375 135 519 -2624
2022-01-16 09:50:42 GMT 53.030365 -2.582016 33,375 135 519 -2688
2022-01-16 09:50:40 GMT 53.033566 -2.587359 33,475 135 519 -2752
2022-01-16 09:50:39 GMT 53.035126 -2.589874 33,500 135 518 -2752
2022-01-16 09:50:38 GMT 53.037010 -2.592930 33,550 135 518 -2816
2022-01-16 09:50:37 GMT 53.038689 -2.595677 33,600 135 518 -2880
2022-01-16 09:50:34 GMT 53.043274 -2.603226 33,775 135 517 -3008
2022-01-16 09:50:33 GMT 53.045654 -2.607117 33,800 135 516 -3008
2022-01-16 09:50:32 GMT 53.047348 -2.609940 33,850 135 516 -3008
2022-01-16 09:50:31 GMT 53.048882 -2.612392 33,900 135 516 -2944
2022-01-16 09:50:29 GMT 53.052280 -2.617964 34,000 135 515 -2944
2022-01-16 09:50:27 GMT 53.055450 -2.623291 34,100 135 514 -2944
2022-01-16 09:50:26 GMT 53.057678 -2.626910 34,150 135 514 -3008
2022-01-16 09:50:25 GMT 53.062546 -2.634964 34,300 135 513 -3072
2022-01-16 09:50:23 GMT 53.062546 -2.634964 34,300 135 513 -3072
2022-01-16 09:50:22 GMT 53.063873 -2.637177 34,325 135 513 -3136
2022-01-16 09:50:20 GMT 53.067410 -2.642997 34,425 135 512 -3136
2022-01-16 09:50:19 GMT 53.068909 -2.645493 34,475 135 511 -3008
2022-01-16 09:50:17 GMT 53.072437 -2.651315 34,600 135 511 -2944
2022-01-16 09:50:15 GMT 53.077465 -2.659555 34,750 135 510 -2816
2022-01-16 09:50:12 GMT 53.081188 -2.665597 34,925 135 509 -2688
2022-01-16 09:50:10 GMT 53.086029 -2.673569 34,975 135 509 -2624
2022-01-16 09:50:08 GMT 53.087723 -2.676315 35,025 135 509 -2496
2022-01-16 09:50:06 GMT 53.091064 -2.681732 35,100 135 509 -2496
2022-01-16 09:50:04 GMT 53.094406 -2.687225 35,200 135 509 -2432
2022-01-16 09:50:03 GMT 53.095947 -2.689712 35,200 135 509 -2368
2022-01-16 09:50:02 GMT 53.097622 -2.692377 35,250 135 509 -2368
2022-01-16 09:50:01 GMT 53.099625 -2.695689 35,300 135 509 -2368
2022-01-16 09:50:00 GMT 53.102650 -2.700617 35,375 135 508 -2368
2022-01-16 09:49:58 GMT 53.104324 -2.703283 35,400 135 508 -2368
2022-01-16 09:49:56 GMT 53.107677 -2.708776 35,500 135 508 -2304
2022-01-16 09:49:54 GMT 53.111031 -2.714189 35,550 135 508 -2304
2022-01-16 09:49:53 GMT 53.112534 -2.716684 35,600 135 508 -2240
2022-01-16 09:49:52 GMT 53.113861 -2.718881 35,625 135 508 -2240
2022-01-16 09:49:50 GMT 53.117889 -2.725394 35,775 135 508 -2176
2022-01-16 09:49:48 GMT 53.121410 -2.731153 35,775 135 508 -2112
2022-01-16 09:49:47 GMT 53.122925 -2.733634 35,850 135 508 -2112
2022-01-16 09:49:46 GMT 53.124390 -2.736080 35,875 135 508 -2112
2022-01-16 09:49:45 GMT 53.126064 -2.738827 35,900 135 509 -2112
2022-01-16 09:49:43 GMT 53.129742 -2.744886 35,975 135 509 -2048
2022-01-16 09:49:42 GMT 53.131256 -2.747288 36,000 135 509 -1984
2022-01-16 09:49:41 GMT 53.132950 -2.750035 36,025 135 509 -1984
2022-01-16 09:49:39 GMT 53.136120 -2.755226 36,100 135 509 -1920
2022-01-16 09:49:38 GMT 53.137798 -2.757972 36,125 135 509 -1856
2022-01-16 09:49:37 GMT 53.139313 -2.760472 36,150 135 509 -1856
2022-01-16 09:49:35 GMT 53.142498 -2.765647 36,225 135 509 -1792
2022-01-16 09:49:34 GMT 53.145851 -2.771220 36,275 135 510 -1792
2022-01-16 09:49:31 GMT 53.151203 -2.780026 36,350 135 510 -1792
2022-01-16 09:49:29 GMT 53.152882 -2.782772 36,375 135 511 -1728
2022-01-16 09:49:28 GMT 53.154373 -2.785270 36,425 135 511 -1728
2022-01-16 09:49:27 GMT 53.156231 -2.788265 36,450 135 511 -1664
2022-01-16 09:49:25 GMT 53.158768 -2.792411 36,475 135 511 -1600
2022-01-16 09:49:24 GMT 53.162796 -2.799003 36,550 135 511 -1536
2022-01-16 09:49:23 GMT 53.162796 -2.799003 36,550 135 511 -1472
2022-01-16 09:49:22 GMT 53.164810 -2.802298 36,575 135 512 -1408
2022-01-16 09:49:21 GMT 53.166504 -2.805045 36,600 135 513 -1280
2022-01-16 09:49:20 GMT 53.171406 -2.813065 36,650 135 513 -1216
2022-01-16 09:49:18 GMT 53.171406 -2.813065 36,650 135 514 -1088
2022-01-16 09:49:17 GMT 53.173737 -2.816943 36,675 135 514 -1088
2022-01-16 09:49:16 GMT 53.175083 -2.819205 36,700 135 514 -1024
2022-01-16 09:49:14 GMT 53.178482 -2.824779 36,725 135 516 -896
2022-01-16 09:49:13 GMT 53.180008 -2.827253 36,725 135 516 -896
2022-01-16 09:49:11 GMT 53.183395 -2.832825 36,775 135 516 -832
2022-01-16 09:49:10 GMT 53.188679 -2.841501 36,775 135 518 -832
2022-01-16 09:49:08 GMT 53.188679 -2.841501 36,775 135 518 -832
2022-01-16 09:49:07 GMT 53.190353 -2.844328 36,775 135 518 -832
2022-01-16 09:49:06 GMT 53.192230 -2.847421 36,800 135 518 -768
2022-01-16 09:49:04 GMT 53.195477 -2.852729 36,825 135 519 -768
2022-01-16 09:49:03 GMT 53.196991 -2.855268 36,825 135 519 -768
2022-01-16 09:49:01 GMT 53.202271 -2.863958 36,850 135 519 -896
2022-01-16 09:48:58 GMT 53.205826 -2.869864 36,900 135 519 -1088
2022-01-16 09:48:57 GMT 53.207394 -2.872359 36,925 135 519 -1280
2022-01-16 09:48:55 GMT 53.212646 -2.881086 36,975 135 519 -1280
2022-01-16 09:48:54 GMT 53.212646 -2.881086 36,975 135 519 -1344
2022-01-16 09:48:53 GMT 53.214516 -2.884153 37,000 135 519 -1408
2022-01-16 09:48:51 GMT 53.216400 -2.887286 37,025 135 519 -1408
2022-01-16 09:48:50 GMT 53.218285 -2.890374 37,075 135 519 -1472
2022-01-16 09:48:49 GMT 53.220009 -2.893201 37,075 135 519 -1472
2022-01-16 09:48:48 GMT 53.221684 -2.895948 37,100 135 519 -1472
2022-01-16 09:48:46 GMT 53.225082 -2.901602 37,125 135 519 -1472
2022-01-16 09:48:45 GMT 53.227505 -2.905561 37,175 135 519 -1408
2022-01-16 09:48:44 GMT 53.229179 -2.908307 37,225 135 519 -1408
2022-01-16 09:48:43 GMT 53.230728 -2.910828 37,225 135 519 -1408
2022-01-16 09:48:42 GMT 53.232422 -2.913653 37,250 135 519 -1408
2022-01-16 09:48:40 GMT 53.236176 -2.919852 37,300 135 519 -1408
2022-01-16 09:48:39 GMT 53.237698 -2.922363 37,325 135 519 -1408
2022-01-16 09:48:38 GMT 53.240070 -2.926322 37,350 135 518 -1344
2022-01-16 09:48:37 GMT 53.241795 -2.929149 37,375 135 518 -1344
2022-01-16 09:48:36 GMT 53.243637 -2.932173 37,400 135 518 -1280
2022-01-16 09:48:34 GMT 53.247025 -2.937823 37,425 135 519 -1280
2022-01-16 09:48:33 GMT 53.248592 -2.940378 37,450 135 519 -1216
2022-01-16 09:48:32 GMT 53.250267 -2.943124 37,475 135 519 -1216
2022-01-16 09:48:30 GMT 53.253014 -2.947648 37,500 135 519 -1216
2022-01-16 09:48:29 GMT 53.254852 -2.950692 37,550 135 519 -1088
2022-01-16 09:48:27 GMT 53.258461 -2.956615 37,575 135 519 -1088
2022-01-16 09:48:25 GMT 53.263535 -2.965097 37,600 135 519 -960
2022-01-16 09:48:23 GMT 53.265259 -2.967843 37,625 135 519 -960
2022-01-16 09:48:22 GMT 53.266800 -2.970389 37,650 135 519 -896
2022-01-16 09:48:20 GMT 53.270378 -2.976326 37,675 135 519 -896
2022-01-16 09:48:18 GMT 53.273449 -2.981415 37,675 135 520 -832
2022-01-16 09:48:16 GMT 53.276848 -2.986989 37,700 135 520 -832
2022-01-16 09:48:14 GMT 53.280762 -2.993461 37,750 135 520 -768
2022-01-16 09:48:12 GMT 53.287090 -3.003953 37,775 135 520 -832
2022-01-16 09:48:10 GMT 53.287090 -3.003953 37,775 135 520 -896
2022-01-16 09:48:09 GMT 53.288956 -3.007036 37,800 135 520 -832
2022-01-16 09:48:08 GMT 53.290859 -3.010092 37,825 135 520 -832
2022-01-16 09:48:06 GMT 53.294083 -3.015512 37,875 135 521 -704
2022-01-16 09:48:04 GMT 53.297836 -3.021711 37,875 135 522 -576
2022-01-16 09:48:02 GMT 53.300903 -3.026812 37,900 135 522 -576
2022-01-16 09:48:01 GMT 53.302822 -3.029884 37,900 135 522 -512
2022-01-16 09:47:59 GMT 53.306396 -3.035836 37,925 135 522 -448
2022-01-16 09:47:58 GMT 53.308090 -3.038661 37,925 135 523 -448
2022-01-16 09:47:56 GMT 53.311714 -3.044667 37,925 135 523 -448
2022-01-16 09:47:54 GMT 53.314957 -3.050040 37,925 135 523 -320
2022-01-16 09:47:53 GMT 53.316650 -3.052944 37,925 135 523 -320
2022-01-16 09:47:52 GMT 53.318558 -3.056057 37,950 135 523 -320
2022-01-16 09:47:50 GMT 53.321136 -3.060320 37,950 135 524 -320
2022-01-16 09:47:49 GMT 53.323517 -3.064322 37,950 135 524 -320
2022-01-16 09:47:48 GMT 53.325256 -3.067147 37,950 135 524 -320
2022-01-16 09:47:47 GMT 53.329544 -3.074314 37,950 135 525 -320
2022-01-16 09:47:45 GMT 53.329544 -3.074314 37,975 135 525 -320
2022-01-16 09:47:44 GMT 53.331436 -3.077427 37,975 135 525 -256
2022-01-16 09:47:43 GMT 53.333317 -3.080615 37,975 135 525 -256
2022-01-16 09:47:42 GMT 53.334869 -3.083156 37,975 135 525 -256
2022-01-16 09:47:40 GMT 53.338112 -3.088612 37,975 135 526 -192
2022-01-16 09:47:39 GMT 53.339832 -3.091440 37,975 135 526 -192
2022-01-16 09:47:38 GMT 53.341736 -3.094613 38,000 135 526 -192
2022-01-16 09:47:37 GMT 53.344162 -3.098615 38,000 135 526 -128
2022-01-16 09:47:36 GMT 53.346722 -3.102830 38,000 135 526 -128
2022-01-16 09:47:33 GMT 53.350342 -3.108895 38,000 135 526 -64
2022-01-16 09:47:32 GMT 53.352081 -3.111720 38,000 135 526 -64
2022-01-16 09:47:31 GMT 53.353615 -3.114301 38,000 135 526 -64
2022-01-16 09:47:30 GMT 53.355515 -3.117449 38,000 135 526 -64
2022-01-16 09:47:28 GMT 53.358948 -3.123178 38,000 135 526 -64
2022-01-16 09:47:27 GMT 53.360874 -3.126337 38,000 135 526 -64
2022-01-16 09:47:26 GMT 53.362381 -3.128906 38,000 135 526 -64
2022-01-16 09:47:25 GMT 53.364319 -3.132073 38,000 135 526 -64
2022-01-16 09:47:23 GMT 53.367764 -3.137808 38,000 135 526 0
2022-01-16 09:47:22 GMT 53.369659 -3.140991 38,000 135 526 -64
2022-01-16 09:47:21 GMT 53.371208 -3.143544 37,975 135 526 0
2022-01-16 09:47:20 GMT 53.372932 -3.146452 37,975 135 526 0
2022-01-16 09:47:19 GMT 53.376377 -3.152188 37,975 135 526 0
2022-01-16 09:47:17 GMT 53.377899 -3.154724 37,975 135 526 0
2022-01-16 09:47:16 GMT 53.379822 -3.157923 37,975 135 526 0
2022-01-16 09:47:13 GMT 53.385498 -3.167437 37,975 135 526 0
2022-01-16 09:47:11 GMT 53.388245 -3.171988 37,975 135 526 -64
2022-01-16 09:47:10 GMT 53.389984 -3.174892 37,975 135 526 -64
2022-01-16 09:47:08 GMT 53.393600 -3.180865 38,000 135 526 -64
2022-01-16 09:47:07 GMT 53.395325 -3.183773 38,000 135 526 -64
2022-01-16 09:47:06 GMT 53.397045 -3.186681 38,000 135 526 -64
2022-01-16 09:47:05 GMT 53.398590 -3.189253 38,000 135 526 -64
2022-01-16 09:47:04 GMT 53.402023 -3.194981 38,000 135 526 -64
2022-01-16 09:47:02 GMT 53.403717 -3.197885 38,000 135 526 -64
2022-01-16 09:47:01 GMT 53.405777 -3.201338 38,000 135 526 -64
2022-01-16 09:47:00 GMT 53.407516 -3.204163 38,000 135 526 -64
2022-01-16 09:46:59 GMT 53.411106 -3.210189 38,000 135 526 -64
2022-01-16 09:46:56 GMT 53.415249 -3.217136 38,000 135 526 -64
2022-01-16 09:46:54 GMT 53.417995 -3.221741 38,000 135 526 0
2022-01-16 09:46:52 GMT 53.421116 -3.226911 38,000 135 526 0
2022-01-16 09:46:51 GMT 53.422623 -3.229431 37,975 135 526 -64
2022-01-16 09:46:50 GMT 53.424362 -3.232335 38,000 135 526 0
2022-01-16 09:46:49 GMT 53.427795 -3.238063 38,000 135 526 -64
2022-01-16 09:46:47 GMT 53.430222 -3.242065 38,000 135 526 -64
2022-01-16 09:46:45 GMT 53.434849 -3.249853 38,000 135 526 0
2022-01-16 09:46:43 GMT 53.436893 -3.253326 38,000 135 526 64
2022-01-16 09:46:41 GMT 53.440521 -3.259330 37,975 135 526 64
2022-01-16 09:46:40 GMT 53.442062 -3.261889 38,000 135 526 64
2022-01-16 09:46:39 GMT 53.446857 -3.269967 37,975 134 525 64
2022-01-16 09:46:37 GMT 53.446857 -3.269967 37,975 134 525 64
2022-01-16 09:46:36 GMT 53.448578 -3.272795 37,975 134 525 64
2022-01-16 09:46:34 GMT 53.452148 -3.278870 37,975 134 525 64
2022-01-16 09:46:33 GMT 53.453888 -3.281773 37,975 134 525 0
2022-01-16 09:46:31 GMT 53.457470 -3.287820 38,000 134 525 -64
2022-01-16 09:46:30 GMT 53.459381 -3.290955 38,000 134 525 -64
2022-01-16 09:46:29 GMT 53.462814 -3.296683 38,000 134 525 -64
2022-01-16 09:46:26 GMT 53.465710 -3.301634 37,975 134 525 0
2022-01-16 09:46:25 GMT 53.467434 -3.304461 38,000 134 525 -64
2022-01-16 09:46:23 GMT 53.470833 -3.310278 38,000 134 525 0
2022-01-16 09:46:22 GMT 53.472748 -3.313398 37,975 134 525 0
2022-01-16 09:46:21 GMT 53.474277 -3.316013 37,975 134 525 0
2022-01-16 09:46:20 GMT 53.475815 -3.318577 37,975 134 525 0
2022-01-16 09:46:18 GMT 53.479568 -3.324934 37,975 134 525 0
2022-01-16 09:46:17 GMT 53.481117 -3.327565 37,975 134 525 0
2022-01-16 09:46:16 GMT 53.482841 -3.330392 37,975 134 526 0
2022-01-16 09:46:15 GMT 53.484566 -3.333300 37,975 134 526 0
2022-01-16 09:46:14 GMT 53.487808 -3.338745 37,975 134 526 -64
2022-01-16 09:46:11 GMT 53.491608 -3.345101 38,000 134 526 0
2022-01-16 09:46:09 GMT 53.495361 -3.351458 37,975 134 526 0
2022-01-16 09:46:07 GMT 53.498428 -3.356637 37,975 134 526 0
2022-01-16 09:46:06 GMT 53.500168 -3.359541 37,975 134 526 0
2022-01-16 09:46:05 GMT 53.501862 -3.362444 37,975 134 526 0
2022-01-16 09:46:03 GMT 53.505138 -3.367875 37,975 134 526 0
2022-01-16 09:46:02 GMT 53.506668 -3.370449 37,975 134 526 0
2022-01-16 09:46:01 GMT 53.508408 -3.373352 37,975 134 526 0
2022-01-16 09:46:00 GMT 53.510262 -3.376519 37,975 134 526 -64
2022-01-16 09:45:57 GMT 53.515594 -3.385515 37,975 134 526 -64
2022-01-16 09:45:56 GMT 53.517475 -3.388636 38,000 134 526 -64
2022-01-16 09:45:55 GMT 53.518871 -3.390979 37,975 134 526 -64
2022-01-16 09:45:53 GMT 53.522461 -3.397051 37,975 134 527 -128
2022-01-16 09:45:52 GMT 53.524200 -3.399955 38,000 134 527 -64
2022-01-16 09:45:51 GMT 53.525894 -3.402858 37,975 134 527 -64
2022-01-16 09:45:50 GMT 53.529160 -3.408347 37,975 134 527 -64
2022-01-16 09:45:48 GMT 53.530701 -3.410941 37,975 134 527 -64
2022-01-16 09:45:47 GMT 53.532604 -3.414163 37,975 134 527 -64
2022-01-16 09:45:46 GMT 53.534283 -3.416990 37,975 134 527 -64
2022-01-16 09:45:45 GMT 53.537567 -3.422477 38,000 134 527 -64
2022-01-16 09:45:43 GMT 53.539261 -3.425380 38,000 134 527 -64
2022-01-16 09:45:42 GMT 53.541172 -3.428623 38,000 134 527 -128
2022-01-16 09:45:41 GMT 53.542892 -3.431450 38,000 134 527 -128
2022-01-16 09:45:39 GMT 53.546665 -3.437832 38,000 134 527 -128
2022-01-16 09:45:38 GMT 53.548187 -3.440447 38,000 134 527 -128
2022-01-16 09:45:37 GMT 53.550434 -3.444214 38,000 134 527 -64
2022-01-16 09:45:36 GMT 53.551987 -3.446804 38,000 134 527 -64
2022-01-16 09:45:34 GMT 53.555420 -3.452611 38,000 134 527 0
2022-01-16 09:45:33 GMT 53.556953 -3.455200 37,975 134 527 0
2022-01-16 09:45:32 GMT 53.558674 -3.458108 37,975 134 526 0
2022-01-16 09:45:31 GMT 53.560398 -3.461016 38,000 134 526 0
2022-01-16 09:45:30 GMT 53.563614 -3.466500 38,000 134 526 0
2022-01-16 09:45:28 GMT 53.565193 -3.469095 38,000 134 526 -64
2022-01-16 09:45:27 GMT 53.566868 -3.472003 38,000 134 526 -64
2022-01-16 09:45:25 GMT 53.570847 -3.478664 38,000 134 526 -64
2022-01-16 09:45:24 GMT 53.572540 -3.481567 38,000 134 526 -64
2022-01-16 09:45:23 GMT 53.574234 -3.484471 38,000 134 526 -64
2022-01-16 09:45:22 GMT 53.575974 -3.487374 38,000 134 526 -64
2022-01-16 09:45:21 GMT 53.579407 -3.493103 38,000 134 526 -64
2022-01-16 09:45:19 GMT 53.581100 -3.496007 38,000 134 526 0
2022-01-16 09:45:17 GMT 53.584000 -3.500923 38,000 134 526 64
2022-01-16 09:45:15 GMT 53.587601 -3.506993 37,975 134 525 64
2022-01-16 09:45:13 GMT 53.591034 -3.512800 37,975 134 525 -64
2022-01-16 09:45:11 GMT 53.594242 -3.518291 37,975 134 525 0
2022-01-16 09:45:09 GMT 53.597488 -3.523786 37,975 134 525 -64
2022-01-16 09:45:07 GMT 53.600922 -3.529593 38,000 134 525 -64
2022-01-16 09:45:06 GMT 53.603134 -3.533397 38,000 134 525 -128
2022-01-16 09:45:04 GMT 53.606369 -3.538853 38,000 134 525 -64
2022-01-16 09:45:03 GMT 53.607929 -3.541475 38,000 134 525 -64
2022-01-16 09:45:01 GMT 53.611862 -3.548113 38,000 134 525 0
2022-01-16 09:45:00 GMT 53.613556 -3.551017 38,000 134 525 0
2022-01-16 09:44:59 GMT 53.615250 -3.553920 38,000 134 525 -64
2022-01-16 09:44:57 GMT 53.618168 -3.558762 38,000 134 525 0
2022-01-16 09:44:56 GMT 53.621750 -3.564907 37,975 134 525 0
2022-01-16 09:44:54 GMT 53.623615 -3.568052 38,000 134 524 0
2022-01-16 09:44:53 GMT 53.625137 -3.570635 38,000 134 524 0
2022-01-16 09:44:52 GMT 53.626686 -3.573222 38,000 134 524 64
2022-01-16 09:44:50 GMT 53.630264 -3.579346 38,000 134 524 64
2022-01-16 09:44:48 GMT 53.632645 -3.583348 37,975 134 524 64
2022-01-16 09:44:47 GMT 53.637085 -3.590881 37,975 134 523 64
2022-01-16 09:44:45 GMT 53.639145 -3.594334 38,000 134 523 64
2022-01-16 09:44:44 GMT 53.640839 -3.597238 37,975 134 523 64
2022-01-16 09:44:43 GMT 53.642376 -3.599880 37,975 134 523 64
2022-01-16 09:44:41 GMT 53.645599 -3.605321 37,975 134 523 128
2022-01-16 09:44:39 GMT 53.649174 -3.611432 37,975 134 523 64
2022-01-16 09:44:38 GMT 53.650894 -3.614260 37,975 134 523 64
2022-01-16 09:44:36 GMT 53.654114 -3.619760 37,975 134 523 0
2022-01-16 09:44:34 GMT 53.657368 -3.625246 37,975 134 523 0
2022-01-16 09:44:33 GMT 53.659561 -3.629020 37,975 134 523 -64
2022-01-16 09:44:31 GMT 53.662994 -3.634827 37,975 134 524 -64
2022-01-16 09:44:30 GMT 53.664490 -3.637444 37,975 134 524 -64
2022-01-16 09:44:28 GMT 53.671333 -3.648996 37,975 134 524 -64
2022-01-16 09:44:26 GMT 53.671333 -3.648996 38,000 134 524 -64
2022-01-16 09:44:25 GMT 53.673008 -3.651904 38,000 134 524 -64
2022-01-16 09:44:24 GMT 53.674896 -3.655073 37,975 134 524 -64
2022-01-16 09:44:22 GMT 53.677597 -3.659703 37,975 134 524 -64
2022-01-16 09:44:21 GMT 53.679478 -3.662890 37,975 134 524 -128
2022-01-16 09:44:20 GMT 53.683411 -3.669591 38,000 134 524 -192
2022-01-16 09:44:18 GMT 53.684418 -3.671317 38,000 134 524 -128
2022-01-16 09:44:17 GMT 53.686111 -3.674220 38,000 134 524 -128
2022-01-16 09:44:16 GMT 53.688171 -3.677673 38,000 134 524 -64
2022-01-16 09:44:15 GMT 53.689674 -3.680339 38,025 134 524 -64
2022-01-16 09:44:14 GMT 53.692932 -3.685835 38,025 134 525 -64
2022-01-16 09:44:12 GMT 53.694794 -3.689064 38,000 134 525 0
2022-01-16 09:44:11 GMT 53.696320 -3.691642 38,000 134 525 64
2022-01-16 09:44:10 GMT 53.698193 -3.694799 38,000 134 524 64
2022-01-16 09:44:09 GMT 53.703461 -3.703805 37,975 134 524 128
2022-01-16 09:44:07 GMT 53.703461 -3.703805 37,975 134 524 128
2022-01-16 09:44:06 GMT 53.705154 -3.706709 37,975 134 524 128
2022-01-16 09:44:04 GMT 53.708542 -3.712516 37,975 134 524 128
2022-01-16 09:44:03 GMT 53.710110 -3.715156 37,975 134 524 64
2022-01-16 09:44:02 GMT 53.711975 -3.718401 37,975 134 524 64
2022-01-16 09:44:01 GMT 53.713833 -3.721538 37,975 134 524 64
2022-01-16 09:43:58 GMT 53.717884 -3.728566 38,000 134 524 -64
2022-01-16 09:43:57 GMT 53.720306 -3.732605 38,000 134 524 -64
2022-01-16 09:43:54 GMT 53.725571 -3.741629 37,975 134 524 -64
2022-01-16 09:43:53 GMT 53.726898 -3.743905 37,975 134 524 -64
2022-01-16 09:43:52 GMT 53.729279 -3.747986 37,975 134 524 0
2022-01-16 09:43:51 GMT 53.731018 -3.750889 37,975 134 525 64
2022-01-16 09:43:49 GMT 53.734039 -3.756147 37,975 134 525 0
2022-01-16 09:43:47 GMT 53.737106 -3.761405 37,975 134 524 -64
2022-01-16 09:43:46 GMT 53.743069 -3.771542 37,975 134 524 0
2022-01-16 09:43:44 GMT 53.743069 -3.771542 37,975 134 525 -64
2022-01-16 09:43:43 GMT 53.744419 -3.773884 37,975 134 525 -64
2022-01-16 09:43:42 GMT 53.746140 -3.776793 38,000 134 525 -64
2022-01-16 09:43:40 GMT 53.752441 -3.787615 37,975 134 526 0
2022-01-16 09:43:38 GMT 53.752441 -3.787615 37,975 134 526 0
2022-01-16 09:43:36 GMT 53.755829 -3.793422 37,975 134 526 0
2022-01-16 09:43:35 GMT 53.761276 -3.802761 37,975 134 525 -64
2022-01-16 09:43:33 GMT 53.761276 -3.802761 37,975 134 525 -64
2022-01-16 09:43:32 GMT 53.762970 -3.805664 37,975 134 525 -128
2022-01-16 09:43:31 GMT 53.764484 -3.808298 37,975 134 525 -128
2022-01-16 09:43:30 GMT 53.767731 -3.813825 38,000 134 525 -128
2022-01-16 09:43:28 GMT 53.769604 -3.817022 38,000 134 525 -128
2022-01-16 09:43:26 GMT 53.776566 -3.829049 38,000 134 526 -64
2022-01-16 09:43:24 GMT 53.776566 -3.829049 38,000 134 526 -64
2022-01-16 09:43:22 GMT 53.780125 -3.835117 38,000 134 525 0
2022-01-16 09:43:21 GMT 53.783524 -3.840933 38,025 134 525 -64
2022-01-16 09:43:19 GMT 53.785244 -3.843922 38,000 134 525 -64
2022-01-16 09:43:18 GMT 53.786968 -3.846830 38,000 134 525 -64
2022-01-16 09:43:17 GMT 53.788643 -3.849739 38,000 134 525 0
2022-01-16 09:43:16 GMT 53.790207 -3.852356 38,000 134 525 64
2022-01-16 09:43:15 GMT 53.793392 -3.857898 37,975 134 524 64
2022-01-16 09:43:13 GMT 53.794922 -3.860517 37,975 134 524 64
2022-01-16 09:43:12 GMT 53.796661 -3.863421 37,975 134 524 0
2022-01-16 09:43:11 GMT 53.802429 -3.873308 37,975 134 524 0
2022-01-16 09:43:09 GMT 53.802429 -3.873308 38,000 134 524 -64
2022-01-16 09:43:08 GMT 53.804123 -3.876290 37,975 134 523 0
2022-01-16 09:43:06 GMT 53.807682 -3.882374 37,975 134 523 64
2022-01-16 09:43:04 GMT 53.811081 -3.888191 37,975 134 523 64
2022-01-16 09:43:02 GMT 53.813408 -3.892311 37,975 134 523 0
2022-01-16 09:43:01 GMT 53.817505 -3.899258 38,000 134 523 -64
2022-01-16 09:42:59 GMT 53.819183 -3.902166 38,000 134 523 -64
2022-01-16 09:42:58 GMT 53.820904 -3.905074 38,000 134 523 -64
2022-01-16 09:42:56 GMT 53.824303 -3.910971 38,000 134 523 -64
2022-01-16 09:42:54 GMT 53.827835 -3.917018 37,975 134 523 0
2022-01-16 09:42:53 GMT 53.829376 -3.919696 37,975 134 523 0
2022-01-16 09:42:52 GMT 53.831055 -3.922604 37,975 134 523 -64
2022-01-16 09:42:49 GMT 53.836304 -3.931614 37,975 134 523 -64
2022-01-16 09:42:47 GMT 53.839050 -3.936244 37,975 134 523 64
2022-01-16 09:42:46 GMT 53.840744 -3.939148 37,975 134 523 64
2022-01-16 09:42:45 GMT 53.843079 -3.943229 37,975 134 523 -64
2022-01-16 09:42:43 GMT 53.845623 -3.947646 38,000 134 523 -64
2022-01-16 09:42:42 GMT 53.847347 -3.950554 37,975 134 523 -64
2022-01-16 09:42:41 GMT 53.849167 -3.953744 37,975 134 523 -64
2022-01-16 09:42:39 GMT 53.852554 -3.959551 37,975 134 522 -64
2022-01-16 09:42:37 GMT 53.855942 -3.965437 38,000 134 522 -64
2022-01-16 09:42:36 GMT 53.857635 -3.968340 38,000 134 522 -64
2022-01-16 09:42:34 GMT 53.861710 -3.975324 38,000 134 522 -64
2022-01-16 09:42:33 GMT 53.863037 -3.977600 38,000 134 522 -64
2022-01-16 09:42:32 GMT 53.866425 -3.983486 38,000 134 522 -64
2022-01-16 09:42:30 GMT 53.868118 -3.986389 38,000 134 522 -64
2022-01-16 09:42:29 GMT 53.869812 -3.989293 38,000 134 522 -64
2022-01-16 09:42:28 GMT 53.871693 -3.992480 37,975 134 522 0
2022-01-16 09:42:27 GMT 53.874718 -3.997731 37,975 134 521 0
2022-01-16 09:42:25 GMT 53.876587 -4.000907 37,975 134 521 0
2022-01-16 09:42:24 GMT 53.878235 -4.003889 37,975 134 521 0
2022-01-16 09:42:23 GMT 53.882950 -4.012050 37,975 134 521 -64
2022-01-16 09:42:21 GMT 53.882950 -4.012050 38,000 134 521 -64
2022-01-16 09:42:20 GMT 53.884644 -4.014954 38,000 134 521 -64
2022-01-16 09:42:19 GMT 53.886337 -4.017857 38,000 134 521 -64
2022-01-16 09:42:18 GMT 53.890366 -4.024841 38,000 134 521 -64
2022-01-16 09:42:16 GMT 53.891895 -4.027459 37,975 134 521 0
2022-01-16 09:42:14 GMT 53.895081 -4.033003 38,000 134 521 64
2022-01-16 09:42:13 GMT 53.898788 -4.039437 38,000 134 521 -64
2022-01-16 09:42:11 GMT 53.900276 -4.041999 38,000 134 521 0
2022-01-16 09:42:10 GMT 53.901810 -4.044617 37,975 134 521 0
2022-01-16 09:42:09 GMT 53.903458 -4.047599 38,000 134 520 0
2022-01-16 09:42:08 GMT 53.905151 -4.050502 38,000 134 520 0
2022-01-16 09:42:05 GMT 53.910332 -4.059529 37,975 134 520 -64
2022-01-16 09:42:04 GMT 53.911835 -4.062116 37,975 134 520 -64
2022-01-16 09:42:03 GMT 53.913685 -4.065345 37,975 134 520 -64
2022-01-16 09:42:01 GMT 53.916870 -4.070905 38,000 134 519 -128
2022-01-16 09:41:59 GMT 53.920387 -4.076978 38,000 134 519 -128
2022-01-16 09:41:57 GMT 53.923084 -4.081663 38,000 134 520 -128
2022-01-16 09:41:56 GMT 53.925613 -4.085972 38,000 134 520 -64
2022-01-16 09:41:54 GMT 53.928116 -4.090388 38,000 134 519 -64
2022-01-16 09:41:53 GMT 53.929790 -4.093296 38,000 134 519 -64
2022-01-16 09:41:52 GMT 53.931656 -4.096488 38,000 134 519 0
2022-01-16 09:41:49 GMT 53.936646 -4.105198 38,000 134 519 64
2022-01-16 09:41:48 GMT 53.939194 -4.109533 38,000 134 519 64
2022-01-16 09:41:46 GMT 53.942173 -4.114784 37,975 134 519 64
2022-01-16 09:41:45 GMT 53.943523 -4.117126 37,975 134 518 -64
2022-01-16 09:41:44 GMT 53.945343 -4.120265 37,975 134 518 -128
2022-01-16 09:41:42 GMT 53.947853 -4.124639 37,975 134 517 -128
2022-01-16 09:41:41 GMT 53.950012 -4.128427 38,000 134 517 -256
2022-01-16 09:41:40 GMT 53.951660 -4.131330 38,000 134 518 -256
2022-01-16 09:41:39 GMT 53.953205 -4.133929 38,025 134 517 -256
2022-01-16 09:41:38 GMT 53.956375 -4.139413 38,025 134 517 -192
2022-01-16 09:41:36 GMT 53.957863 -4.142088 38,025 134 517 -128
2022-01-16 09:41:35 GMT 53.959538 -4.144915 38,025 134 517 -128
2022-01-16 09:41:34 GMT 53.962891 -4.150732 38,025 134 517 -128
2022-01-16 09:41:32 GMT 53.965218 -4.154771 38,025 134 516 -64
2022-01-16 09:41:31 GMT 53.966892 -4.157679 38,025 134 516 0
2022-01-16 09:41:30 GMT 53.968369 -4.160287 38,025 134 516 64
2022-01-16 09:41:29 GMT 53.969872 -4.162849 38,000 134 516 128
2022-01-16 09:41:28 GMT 53.973225 -4.168665 38,000 134 516 128
2022-01-16 09:41:26 GMT 53.974686 -4.171273 38,000 134 516 128
2022-01-16 09:41:25 GMT 53.976528 -4.174482 38,000 134 516 128
2022-01-16 09:41:24 GMT 53.978027 -4.177080 38,000 134 516 128
2022-01-16 09:41:23 GMT 53.979881 -4.180217 38,000 134 516 128
2022-01-16 09:41:22 GMT 53.981510 -4.183125 38,000 134 516 128
2022-01-16 09:41:21 GMT 53.984859 -4.188942 38,000 134 515 128
2022-01-16 09:41:18 GMT 53.988327 -4.194972 38,000 134 515 128
2022-01-16 09:41:17 GMT 53.990494 -4.198716 37,975 134 514 128
2022-01-16 09:41:15 GMT 53.993797 -4.204532 37,975 134 514 128
2022-01-16 09:41:13 GMT 53.996292 -4.208862 37,975 134 514 64
2022-01-16 09:41:12 GMT 53.998081 -4.212045 37,975 134 514 128
2022-01-16 09:41:10 GMT 54.001602 -4.218122 37,975 134 514 128
2022-01-16 09:41:09 GMT 54.003571 -4.221575 37,975 134 514 128
2022-01-16 09:41:08 GMT 54.005066 -4.224162 37,975 134 514 128
2022-01-16 09:41:07 GMT 54.007069 -4.227636 37,975 134 514 128
2022-01-16 09:41:05 GMT 54.010372 -4.233452 37,975 134 514 128
2022-01-16 09:41:04 GMT 54.011856 -4.236014 37,975 134 514 128
2022-01-16 09:41:02 GMT 54.015198 -4.241821 37,975 134 514 128
2022-01-16 09:41:01 GMT 54.018814 -4.248178 37,975 134 514 128
2022-01-16 09:40:59 GMT 54.020508 -4.251081 37,975 134 514 128
2022-01-16 09:40:58 GMT 54.022156 -4.253906 37,975 134 514 128
2022-01-16 09:40:57 GMT 54.023640 -4.256556 37,975 134 514 64
2022-01-16 09:40:55 GMT 54.027100 -4.262617 37,975 134 516 64
2022-01-16 09:40:54 GMT 54.028427 -4.264971 37,975 134 515 64
2022-01-16 09:40:53 GMT 54.029922 -4.267542 37,975 134 516 0
2022-01-16 09:40:52 GMT 54.031448 -4.270150 37,975 134 516 0
2022-01-16 09:40:50 GMT 54.034744 -4.275957 37,975 134 516 0
2022-01-16 09:40:49 GMT 54.036579 -4.279094 37,975 134 516 -64
2022-01-16 09:40:48 GMT 54.038086 -4.281764 37,975 134 516 -64
2022-01-16 09:40:47 GMT 54.040421 -4.285845 37,975 134 517 -64
2022-01-16 09:40:45 GMT 54.043076 -4.290475 37,975 134 517 -128
2022-01-16 09:40:43 GMT 54.046417 -4.296282 37,975 134 517 -128
2022-01-16 09:40:42 GMT 54.048752 -4.300363 37,975 134 519 -128
2022-01-16 09:40:41 GMT 54.050266 -4.303005 37,975 134 519 -128
2022-01-16 09:40:40 GMT 54.052094 -4.306170 38,000 134 519 -128
2022-01-16 09:40:39 GMT 54.053741 -4.309073 37,975 134 519 -128
2022-01-16 09:40:37 GMT 54.057251 -4.315203 38,000 134 519 -192
2022-01-16 09:40:36 GMT 54.058601 -4.317546 38,000 134 520 -192
2022-01-16 09:40:35 GMT 54.059952 -4.319889 38,000 134 520 -192
2022-01-16 09:40:34 GMT 54.061432 -4.322571 38,000 134 520 -192
2022-01-16 09:40:31 GMT 54.066833 -4.331909 38,000 134 521 -128
2022-01-16 09:40:30 GMT 54.068329 -4.334510 38,000 134 521 -128
2022-01-16 09:40:29 GMT 54.070656 -4.338630 38,000 134 521 -128
2022-01-16 09:40:28 GMT 54.071503 -4.340070 38,000 134 521 -64
2022-01-16 09:40:26 GMT 54.075359 -4.346870 38,000 134 521 -64
2022-01-16 09:40:25 GMT 54.076859 -4.349487 38,000 134 521 -64
2022-01-16 09:40:24 GMT 54.078552 -4.352469 38,000 134 521 -64
2022-01-16 09:40:22 GMT 54.081894 -4.358355 38,000 134 521 0
2022-01-16 09:40:21 GMT 54.083588 -4.361258 38,000 134 521 0
2022-01-16 09:40:20 GMT 54.085415 -4.364480 38,000 134 521 0
2022-01-16 09:40:19 GMT 54.087090 -4.367469 38,000 134 521 0
2022-01-16 09:40:18 GMT 54.088943 -4.370675 38,000 134 521 0
2022-01-16 09:40:17 GMT 54.092442 -4.376840 38,000 133 521 0
2022-01-16 09:40:15 GMT 54.094120 -4.379829 37,975 133 521 0
2022-01-16 09:40:13 GMT 54.096771 -4.384514 37,975 133 521 0
2022-01-16 09:40:12 GMT 54.098450 -4.387503 37,975 133 521 64
2022-01-16 09:40:11 GMT 54.100296 -4.390686 37,975 133 520 64
2022-01-16 09:40:09 GMT 54.103271 -4.396022 37,975 133 520 64
2022-01-16 09:40:08 GMT 54.104965 -4.398926 37,975 133 520 64
2022-01-16 09:40:07 GMT 54.106613 -4.401908 37,975 133 520 64
2022-01-16 09:40:06 GMT 54.108131 -4.404548 38,000 133 519 0
2022-01-16 09:40:04 GMT 54.111439 -4.410445 38,000 133 519 -64
2022-01-16 09:40:03 GMT 54.113766 -4.414565 38,000 134 519 -64
2022-01-16 09:40:02 GMT 54.115440 -4.417473 38,000 134 519 -64
2022-01-16 09:40:01 GMT 54.116959 -4.420114 38,000 134 519 0
2022-01-16 09:39:59 GMT 54.120255 -4.425921 37,975 134 519 0
2022-01-16 09:39:58 GMT 54.121773 -4.428621 37,975 134 518 0
2022-01-16 09:39:57 GMT 54.123276 -4.431179 37,975 134 518 64
2022-01-16 09:39:56 GMT 54.125122 -4.434437 37,975 134 518 -64
2022-01-16 09:39:55 GMT 54.126751 -4.437346 37,975 134 518 -64
2022-01-16 09:39:52 GMT 54.131607 -4.445853 37,975 134 516 64
2022-01-16 09:39:51 GMT 54.133896 -4.449934 37,975 134 516 64
2022-01-16 09:39:50 GMT 54.135410 -4.452533 38,000 134 516 0
2022-01-16 09:39:48 GMT 54.138565 -4.458095 37,975 134 516 0
2022-01-16 09:39:47 GMT 54.140064 -4.460692 37,975 134 516 64
2022-01-16 09:39:46 GMT 54.142021 -4.464165 37,975 134 516 64
2022-01-16 09:39:45 GMT 54.143696 -4.467073 37,975 134 516 0
2022-01-16 09:39:44 GMT 54.145374 -4.470062 37,975 134 516 -64
2022-01-16 09:39:43 GMT 54.148678 -4.475879 37,975 134 516 -128
2022-01-16 09:39:40 GMT 54.152161 -4.481951 37,975 134 516 -192
2022-01-16 09:39:38 GMT 54.154964 -4.486946 38,000 134 516 -128
2022-01-16 09:39:37 GMT 54.156464 -4.489563 38,000 134 516 -128
2022-01-16 09:39:36 GMT 54.158920 -4.493974 38,025 134 516 -128
2022-01-16 09:39:34 GMT 54.162224 -4.499790 38,025 134 516 -64
2022-01-16 09:39:32 GMT 54.165390 -4.505336 38,000 134 516 64
2022-01-16 09:39:30 GMT 54.168228 -4.510292 37,975 134 516 64
2022-01-16 09:39:29 GMT 54.169861 -4.513200 37,975 134 516 64
2022-01-16 09:39:28 GMT 54.171535 -4.516108 37,975 133 516 64
2022-01-16 09:39:26 GMT 54.175003 -4.522208 37,975 133 516 -64
2022-01-16 09:39:24 GMT 54.178345 -4.528094 38,000 133 516 -64
2022-01-16 09:39:23 GMT 54.179993 -4.530997 38,000 133 516 -128
2022-01-16 09:39:21 GMT 54.183826 -4.537757 38,000 134 517 -128
2022-01-16 09:39:20 GMT 54.185303 -4.540414 38,000 134 517 -128
2022-01-16 09:39:19 GMT 54.186806 -4.543008 38,000 134 517 -128
2022-01-16 09:39:17 GMT 54.190109 -4.548905 38,000 133 518 -128
2022-01-16 09:39:14 GMT 54.194916 -4.557364 38,025 133 518 64
2022-01-16 09:39:13 GMT 54.198257 -4.563250 38,000 133 518 64
2022-01-16 09:39:11 GMT 54.199745 -4.565869 38,000 133 518 64
2022-01-16 09:39:10 GMT 54.201553 -4.569135 38,000 133 518 128
2022-01-16 09:39:08 GMT 54.204727 -4.574675 38,000 133 518 128
2022-01-16 09:39:07 GMT 54.206543 -4.577924 37,975 133 518 192
2022-01-16 09:39:06 GMT 54.208237 -4.580828 37,975 133 518 192
2022-01-16 09:39:05 GMT 54.210033 -4.584045 37,975 133 518 192
2022-01-16 09:39:03 GMT 54.213181 -4.589696 37,975 133 517 128
2022-01-16 09:39:02 GMT 54.214508 -4.592050 37,975 133 517 128
2022-01-16 09:39:00 GMT 54.217995 -4.598182 37,975 133 517 128
2022-01-16 09:38:58 GMT 54.221626 -4.604645 37,975 133 517 128
2022-01-16 09:38:57 GMT 54.223301 -4.607553 37,975 133 517 128
2022-01-16 09:38:56 GMT 54.224808 -4.610256 37,975 133 517 64
2022-01-16 09:38:55 GMT 54.226608 -4.613450 37,975 133 517 64
2022-01-16 09:38:54 GMT 54.230072 -4.619673 37,975 133 517 64
2022-01-16 09:38:52 GMT 54.231586 -4.622255 37,975 133 518 64
2022-01-16 09:38:51 GMT 54.233093 -4.624930 37,975 133 518 64
2022-01-16 09:38:50 GMT 54.234741 -4.627834 37,975 133 518 64
2022-01-16 09:38:49 GMT 54.236389 -4.630816 37,975 133 518 64
2022-01-16 09:38:48 GMT 54.239548 -4.636392 37,975 133 518 64
2022-01-16 09:38:46 GMT 54.241177 -4.639381 37,975 133 518 64
2022-01-16 09:38:45 GMT 54.242706 -4.642038 37,975 133 518 64
2022-01-16 09:38:44 GMT 54.244354 -4.644941 37,975 133 518 0
2022-01-16 09:38:42 GMT 54.247833 -4.651175 37,975 133 519 -64
2022-01-16 09:38:41 GMT 54.249462 -4.654083 37,975 133 519 -64
2022-01-16 09:38:40 GMT 54.251141 -4.657072 37,975 133 519 -64
2022-01-16 09:38:39 GMT 54.252769 -4.659980 37,975 133 519 -128
2022-01-16 09:38:37 GMT 54.257584 -4.668562 38,000 133 519 -128
2022-01-16 09:38:36 GMT 54.257584 -4.668562 38,000 133 519 -128
2022-01-16 09:38:35 GMT 54.259232 -4.671544 38,000 133 519 -128
2022-01-16 09:38:33 GMT 54.262253 -4.676801 38,000 133 519 -128
2022-01-16 09:38:32 GMT 54.264542 -4.680961 38,000 133 520 -64
2022-01-16 09:38:31 GMT 54.266235 -4.683943 38,000 133 520 0
2022-01-16 09:38:30 GMT 54.267712 -4.686558 38,025 133 520 64
2022-01-16 09:38:29 GMT 54.269386 -4.689546 38,000 133 520 64
2022-01-16 09:38:28 GMT 54.272232 -4.694536 37,975 133 521 64
2022-01-16 09:38:26 GMT 54.274044 -4.697786 37,975 133 521 64
2022-01-16 09:38:25 GMT 54.275719 -4.700775 37,975 133 521 64
2022-01-16 09:38:24 GMT 54.277542 -4.704032 37,975 133 521 64
2022-01-16 09:38:22 GMT 54.280884 -4.709984 37,975 133 521 -64
2022-01-16 09:38:21 GMT 54.282578 -4.712973 37,950 133 521 -64
2022-01-16 09:38:20 GMT 54.284546 -4.716528 37,975 133 521 -64
2022-01-16 09:38:19 GMT 54.286053 -4.719211 37,975 133 521 -64
2022-01-16 09:38:18 GMT 54.287888 -4.722425 37,975 133 521 -128
2022-01-16 09:38:17 GMT 54.291229 -4.728403 37,975 133 522 -192
2022-01-16 09:38:15 GMT 54.292759 -4.731112 37,975 133 522 -192
2022-01-16 09:38:14 GMT 54.294388 -4.734025 37,975 133 522 -192
2022-01-16 09:38:12 GMT 54.297913 -4.740277 38,000 133 522 -128
2022-01-16 09:38:11 GMT 54.299561 -4.743266 38,000 133 523 -128
2022-01-16 09:38:09 GMT 54.302765 -4.748924 38,000 133 523 -128
2022-01-16 09:38:08 GMT 54.304443 -4.751920 38,000 133 523 -128
2022-01-16 09:38:07 GMT 54.306118 -4.754833 38,000 133 524 -64
2022-01-16 09:38:05 GMT 54.309471 -4.760825 37,975 133 524 -64
2022-01-16 09:38:03 GMT 54.312820 -4.766818 38,000 133 524 -64
2022-01-16 09:38:02 GMT 54.314125 -4.769148 38,000 133 523 -64
2022-01-16 09:38:01 GMT 54.316498 -4.773310 37,975 133 524 -64
2022-01-16 09:38:00 GMT 54.318176 -4.776306 37,975 133 523 -64
2022-01-16 09:37:58 GMT 54.321671 -4.782607 37,975 133 523 -64
2022-01-16 09:37:57 GMT 54.322678 -4.784384 37,975 133 523 -64
2022-01-16 09:37:56 GMT 54.324326 -4.787373 37,975 133 523 0
2022-01-16 09:37:54 GMT 54.327858 -4.793618 37,975 133 524 0
2022-01-16 09:37:51 GMT 54.333389 -4.803530 38,000 133 524 0
2022-01-16 09:37:50 GMT 54.334888 -4.806186 38,000 133 524 -64
2022-01-16 09:37:49 GMT 54.336563 -4.809182 37,975 133 524 -64
2022-01-16 09:37:48 GMT 54.341400 -4.817828 37,975 133 524 -64
2022-01-16 09:37:46 GMT 54.341400 -4.817828 37,975 133 524 -64
2022-01-16 09:37:45 GMT 54.343220 -4.821167 37,975 133 524 -64
2022-01-16 09:37:43 GMT 54.346573 -4.827160 37,975 133 524 -64
2022-01-16 09:37:42 GMT 54.348404 -4.830430 37,975 133 523 -64
2022-01-16 09:37:41 GMT 54.350098 -4.833419 37,975 133 524 -64
2022-01-16 09:37:39 GMT 54.354904 -4.842141 37,975 133 523 -128
2022-01-16 09:37:36 GMT 54.358429 -4.848364 37,975 133 523 -128
2022-01-16 09:37:35 GMT 54.359932 -4.851130 38,000 133 523 -192
2022-01-16 09:37:34 GMT 54.361725 -4.854341 38,000 133 523 -192
2022-01-16 09:37:32 GMT 54.366760 -4.863308 38,000 133 523 -192
2022-01-16 09:37:29 GMT 54.369736 -4.868721 38,025 133 523 -128
2022-01-16 09:37:27 GMT 54.373077 -4.874698 38,025 133 523 -128
2022-01-16 09:37:26 GMT 54.374924 -4.877930 38,000 133 523 -64
2022-01-16 09:37:25 GMT 54.376598 -4.880926 38,025 133 522 -64
2022-01-16 09:37:24 GMT 54.378273 -4.883922 38,025 133 522 -64
2022-01-16 09:37:23 GMT 54.380127 -4.887139 38,000 133 522 64
2022-01-16 09:37:21 GMT 54.382977 -4.892245 38,000 133 522 64
2022-01-16 09:37:20 GMT 54.384605 -4.895241 37,975 133 522 64
2022-01-16 09:37:19 GMT 54.386978 -4.899403 37,975 133 522 128
2022-01-16 09:37:18 GMT 54.390106 -4.905072 37,975 133 522 64
2022-01-16 09:37:16 GMT 54.391800 -4.908061 37,975 133 521 64
2022-01-16 09:37:15 GMT 54.393265 -4.910722 37,975 133 521 -64
2022-01-16 09:37:14 GMT 54.394939 -4.913718 37,975 133 521 -64
2022-01-16 09:37:13 GMT 54.396568 -4.916715 37,975 133 521 -128
2022-01-16 09:37:11 GMT 54.399876 -4.922707 37,975 133 520 -192
2022-01-16 09:37:10 GMT 54.401733 -4.925995 37,975 133 520 -192
2022-01-16 09:37:09 GMT 54.403381 -4.928984 38,000 133 520 -192
2022-01-16 09:37:08 GMT 54.404858 -4.931613 38,000 133 520 -192
2022-01-16 09:37:07 GMT 54.408325 -4.937870 38,025 133 519 -128
2022-01-16 09:37:05 GMT 54.409973 -4.940859 38,025 133 519 -128
2022-01-16 09:37:04 GMT 54.413315 -4.946837 38,025 133 519 -64
2022-01-16 09:37:02 GMT 54.414963 -4.949826 38,000 133 519 -64
2022-01-16 09:37:01 GMT 54.416290 -4.952168 38,000 133 519 -64
2022-01-16 09:36:59 GMT 54.421101 -4.960827 38,000 133 519 64
2022-01-16 09:36:57 GMT 54.422607 -4.963478 38,000 133 519 64
2022-01-16 09:36:55 GMT 54.426865 -4.971233 37,975 133 519 128
2022-01-16 09:36:54 GMT 54.430847 -4.978341 37,950 133 518 128
2022-01-16 09:36:52 GMT 54.430847 -4.978341 37,975 133 517 128
2022-01-16 09:36:51 GMT 54.433300 -4.982799 37,950 133 517 128
2022-01-16 09:36:50 GMT 54.434784 -4.985450 37,950 133 517 64
2022-01-16 09:36:49 GMT 54.437908 -4.991122 37,950 133 517 -64
2022-01-16 09:36:46 GMT 54.441376 -4.997406 38,000 133 517 -128
2022-01-16 09:36:45 GMT 54.443169 -5.000694 38,000 133 517 -128
2022-01-16 09:36:44 GMT 54.444626 -5.003384 38,000 133 517 -192
2022-01-16 09:36:42 GMT 54.447922 -5.009281 38,025 133 517 -256
2022-01-16 09:36:41 GMT 54.449570 -5.012270 38,025 133 517 -256
2022-01-16 09:36:40 GMT 54.451035 -5.014926 38,025 133 517 -192
2022-01-16 09:36:39 GMT 54.454514 -5.021156 38,025 133 517 -128
2022-01-16 09:36:37 GMT 54.456161 -5.024145 38,025 133 517 -128
2022-01-16 09:36:36 GMT 54.457973 -5.027410 38,025 133 517 64
2022-01-16 09:36:35 GMT 54.459778 -5.030688 38,025 133 517 64
2022-01-16 09:36:33 GMT 54.462906 -5.036316 38,000 133 516 192
2022-01-16 09:36:32 GMT 54.464211 -5.038646 38,000 133 516 192
2022-01-16 09:36:31 GMT 54.466003 -5.041917 37,975 133 516 256
2022-01-16 09:36:30 GMT 54.467331 -5.044259 37,975 133 516 256
2022-01-16 09:36:29 GMT 54.471268 -5.051449 37,975 133 516 192
2022-01-16 09:36:26 GMT 54.473557 -5.055569 37,975 133 515 128
2022-01-16 09:36:25 GMT 54.475159 -5.058558 37,975 133 514 128
2022-01-16 09:36:23 GMT 54.479244 -5.065946 37,975 133 514 128
2022-01-16 09:36:22 GMT 54.480103 -5.067444 37,975 133 514 128
2022-01-16 09:36:21 GMT 54.482391 -5.071564 37,975 133 514 128
2022-01-16 09:36:19 GMT 54.485001 -5.076330 37,975 133 514 64
2022-01-16 09:36:18 GMT 54.489071 -5.083757 37,975 133 514 64
2022-01-16 09:36:17 GMT 54.489071 -5.083757 37,975 133 514 64
2022-01-16 09:36:15 GMT 54.492188 -5.089336 37,975 133 514 64
2022-01-16 09:36:13 GMT 54.494934 -5.094410 37,975 133 514 128
2022-01-16 09:36:12 GMT 54.496445 -5.097091 37,975 133 514 128
2022-01-16 09:36:10 GMT 54.499695 -5.102988 37,950 133 514 128
2022-01-16 09:36:08 GMT 54.503780 -5.110474 37,950 133 515 0
2022-01-16 09:36:07 GMT 54.504757 -5.112221 37,975 133 515 -64
2022-01-16 09:36:05 GMT 54.508015 -5.118131 37,975 133 515 -64
2022-01-16 09:36:04 GMT 54.509644 -5.121127 37,975 133 516 -128
2022-01-16 09:36:02 GMT 54.512951 -5.127036 37,975 133 516 -128
2022-01-16 09:36:01 GMT 54.514580 -5.130033 37,975 133 516 -128
2022-01-16 09:36:00 GMT 54.516357 -5.133281 37,975 133 516 -192
2022-01-16 09:35:59 GMT 54.519512 -5.138938 38,000 133 516 -192
2022-01-16 09:35:57 GMT 54.521145 -5.141934 38,000 133 516 -192
2022-01-16 09:35:55 GMT 54.523911 -5.147014 38,000 133 517 -192
2022-01-16 09:35:54 GMT 54.525558 -5.150003 38,000 133 517 -128
2022-01-16 09:35:52 GMT 54.527847 -5.154123 38,000 133 517 -128
2022-01-16 09:35:51 GMT 54.530315 -5.158580 38,000 133 517 -128
2022-01-16 09:35:49 GMT 54.534439 -5.166078 38,000 133 517 -64
2022-01-16 09:35:48 GMT 54.535248 -5.167569 38,000 133 517 -128
2022-01-16 09:35:47 GMT 54.537735 -5.172056 38,000 133 518 -128
2022-01-16 09:35:46 GMT 54.539204 -5.174727 38,000 133 518 -192
2022-01-16 09:35:43 GMT 54.543640 -5.182720 38,025 133 518 -128
2022-01-16 09:35:42 GMT 54.547443 -5.189625 38,025 133 518 64
2022-01-16 09:35:39 GMT 54.550098 -5.194369 38,000 133 518 64
2022-01-16 09:35:37 GMT 54.553730 -5.200944 38,000 133 519 128
2022-01-16 09:35:35 GMT 54.556824 -5.206631 37,975 133 518 128
2022-01-16 09:35:34 GMT 54.558472 -5.209620 37,975 133 518 128
2022-01-16 09:35:32 GMT 54.561924 -5.215926 37,975 133 518 64
2022-01-16 09:35:30 GMT 54.565228 -5.221918 37,975 133 518 0
2022-01-16 09:35:28 GMT 54.569000 -5.228765 37,975 133 518 -64
2022-01-16 09:35:26 GMT 54.572445 -5.235069 38,000 133 518 -64
2022-01-16 09:35:25 GMT 54.575748 -5.241061 38,000 133 519 -128
2022-01-16 09:35:22 GMT 54.579006 -5.247054 38,000 133 519 -64
2022-01-16 09:35:20 GMT 54.582184 -5.252757 38,025 133 519 0
2022-01-16 09:35:18 GMT 54.585800 -5.259381 38,000 133 519 64
2022-01-16 09:35:16 GMT 54.588135 -5.263501 38,000 133 521 64
2022-01-16 09:35:15 GMT 54.590599 -5.268028 38,000 133 520 192
2022-01-16 09:35:12 GMT 54.595581 -5.277100 37,975 133 521 192
2022-01-16 09:35:11 GMT 54.597061 -5.279738 37,975 133 522 192
2022-01-16 09:35:10 GMT 54.598709 -5.282808 37,950 133 522 192
2022-01-16 09:35:09 GMT 54.600357 -5.285797 37,950 133 522 128
2022-01-16 09:35:06 GMT 54.605495 -5.295077 37,975 133 522 128
2022-01-16 09:35:04 GMT 54.608803 -5.301153 37,950 133 522 64
2022-01-16 09:35:02 GMT 54.611778 -5.306563 37,950 133 522 64
2022-01-16 09:35:01 GMT 54.613457 -5.309559 37,950 133 522 64
2022-01-16 09:35:00 GMT 54.615131 -5.312639 37,950 133 522 -64
2022-01-16 09:34:59 GMT 54.616760 -5.315635 37,950 133 523 -64
2022-01-16 09:34:57 GMT 54.620113 -5.321711 37,950 133 523 -64
2022-01-16 09:34:56 GMT 54.621742 -5.324707 37,975 133 524 -64
2022-01-16 09:34:55 GMT 54.623245 -5.327400 37,950 133 524 -64
2022-01-16 09:34:54 GMT 54.625580 -5.331681 37,975 133 524 -128
2022-01-16 09:34:53 GMT 54.627228 -5.334670 37,975 133 524 -128
2022-01-16 09:34:50 GMT 54.632217 -5.343798 38,000 133 524 -256
2022-01-16 09:34:48 GMT 54.638687 -5.355585 38,025 133 524 -256
2022-01-16 09:34:46 GMT 54.638687 -5.355585 38,025 133 524 -256
2022-01-16 09:34:44 GMT 54.642365 -5.362327 38,025 133 526 -256
2022-01-16 09:34:42 GMT 54.645493 -5.368114 38,050 133 527 -192
2022-01-16 09:34:40 GMT 54.647999 -5.372647 38,050 133 527 -192
2022-01-16 09:34:39 GMT 54.651169 -5.378454 38,050 133 527 -128
2022-01-16 09:34:37 GMT 54.653027 -5.381803 38,025 133 527 -64
2022-01-16 09:34:36 GMT 54.654655 -5.384882 38,025 133 527 64
2022-01-16 09:34:35 GMT 54.656330 -5.387962 38,025 133 528 128
2022-01-16 09:34:33 GMT 54.660007 -5.394703 38,000 133 528 256
2022-01-16 09:34:32 GMT 54.661514 -5.397438 37,975 133 529 320
2022-01-16 09:34:31 GMT 54.663208 -5.400507 37,975 133 529 320
2022-01-16 09:34:30 GMT 54.664856 -5.403577 37,950 133 529 320
2022-01-16 09:34:29 GMT 54.666550 -5.406647 37,950 133 528 256
2022-01-16 09:34:28 GMT 54.669739 -5.412431 37,925 133 528 64
2022-01-16 09:34:26 GMT 54.671219 -5.415210 37,925 133 529 -64
2022-01-16 09:34:24 GMT 54.675091 -5.422252 37,975 133 529 -192
2022-01-16 09:34:23 GMT 54.676575 -5.424984 38,000 133 529 -128
2022-01-16 09:34:21 GMT 54.679962 -5.431124 38,000 133 529 -128
2022-01-16 09:34:20 GMT 54.681469 -5.433904 38,000 133 529 -64
2022-01-16 09:34:18 GMT 54.683945 -5.438475 38,000 133 529 -128
2022-01-16 09:34:17 GMT 54.686325 -5.442756 38,000 133 529 -64
2022-01-16 09:34:16 GMT 54.688171 -5.446139 38,000 133 529 -64
2022-01-16 09:34:14 GMT 54.691525 -5.452298 38,000 133 530 -64
2022-01-16 09:34:12 GMT 54.696552 -5.461537 38,000 133 530 -64
2022-01-16 09:34:11 GMT 54.696552 -5.461537 38,025 133 531 64
2022-01-16 09:34:10 GMT 54.698044 -5.464325 38,000 133 531 128
2022-01-16 09:34:09 GMT 54.699738 -5.467395 37,975 133 531 128
2022-01-16 09:34:08 GMT 54.704929 -5.476934 37,950 133 531 0
2022-01-16 09:34:06 GMT 54.704929 -5.476934 37,975 133 531 -128
2022-01-16 09:34:04 GMT 54.708801 -5.484036 38,000 133 531 -128
2022-01-16 09:34:03 GMT 54.710495 -5.487105 37,975 133 532 -192
2022-01-16 09:34:02 GMT 54.713684 -5.492998 38,000 133 532 -192
2022-01-16 09:34:00 GMT 54.715530 -5.496395 38,000 133 532 -128
2022-01-16 09:33:59 GMT 54.716858 -5.498900 38,025 133 532 -64
2022-01-16 09:33:58 GMT 54.718552 -5.501969 38,025 133 532 -64
2022-01-16 09:33:57 GMT 54.720200 -5.505039 38,025 133 532 64
2022-01-16 09:33:56 GMT 54.723587 -5.511259 38,025 133 532 128
2022-01-16 09:33:54 GMT 54.725235 -5.514329 37,975 133 533 192
2022-01-16 09:33:53 GMT 54.726929 -5.517479 37,975 133 532 192
2022-01-16 09:33:52 GMT 54.731964 -5.526769 37,975 133 532 192
2022-01-16 09:33:50 GMT 54.731964 -5.526769 37,950 133 532 192
2022-01-16 09:33:49 GMT 54.733337 -5.529193 37,950 133 532 128
2022-01-16 09:33:48 GMT 54.735031 -5.532343 37,975 133 532 128
2022-01-16 09:33:46 GMT 54.739239 -5.540022 37,975 133 533 128
2022-01-16 09:33:45 GMT 54.740917 -5.543185 37,975 133 533 64
2022-01-16 09:33:43 GMT 54.744267 -5.549344 37,975 133 533 128
2022-01-16 09:33:42 GMT 54.746155 -5.552781 37,975 133 533 -64
2022-01-16 09:33:40 GMT 54.749176 -5.558355 37,975 133 533 -64
2022-01-16 09:33:39 GMT 54.752693 -5.564825 37,975 133 534 0
2022-01-16 09:33:37 GMT 54.754578 -5.568291 37,975 133 534 0
2022-01-16 09:33:35 GMT 54.756912 -5.572653 37,975 133 534 -64
2022-01-16 09:33:34 GMT 54.758465 -5.575395 37,950 133 534 -64
2022-01-16 09:33:33 GMT 54.761627 -5.581297 37,975 133 534 -128
2022-01-16 09:33:31 GMT 54.763168 -5.584134 37,975 133 534 -128
2022-01-16 09:33:30 GMT 54.765701 -5.588810 37,975 133 534 -192
2022-01-16 09:33:28 GMT 54.771103 -5.598746 37,975 133 534 -320
2022-01-16 09:33:26 GMT 54.772617 -5.601612 38,000 133 534 -320
2022-01-16 09:33:24 GMT 54.775970 -5.607855 38,000 132 534 -320
2022-01-16 09:33:23 GMT 54.777973 -5.611600 38,025 132 534 -256
2022-01-16 09:33:21 GMT 54.781494 -5.618134 38,050 132 534 -192
2022-01-16 09:33:20 GMT 54.783047 -5.620922 38,050 133 534 128
2022-01-16 09:33:19 GMT 54.784882 -5.624435 38,050 133 534 128
2022-01-16 09:33:18 GMT 54.786400 -5.627247 38,025 133 534 128
2022-01-16 09:33:16 GMT 54.789917 -5.633805 37,975 133 534 128
2022-01-16 09:33:15 GMT 54.791424 -5.636569 37,975 133 534 128
2022-01-16 09:33:13 GMT 54.794632 -5.642530 37,975 133 534 128
2022-01-16 09:33:12 GMT 54.796326 -5.645599 37,975 133 534 128
2022-01-16 09:33:10 GMT 54.799667 -5.651900 37,975 133 534 128
2022-01-16 09:33:08 GMT 54.803375 -5.658686 37,950 133 534 0
2022-01-16 09:33:06 GMT 54.806442 -5.664341 38,000 133 534 -128
2022-01-16 09:33:04 GMT 54.810104 -5.671126 38,000 133 534 -128
2022-01-16 09:33:03 GMT 54.811798 -5.674277 38,000 133 533 -128
2022-01-16 09:33:01 GMT 54.814003 -5.678350 37,975 133 533 -64
2022-01-16 09:33:00 GMT 54.816330 -5.682678 38,000 133 533 -128
2022-01-16 09:32:59 GMT 54.818207 -5.686152 38,000 133 533 -128
2022-01-16 09:32:58 GMT 54.820053 -5.689503 38,000 133 533 -128
2022-01-16 09:32:56 GMT 54.824570 -5.697946 38,000 132 532 0
2022-01-16 09:32:53 GMT 54.828110 -5.704484 37,975 133 532 -64
2022-01-16 09:32:52 GMT 54.829926 -5.707882 37,975 133 532 0
2022-01-16 09:32:51 GMT 54.831253 -5.710386 37,975 133 532 -64
2022-01-16 09:32:49 GMT 54.834641 -5.716607 37,975 133 532 0
2022-01-16 09:32:48 GMT 54.836975 -5.720969 37,975 133 530 -64
2022-01-16 09:32:46 GMT 54.839794 -5.726207 38,000 133 530 -128
2022-01-16 09:32:45 GMT 54.841145 -5.728704 38,000 133 530 -192
2022-01-16 09:32:42 GMT 54.846313 -5.738337 38,000 132 529 -128
2022-01-16 09:32:40 GMT 54.850296 -5.745769 38,000 132 528 -128
2022-01-16 09:32:39 GMT 54.851944 -5.748839 38,000 132 528 -128
2022-01-16 09:32:37 GMT 54.855110 -5.754755 38,000 132 527 -64
2022-01-16 09:32:36 GMT 54.856613 -5.757482 38,000 132 527 -64
2022-01-16 09:32:35 GMT 54.858414 -5.760914 38,000 132 527 -64
2022-01-16 09:32:33 GMT 54.861393 -5.766491 38,000 132 526 -64
2022-01-16 09:32:32 GMT 54.863068 -5.769570 38,000 132 525 -64
2022-01-16 09:32:31 GMT 54.864899 -5.772912 38,000 132 525 -64
2022-01-16 09:32:30 GMT 54.866375 -5.775729 38,000 132 524 -64
2022-01-16 09:32:28 GMT 54.870163 -5.782767 38,000 132 524 -64
2022-01-16 09:32:26 GMT 54.872818 -5.787695 38,000 132 523 -64
2022-01-16 09:32:24 GMT 54.877918 -5.797119 38,000 132 523 -64
2022-01-16 09:32:23 GMT 54.877918 -5.797119 38,000 132 522 -64
2022-01-16 09:32:22 GMT 54.879730 -5.800539 38,000 132 522 -64
2022-01-16 09:32:21 GMT 54.881226 -5.803278 38,000 132 522 -64
2022-01-16 09:32:20 GMT 54.882854 -5.806358 38,000 132 521 -64
2022-01-16 09:32:18 GMT 54.886765 -5.813682 38,000 132 520 -64
2022-01-16 09:32:16 GMT 54.890854 -5.821300 38,000 132 520 64
2022-01-16 09:32:14 GMT 54.892349 -5.824002 38,000 132 520 64
2022-01-16 09:32:13 GMT 54.893829 -5.826793 38,000 132 519 64
2022-01-16 09:32:12 GMT 54.895432 -5.829782 37,975 132 518 128
2022-01-16 09:32:10 GMT 54.899521 -5.837402 37,975 132 518 128
2022-01-16 09:32:09 GMT 54.900970 -5.840203 37,975 132 517 192
2022-01-16 09:32:08 GMT 54.902298 -5.842626 37,975 132 517 128
2022-01-16 09:32:07 GMT 54.903755 -5.845309 37,975 132 517 128
2022-01-16 09:32:06 GMT 54.907150 -5.851674 37,975 132 516 128
2022-01-16 09:32:04 GMT 54.908924 -5.855047 37,975 132 516 128
2022-01-16 09:32:03 GMT 54.910553 -5.858043 37,975 132 516 128
2022-01-16 09:32:02 GMT 54.912182 -5.861123 37,975 132 515 64
2022-01-16 09:32:01 GMT 54.915394 -5.867199 37,975 132 515 64
2022-01-16 09:31:59 GMT 54.917023 -5.870195 37,975 132 515 64
2022-01-16 09:31:58 GMT 54.918652 -5.873191 37,975 132 514 64
2022-01-16 09:31:57 GMT 54.920235 -5.876271 37,975 132 514 64
2022-01-16 09:31:56 GMT 54.923309 -5.881967 37,975 132 513 64
2022-01-16 09:31:54 GMT 54.925076 -5.885259 37,975 132 513 64
2022-01-16 09:31:52 GMT 54.928162 -5.891015 37,975 132 513 -64
2022-01-16 09:31:50 GMT 54.931366 -5.897073 37,975 132 513 -128
2022-01-16 09:31:49 GMT 54.933128 -5.900407 38,000 132 512 -128
2022-01-16 09:31:48 GMT 54.934761 -5.903404 38,000 132 512 -128
2022-01-16 09:31:45 GMT 54.939423 -5.912099 38,000 132 513 -128
2022-01-16 09:31:44 GMT 54.941025 -5.915168 38,000 132 513 -128
2022-01-16 09:31:43 GMT 54.942627 -5.918157 38,000 132 513 -128
2022-01-16 09:31:42 GMT 54.944229 -5.921146 38,000 132 513 -128
2022-01-16 09:31:40 GMT 54.947433 -5.927205 38,000 132 513 -128
2022-01-16 09:31:39 GMT 54.949722 -5.931486 38,000 132 513 -128
2022-01-16 09:31:38 GMT 54.951324 -5.934475 38,000 132 513 -128
2022-01-16 09:31:37 GMT 54.952606 -5.936899 38,000 132 513 -128
2022-01-16 09:31:36 GMT 54.955662 -5.942605 38,000 132 513 -128
2022-01-16 09:31:33 GMT 54.958099 -5.947158 38,000 132 513 -64
2022-01-16 09:31:32 GMT 54.960503 -5.951677 38,000 132 514 -64
2022-01-16 09:31:31 GMT 54.962738 -5.955922 38,000 132 515 -64
2022-01-16 09:31:30 GMT 54.967117 -5.964122 38,000 132 515 0
2022-01-16 09:31:28 GMT 54.967117 -5.964122 38,000 132 515 64
2022-01-16 09:31:27 GMT 54.968719 -5.967111 38,000 132 515 64
2022-01-16 09:31:26 GMT 54.970322 -5.970181 38,000 132 515 128
2022-01-16 09:31:24 GMT 54.973396 -5.975897 38,000 132 515 128
2022-01-16 09:31:22 GMT 54.976456 -5.981733 37,975 132 515 192
2022-01-16 09:31:20 GMT 54.980518 -5.989297 37,975 132 515 192
2022-01-16 09:31:19 GMT 54.983276 -5.994496 37,975 132 515 256
2022-01-16 09:31:16 GMT 54.986481 -6.000555 37,950 132 515 256
2022-01-16 09:31:15 GMT 54.987923 -6.003279 37,950 132 515 256
2022-01-16 09:31:13 GMT 54.991974 -6.010895 37,950 132 515 256
2022-01-16 09:31:12 GMT 54.993576 -6.013964 37,950 132 515 192
2022-01-16 09:31:11 GMT 54.994392 -6.015431 37,950 132 515 192
2022-01-16 09:31:10 GMT 54.997932 -6.022172 37,925 132 515 128
2022-01-16 09:31:08 GMT 54.999561 -6.025169 37,950 132 515 64
2022-01-16 09:31:07 GMT 55.001144 -6.028248 37,950 132 515 64
2022-01-16 09:31:06 GMT 55.002773 -6.031328 37,950 132 516 64
2022-01-16 09:31:05 GMT 55.006962 -6.039235 37,950 132 516 -64
2022-01-16 09:31:03 GMT 55.006962 -6.039235 37,950 132 516 -128
2022-01-16 09:31:02 GMT 55.008728 -6.042561 37,950 132 516 -192
2022-01-16 09:31:01 GMT 55.010174 -6.045310 37,975 132 516 -192
2022-01-16 09:31:00 GMT 55.011803 -6.048390 37,975 132 517 -256
2022-01-16 09:30:57 GMT 55.017151 -6.058475 37,975 132 517 -320
2022-01-16 09:30:56 GMT 55.018753 -6.061545 38,000 132 518 -384
2022-01-16 09:30:53 GMT 55.023651 -6.070673 38,000 132 518 -320
2022-01-16 09:30:52 GMT 55.025120 -6.073442 38,025 132 519 -320
2022-01-16 09:30:51 GMT 55.026749 -6.076438 38,025 132 519 -384
2022-01-16 09:30:50 GMT 55.029831 -6.082306 38,025 132 519 -384
2022-01-16 09:30:47 GMT 55.033081 -6.088365 38,025 132 520 -320
2022-01-16 09:30:46 GMT 55.034729 -6.091434 38,025 132 520 -256
2022-01-16 09:30:44 GMT 55.037979 -6.097574 38,025 132 520 -256
2022-01-16 09:30:43 GMT 55.039627 -6.100643 38,025 132 520 -256
2022-01-16 09:30:42 GMT 55.041229 -6.103713 38,025 132 520 -192
2022-01-16 09:30:41 GMT 55.046299 -6.113226 38,025 132 520 -128
2022-01-16 09:30:39 GMT 55.046299 -6.113226 38,025 132 520 -128
2022-01-16 09:30:38 GMT 55.047928 -6.116222 38,025 132 520 -64
2022-01-16 09:30:37 GMT 55.049744 -6.119627 38,025 132 520 -64
2022-01-16 09:30:35 GMT 55.052994 -6.125767 38,025 132 520 0
2022-01-16 09:30:34 GMT 55.054642 -6.128836 38,025 132 520 0
2022-01-16 09:30:33 GMT 55.056244 -6.131906 38,025 132 520 64
2022-01-16 09:30:32 GMT 55.058029 -6.135282 38,025 132 519 64
2022-01-16 09:30:31 GMT 55.059658 -6.138361 38,000 132 519 64
2022-01-16 09:30:29 GMT 55.062920 -6.144520 38,000 132 519 128
2022-01-16 09:30:27 GMT 55.065674 -6.149678 38,000 132 519 192
2022-01-16 09:30:26 GMT 55.067478 -6.153093 38,000 132 519 192
2022-01-16 09:30:24 GMT 55.071342 -6.160417 37,975 132 518 320
2022-01-16 09:30:23 GMT 55.072647 -6.162914 37,975 132 518 320
2022-01-16 09:30:22 GMT 55.074417 -6.166238 37,975 132 518 320
2022-01-16 09:30:21 GMT 55.075905 -6.168990 37,950 132 518 256
2022-01-16 09:30:19 GMT 55.078949 -6.174801 37,950 132 517 256
2022-01-16 09:30:17 GMT 55.081238 -6.179083 37,950 132 517 256
2022-01-16 09:30:16 GMT 55.083633 -6.183721 37,950 132 516 192
2022-01-16 09:30:15 GMT 55.084938 -6.186135 37,950 132 516 192
2022-01-16 09:30:14 GMT 55.087051 -6.190150 37,950 132 515 128
2022-01-16 09:30:13 GMT 55.088654 -6.193219 37,950 132 515 128
2022-01-16 09:30:11 GMT 55.091686 -6.199036 37,950 132 515 64
2022-01-16 09:30:10 GMT 55.093315 -6.202032 37,950 132 515 64
2022-01-16 09:30:08 GMT 55.095749 -6.206629 37,950 132 515 64
2022-01-16 09:30:07 GMT 55.097992 -6.210911 37,975 132 516 -64
2022-01-16 09:30:05 GMT 55.101372 -6.217346 37,975 132 516 -64
2022-01-16 09:30:03 GMT 55.104401 -6.223189 37,975 132 516 -128
2022-01-16 09:30:01 GMT 55.107651 -6.229329 37,975 132 517 -128
2022-01-16 09:30:00 GMT 55.109749 -6.233243 38,000 132 517 -192
2022-01-16 09:29:59 GMT 55.111053 -6.235740 38,000 132 517 -128
2022-01-16 09:29:57 GMT 55.113464 -6.240315 38,000 132 517 -128
2022-01-16 09:29:56 GMT 55.115894 -6.244895 38,000 132 518 -128
2022-01-16 09:29:54 GMT 55.119278 -6.251382 37,975 132 518 -128
2022-01-16 09:29:53 GMT 55.120560 -6.253806 38,000 132 518 -128
2022-01-16 09:29:52 GMT 55.122208 -6.256875 38,000 132 518 -128
2022-01-16 09:29:50 GMT 55.125252 -6.262706 38,000 132 518 -128
2022-01-16 09:29:48 GMT 55.128983 -6.269720 38,000 132 518 -128
2022-01-16 09:29:47 GMT 55.131119 -6.273693 38,000 132 518 -64
2022-01-16 09:29:45 GMT 55.133678 -6.278603 38,000 132 518 -64
2022-01-16 09:29:44 GMT 55.135483 -6.281999 38,000 132 518 -64
2022-01-16 09:29:42 GMT 55.138565 -6.287842 38,000 132 518 0
2022-01-16 09:29:41 GMT 55.142944 -6.296135 38,000 132 518 0
2022-01-16 09:29:38 GMT 55.145035 -6.300160 38,000 132 518 64
2022-01-16 09:29:37 GMT 55.146664 -6.303239 37,975 132 518 64
2022-01-16 09:29:36 GMT 55.148117 -6.305991 37,975 132 518 0
2022-01-16 09:29:34 GMT 55.151878 -6.313060 37,975 132 518 64
2022-01-16 09:29:33 GMT 55.153656 -6.316412 37,975 132 518 64
2022-01-16 09:29:31 GMT 55.158352 -6.325378 37,975 132 518 -64
2022-01-16 09:29:28 GMT 55.161713 -6.331760 37,975 132 518 -64
2022-01-16 09:29:27 GMT 55.163361 -6.334911 37,975 132 518 -64
2022-01-16 09:29:25 GMT 55.166405 -6.340693 37,975 132 518 -128
2022-01-16 09:29:23 GMT 55.169174 -6.345897 38,000 132 518 -128
2022-01-16 09:29:22 GMT 55.170967 -6.349349 38,000 132 518 -128
2022-01-16 09:29:20 GMT 55.174347 -6.355752 38,000 132 518 -128
2022-01-16 09:29:19 GMT 55.175808 -6.358587 38,000 132 518 -192
2022-01-16 09:29:17 GMT 55.178879 -6.364396 38,000 132 518 -192
2022-01-16 09:29:16 GMT 55.182606 -6.371488 38,000 132 518 -128
2022-01-16 09:29:13 GMT 55.185165 -6.376398 38,000 132 518 -128
2022-01-16 09:29:12 GMT 55.186935 -6.379745 38,025 132 518 -64
2022-01-16 09:29:10 GMT 55.190331 -6.386219 38,000 132 518 -64
2022-01-16 09:29:09 GMT 55.191959 -6.389299 38,000 132 518 -64
2022-01-16 09:29:08 GMT 55.193588 -6.392378 38,000 132 518 0
2022-01-16 09:29:07 GMT 55.195038 -6.395174 38,000 132 518 64
2022-01-16 09:29:05 GMT 55.198429 -6.401617 38,000 132 518 64
2022-01-16 09:29:04 GMT 55.200062 -6.404696 38,000 132 518 128
2022-01-16 09:29:03 GMT 55.201691 -6.407776 38,000 132 518 128
2022-01-16 09:29:02 GMT 55.203274 -6.410855 37,975 132 518 128
2022-01-16 09:29:01 GMT 55.206665 -6.417389 37,975 132 518 128
2022-01-16 09:28:59 GMT 55.208267 -6.420459 37,975 132 518 128
2022-01-16 09:28:58 GMT 55.210236 -6.424175 37,975 132 518 128
2022-01-16 09:28:57 GMT 55.211651 -6.426919 37,975 132 518 128
2022-01-16 09:28:56 GMT 55.213440 -6.430314 37,975 132 518 64
2022-01-16 09:28:55 GMT 55.215042 -6.433384 37,975 132 518 64
2022-01-16 09:28:54 GMT 55.217606 -6.438392 37,975 132 517 64
2022-01-16 09:28:52 GMT 55.219208 -6.441462 37,975 132 517 64
2022-01-16 09:28:50 GMT 55.223053 -6.448894 37,975 132 518 64
2022-01-16 09:28:49 GMT 55.227905 -6.458184 37,975 132 518 64
2022-01-16 09:28:47 GMT 55.227905 -6.458184 37,975 132 518 64
2022-01-16 09:28:46 GMT 55.229343 -6.460960 37,975 132 517 -64
2022-01-16 09:28:45 GMT 55.230927 -6.464039 37,975 132 517 -64
2022-01-16 09:28:43 GMT 55.233353 -6.468685 38,000 132 518 -128
2022-01-16 09:28:41 GMT 55.237022 -6.475858 38,000 132 518 -64
2022-01-16 09:28:39 GMT 55.239761 -6.481045 38,000 132 518 -64
2022-01-16 09:28:38 GMT 55.241043 -6.483549 38,000 132 518 -64
2022-01-16 09:28:36 GMT 55.245403 -6.491921 38,000 132 518 -64
2022-01-16 09:28:34 GMT 55.248459 -6.497767 38,000 132 518 -64
2022-01-16 09:28:32 GMT 55.251549 -6.503573 37,975 132 518 -64
2022-01-16 09:28:31 GMT 55.254959 -6.510046 38,000 132 518 -64
2022-01-16 09:28:29 GMT 55.256435 -6.512812 38,000 133 518 -64
2022-01-16 09:28:28 GMT 55.258064 -6.515891 38,000 133 518 -64
2022-01-16 09:28:27 GMT 55.259537 -6.518609 38,000 133 518 -64
2022-01-16 09:28:24 GMT 55.264954 -6.528709 38,000 133 518 -64
2022-01-16 09:28:23 GMT 55.266769 -6.532018 38,000 133 518 -64
2022-01-16 09:28:22 GMT 55.268585 -6.535367 38,000 133 519 -64
2022-01-16 09:28:20 GMT 55.271713 -6.541147 38,000 133 519 0
2022-01-16 09:28:19 GMT 55.272545 -6.542691 38,000 133 519 64
2022-01-16 09:28:17 GMT 55.279633 -6.555687 37,975 133 519 64
2022-01-16 09:28:15 GMT 55.279633 -6.555687 37,975 133 518 128
2022-01-16 09:28:14 GMT 55.281483 -6.559004 37,975 133 518 128
2022-01-16 09:28:13 GMT 55.282829 -6.561418 37,975 134 519 128
2022-01-16 09:28:11 GMT 55.286137 -6.567411 37,975 134 518 128
2022-01-16 09:28:10 GMT 55.287643 -6.570147 37,975 134 519 64
2022-01-16 09:28:09 GMT 55.289291 -6.573136 37,975 134 518 64
2022-01-16 09:28:08 GMT 55.290985 -6.576125 37,975 134 519 64
2022-01-16 09:28:07 GMT 55.292633 -6.579114 37,975 134 518 0
2022-01-16 09:28:05 GMT 55.295818 -6.584806 37,975 134 518 0
2022-01-16 09:28:04 GMT 55.298035 -6.588727 37,975 134 518 0
2022-01-16 09:28:03 GMT 55.299683 -6.591716 37,975 134 518 0
2022-01-16 09:28:02 GMT 55.301220 -6.594377 37,975 134 518 0
2022-01-16 09:28:00 GMT 55.304764 -6.600602 37,975 134 518 -64
2022-01-16 09:27:59 GMT 55.306458 -6.603591 37,975 135 519 -64
2022-01-16 09:27:58 GMT 55.307968 -6.606279 37,975 135 518 -64
2022-01-16 09:27:57 GMT 55.309647 -6.609192 38,000 135 519 -64
2022-01-16 09:27:56 GMT 55.311539 -6.612477 38,000 135 519 -64
2022-01-16 09:27:54 GMT 55.314766 -6.618097 38,000 135 519 -64
2022-01-16 09:27:53 GMT 55.316441 -6.621011 38,000 135 519 -64
2022-01-16 09:27:52 GMT 55.317993 -6.623706 38,000 135 519 -64
2022-01-16 09:27:51 GMT 55.321747 -6.630168 38,000 135 519 -64
2022-01-16 09:27:49 GMT 55.323284 -6.632829 38,000 135 519 -64
2022-01-16 09:27:48 GMT 55.324860 -6.635419 37,975 135 519 -64
2022-01-16 09:27:47 GMT 55.326553 -6.638408 38,000 135 519 -64
2022-01-16 09:27:46 GMT 55.330673 -6.645436 37,975 136 519 -64
2022-01-16 09:27:43 GMT 55.334316 -6.651556 38,000 136 519 -64
2022-01-16 09:27:42 GMT 55.336040 -6.654469 38,000 136 519 -64
2022-01-16 09:27:40 GMT 55.339005 -6.659411 38,000 136 519 -64
2022-01-16 09:27:39 GMT 55.340744 -6.662319 38,000 136 519 -64
2022-01-16 09:27:38 GMT 55.342278 -6.664956 37,975 136 519 -64
2022-01-16 09:27:37 GMT 55.344002 -6.667869 37,975 136 519 -64
2022-01-16 09:27:34 GMT 55.350082 -6.678072 38,000 136 520 -64
2022-01-16 09:27:33 GMT 55.351089 -6.679849 38,000 136 520 -64
2022-01-16 09:27:32 GMT 55.352657 -6.682434 38,000 136 520 -64
2022-01-16 09:27:31 GMT 55.354382 -6.685347 38,000 136 521 -64
2022-01-16 09:27:30 GMT 55.356628 -6.689139 38,000 136 520 -64
2022-01-16 09:27:28 GMT 55.360294 -6.695251 38,000 136 520 0
2022-01-16 09:27:26 GMT 55.363041 -6.699996 38,000 136 521 0
2022-01-16 09:27:25 GMT 55.365505 -6.704074 38,000 136 521 -64
2022-01-16 09:27:24 GMT 55.370499 -6.712485 38,000 136 521 0
2022-01-16 09:27:22 GMT 55.370499 -6.712485 38,000 136 521 0
2022-01-16 09:27:21 GMT 55.372398 -6.715726 38,000 136 521 0
2022-01-16 09:27:20 GMT 55.373978 -6.718382 38,000 136 521 0
2022-01-16 09:27:19 GMT 55.377090 -6.723633 38,000 136 521 0
2022-01-16 09:27:17 GMT 55.378830 -6.726541 37,975 136 521 0
2022-01-16 09:27:16 GMT 55.380405 -6.729209 38,000 136 521 0
2022-01-16 09:27:15 GMT 55.382126 -6.732122 38,000 136 521 0
2022-01-16 09:27:14 GMT 55.384548 -6.736201 37,975 136 521 0
2022-01-16 09:27:12 GMT 55.387482 -6.741162 37,975 136 521 64
2022-01-16 09:27:11 GMT 55.389389 -6.744357 37,975 136 521 0
2022-01-16 09:27:10 GMT 55.391159 -6.747353 37,975 136 521 0
2022-01-16 09:27:09 GMT 55.392700 -6.749968 37,975 136 521 0
2022-01-16 09:27:08 GMT 55.396500 -6.756430 38,000 136 521 0
2022-01-16 09:27:06 GMT 55.398605 -6.759904 37,975 136 521 -64
2022-01-16 09:27:05 GMT 55.399445 -6.761419 38,000 136 521 -64
2022-01-16 09:27:04 GMT 55.401863 -6.765497 38,000 136 521 -64
2022-01-16 09:27:03 GMT 55.403633 -6.768410 38,000 136 521 -64
2022-01-16 09:27:01 GMT 55.407078 -6.774320 37,975 136 521 -64
2022-01-16 09:26:59 GMT 55.409870 -6.778981 38,000 136 521 0
2022-01-16 09:26:57 GMT 55.416275 -6.789874 37,975 136 521 0
2022-01-16 09:26:55 GMT 55.416275 -6.789874 37,975 136 521 0
2022-01-16 09:26:54 GMT 55.419556 -6.795460 37,975 136 521 -64
2022-01-16 09:26:52 GMT 55.421276 -6.798373 38,000 136 521 -64
2022-01-16 09:26:51 GMT 55.422867 -6.801022 38,000 136 521 -64
2022-01-16 09:26:50 GMT 55.424606 -6.804011 38,000 136 521 -64
2022-01-16 09:26:48 GMT 55.428085 -6.809827 38,000 136 521 -64
2022-01-16 09:26:47 GMT 55.429981 -6.813105 38,000 136 521 -64
2022-01-16 09:26:46 GMT 55.432030 -6.816600 38,000 136 521 -64
2022-01-16 09:26:44 GMT 55.435684 -6.822752 38,000 136 522 -64
2022-01-16 09:26:42 GMT 55.438316 -6.827171 38,000 136 522 -64
2022-01-16 09:26:41 GMT 55.440903 -6.831638 38,000 136 522 -64
2022-01-16 09:26:40 GMT 55.442642 -6.834546 38,000 136 522 -64
2022-01-16 09:26:39 GMT 55.444382 -6.837491 38,000 136 522 -64
2022-01-16 09:26:37 GMT 55.448181 -6.843983 38,000 136 522 0
2022-01-16 09:26:36 GMT 55.449921 -6.846896 38,000 136 522 -64
2022-01-16 09:26:34 GMT 55.453766 -6.853388 38,000 136 523 -64
2022-01-16 09:26:32 GMT 55.456329 -6.857786 37,975 136 523 -64
2022-01-16 09:26:31 GMT 55.458797 -6.861992 38,000 135 523 0
2022-01-16 09:26:30 GMT 55.460194 -6.864309 38,000 135 523 0
2022-01-16 09:26:29 GMT 55.462097 -6.867537 38,000 135 523 -64
2022-01-16 09:26:28 GMT 55.463470 -6.869951 37,975 135 523 0
2022-01-16 09:26:26 GMT 55.466759 -6.875553 38,000 136 524 0
2022-01-16 09:26:24 GMT 55.469551 -6.880274 38,000 136 524 0
2022-01-16 09:26:23 GMT 55.472168 -6.884682 38,000 136 524 0
2022-01-16 09:26:22 GMT 55.473907 -6.887679 38,000 136 524 0
2022-01-16 09:26:21 GMT 55.475464 -6.890316 38,000 136 524 0
2022-01-16 09:26:20 GMT 55.477386 -6.893588 38,000 136 524 0
2022-01-16 09:26:19 GMT 55.479282 -6.896839 38,000 136 524 0
2022-01-16 09:26:17 GMT 55.482075 -6.901560 37,975 136 524 0
2022-01-16 09:26:16 GMT 55.483612 -6.904241 37,975 136 524 0
2022-01-16 09:26:15 GMT 55.485718 -6.907737 37,975 136 524 0
2022-01-16 09:26:14 GMT 55.487289 -6.910400 37,975 135 524 0
2022-01-16 09:26:13 GMT 55.491104 -6.916924 37,975 135 524 64
2022-01-16 09:26:10 GMT 55.494598 -6.922846 37,975 135 524 64
2022-01-16 09:26:09 GMT 55.496319 -6.925850 37,975 135 524 0
2022-01-16 09:26:07 GMT 55.500687 -6.933205 37,975 135 524 0
2022-01-16 09:26:05 GMT 55.503628 -6.938295 37,975 135 524 -64
2022-01-16 09:26:04 GMT 55.505348 -6.941214 38,000 135 524 -64
2022-01-16 09:26:03 GMT 55.506958 -6.943942 37,975 135 524 -64
2022-01-16 09:26:02 GMT 55.508842 -6.947136 37,975 135 524 -64
2022-01-16 09:26:01 GMT 55.511124 -6.951017 37,975 135 524 -64
2022-01-16 09:26:00 GMT 55.513916 -6.955761 37,975 135 524 -64
2022-01-16 09:25:57 GMT 55.517548 -6.961985 37,975 135 524 -64
2022-01-16 09:25:56 GMT 55.519966 -6.966190 37,975 135 524 -64
2022-01-16 09:25:55 GMT 55.523300 -6.971824 38,000 135 525 -64
2022-01-16 09:25:53 GMT 55.525040 -6.974820 38,000 135 526 -64
2022-01-16 09:25:52 GMT 55.526627 -6.977434 38,000 135 526 -64
2022-01-16 09:25:51 GMT 55.528519 -6.980730 38,000 135 526 -64
2022-01-16 09:25:49 GMT 55.531998 -6.986639 38,000 135 526 -64
2022-01-16 09:25:48 GMT 55.533417 -6.989053 38,000 135 526 0
2022-01-16 09:25:47 GMT 55.535477 -6.992631 38,000 135 526 0
2022-01-16 09:25:46 GMT 55.537216 -6.995628 38,000 135 526 0
2022-01-16 09:25:45 GMT 55.538956 -6.998541 37,975 135 526 0
2022-01-16 09:25:42 GMT 55.543339 -7.006016 37,975 135 525 64
2022-01-16 09:25:41 GMT 55.546967 -7.012274 37,975 135 525 64
2022-01-16 09:25:39 GMT 55.548706 -7.015270 37,975 135 526 64
2022-01-16 09:25:37 GMT 55.552040 -7.020950 37,975 135 526 0
2022-01-16 09:25:35 GMT 55.554790 -7.025671 37,975 135 526 0
2022-01-16 09:25:34 GMT 55.556717 -7.029003 37,975 135 526 0
2022-01-16 09:25:33 GMT 55.558456 -7.031999 37,975 135 525 0
2022-01-16 09:25:32 GMT 55.560196 -7.034912 37,975 135 525 -64
2022-01-16 09:25:30 GMT 55.563496 -7.040606 37,975 135 525 -64
2022-01-16 09:25:29 GMT 55.565216 -7.043610 38,000 135 525 -64
2022-01-16 09:25:28 GMT 55.567474 -7.047480 38,000 135 525 -64
2022-01-16 09:25:27 GMT 55.570805 -7.053137 38,000 135 525 -64
2022-01-16 09:25:25 GMT 55.572372 -7.055803 38,000 135 525 -64
2022-01-16 09:25:24 GMT 55.574619 -7.059660 38,000 135 525 -64
2022-01-16 09:25:23 GMT 55.575645 -7.061462 38,000 135 525 -64
2022-01-16 09:25:22 GMT 55.577412 -7.064466 38,000 135 525 -64
2022-01-16 09:25:21 GMT 55.583324 -7.074594 38,000 135 525 -64
2022-01-16 09:25:19 GMT 55.586975 -7.080855 38,000 135 525 -64
2022-01-16 09:25:17 GMT 55.586975 -7.080855 38,000 135 525 -64
2022-01-16 09:25:16 GMT 55.588715 -7.083851 38,000 135 525 -64
2022-01-16 09:25:15 GMT 55.590263 -7.086525 38,000 135 525 -64
2022-01-16 09:25:12 GMT 55.595474 -7.095451 37,975 135 526 -64
2022-01-16 09:25:11 GMT 55.597244 -7.098455 37,975 135 526 -64
2022-01-16 09:25:10 GMT 55.599667 -7.102661 38,000 135 526 -64
2022-01-16 09:25:08 GMT 55.602951 -7.108321 38,000 135 526 -64
2022-01-16 09:25:07 GMT 55.604877 -7.111588 38,000 135 526 -64
2022-01-16 09:25:06 GMT 55.606602 -7.114592 38,000 135 526 -64
2022-01-16 09:25:05 GMT 55.608170 -7.117310 38,000 135 526 -64
2022-01-16 09:25:04 GMT 55.611488 -7.122917 38,000 135 526 -64
2022-01-16 09:25:02 GMT 55.613583 -7.126522 38,000 135 526 -64
2022-01-16 09:25:01 GMT 55.615307 -7.129526 38,000 135 526 -64
2022-01-16 09:24:59 GMT 55.618797 -7.135534 38,000 135 526 -64
2022-01-16 09:24:57 GMT 55.622242 -7.141457 38,000 135 526 -64
2022-01-16 09:24:55 GMT 55.625034 -7.146263 38,000 135 526 -64
2022-01-16 09:24:54 GMT 55.630417 -7.155512 38,000 135 526 0
2022-01-16 09:24:52 GMT 55.630417 -7.155512 38,000 135 525 0
2022-01-16 09:24:50 GMT 55.633896 -7.161505 38,000 135 524 0
2022-01-16 09:24:49 GMT 55.635464 -7.164202 38,000 135 525 0
2022-01-16 09:24:48 GMT 55.637375 -7.167497 38,000 135 524 64
2022-01-16 09:24:47 GMT 55.642593 -7.176403 38,000 135 524 64
2022-01-16 09:24:45 GMT 55.642593 -7.176403 38,000 135 524 64
2022-01-16 09:24:44 GMT 55.644333 -7.179399 38,000 135 524 64
2022-01-16 09:24:43 GMT 55.646217 -7.182741 38,000 135 524 64
2022-01-16 09:24:42 GMT 55.649506 -7.188388 37,975 135 524 64
2022-01-16 09:24:40 GMT 55.651245 -7.191384 37,975 135 524 64
2022-01-16 09:24:39 GMT 55.653152 -7.194672 37,975 135 524 64
2022-01-16 09:24:38 GMT 55.654724 -7.197377 37,975 135 524 64
2022-01-16 09:24:36 GMT 55.658157 -7.203286 37,975 135 524 64
2022-01-16 09:24:35 GMT 55.659718 -7.206001 37,975 135 524 64
2022-01-16 09:24:33 GMT 55.664062 -7.213523 37,975 135 524 64
2022-01-16 09:24:31 GMT 55.667175 -7.218850 37,975 135 524 64
2022-01-16 09:24:30 GMT 55.669075 -7.222137 37,975 135 524 64
2022-01-16 09:24:28 GMT 55.672565 -7.228146 37,975 135 524 128
2022-01-16 09:24:27 GMT 55.676010 -7.234154 37,975 135 524 64
2022-01-16 09:24:25 GMT 55.677567 -7.236828 37,975 135 524 64
2022-01-16 09:24:24 GMT 55.679131 -7.239475 37,975 135 524 64
2022-01-16 09:24:23 GMT 55.680851 -7.242479 37,975 135 524 0
2022-01-16 09:24:22 GMT 55.682739 -7.245816 37,975 135 524 0
2022-01-16 09:24:20 GMT 55.686584 -7.252391 37,975 135 524 -64
2022-01-16 09:24:18 GMT 55.689186 -7.256899 37,975 135 524 0
2022-01-16 09:24:17 GMT 55.693497 -7.264377 37,975 135 524 -64
2022-01-16 09:24:15 GMT 55.694550 -7.266208 37,975 135 524 -64
2022-01-16 09:24:14 GMT 55.696976 -7.270369 37,975 135 525 -64
2022-01-16 09:24:13 GMT 55.698669 -7.273365 37,975 135 525 -128
2022-01-16 09:24:12 GMT 55.701614 -7.278442 37,975 135 526 -128
2022-01-16 09:24:10 GMT 55.703201 -7.281189 37,975 135 526 -128
2022-01-16 09:24:09 GMT 55.705627 -7.285350 37,975 135 526 -128
2022-01-16 09:24:06 GMT 55.710800 -7.294422 38,000 135 526 -128
2022-01-16 09:24:05 GMT 55.712219 -7.296753 38,000 135 526 -128
2022-01-16 09:24:04 GMT 55.713959 -7.299832 38,000 135 526 -128
2022-01-16 09:24:03 GMT 55.718979 -7.308483 38,000 135 526 -128
2022-01-16 09:24:01 GMT 55.718979 -7.308483 38,000 135 526 -192
2022-01-16 09:23:59 GMT 55.722610 -7.314814 38,000 135 526 -128
2022-01-16 09:23:57 GMT 55.725769 -7.320224 38,000 135 526 -128
2022-01-16 09:23:56 GMT 55.727684 -7.323589 38,000 135 526 -64
2022-01-16 09:23:55 GMT 55.729733 -7.327194 38,000 135 526 -64
2022-01-16 09:23:53 GMT 55.733414 -7.333457 38,000 135 526 -64
2022-01-16 09:23:52 GMT 55.735153 -7.336537 38,000 135 526 0
2022-01-16 09:23:51 GMT 55.736847 -7.339533 38,000 135 526 0
2022-01-16 09:23:49 GMT 55.740326 -7.345526 38,000 135 526 64
2022-01-16 09:23:47 GMT 55.743118 -7.350353 38,000 135 526 64
2022-01-16 09:23:46 GMT 55.745701 -7.354832 38,000 135 526 0
2022-01-16 09:23:44 GMT 55.748493 -7.359724 37,975 135 526 64
2022-01-16 09:23:43 GMT 55.750031 -7.362421 38,000 135 526 0
2022-01-16 09:23:42 GMT 55.753708 -7.368736 37,975 135 525 0
2022-01-16 09:23:40 GMT 55.755936 -7.372658 37,975 135 525 0
2022-01-16 09:23:38 GMT 55.759415 -7.378651 37,975 135 525 0
2022-01-16 09:23:35 GMT 55.764416 -7.387362 37,975 135 525 0
2022-01-16 09:23:34 GMT 55.766136 -7.390366 37,975 135 524 0
2022-01-16 09:23:33 GMT 55.767700 -7.393050 37,975 135 524 0
2022-01-16 09:23:31 GMT 55.770977 -7.398777 38,000 135 523 -64
2022-01-16 09:23:30 GMT 55.772701 -7.401781 38,000 135 523 -64
2022-01-16 09:23:28 GMT 55.779591 -7.413797 38,000 135 523 -64
2022-01-16 09:23:26 GMT 55.779591 -7.413797 38,000 135 523 -64
2022-01-16 09:23:25 GMT 55.781311 -7.416801 38,000 135 523 -64
2022-01-16 09:23:23 GMT 55.783733 -7.421007 38,000 135 523 -64
2022-01-16 09:23:22 GMT 55.786331 -7.425509 38,000 135 523 -64
2022-01-16 09:23:21 GMT 55.788574 -7.429419 38,000 135 523 -64
2022-01-16 09:23:20 GMT 55.790451 -7.432750 38,000 135 523 -64
2022-01-16 09:23:18 GMT 55.793564 -7.438160 38,000 135 523 0
2022-01-16 09:23:16 GMT 55.797363 -7.444819 38,000 135 523 64
2022-01-16 09:23:14 GMT 55.800110 -7.449563 37,975 135 523 64
2022-01-16 09:23:12 GMT 55.803749 -7.455854 37,975 135 523 64
2022-01-16 09:23:10 GMT 55.807022 -7.461631 37,975 135 523 64
2022-01-16 09:23:09 GMT 55.809448 -7.465793 37,975 135 523 64
2022-01-16 09:23:08 GMT 55.810966 -7.468557 37,975 135 523 64
2022-01-16 09:23:07 GMT 55.812881 -7.471868 37,975 135 523 64
2022-01-16 09:23:05 GMT 55.815628 -7.476612 37,975 135 523 0
2022-01-16 09:23:04 GMT 55.818180 -7.481174 37,975 135 523 0
2022-01-16 09:23:03 GMT 55.819748 -7.483853 37,975 135 523 -64
2022-01-16 09:23:02 GMT 55.821487 -7.486850 37,975 135 523 -64
2022-01-16 09:23:01 GMT 55.823349 -7.490187 37,975 135 523 -64
2022-01-16 09:22:59 GMT 55.826294 -7.495256 38,000 135 523 -64
2022-01-16 09:22:58 GMT 55.828190 -7.498598 38,000 135 523 -128
2022-01-16 09:22:57 GMT 55.829914 -7.501602 38,000 135 523 -128
2022-01-16 09:22:56 GMT 55.831635 -7.504606 38,000 135 523 -64
2022-01-16 09:22:55 GMT 55.833160 -7.507324 38,000 135 523 -64
2022-01-16 09:22:53 GMT 55.836430 -7.513018 38,000 135 523 -64
2022-01-16 09:22:52 GMT 55.838154 -7.516022 38,000 135 523 -64
2022-01-16 09:22:50 GMT 55.842133 -7.522888 38,000 135 523 -64
2022-01-16 09:22:49 GMT 55.843826 -7.525968 38,000 135 523 -64
2022-01-16 09:22:47 GMT 55.846619 -7.530712 38,000 135 523 -64
2022-01-16 09:22:45 GMT 55.850208 -7.537050 37,975 135 523 -64
2022-01-16 09:22:44 GMT 55.851746 -7.539784 38,000 135 523 -64
2022-01-16 09:22:42 GMT 55.855865 -7.547025 37,975 135 522 -64
2022-01-16 09:22:39 GMT 55.859665 -7.553600 37,975 135 522 -64
2022-01-16 09:22:37 GMT 55.862778 -7.559010 37,975 135 522 -64
2022-01-16 09:22:35 GMT 55.866364 -7.565374 38,000 135 522 -64
2022-01-16 09:22:33 GMT 55.870132 -7.571983 38,000 135 522 -64
2022-01-16 09:22:31 GMT 55.874275 -7.579193 38,000 135 522 -64
2022-01-16 09:22:29 GMT 55.876652 -7.583399 38,000 135 522 -128
2022-01-16 09:22:26 GMT 55.880951 -7.590887 38,000 135 521 -64
2022-01-16 09:22:24 GMT 55.885590 -7.599020 38,000 135 521 0
2022-01-16 09:22:21 GMT 55.890198 -7.607117 37,975 135 520 0
2022-01-16 09:22:19 GMT 55.893997 -7.613775 37,975 135 521 0
2022-01-16 09:22:17 GMT 55.898071 -7.621016 37,975 135 521 64
2022-01-16 09:22:15 GMT 55.900673 -7.625456 37,975 135 521 0
2022-01-16 09:22:12 GMT 55.906120 -7.635069 37,975 135 521 64
2022-01-16 09:22:10 GMT 55.909561 -7.641163 37,975 135 521 -64
2022-01-16 09:22:07 GMT 55.915382 -7.651377 37,975 135 520 -64
2022-01-16 09:22:05 GMT 55.917938 -7.655889 38,000 135 520 -64
2022-01-16 09:22:03 GMT 55.922012 -7.663047 38,000 135 520 -64
2022-01-16 09:22:00 GMT 55.927139 -7.672119 38,000 135 520 -64
2022-01-16 09:21:57 GMT 55.932423 -7.681417 38,000 135 520 -64
2022-01-16 09:21:54 GMT 55.935333 -7.686518 38,000 135 520 -64
2022-01-16 09:21:52 GMT 55.940243 -7.695236 38,000 135 519 -64
2022-01-16 09:21:50 GMT 55.944168 -7.702082 38,000 135 519 0
2022-01-16 09:21:47 GMT 55.948761 -7.710257 38,000 135 519 0
2022-01-16 09:21:45 GMT 55.951996 -7.715898 38,000 135 518 -64
2022-01-16 09:21:42 GMT 55.956581 -7.724075 38,000 135 518 -64
2022-01-16 09:21:40 GMT 55.960510 -7.730963 38,000 135 518 -64
2022-01-16 09:21:37 GMT 55.966599 -7.741699 38,000 135 518 -64
2022-01-16 09:21:34 GMT 55.972412 -7.751936 38,000 135 517 -64
2022-01-16 09:21:31 GMT 55.975948 -7.758236 38,000 135 517 -64
2022-01-16 09:21:29 GMT 55.979343 -7.764158 38,000 135 516 0
2022-01-16 09:21:27 GMT 55.983070 -7.770767 38,000 135 516 0
2022-01-16 09:21:25 GMT 55.985596 -7.775324 38,000 135 516 -64
2022-01-16 09:21:23 GMT 55.989670 -7.782482 38,000 135 516 0
2022-01-16 09:21:21 GMT 55.992893 -7.788191 38,000 135 516 0
2022-01-16 09:21:19 GMT 55.996124 -7.793884 38,000 135 516 64
2022-01-16 09:21:16 GMT 56.001038 -7.802525 37,975 135 516 64
2022-01-16 09:21:14 GMT 56.003586 -7.807035 37,975 135 516 64
2022-01-16 09:21:12 GMT 56.008488 -7.815742 37,975 135 516 0
2022-01-16 09:21:08 GMT 56.015076 -7.827426 38,000 135 516 0
2022-01-16 09:21:05 GMT 56.019985 -7.836084 37,975 135 516 0
2022-01-16 09:21:03 GMT 56.025238 -7.845403 37,975 135 517 -64
2022-01-16 09:21:00 GMT 56.028786 -7.851706 37,975 135 517 -64
2022-01-16 09:20:57 GMT 56.034027 -7.861051 37,975 135 517 -64
2022-01-16 09:20:55 GMT 56.037415 -7.867043 38,000 135 517 -64
2022-01-16 09:20:52 GMT 56.041306 -7.873936 37,975 135 517 -64
2022-01-16 09:20:50 GMT 56.045563 -7.881442 38,000 135 518 -64
2022-01-16 09:20:47 GMT 56.050964 -7.891097 37,975 135 518 0
2022-01-16 09:20:45 GMT 56.054031 -7.896507 38,000 135 518 -64
2022-01-16 09:20:43 GMT 56.057419 -7.902582 38,000 135 518 -64
2022-01-16 09:20:40 GMT 56.062347 -7.911358 38,000 135 518 -64
2022-01-16 09:20:37 GMT 56.068268 -7.921892 38,000 135 518 -64
2022-01-16 09:20:35 GMT 56.070450 -7.925777 38,000 135 518 -64
2022-01-16 09:20:32 GMT 56.077244 -7.937880 37,975 135 518 64
2022-01-16 09:20:29 GMT 56.080597 -7.943888 38,000 135 518 0
2022-01-16 09:20:27 GMT 56.085346 -7.952385 37,975 135 518 64
2022-01-16 09:20:25 GMT 56.088593 -7.958097 37,975 135 518 64
2022-01-16 09:20:22 GMT 56.092793 -7.965603 37,975 135 518 64
2022-01-16 09:20:20 GMT 56.096375 -7.971996 37,975 135 518 0
2022-01-16 09:20:17 GMT 56.102291 -7.982512 37,975 135 518 0
2022-01-16 09:20:15 GMT 56.104664 -7.986803 37,975 135 518 -64
2022-01-16 09:20:12 GMT 56.110390 -7.997017 37,975 135 518 -64
2022-01-16 09:20:09 GMT 56.114960 -8.005205 37,975 135 518 -64
2022-01-16 09:20:06 GMT 56.119400 -8.013028 37,975 135 519 -64
2022-01-16 09:20:04 GMT 56.122787 -8.019104 37,975 135 519 -64
2022-01-16 09:20:02 GMT 56.127010 -8.026714 37,975 135 519 -64
2022-01-16 09:19:59 GMT 56.132263 -8.036083 37,975 135 519 -64
2022-01-16 09:19:55 GMT 56.139038 -8.048151 37,975 135 519 -64
2022-01-16 09:19:53 GMT 56.142426 -8.054227 38,000 134 519 -64
2022-01-16 09:19:50 GMT 56.147350 -8.063021 38,000 135 519 -128
2022-01-16 09:19:47 GMT 56.152908 -8.073037 38,000 134 519 -64
2022-01-16 09:19:45 GMT 56.155609 -8.077947 38,000 134 518 -64
2022-01-16 09:19:41 GMT 56.165771 -8.096175 38,000 134 519 -64
2022-01-16 09:19:39 GMT 56.165771 -8.096175 38,000 134 519 -64
2022-01-16 09:19:36 GMT 56.170853 -8.105330 38,000 134 519 -64
2022-01-16 09:19:34 GMT 56.174240 -8.111406 38,000 134 519 -64
2022-01-16 09:19:32 GMT 56.177795 -8.117781 38,000 134 519 -64
2022-01-16 09:19:29 GMT 56.182709 -8.126554 38,000 134 518 0
2022-01-16 09:19:25 GMT 56.189804 -8.139371 38,000 134 518 0
2022-01-16 09:19:22 GMT 56.194042 -8.146963 38,000 134 518 0
2022-01-16 09:19:19 GMT 56.199280 -8.156350 38,000 134 518 -64
2022-01-16 09:19:16 GMT 56.204315 -8.165422 38,000 134 518 -64
2022-01-16 09:19:14 GMT 56.207542 -8.171253 38,000 134 518 -64
2022-01-16 09:19:12 GMT 56.210724 -8.176991 38,000 134 518 -64
2022-01-16 09:19:09 GMT 56.216812 -8.187894 38,000 134 517 64
2022-01-16 09:19:06 GMT 56.221046 -8.195457 38,000 134 517 64
2022-01-16 09:19:03 GMT 56.235031 -8.220686 37,975 134 517 0
2022-01-16 09:18:59 GMT 56.235031 -8.220686 37,975 134 517 0
2022-01-16 09:18:55 GMT 56.243298 -8.235626 38,000 134 517 64
2022-01-16 09:18:53 GMT 56.243298 -8.235626 38,000 134 519 0
2022-01-16 09:18:51 GMT 56.246155 -8.240745 37,975 134 517 0
2022-01-16 09:18:48 GMT 56.252197 -8.251731 37,975 134 517 0
2022-01-16 09:18:44 GMT 56.257919 -8.262052 37,975 134 517 0
2022-01-16 09:18:40 GMT 56.264328 -8.273621 37,975 134 518 0
2022-01-16 09:18:36 GMT 56.272064 -8.287686 37,975 134 518 -64
2022-01-16 09:18:34 GMT 56.275452 -8.293762 37,975 134 518 -64
2022-01-16 09:18:31 GMT 56.282181 -8.305914 37,975 134 519 -64
2022-01-16 09:18:28 GMT 56.287430 -8.315449 37,975 134 519 -64
2022-01-16 09:18:25 GMT 56.291153 -8.322144 38,000 134 519 -64
2022-01-16 09:18:22 GMT 56.295528 -8.330040 37,975 134 519 -64
2022-01-16 09:18:19 GMT 56.301579 -8.341112 38,000 134 519 -64
2022-01-16 09:18:16 GMT 56.306004 -8.349009 37,975 134 519 -64
2022-01-16 09:18:14 GMT 56.309353 -8.355188 37,975 134 519 -64
2022-01-16 09:18:12 GMT 56.312897 -8.361594 37,975 134 519 -64
2022-01-16 09:18:09 GMT 56.319504 -8.373556 38,000 134 519 -64
2022-01-16 09:18:06 GMT 56.323013 -8.379988 37,975 134 520 -64
2022-01-16 09:18:04 GMT 56.327927 -8.388834 37,975 134 520 0
2022-01-16 09:18:01 GMT 56.331482 -8.395303 37,975 134 520 0
2022-01-16 09:17:58 GMT 56.336197 -8.403875 37,975 134 520 -64
2022-01-16 09:17:55 GMT 56.341278 -8.413114 38,000 134 520 -64
2022-01-16 09:17:53 GMT 56.344986 -8.419855 38,000 134 520 -64
2022-01-16 09:17:48 GMT 56.352600 -8.433723 38,000 134 521 -64
2022-01-16 09:17:45 GMT 56.358170 -8.443825 38,000 134 521 -64
2022-01-16 09:17:43 GMT 56.361557 -8.449984 38,000 134 521 -64
2022-01-16 09:17:40 GMT 56.366638 -8.459223 37,975 134 521 -64
2022-01-16 09:17:36 GMT 56.374054 -8.472789 38,000 134 521 -64
2022-01-16 09:17:34 GMT 56.382023 -8.487282 38,000 134 521 -64
2022-01-16 09:17:31 GMT 56.382023 -8.487282 38,000 134 521 -64
2022-01-16 09:17:28 GMT 56.386917 -8.496260 38,000 134 521 -64
2022-01-16 09:17:25 GMT 56.391998 -8.505499 38,000 134 521 0
2022-01-16 09:17:23 GMT 56.397034 -8.514737 38,000 134 521 0
2022-01-16 09:17:20 GMT 56.400421 -8.520896 38,000 134 521 0
2022-01-16 09:17:16 GMT 56.407516 -8.533880 38,000 134 521 0
2022-01-16 09:17:14 GMT 56.411591 -8.541288 38,000 134 521 0
2022-01-16 09:17:10 GMT 56.417633 -8.552357 37,975 134 521 0
2022-01-16 09:17:06 GMT 56.424896 -8.565645 37,975 134 521 0
2022-01-16 09:17:04 GMT 56.428436 -8.572166 37,975 134 521 0
2022-01-16 09:17:01 GMT 56.432510 -8.579573 38,000 134 520 -64
2022-01-16 09:16:58 GMT 56.437698 -8.589163 38,000 134 520 -64
2022-01-16 09:16:55 GMT 56.443268 -8.599382 38,000 134 520 -64
2022-01-16 09:16:52 GMT 56.448174 -8.608303 38,000 134 520 0
2022-01-16 09:16:48 GMT 56.459793 -8.629678 37,975 134 521 64
2022-01-16 09:16:45 GMT 56.459793 -8.629678 37,975 134 521 0
2022-01-16 09:16:43 GMT 56.462494 -8.634588 37,975 134 521 -64
2022-01-16 09:16:41 GMT 56.466702 -8.642378 38,000 134 521 0
2022-01-16 09:16:38 GMT 56.473297 -8.654397 37,975 134 521 0
2022-01-16 09:16:35 GMT 56.476639 -8.660639 37,975 134 521 0
2022-01-16 09:16:33 GMT 56.479340 -8.665550 37,975 134 521 0
2022-01-16 09:16:30 GMT 56.484741 -8.675537 38,000 134 521 -64
2022-01-16 09:16:25 GMT 56.493851 -8.692266 37,975 134 521 -64
2022-01-16 09:16:20 GMT 56.503105 -8.709326 38,000 134 521 -64
2022-01-16 09:16:15 GMT 56.510330 -8.722645 38,000 134 521 -64
2022-01-16 09:16:11 GMT 56.518066 -8.736961 37,975 134 521 0
2022-01-16 09:16:08 GMT 56.521305 -8.742886 38,000 134 521 0
2022-01-16 09:16:05 GMT 56.527176 -8.753773 37,975 134 521 0
2022-01-16 09:15:59 GMT 56.536285 -8.770585 37,975 134 521 0
2022-01-16 09:15:56 GMT 56.542648 -8.782404 38,000 134 521 -64
2022-01-16 09:15:49 GMT 56.553940 -8.803225 38,000 134 521 -64
2022-01-16 09:15:46 GMT 56.559494 -8.813532 38,000 134 521 -64
2022-01-16 09:15:44 GMT 56.561993 -8.818159 38,000 134 521 -64
2022-01-16 09:15:39 GMT 56.571259 -8.835338 38,000 134 521 -64
2022-01-16 09:15:35 GMT 56.577820 -8.847427 38,000 134 521 -64
2022-01-16 09:15:29 GMT 56.587223 -8.864851 37,975 134 521 0
2022-01-16 09:15:25 GMT 56.594627 -8.878548 38,000 134 521 0
2022-01-16 09:15:20 GMT 56.603004 -8.894141 38,000 134 521 0
2022-01-16 09:15:17 GMT 56.607193 -8.901930 38,000 134 520 -64
2022-01-16 09:15:14 GMT 56.611385 -8.909735 38,000 134 520 0
2022-01-16 09:15:10 GMT 56.619438 -8.924708 38,000 134 520 0
2022-01-16 09:15:07 GMT 56.624466 -8.934011 38,000 134 520 0
2022-01-16 09:15:04 GMT 56.628471 -8.941542 37,975 134 520 64
2022-01-16 09:14:57 GMT 56.640381 -8.963642 37,975 134 520 64
2022-01-16 09:14:54 GMT 56.645050 -8.972397 37,975 134 520 64
2022-01-16 09:14:50 GMT 56.654911 -8.990803 38,000 134 523 -64
2022-01-16 09:14:47 GMT 56.662964 -9.005777 37,975 134 520 64
2022-01-16 09:14:44 GMT 56.662964 -9.005777 38,000 134 520 0
2022-01-16 09:14:37 GMT 56.674000 -9.026420 37,975 134 521 0
2022-01-16 09:14:34 GMT 56.678879 -9.035482 37,975 134 521 -64
2022-01-16 09:14:28 GMT 56.688950 -9.054279 37,975 134 521 -64
2022-01-16 09:14:24 GMT 56.695831 -9.067176 38,000 134 521 -64
2022-01-16 09:14:18 GMT 56.706585 -9.087288 37,975 134 522 -64
2022-01-16 09:14:14 GMT 56.712433 -9.098225 38,000 134 522 -64
2022-01-16 09:14:08 GMT 56.722870 -9.117794 38,000 134 523 -64
2022-01-16 09:14:04 GMT 56.729599 -9.130411 38,000 134 523 -64
2022-01-16 09:13:58 GMT 56.739498 -9.149042 38,000 133 524 -64
2022-01-16 09:13:54 GMT 56.746033 -9.161396 38,000 133 524 -64
2022-01-16 09:13:47 GMT 56.757652 -9.183153 37,975 133 524 -64
2022-01-16 09:13:44 GMT 56.762680 -9.192633 37,975 134 524 -64
2022-01-16 09:13:37 GMT 56.774460 -9.214871 38,000 134 524 -64
2022-01-16 09:13:34 GMT 56.779858 -9.224972 38,000 134 524 -64
2022-01-16 09:13:28 GMT 56.791309 -9.246501 38,000 134 524 -64
2022-01-16 09:13:24 GMT 56.796337 -9.256070 38,000 133 525 0
2022-01-16 09:13:17 GMT 56.808811 -9.279549 37,975 133 525 -64
2022-01-16 09:13:14 GMT 56.813690 -9.288769 37,975 133 525 0
2022-01-16 09:13:12 GMT 56.817192 -9.295408 37,975 133 524 -64
2022-01-16 09:13:08 GMT 56.825775 -9.311600 37,975 133 524 -64
2022-01-16 09:13:04 GMT 56.830811 -9.321127 38,000 133 524 -64
2022-01-16 09:12:59 GMT 56.839874 -9.338293 38,000 133 524 -64
2022-01-16 09:12:56 GMT 56.843582 -9.345245 38,000 133 524 0
2022-01-16 09:12:53 GMT 56.848297 -9.354172 37,975 134 524 0
2022-01-16 09:12:47 GMT 56.859741 -9.375715 37,975 134 524 -64
2022-01-16 09:12:44 GMT 56.866676 -9.388615 37,975 134 523 -64
2022-01-16 09:12:42 GMT 56.866676 -9.388615 38,000 134 522 -64
2022-01-16 09:12:36 GMT 56.878006 -9.409618 38,000 133 522 -64
2022-01-16 09:12:33 GMT 56.882309 -9.417944 38,000 132 522 -64
2022-01-16 09:12:27 GMT 56.893982 -9.442492 38,000 128 520 64
2022-01-16 09:12:23 GMT 56.898148 -9.452105 38,000 127 519 64
2022-01-16 09:12:16 GMT 56.909225 -9.480600 38,000 122 517 0
2022-01-16 09:12:13 GMT 56.911560 -9.487123 37,975 122 517 0
2022-01-16 09:12:08 GMT 56.918118 -9.506895 37,975 117 513 -64
2022-01-16 09:12:04 GMT 56.922546 -9.521713 38,000 117 513 -64
2022-01-16 09:12:02 GMT 56.924286 -9.527893 38,000 116 513 0
2022-01-16 09:11:56 GMT 56.930878 -9.553728 37,975 112 510 0
2022-01-16 09:11:53 GMT 56.933666 -9.565991 38,000 111 509 -64
2022-01-16 09:11:48 GMT 56.937515 -9.584970 38,000 108 507 0
2022-01-16 09:11:45 GMT 56.940323 -9.600810 37,975 106 506 64
2022-01-16 09:11:42 GMT 56.941452 -9.607801 37,975 105 504 64
2022-01-16 09:11:34 GMT 56.946716 -9.642220 37,975 105 505 0
2022-01-16 09:11:32 GMT 56.947678 -9.648388 37,975 105 505 64
2022-01-16 09:11:28 GMT 56.950699 -9.668570 37,975 105 505 0
2022-01-16 09:11:25 GMT 56.952007 -9.677183 37,975 105 505 -64
2022-01-16 09:11:22 GMT 56.954384 -9.692777 37,975 105 505 -64
2022-01-16 09:11:18 GMT 56.956615 -9.707573 38,000 105 506 -64
2022-01-16 09:11:14 GMT 56.959167 -9.724445 38,000 105 506 -64
2022-01-16 09:11:12 GMT 56.960342 -9.732292 38,000 105 506 -64
2022-01-16 09:11:07 GMT 56.963322 -9.752050 37,975 105 506 -64
2022-01-16 09:11:04 GMT 56.965347 -9.765644 38,000 105 506 -64
2022-01-16 09:11:02 GMT 56.966721 -9.774742 37,975 105 506 -64
2022-01-16 09:10:57 GMT 56.969559 -9.793711 38,000 105 506 -64
2022-01-16 09:10:54 GMT 56.971561 -9.807247 38,000 105 505 -64
2022-01-16 09:10:52 GMT 56.972912 -9.816284 37,975 105 505 -64
2022-01-16 09:10:48 GMT 56.975464 -9.833193 38,000 105 504 -64
2022-01-16 09:10:44 GMT 56.977661 -9.848042 38,000 105 504 -64
2022-01-16 09:10:41 GMT 56.979218 -9.858685 38,000 105 504 -64
2022-01-16 09:10:33 GMT 56.984070 -9.891644 38,000 105 504 -64
2022-01-16 09:10:31 GMT 56.985245 -9.899390 38,000 106 504 -64
2022-01-16 09:10:24 GMT 56.990616 -9.930782 38,000 108 505 0
2022-01-16 09:10:21 GMT 56.992508 -9.940855 38,000 109 506 0
2022-01-16 09:10:14 GMT 56.998886 -9.972042 38,000 112 506 0
2022-01-16 09:10:08 GMT 57.004395 -9.996185 38,000 114 507 64
2022-01-16 09:10:03 GMT 57.008385 -10.012266 37,975 115 508 64
2022-01-16 09:10:01 GMT 57.010849 -10.021935 38,000 116 508 0
2022-01-16 09:09:54 GMT 57.020325 -10.055666 37,975 119 510 -64
2022-01-16 09:09:50 GMT 57.023300 -10.065451 38,000 120 511 -64
2022-01-16 09:09:44 GMT 57.029755 -10.085621 37,975 121 512 0
2022-01-16 09:09:41 GMT 57.033737 -10.097380 37,975 122 512 0
2022-01-16 09:09:38 GMT 57.038223 -10.110598 38,000 122 512 0
2022-01-16 09:09:32 GMT 57.045158 -10.130812 38,000 122 512 0
2022-01-16 09:09:27 GMT 57.050652 -10.146937 38,000 122 512 0
2022-01-16 09:09:24 GMT 57.055298 -10.160551 37,975 122 512 64
2022-01-16 09:09:20 GMT 57.059731 -10.173340 38,000 122 512 0
2022-01-16 09:09:17 GMT 57.063454 -10.184415 37,975 122 512 0
2022-01-16 09:09:14 GMT 57.067841 -10.197201 37,975 122 512 0
2022-01-16 09:09:10 GMT 57.071869 -10.208960 37,975 121 511 -64
2022-01-16 09:09:07 GMT 57.076355 -10.222178 38,000 121 511 -64
2022-01-16 09:09:04 GMT 57.080109 -10.233164 38,000 121 511 -64
2022-01-16 09:09:00 GMT 57.084496 -10.246080 38,000 121 511 -64
2022-01-16 09:08:57 GMT 57.088623 -10.258226 38,000 121 511 -64
2022-01-16 09:08:54 GMT 57.093014 -10.271065 38,000 121 511 -64
2022-01-16 09:08:50 GMT 57.097137 -10.283203 38,000 121 511 0
2022-01-16 09:08:44 GMT 57.105377 -10.307407 37,975 121 511 0
2022-01-16 09:08:40 GMT 57.110237 -10.321744 37,975 121 511 0
2022-01-16 09:08:37 GMT 57.113846 -10.332384 37,975 121 511 0
2022-01-16 09:08:34 GMT 57.117966 -10.344603 37,975 121 511 0
2022-01-16 09:08:30 GMT 57.122772 -10.358906 38,000 121 511 -64
2022-01-16 09:08:24 GMT 57.130508 -10.381651 38,000 121 511 0
2022-01-16 09:08:20 GMT 57.134995 -10.394955 37,975 121 510 64
2022-01-16 09:08:14 GMT 57.142780 -10.418140 37,975 121 510 64
2022-01-16 09:08:09 GMT 57.147713 -10.432848 37,975 121 510 0
2022-01-16 09:08:03 GMT 57.156094 -10.457921 38,000 121 510 -64
2022-01-16 09:07:59 GMT 57.160282 -10.470502 38,000 121 509 -64
2022-01-16 09:07:53 GMT 57.167915 -10.493361 37,975 121 509 -64
2022-01-16 09:07:49 GMT 57.172295 -10.506739 37,975 121 510 -64
2022-01-16 09:07:44 GMT 57.179649 -10.528889 38,000 121 510 -64
2022-01-16 09:07:39 GMT 57.184891 -10.544815 38,000 121 509 -64
2022-01-16 09:07:33 GMT 57.192444 -10.567732 38,000 121 509 -64
2022-01-16 09:07:29 GMT 57.197296 -10.582581 37,975 121 509 0
2022-01-16 09:07:23 GMT 57.204346 -10.604038 38,000 121 509 -64
2022-01-16 09:07:18 GMT 57.210281 -10.622185 38,000 121 509 -64
2022-01-16 09:07:13 GMT 57.216431 -10.641117 38,000 121 508 0
2022-01-16 09:07:09 GMT 57.222015 -10.658112 38,000 121 508 0
2022-01-16 09:07:02 GMT 57.229248 -10.680342 38,000 120 508 0
2022-01-16 09:06:59 GMT 57.233929 -10.694836 37,975 120 508 0
2022-01-16 09:06:53 GMT 57.240910 -10.716277 38,000 120 508 0
2022-01-16 09:06:48 GMT 57.246094 -10.732269 37,975 121 508 -64
2022-01-16 09:06:42 GMT 57.254105 -10.756731 38,000 121 508 -64
2022-01-16 09:06:38 GMT 57.258602 -10.770411 37,975 121 508 0
2022-01-16 09:06:33 GMT 57.265446 -10.791055 37,975 121 509 0
2022-01-16 09:06:28 GMT 57.271122 -10.808066 37,975 121 509 -64
2022-01-16 09:06:22 GMT 57.278107 -10.828621 37,975 122 510 -64
2022-01-16 09:06:18 GMT 57.283459 -10.843949 38,000 123 510 0
2022-01-16 09:06:12 GMT 57.291138 -10.865393 37,975 123 510 0
2022-01-16 09:06:08 GMT 57.296726 -10.880983 38,000 123 510 0
2022-01-16 09:06:02 GMT 57.303989 -10.901273 37,975 123 510 64
2022-01-16 09:05:58 GMT 57.310043 -10.918436 37,975 123 510 -64
2022-01-16 09:05:53 GMT 57.316223 -10.935860 37,975 123 510 0
2022-01-16 09:05:51 GMT 57.318142 -10.941320 37,975 123 510 -64
2022-01-16 09:05:47 GMT 57.323307 -10.955850 37,975 123 510 -64
2022-01-16 09:05:42 GMT 57.330139 -10.975170 38,000 123 510 0
2022-01-16 09:05:37 GMT 57.336205 -10.992353 38,000 123 511 -64
2022-01-16 09:05:32 GMT 57.343277 -11.012421 38,000 123 511 0
2022-01-16 09:05:27 GMT 57.349331 -11.029565 37,975 123 511 0
2022-01-16 09:05:21 GMT 57.357742 -11.053276 37,975 123 512 0
2022-01-16 09:05:17 GMT 57.362411 -11.066494 37,975 123 512 0
2022-01-16 09:05:12 GMT 57.369209 -11.085825 38,000 123 512 -128
2022-01-16 09:05:07 GMT 57.375401 -11.103457 38,000 123 512 -128
2022-01-16 09:05:03 GMT 57.380951 -11.119194 38,000 123 512 -128
2022-01-16 09:05:01 GMT 57.382896 -11.124720 38,000 123 512 -128
2022-01-16 09:04:57 GMT 57.388344 -11.140048 38,000 123 512 -128
2022-01-16 09:04:52 GMT 57.395462 -11.160221 38,000 123 512 -64
2022-01-16 09:04:47 GMT 57.401237 -11.176728 38,000 123 511 64
2022-01-16 09:04:43 GMT 57.406769 -11.192493 37,975 123 511 64
2022-01-16 09:04:41 GMT 57.409103 -11.199102 38,000 123 511 64
2022-01-16 09:04:37 GMT 57.414734 -11.215153 37,975 122 511 0
2022-01-16 09:04:33 GMT 57.419357 -11.228371 38,000 122 511 -64
2022-01-16 09:04:30 GMT 57.422470 -11.237211 38,000 122 511 -64
2022-01-16 09:04:27 GMT 57.427597 -11.251802 38,000 123 510 -64
2022-01-16 09:04:23 GMT 57.432053 -11.264619 38,000 123 510 0
2022-01-16 09:04:21 GMT 57.434383 -11.271264 38,000 123 510 0
2022-01-16 09:04:17 GMT 57.440292 -11.288098 38,000 123 510 64
2022-01-16 09:04:12 GMT 57.445770 -11.303816 38,000 122 509 64
2022-01-16 09:04:10 GMT 57.448441 -11.311488 37,975 122 509 0
2022-01-16 09:04:06 GMT 57.453327 -11.325398 37,975 122 509 0
2022-01-16 09:04:02 GMT 57.458450 -11.340106 38,000 122 509 0
2022-01-16 09:04:00 GMT 57.461105 -11.347761 38,000 122 510 -64
2022-01-16 09:03:56 GMT 57.466873 -11.364293 38,000 122 509 -64
2022-01-16 09:03:53 GMT 57.470692 -11.375280 38,000 122 509 -64
2022-01-16 09:03:50 GMT 57.473766 -11.384051 38,000 122 510 -64
2022-01-16 09:03:46 GMT 57.479118 -11.399467 38,000 122 510 -64
2022-01-16 09:03:43 GMT 57.483727 -11.412669 38,000 122 510 0
2022-01-16 09:03:40 GMT 57.486649 -11.421146 38,000 122 510 0
2022-01-16 09:03:36 GMT 57.492508 -11.438055 37,975 122 510 0
2022-01-16 09:03:33 GMT 57.496078 -11.448355 37,975 122 510 0
2022-01-16 09:03:30 GMT 57.499275 -11.457500 38,000 122 510 0
2022-01-16 09:03:26 GMT 57.504864 -11.473714 38,000 122 510 0
2022-01-16 09:03:22 GMT 57.509705 -11.487624 38,000 122 510 0
2022-01-16 09:03:20 GMT 57.512775 -11.496395 38,000 122 510 0
2022-01-16 09:03:16 GMT 57.518005 -11.511526 38,000 122 510 -64
2022-01-16 09:03:13 GMT 57.521667 -11.522177 38,000 122 510 -64
2022-01-16 09:03:10 GMT 57.525253 -11.532455 38,000 122 509 -64
2022-01-16 09:03:03 GMT 57.534485 -11.559248 38,000 122 509 -64
2022-01-16 09:03:00 GMT 57.538284 -11.570234 38,000 122 509 -64
2022-01-16 09:02:55 GMT 57.544647 -11.588602 38,000 122 509 0
2022-01-16 09:02:52 GMT 57.548527 -11.600056 38,000 122 509 0
2022-01-16 09:02:49 GMT 57.551193 -11.607742 37,975 122 508 0
2022-01-16 09:02:43 GMT 57.559887 -11.633104 38,000 122 507 0
2022-01-16 09:02:33 GMT 57.572617 -11.670227 38,000 122 507 0
2022-01-16 09:02:23 GMT 57.585350 -11.707262 37,975 122 507 0
2022-01-16 09:02:13 GMT 57.597839 -11.743612 38,000 122 507 0
2022-01-16 09:02:03 GMT 57.610256 -11.780002 37,975 122 507 64
2022-01-16 09:01:53 GMT 57.623104 -11.817568 37,975 122 508 -64
2022-01-16 09:01:43 GMT 57.635441 -11.853716 38,000 122 509 -64
2022-01-16 09:01:33 GMT 57.648335 -11.891371 38,000 122 509 -64
2022-01-16 09:01:23 GMT 57.660828 -11.927891 37,975 122 509 0
2022-01-16 09:01:13 GMT 57.673241 -11.964554 38,000 122 509 0
2022-01-16 09:01:03 GMT 57.686321 -12.003095 38,000 122 510 -64
2022-01-16 09:00:53 GMT 57.698776 -12.039814 37,975 122 510 -64
2022-01-16 09:00:43 GMT 57.711594 -12.077665 38,000 122 509 -64
2022-01-16 09:00:33 GMT 57.724030 -12.114465 38,000 122 510 -64
2022-01-16 09:00:23 GMT 57.736553 -12.151703 38,000 122 511 -64
2022-01-16 09:00:12 GMT 57.749634 -12.190521 37,975 122 511 64
2022-01-16 09:00:03 GMT 57.761459 -12.225677 37,975 122 512 0
2022-01-16 08:59:53 GMT 57.774124 -12.263577 37,975 122 513 -64
2022-01-16 08:59:42 GMT 57.786781 -12.301483 38,000 122 513 -64
2022-01-16 08:59:32 GMT 57.799351 -12.339111 37,975 122 513 -64
2022-01-16 08:59:22 GMT 57.812107 -12.377472 37,975 122 513 0
2022-01-16 08:59:12 GMT 57.824295 -12.413931 37,975 121 513 -64
2022-01-16 08:59:02 GMT 57.837296 -12.453092 37,975 121 513 -64
2022-01-16 08:58:52 GMT 57.849442 -12.489624 38,000 121 513 -64
2022-01-16 08:58:42 GMT 57.862198 -12.528076 38,000 121 512 -64
2022-01-16 08:58:32 GMT 57.874722 -12.565704 38,000 121 512 -64
2022-01-16 08:58:22 GMT 57.887833 -12.605217 38,000 121 512 -64
2022-01-16 08:58:11 GMT 57.900463 -12.643158 38,000 121 512 -64
2022-01-16 08:58:01 GMT 57.913452 -12.682434 38,000 121 512 64
2022-01-16 08:57:51 GMT 57.925602 -12.719513 37,975 121 513 64
2022-01-16 08:57:42 GMT 57.937637 -12.756190 38,000 121 513 0
2022-01-16 08:57:31 GMT 57.951279 -12.797920 37,975 121 514 -64
2022-01-16 08:57:21 GMT 57.962845 -12.833221 37,975 121 514 0
2022-01-16 08:57:11 GMT 57.975506 -12.871948 38,000 121 514 -64
2022-01-16 08:57:01 GMT 57.988167 -12.910675 37,975 121 514 0
2022-01-16 08:56:51 GMT 58.000671 -12.949071 38,000 121 514 -128
2022-01-16 08:56:42 GMT 58.012070 -12.984068 38,000 121 512 -64
2022-01-16 08:56:40 GMT 58.013260 -12.987789 38,000 121 512 0
2022-01-16 08:56:32 GMT 58.024246 -13.021637 37,975 121 511 0
2022-01-16 08:56:22 GMT 58.036102 -13.058491 38,000 121 510 -64
2022-01-16 08:56:12 GMT 58.048733 -13.097534 38,000 121 510 -64
2022-01-16 08:56:02 GMT 58.060638 -13.134244 37,975 121 510 -64
2022-01-16 08:55:56 GMT 58.068283 -13.157811 38,000 121 510 0
2022-01-16 08:55:50 GMT 58.075882 -13.181290 38,000 121 510 -64
2022-01-16 08:55:42 GMT 58.085678 -13.211680 38,000 121 510 -64
2022-01-16 08:55:40 GMT 58.088104 -13.219211 38,000 121 510 -64
2022-01-16 08:55:32 GMT 58.097626 -13.248892 37,975 121 510 64
2022-01-16 08:55:30 GMT 58.100052 -13.256422 37,975 121 510 0
2022-01-16 08:55:22 GMT 58.110077 -13.287609 37,975 121 509 0
2022-01-16 08:55:18 GMT 58.114323 -13.300873 37,975 121 509 -64
2022-01-16 08:55:12 GMT 58.122253 -13.325619 37,975 121 509 -64
2022-01-16 08:55:08 GMT 58.126522 -13.338867 37,975 121 509 -64
2022-01-16 08:55:01 GMT 58.134933 -13.365045 38,000 121 509 -64
2022-01-16 08:54:59 GMT 58.137863 -13.374171 38,000 121 508 0
2022-01-16 08:54:51 GMT 58.146957 -13.402679 37,975 121 508 64
2022-01-16 08:54:47 GMT 58.151566 -13.417053 37,975 121 509 64
2022-01-16 08:54:41 GMT 58.159241 -13.441064 37,975 121 508 0
2022-01-16 08:54:20 GMT 58.185268 -13.522797 38,000 121 509 0
2022-01-16 08:54:12 GMT 58.195038 -13.553585 37,975 121 508 -64
2022-01-16 08:54:02 GMT 58.207241 -13.592102 38,000 120 509 -64
2022-01-16 08:53:52 GMT 58.219624 -13.631012 38,000 120 509 -64
2022-01-16 08:53:41 GMT 58.232147 -13.670746 38,000 120 509 0
2022-01-16 08:53:32 GMT 58.243652 -13.707128 38,000 120 510 0
2022-01-16 08:53:21 GMT 58.256077 -13.746643 38,000 120 511 -64
2022-01-16 08:53:10 GMT 58.268646 -13.786560 38,000 120 511 -128
2022-01-16 08:52:55 GMT 58.286728 -13.843925 38,000 120 512 0
2022-01-16 08:52:51 GMT 58.292152 -13.861267 37,975 120 512 64
We lost coverage of the aircraft here for a total of 74 minutes
2022-01-16 07:38:54 GMT 61.099998 -34.783333 38,000 89 550
2022-01-16 07:37:54 GMT 61.083332 -35.099998 38,000 89 550
2022-01-16 07:36:54 GMT 61.099998 -35.416668 38,000 87 550
2022-01-16 07:35:54 GMT 61.099998 -35.716667 38,000 87 550
2022-01-16 07:34:55 GMT 61.083332 -36.033333 38,000 87 550
2022-01-16 07:33:54 GMT 61.083332 -36.349998 38,000 89 550
2022-01-16 07:32:54 GMT 61.083332 -36.666668 38,000 89 550
2022-01-16 07:31:54 GMT 61.066666 -36.983334 38,000 87 560
2022-01-16 07:30:54 GMT 61.083332 -37.299999 38,000 85 560
2022-01-16 07:29:54 GMT 61.083332 -37.616669 38,000 85 560
2022-01-16 07:28:55 GMT 61.049999 -37.933334 38,000 87 560
2022-01-16 07:27:54 GMT 61.049999 -38.233334 38,000 87 560
2022-01-16 07:26:54 GMT 61.049999 -38.583332 38,000 85 560
2022-01-16 07:25:54 GMT 61.033333 -38.866669 38,000 85 560
2022-01-16 07:24:54 GMT 61.033333 -39.216667 38,000 81 560
2022-01-16 07:23:55 GMT 61.016666 -39.533333 38,000 79 560
2022-01-16 07:22:54 GMT 61.000000 -39.883331 38,000 72 560
2022-01-16 07:21:54 GMT 60.966667 -40.200001 38,000 72 570
2022-01-16 07:20:54 GMT 60.933334 -40.483334 38,000 69 570
2022-01-16 07:19:54 GMT 60.866669 -40.799999 38,000 72 570
2022-01-16 07:18:54 GMT 60.833332 -41.066666 38,000 69 570
2022-01-16 07:17:54 GMT 60.766666 -41.416668 38,000 71 570
2022-01-16 07:16:54 GMT 60.733334 -41.700001 38,000 70 570
2022-01-16 07:15:54 GMT 60.666668 -42.016666 38,000 70 570
2022-01-16 07:14:54 GMT 60.616669 -42.333332 38,000 68 570
2022-01-16 07:13:54 GMT 60.583332 -42.599998 38,000 67 570
2022-01-16 07:12:54 GMT 60.516666 -42.916668 38,000 69 570
2022-01-16 07:11:54 GMT 60.450001 -43.233334 38,000 70 560
2022-01-16 07:10:54 GMT 60.400002 -43.533333 38,000 68 560
2022-01-16 07:09:54 GMT 60.349998 -43.833332 38,000 68 560
2022-01-16 07:08:54 GMT 60.299999 -44.116669 38,000 69 560
2022-01-16 07:07:54 GMT 60.233334 -44.416668 38,000 68 560
2022-01-16 07:06:53 GMT 60.183334 -44.716667 38,000 68 560
2022-01-16 07:05:54 GMT 60.133331 -45.033333 38,000 65 560
2022-01-16 07:04:54 GMT 60.066666 -45.299999 38,000 66 560
2022-01-16 07:03:54 GMT 60.016666 -45.566666 38,000 64 550
2022-01-16 07:02:54 GMT 59.950001 -45.866669 38,000 66 550
2022-01-16 07:01:54 GMT 59.883331 -46.166668 38,000 67 550
2022-01-16 07:00:53 GMT 59.816666 -46.433334 38,000 65 540
2022-01-16 06:59:54 GMT 59.766666 -46.716667 38,000 66 540
2022-01-16 06:58:54 GMT 59.716667 -46.983334 38,000 65 540
2022-01-16 06:57:54 GMT 59.633331 -47.250000 38,000 67 540
2022-01-16 06:56:54 GMT 59.583332 -47.549999 38,000 65 550
2022-01-16 06:55:53 GMT 59.533333 -47.799999 38,000 65 550
2022-01-16 06:54:54 GMT 59.466667 -48.066666 38,000 63 550
2022-01-16 06:53:54 GMT 59.400002 -48.349998 38,000 65 550
2022-01-16 06:52:54 GMT 59.349998 -48.616669 38,000 63 550
2022-01-16 06:51:54 GMT 59.266666 -48.866669 38,000 64 550
2022-01-16 06:50:53 GMT 59.216667 -49.150002 38,000 63 550
2022-01-16 06:49:53 GMT 59.150002 -49.416668 38,000 57 550
2022-01-16 06:48:54 GMT 59.066666 -49.700001 38,000 56 550
2022-01-16 06:47:54 GMT 59.016666 -49.950001 38,000 56 540
2022-01-16 06:47:06 GMT 58.933334 -50.083332 38,000 60 540
2022-01-16 06:46:06 GMT 58.849998 -50.333332 38,000 62 540
2022-01-16 06:45:06 GMT 58.799999 -50.583332 38,000 63 530
2022-01-16 06:44:05 GMT 58.716667 -50.833332 38,000 61 530
2022-01-16 06:43:05 GMT 58.650002 -51.099998 38,000 58 530
2022-01-16 06:41:54 GMT 58.566666 -51.500000 38,000 54 530
2022-01-16 06:41:06 GMT 58.500000 -51.599998 38,000 57 530
2022-01-16 06:40:06 GMT 58.416668 -51.849998 38,000 57 530
2022-01-16 06:39:05 GMT 58.349998 -52.083332 38,000 57 530
We lost coverage of the aircraft here for a total of 8 minutes
2022-01-16 06:31:06 GMT 57.733334 -54.000000 38,000 56 530
2022-01-16 06:30:06 GMT 57.650002 -54.233334 38,000 57 530
2022-01-16 06:29:06 GMT 57.583332 -54.466667 38,000 58 530
2022-01-16 06:28:05 GMT 57.483334 -54.700001 38,000 61 530
2022-01-16 06:27:05 GMT 57.416668 -54.933334 38,000 60 520
2022-01-16 06:25:53 GMT 57.316666 -55.299999 38,000 50 520
2022-01-16 06:24:54 GMT 57.250000 -55.516666 38,000 47 520
2022-01-16 06:23:54 GMT 57.166668 -55.750000 38,000 48 520
2022-01-16 06:22:35 GMT 57.049999 -55.900002 38,000 53 520
2022-01-16 06:21:35 GMT 56.966667 -56.099998 38,000 55 520
2022-01-16 06:20:35 GMT 56.883331 -56.333332 38,000 59 520
2022-01-16 06:19:35 GMT 56.799999 -56.533333 38,000 64 520
2022-01-16 06:18:35 GMT 56.716667 -56.766666 38,000 66 510
2022-01-16 06:17:35 GMT 56.666668 -57.016666 38,000 66 510
2022-01-16 06:16:35 GMT 56.616669 -57.233334 38,000 65 510
2022-01-16 06:15:35 GMT 56.549999 -57.483334 38,000 66 510
2022-01-16 06:14:35 GMT 56.500000 -57.733334 38,000 63 510
2022-01-16 06:13:35 GMT 56.433334 -57.983334 38,000 63 510
2022-01-16 06:12:35 GMT 56.383331 -58.183334 38,000 63 510
2022-01-16 06:11:35 GMT 56.316666 -58.400002 38,000 66 510
2022-01-16 06:10:35 GMT 56.250000 -58.650002 38,000 65 510
2022-01-16 06:09:34 GMT 56.200001 -58.866669 38,000 64 510
2022-01-16 06:08:35 GMT 56.150002 -59.099998 38,000 68 510
2022-01-16 06:07:35 GMT 56.083332 -59.316666 37,900 68 510
2022-01-16 06:06:35 GMT 56.016666 -59.566666 37,300 63 510
2022-01-16 06:05:53 GMT 55.983334 -59.866669 37,000 56 510
2022-01-16 06:04:53 GMT 55.916668 -60.083332 37,000 59 510
2022-01-16 06:03:34 GMT 55.833332 -60.216667 37,000 62 510
2022-01-16 06:02:35 GMT 55.766666 -60.450001 37,000 64 510
2022-01-16 06:01:35 GMT 55.716667 -60.700001 37,000 62 510
2022-01-16 06:00:35 GMT 55.633331 -60.900002 37,000 64 510
2022-01-16 05:59:35 GMT 55.583332 -61.133331 37,000 61 510
2022-01-16 05:58:34 GMT 55.516666 -61.383331 37,000 65 510
2022-01-16 05:57:34 GMT 55.450001 -61.583332 37,000 65 510
2022-01-16 05:56:35 GMT 55.383331 -61.783333 37,000 65 510
2022-01-16 05:55:53 GMT 55.333332 -62.099998 37,000 61 510
2022-01-16 05:54:53 GMT 55.266666 -62.316666 37,000 54 510
2022-01-16 05:53:53 GMT 55.200001 -62.516666 37,000 54 510
2022-01-16 05:53:05 GMT 55.166668 -62.633331 37,000 56 510
2022-01-16 05:52:34 GMT 55.116669 -62.683334 37,000 62 510
2022-01-16 05:51:35 GMT 55.049999 -62.883331 37,000 62 510
2022-01-16 05:50:35 GMT 54.983334 -63.116669 37,000 60 510
2022-01-16 05:49:35 GMT 54.933334 -63.316666 37,000 57 510
2022-01-16 05:48:35 GMT 54.849998 -63.549999 37,000 58 510
2022-01-16 05:47:34 GMT 54.783333 -63.750000 37,000 59 510
2022-01-16 05:46:34 GMT 54.700001 -63.966667 37,000 60 510
2022-01-16 05:45:35 GMT 54.633331 -64.166664 37,000 61 510
2022-01-16 05:44:35 GMT 54.566666 -64.400002 37,000 61 510
2022-01-16 05:43:35 GMT 54.500000 -64.583336 37,000 59 510
2022-01-16 05:42:34 GMT 54.433334 -64.816666 37,000 59 510
2022-01-16 05:41:34 GMT 54.366669 -65.033333 37,000 58 510
2022-01-16 05:40:34 GMT 54.283333 -65.233330 37,000 59 510
2022-01-16 05:39:35 GMT 54.216667 -65.449997 37,000 59 510
2022-01-16 05:38:35 GMT 54.150002 -65.650002 37,000 59 510
2022-01-16 05:37:35 GMT 54.066666 -65.866669 37,000 59 510
2022-01-16 05:36:34 GMT 54.000000 -66.083336 37,000 57 510
2022-01-16 05:35:34 GMT 53.933334 -66.283333 37,000 59 510
2022-01-16 05:34:34 GMT 53.849998 -66.500000 37,000 60 510
2022-01-16 05:33:35 GMT 53.766666 -66.716667 37,000 57 510
2022-01-16 05:32:52 GMT 53.700001 -66.966667 37,000 54 510
2022-01-16 05:31:53 GMT 53.633331 -67.166664 37,000 51 510
2022-01-16 05:30:34 GMT 53.549999 -67.300003 37,000 55 510
2022-01-16 05:29:34 GMT 53.466667 -67.516670 37,000 57 510
2022-01-16 05:28:34 GMT 53.383331 -67.699997 37,000 59 510
2022-01-16 05:27:35 GMT 53.316666 -67.883331 37,000 57 510
2022-01-16 05:26:35 GMT 53.250000 -68.099998 37,000 56 500
2022-01-16 05:25:34 GMT 53.166668 -68.316666 37,000 57 500
2022-01-16 05:24:34 GMT 53.083332 -68.500000 37,000 55 500
2022-01-16 05:23:34 GMT 53.016666 -68.699997 37,000 60 500
2022-01-16 05:22:34 GMT 52.950001 -68.883331 37,000 55 500
2022-01-16 05:21:35 GMT 52.849998 -69.066666 37,000 58 500
2022-01-16 05:20:53 GMT 52.799999 -69.333336 37,000 50 500
2022-01-16 05:20:05 GMT 52.733334 -69.416664 37,000 57 500
2022-01-16 05:19:05 GMT 52.650002 -69.616669 37,000 57 500
2022-01-16 05:18:05 GMT 52.566666 -69.800003 37,000 60 500
2022-01-16 05:17:04 GMT 52.516666 -69.983330 37,000 56 500
2022-01-16 05:16:04 GMT 52.433334 -70.183334 37,000 58 500
2022-01-16 05:15:05 GMT 52.366669 -70.383331 37,000 55 500
2022-01-16 05:14:05 GMT 52.283333 -70.566666 37,000 58 500
2022-01-16 05:13:05 GMT 52.216667 -70.766670 37,000 56 500
2022-01-16 05:12:04 GMT 52.133331 -70.949997 37,000 58 500
2022-01-16 05:11:04 GMT 52.066666 -71.150002 37,000 59 490
2022-01-16 05:10:04 GMT 51.983334 -71.349998 37,000 59 490
2022-01-16 05:09:05 GMT 51.916668 -71.533333 37,000 59 490
2022-01-16 05:07:52 GMT 51.816666 -71.833336 37,000 58 490
2022-01-16 05:06:52 GMT 51.733334 -72.033333 37,000 57 500
2022-01-16 05:05:52 GMT 51.666668 -72.216667 37,000 54 500
2022-01-16 05:04:52 GMT 51.599998 -72.400002 37,000 51 500
2022-01-16 05:03:52 GMT 51.516666 -72.583336 37,000 51 500
2022-01-16 05:02:53 GMT 51.433334 -72.750000 37,000 52 500
2022-01-16 05:02:05 GMT 51.383331 -72.833336 37,000 54 490
2022-01-16 05:01:34 GMT 51.366669 -72.883331 37,000 54 490
2022-01-16 05:00:34 GMT 51.283333 -73.066666 37,000 57 490
2022-01-16 04:59:34 GMT 51.200001 -73.250000 37,000 57 490
2022-01-16 04:58:33 GMT 51.116669 -73.449997 37,000 56 490
2022-01-16 04:57:34 GMT 51.066666 -73.616669 37,000 55 490
2022-01-16 04:56:34 GMT 50.983334 -73.800003 37,000 55 490
2022-01-16 04:55:34 GMT 50.900002 -73.966667 37,000 55 490
2022-01-16 04:54:34 GMT 50.833332 -74.150002 37,000 54 490
2022-01-16 04:53:33 GMT 50.750000 -74.349998 37,000 51 490
2022-01-16 04:52:34 GMT 50.666668 -74.500000 37,000 57 490
2022-01-16 04:51:34 GMT 50.599998 -74.666664 37,000 55 490
2022-01-16 04:50:34 GMT 50.500000 -74.849998 37,000 57 490
2022-01-16 04:49:34 GMT 50.450001 -75.033333 37,000 53 490
2022-01-16 04:48:34 GMT 50.366669 -75.199997 37,000 55 490
2022-01-16 04:47:33 GMT 50.283333 -75.383331 37,000 55 480
2022-01-16 04:46:34 GMT 50.200001 -75.566666 37,000 51 480
2022-01-16 04:45:34 GMT 50.133331 -75.733330 37,000 52 480
We lost coverage of the aircraft here for a total of 7 minutes
2022-01-16 04:38:14 GMT 49.556396 -76.952866 36,975 53 474 64
2022-01-16 04:38:02 GMT 49.542023 -76.982651 36,975 53 476 -64
2022-01-16 04:37:53 GMT 49.527996 -77.011635 37,000 53 476 -128
2022-01-16 04:37:41 GMT 49.512493 -77.043701 37,000 53 477 -64
2022-01-16 04:37:28 GMT 49.495689 -77.078369 36,975 53 476 0
2022-01-16 04:37:21 GMT 49.487541 -77.095146 36,975 53 476 0
2022-01-16 04:37:11 GMT 49.472992 -77.125183 36,975 53 476 -64
2022-01-16 04:37:00 GMT 49.458679 -77.154755 37,000 53 476 -64
2022-01-16 04:36:51 GMT 49.446487 -77.179893 37,000 53 476 -64
2022-01-16 04:36:39 GMT 49.432297 -77.209091 37,000 53 475 -64
2022-01-16 04:36:26 GMT 49.413712 -77.247116 37,000 53 475 -64
2022-01-16 04:36:16 GMT 49.401215 -77.272758 37,000 53 475 -64
2022-01-16 04:35:07 GMT 49.309937 -77.459106 37,000 53 475 -64
2022-01-16 04:35:06 GMT 49.307831 -77.463402 37,000 53 475 -64
2022-01-16 04:34:54 GMT 49.294876 -77.489670 37,000 53 475 -64
2022-01-16 04:34:43 GMT 49.279732 -77.520470 37,000 52 474 -64
2022-01-16 04:34:34 GMT 49.266560 -77.547211 37,000 53 474 -64
2022-01-16 04:34:23 GMT 49.253105 -77.574463 37,000 52 473 -64
2022-01-16 04:34:13 GMT 49.239140 -77.602722 37,000 52 473 -64
2022-01-16 04:34:01 GMT 49.224289 -77.632843 36,975 52 472 -64
2022-01-16 04:33:52 GMT 49.211487 -77.658669 37,000 52 472 0
2022-01-16 04:33:40 GMT 49.197144 -77.687637 37,000 52 472 -64
2022-01-16 04:33:31 GMT 49.183731 -77.714752 37,000 52 473 -64
2022-01-16 04:33:19 GMT 49.169724 -77.742920 36,975 52 474 0
2022-01-16 04:33:10 GMT 49.154785 -77.773010 36,975 52 474 -64
2022-01-16 04:32:59 GMT 49.142212 -77.798271 36,975 52 474 -64
2022-01-16 04:32:49 GMT 49.127930 -77.827011 37,000 52 475 -64
2022-01-16 04:32:37 GMT 49.113602 -77.855743 37,000 52 476 -64
2022-01-16 04:32:28 GMT 49.100182 -77.882660 37,000 52 475 -64
2022-01-16 04:32:17 GMT 49.086227 -77.910599 37,000 52 475 -64
2022-01-16 04:32:07 GMT 49.071690 -77.939545 37,000 52 475 -64
2022-01-16 04:31:55 GMT 49.056282 -77.970406 36,975 52 475 0
2022-01-16 04:31:15 GMT 49.002502 -78.077438 37,000 52 475 -64
2022-01-16 04:31:12 GMT 48.999298 -78.083847 37,000 52 476 -64
2022-01-16 04:31:04 GMT 48.987663 -78.106941 37,000 52 477 -64
2022-01-16 04:30:52 GMT 48.974026 -78.134041 36,975 52 477 -64
2022-01-16 04:30:42 GMT 48.958199 -78.165413 37,000 52 477 -64
2022-01-16 04:30:32 GMT 48.944916 -78.191666 37,000 52 477 -64
2022-01-16 04:30:21 GMT 48.931664 -78.217957 37,000 52 477 -64
2022-01-16 04:30:10 GMT 48.917698 -78.245567 36,975 52 477 -64
2022-01-16 04:30:00 GMT 48.903732 -78.273109 36,975 52 477 -64
2022-01-16 04:29:50 GMT 48.888840 -78.302589 37,000 52 477 -64
2022-01-16 04:29:39 GMT 48.874832 -78.330124 37,000 52 477 -64
2022-01-16 04:29:28 GMT 48.861275 -78.356880 37,000 52 477 -64
2022-01-16 04:29:18 GMT 48.846474 -78.386009 36,975 52 477 -64
2022-01-16 04:29:08 GMT 48.832581 -78.413300 36,975 52 477 -64
2022-01-16 04:28:56 GMT 48.817890 -78.442093 36,975 52 477 -64
2022-01-16 04:28:46 GMT 48.802094 -78.473015 37,000 52 477 -64
2022-01-16 04:28:36 GMT 48.790375 -78.496010 37,000 52 477 -64
2022-01-16 04:28:26 GMT 48.776318 -78.523552 37,000 52 478 -64
2022-01-16 04:28:12 GMT 48.758720 -78.557884 36,975 52 478 -64
2022-01-16 04:28:05 GMT 48.747082 -78.580582 36,975 52 478 0
2022-01-16 04:27:54 GMT 48.733257 -78.607536 36,975 52 479 -64
2022-01-16 04:27:44 GMT 48.718311 -78.636597 36,975 52 479 -64
2022-01-16 04:27:32 GMT 48.704361 -78.663872 36,975 52 479 -64
2022-01-16 04:27:23 GMT 48.690334 -78.691025 37,000 52 480 -128
2022-01-16 04:27:11 GMT 48.675392 -78.720078 37,000 52 479 -64
2022-01-16 04:27:02 GMT 48.660961 -78.747978 37,000 51 478 -64
2022-01-16 04:26:50 GMT 48.647369 -78.774284 37,000 52 478 0
2022-01-16 04:26:41 GMT 48.633087 -78.801903 37,000 52 478 0
2022-01-16 04:26:29 GMT 48.617340 -78.832329 36,975 52 478 0
2022-01-16 04:26:18 GMT 48.603241 -78.859650 36,975 52 478 -64
2022-01-16 04:26:09 GMT 48.589504 -78.886101 37,000 52 478 -64
2022-01-16 04:25:58 GMT 48.575630 -78.912918 36,975 52 478 64
2022-01-16 04:25:48 GMT 48.561199 -78.940819 36,975 52 480 0
2022-01-16 04:25:37 GMT 48.547001 -78.968208 36,975 52 480 -128
2022-01-16 04:25:27 GMT 48.532333 -78.996422 37,000 51 482 -64
2022-01-16 04:25:16 GMT 48.517731 -79.024376 37,000 51 482 -128
2022-01-16 04:25:06 GMT 48.503567 -79.051544 37,000 51 482 -64
2022-01-16 04:24:54 GMT 48.488525 -79.080292 36,975 51 482 0
2022-01-16 04:24:45 GMT 48.475170 -79.105827 37,000 51 482 -64
2022-01-16 04:24:33 GMT 48.458084 -79.138496 36,975 51 483 0
2022-01-16 04:24:24 GMT 48.445705 -79.162201 37,000 51 482 -128
2022-01-16 04:24:12 GMT 48.430939 -79.190369 37,000 51 482 -128
2022-01-16 04:24:03 GMT 48.416016 -79.218819 37,000 51 482 -64
2022-01-16 04:23:51 GMT 48.400127 -79.249008 36,975 51 482 0
2022-01-16 04:23:41 GMT 48.385895 -79.276077 36,975 51 481 0
2022-01-16 04:23:29 GMT 48.371407 -79.303650 37,000 51 482 -64
2022-01-16 04:23:20 GMT 48.356464 -79.331917 37,000 51 481 -64
2022-01-16 04:23:08 GMT 48.341675 -79.359955 36,975 51 481 -64
2022-01-16 04:22:59 GMT 48.328125 -79.385590 37,000 51 481 -64
2022-01-16 04:22:47 GMT 48.313751 -79.412773 37,000 51 481 0
2022-01-16 04:22:37 GMT 48.298553 -79.441505 36,975 51 481 -64
2022-01-16 04:22:26 GMT 48.284351 -79.468376 37,000 51 481 -64
2022-01-16 04:22:16 GMT 48.269691 -79.495987 37,000 51 480 -64
2022-01-16 04:22:05 GMT 48.255203 -79.523270 37,000 51 480 -64
2022-01-16 04:21:56 GMT 48.240967 -79.550049 36,975 51 481 -64
2022-01-16 04:21:44 GMT 48.225464 -79.579178 36,975 51 481 -64
2022-01-16 04:21:35 GMT 48.211361 -79.605705 37,000 51 481 -64
2022-01-16 04:21:23 GMT 48.197208 -79.632233 36,975 51 481 -64
2022-01-16 04:21:14 GMT 48.181046 -79.662567 37,000 51 481 -64
2022-01-16 04:21:01 GMT 48.165646 -79.691429 37,000 51 481 -64
2022-01-16 04:20:50 GMT 48.151539 -79.717850 37,000 51 481 -64
2022-01-16 04:20:41 GMT 48.136734 -79.745567 37,000 51 479 -64
2022-01-16 04:20:30 GMT 48.123096 -79.771164 37,000 51 478 0
2022-01-16 04:20:19 GMT 48.107128 -79.801094 36,975 51 478 64
2022-01-16 04:20:08 GMT 48.093071 -79.827507 36,975 51 478 0
2022-01-16 04:19:59 GMT 48.079147 -79.853577 36,975 51 479 -64
2022-01-16 04:19:47 GMT 48.065094 -79.879944 37,000 51 479 -64
2022-01-16 04:19:38 GMT 48.050125 -79.907890 36,975 51 480 -64
2022-01-16 04:19:26 GMT 48.035580 -79.935043 37,000 51 480 -64
2022-01-16 04:19:17 GMT 48.020496 -79.962860 36,975 50 480 -64
2022-01-16 04:19:06 GMT 48.005356 -79.990082 36,975 49 479 -64
2022-01-16 04:18:55 GMT 47.991623 -80.014320 37,000 49 480 -64
2022-01-16 04:18:44 GMT 47.976456 -80.040611 37,000 49 479 -64
2022-01-16 04:18:35 GMT 47.960953 -80.067329 37,000 49 479 -64
2022-01-16 04:18:23 GMT 47.945454 -80.093994 37,000 49 479 -64
2022-01-16 04:18:13 GMT 47.929642 -80.121162 37,000 49 479 -64
2022-01-16 04:18:03 GMT 47.915565 -80.145264 36,975 49 479 0
2022-01-16 04:17:52 GMT 47.899246 -80.173347 36,975 49 479 64
2022-01-16 04:17:42 GMT 47.884735 -80.198204 36,975 49 479 -64
2022-01-16 04:17:31 GMT 47.869804 -80.223785 37,000 48 478 -64
2022-01-16 04:17:20 GMT 47.854019 -80.250801 37,000 48 478 -64
2022-01-16 04:17:10 GMT 47.838524 -80.277313 37,000 48 478 0
2022-01-16 04:17:00 GMT 47.823578 -80.302780 36,975 48 478 -64
2022-01-16 04:16:49 GMT 47.808243 -80.328941 37,000 48 477 -64
2022-01-16 04:16:39 GMT 47.793274 -80.354424 37,000 48 477 -64
2022-01-16 04:16:28 GMT 47.777912 -80.380486 36,975 48 476 -64
2022-01-16 04:16:17 GMT 47.761276 -80.408798 37,000 48 476 -64
2022-01-16 04:16:06 GMT 47.746906 -80.433159 37,000 48 476 -64
2022-01-16 04:15:57 GMT 47.731873 -80.458725 37,000 48 476 -64
2022-01-16 04:15:45 GMT 47.716370 -80.485016 37,000 48 476 -64
2022-01-16 04:15:36 GMT 47.701309 -80.510490 37,000 48 476 0
2022-01-16 04:15:24 GMT 47.686390 -80.535774 36,975 48 476 0
2022-01-16 04:15:15 GMT 47.671143 -80.561508 36,975 48 476 0
2022-01-16 04:15:04 GMT 47.655762 -80.587463 36,975 48 477 -64
2022-01-16 04:14:54 GMT 47.640209 -80.613731 36,975 48 477 -64
2022-01-16 04:14:43 GMT 47.625504 -80.638550 37,000 48 477 -64
2022-01-16 04:14:33 GMT 47.610184 -80.664368 37,000 48 479 64
2022-01-16 04:14:22 GMT 47.594448 -80.690849 36,975 48 479 64
2022-01-16 04:14:11 GMT 47.578945 -80.716904 36,975 48 479 -128
2022-01-16 04:14:00 GMT 47.564003 -80.741974 37,000 48 479 -128
2022-01-16 04:13:50 GMT 47.548176 -80.768524 37,000 48 480 -64
2022-01-16 04:13:40 GMT 47.532211 -80.795311 36,975 48 480 -64
2022-01-16 04:13:28 GMT 47.516373 -80.821815 36,975 48 480 -64
2022-01-16 04:13:19 GMT 47.501678 -80.846260 37,000 48 479 -64
2022-01-16 04:13:07 GMT 47.485703 -80.872971 37,000 48 478 -64
2022-01-16 04:12:57 GMT 47.470001 -80.899200 37,000 48 479 -64
2022-01-16 04:12:46 GMT 47.455078 -80.924126 37,000 48 478 0
2022-01-16 04:12:36 GMT 47.439106 -80.950714 36,975 48 478 64
2022-01-16 04:12:26 GMT 47.423996 -80.975899 36,975 48 479 -64
2022-01-16 04:12:14 GMT 47.407681 -81.003044 37,000 48 481 -128
2022-01-16 04:12:04 GMT 47.392822 -81.027809 37,000 48 481 -64
2022-01-16 04:11:54 GMT 47.378494 -81.051567 36,975 48 481 0
2022-01-16 04:11:44 GMT 47.362381 -81.078209 37,000 48 481 -64
2022-01-16 04:11:33 GMT 47.347000 -81.103683 37,000 48 482 -64
2022-01-16 04:11:23 GMT 47.331474 -81.129387 37,000 48 482 -64
2022-01-16 04:11:11 GMT 47.315788 -81.155304 37,000 48 481 -64
2022-01-16 04:11:02 GMT 47.299263 -81.182693 37,000 48 480 -64
2022-01-16 04:10:50 GMT 47.284225 -81.207558 37,000 48 480 64
2022-01-16 04:10:41 GMT 47.269318 -81.232086 36,975 48 479 64
2022-01-16 04:10:30 GMT 47.253983 -81.257355 36,975 48 479 -64
2022-01-16 04:10:20 GMT 47.238186 -81.283333 37,000 48 480 -64
2022-01-16 04:10:08 GMT 47.222263 -81.309532 37,000 48 480 -64
2022-01-16 04:09:58 GMT 47.206421 -81.335495 36,975 48 480 -64
2022-01-16 04:09:47 GMT 47.190491 -81.361725 37,000 48 480 -128
2022-01-16 04:09:37 GMT 47.176132 -81.385170 37,000 48 479 -64
2022-01-16 04:09:27 GMT 47.160645 -81.410545 37,000 48 478 0
2022-01-16 04:09:15 GMT 47.143963 -81.437843 36,975 48 478 64
2022-01-16 04:09:06 GMT 47.128784 -81.462662 36,975 48 478 -64
2022-01-16 04:08:55 GMT 47.113998 -81.486694 37,000 48 478 -64
2022-01-16 04:08:45 GMT 47.098068 -81.512718 37,000 48 478 -64
2022-01-16 04:08:34 GMT 47.082733 -81.537712 36,975 48 478 -64
2022-01-16 04:08:24 GMT 47.067032 -81.563187 37,000 48 478 -64
2022-01-16 04:08:12 GMT 47.050953 -81.589401 36,975 48 478 0
2022-01-16 04:08:03 GMT 47.035995 -81.613655 36,975 47 477 0
2022-01-16 04:07:51 GMT 47.020180 -81.639336 36,975 47 477 -64
2022-01-16 04:07:41 GMT 47.004089 -81.665497 37,000 47 477 -64
2022-01-16 04:07:30 GMT 46.988663 -81.690491 37,000 48 478 -64
2022-01-16 04:07:21 GMT 46.973602 -81.714935 37,000 47 477 -64
2022-01-16 04:07:09 GMT 46.958035 -81.740112 37,000 47 477 -64
2022-01-16 04:07:00 GMT 46.942200 -81.765678 36,975 47 477 0
2022-01-16 04:06:48 GMT 46.926098 -81.791733 37,000 47 477 -64
2022-01-16 04:06:39 GMT 46.911438 -81.815323 37,000 47 477 -64
2022-01-16 04:06:27 GMT 46.896214 -81.839905 37,000 47 477 0
2022-01-16 04:06:18 GMT 46.879967 -81.866104 36,975 47 476 0
2022-01-16 04:06:07 GMT 46.864700 -81.890617 37,000 47 476 -64
2022-01-16 04:05:57 GMT 46.849476 -81.915092 37,000 47 476 -64
2022-01-16 04:05:46 GMT 46.833786 -81.940224 36,975 47 476 0
2022-01-16 04:05:34 GMT 46.817368 -81.966583 36,975 47 475 -64
2022-01-16 04:05:24 GMT 46.802261 -81.990768 37,000 47 476 -64
2022-01-16 04:05:14 GMT 46.786880 -82.015419 37,000 47 476 -64
2022-01-16 04:05:04 GMT 46.771641 -82.039856 36,975 47 476 -64
2022-01-16 04:04:53 GMT 46.755905 -82.064919 36,975 47 476 -64
2022-01-16 04:04:43 GMT 46.740326 -82.089775 37,000 47 477 -64
2022-01-16 04:04:32 GMT 46.724625 -82.114899 36,975 47 477 0
2022-01-16 04:04:22 GMT 46.709583 -82.138802 36,975 47 477 -64
2022-01-16 04:04:10 GMT 46.693085 -82.165138 37,000 47 477 -64
2022-01-16 04:04:01 GMT 46.677887 -82.189255 37,000 47 477 -64
2022-01-16 04:03:49 GMT 46.662140 -82.214310 37,000 47 477 -64
2022-01-16 04:03:40 GMT 46.645901 -82.240082 36,975 47 477 0
2022-01-16 04:03:28 GMT 46.630554 -82.264420 36,975 47 477 0
2022-01-16 04:03:19 GMT 46.614807 -82.289406 36,975 47 477 -64
2022-01-16 04:03:07 GMT 46.599289 -82.313927 37,000 47 477 -64
2022-01-16 04:02:58 GMT 46.583660 -82.338684 37,000 47 477 -64
2022-01-16 04:02:47 GMT 46.568439 -82.362785 37,000 47 478 -64
2022-01-16 04:02:36 GMT 46.552139 -82.388550 37,000 47 479 0
2022-01-16 04:02:27 GMT 46.537342 -82.411880 36,975 47 479 64
2022-01-16 04:02:16 GMT 46.520416 -82.438591 36,975 47 479 -64
2022-01-16 04:02:05 GMT 46.504940 -82.462898 37,000 47 480 -128
2022-01-16 04:01:55 GMT 46.489624 -82.487068 37,000 47 479 0
2022-01-16 04:01:44 GMT 46.473862 -82.511810 36,975 47 479 0
2022-01-16 04:01:34 GMT 46.457611 -82.537338 37,000 47 479 -64
2022-01-16 04:01:23 GMT 46.442001 -82.561852 37,000 47 480 -64
2022-01-16 04:01:13 GMT 46.426392 -82.586372 36,975 47 479 0
2022-01-16 04:01:02 GMT 46.410904 -82.610596 36,975 47 479 -64
2022-01-16 04:00:51 GMT 46.393215 -82.638336 36,975 47 479 64
We lost coverage of the aircraft here for a total of 6 minutes
2022-01-16 03:55:18 GMT 45.888962 -83.415482 36,975 46 478 -64
2022-01-16 03:55:08 GMT 45.872623 -83.440269 36,975 46 478 -64
2022-01-16 03:54:56 GMT 45.856838 -83.464165 37,000 46 477 -64
2022-01-16 03:54:47 GMT 45.840828 -83.488541 37,000 46 477 -64
2022-01-16 03:54:36 GMT 45.825211 -83.512100 37,000 46 477 -64
2022-01-16 03:54:25 GMT 45.803741 -83.544594 37,000 46 476 64
2022-01-16 03:54:12 GMT 45.787849 -83.568604 36,975 46 476 0
2022-01-16 03:54:01 GMT 45.772114 -83.592361 37,000 46 476 -64
2022-01-16 03:53:56 GMT 45.766251 -83.601265 37,000 46 476 -64
2022-01-16 03:53:51 GMT 45.755169 -83.617973 36,975 46 476 0
2022-01-16 03:53:47 GMT 45.750824 -83.624580 36,975 46 476 0
2022-01-16 03:53:39 GMT 45.739288 -83.641930 37,000 46 476 -64
2022-01-16 03:53:33 GMT 45.728714 -83.657875 37,000 46 476 -64
2022-01-16 03:53:19 GMT 45.709030 -83.687553 36,975 46 476 -64
2022-01-16 03:53:09 GMT 45.692791 -83.711975 37,000 46 476 -64
2022-01-16 03:53:00 GMT 45.681572 -83.728867 37,000 46 476 -64
2022-01-16 03:52:50 GMT 45.665184 -83.753517 36,975 46 477 0
2022-01-16 03:52:41 GMT 45.650940 -83.774940 36,975 46 477 -64
2022-01-16 03:52:33 GMT 45.640457 -83.790649 37,000 46 477 -64
2022-01-16 03:52:29 GMT 45.634556 -83.799522 37,000 46 477 -64
2022-01-16 03:52:24 GMT 45.625710 -83.812775 37,000 46 477 0
2022-01-16 03:52:14 GMT 45.611416 -83.834129 36,975 46 477 0
2022-01-16 03:52:04 GMT 45.594425 -83.859673 36,975 46 477 -128
2022-01-16 03:51:59 GMT 45.587860 -83.869431 37,000 46 477 -64
2022-01-16 03:51:53 GMT 45.579483 -83.881989 37,000 46 478 -64
2022-01-16 03:51:49 GMT 45.571426 -83.894012 37,000 46 478 -64
2022-01-16 03:51:44 GMT 45.564697 -83.903992 37,000 46 477 -64
2022-01-16 03:51:38 GMT 45.556019 -83.916939 37,000 46 477 -64
2022-01-16 03:51:34 GMT 45.548813 -83.927574 37,000 46 476 -64
2022-01-16 03:51:23 GMT 45.533443 -83.950485 37,000 46 476 -64
2022-01-16 03:51:18 GMT 45.523853 -83.965225 37,000 47 477 64
2022-01-16 03:51:12 GMT 45.517502 -83.975243 36,975 48 477 64
2022-01-16 03:51:06 GMT 45.508629 -83.989609 36,975 49 477 0
2022-01-16 03:51:02 GMT 45.502903 -83.999184 36,975 49 478 0
2022-01-16 03:50:56 GMT 45.494385 -84.013657 36,975 50 478 -64
2022-01-16 03:50:52 GMT 45.488388 -84.024155 37,000 51 479 -64
2022-01-16 03:50:47 GMT 45.479874 -84.039459 37,000 52 480 -64
2022-01-16 03:50:42 GMT 45.474319 -84.049698 37,000 52 480 -64
2022-01-16 03:50:36 GMT 45.466187 -84.065094 37,000 53 481 -64
2022-01-16 03:50:31 GMT 45.459778 -84.077255 37,000 53 481 -64
2022-01-16 03:50:26 GMT 45.452362 -84.091446 37,000 53 481 -64
2022-01-16 03:50:22 GMT 45.447006 -84.101585 37,000 53 480 -64
2022-01-16 03:50:15 GMT 45.438492 -84.117737 37,000 53 480 -64
2022-01-16 03:50:11 GMT 45.433029 -84.128075 37,000 53 480 -64
2022-01-16 03:50:05 GMT 45.424942 -84.143501 37,000 53 480 -64
2022-01-16 03:50:01 GMT 45.419762 -84.153397 37,000 53 480 -64
2022-01-16 03:49:55 GMT 45.410728 -84.170479 37,000 53 479 -64
2022-01-16 03:49:51 GMT 45.405533 -84.180321 37,000 53 479 0
2022-01-16 03:49:44 GMT 45.397465 -84.195671 36,975 53 479 0
2022-01-16 03:49:40 GMT 45.392433 -84.205246 36,975 53 478 0
2022-01-16 03:49:33 GMT 45.383286 -84.222633 37,000 53 478 -64
2022-01-16 03:49:30 GMT 45.378700 -84.231377 37,000 53 478 0
2022-01-16 03:49:23 GMT 45.369553 -84.248726 37,000 53 478 -64
2022-01-16 03:49:18 GMT 45.361477 -84.264000 36,975 53 478 -64
2022-01-16 03:49:12 GMT 45.355705 -84.275047 36,975 53 478 -64
2022-01-16 03:49:08 GMT 45.349888 -84.286102 36,975 53 477 -64
2022-01-16 03:49:03 GMT 45.341694 -84.301582 37,000 53 477 -64
2022-01-16 03:48:58 GMT 45.337177 -84.310089 37,000 53 477 -64
2022-01-16 03:48:52 GMT 45.328079 -84.327393 37,000 53 477 -64
2022-01-16 03:48:47 GMT 45.321487 -84.339882 37,000 53 477 -64
2022-01-16 03:48:41 GMT 45.314461 -84.353096 36,975 53 477 -64
2022-01-16 03:48:35 GMT 45.306931 -84.367348 37,000 53 476 -64
2022-01-16 03:48:32 GMT 45.300842 -84.378860 37,000 53 476 -64
2022-01-16 03:48:27 GMT 45.294525 -84.390823 37,000 53 476 -64
2022-01-16 03:48:20 GMT 45.285690 -84.407555 37,000 53 476 0
2022-01-16 03:48:16 GMT 45.281456 -84.415527 36,975 53 476 0
2022-01-16 03:48:11 GMT 45.273422 -84.430649 37,000 53 475 -64
2022-01-16 03:48:08 GMT 45.269585 -84.437904 37,000 53 475 -64
2022-01-16 03:48:05 GMT 45.266830 -84.443138 37,000 53 475 -64
2022-01-16 03:48:00 GMT 45.260086 -84.455788 37,000 53 475 -64
2022-01-16 03:47:56 GMT 45.254036 -84.467247 36,975 53 475 0
2022-01-16 03:47:50 GMT 45.246635 -84.481110 36,975 53 475 0
2022-01-16 03:47:47 GMT 45.242523 -84.488853 36,975 53 475 0
2022-01-16 03:47:37 GMT 45.228153 -84.515877 36,975 52 474 -64
2022-01-16 03:47:26 GMT 45.215057 -84.540382 37,000 52 474 -128
2022-01-16 03:47:16 GMT 45.201710 -84.565453 37,000 52 474 -64
2022-01-16 03:47:08 GMT 45.191376 -84.584808 37,000 53 475 0
2022-01-16 03:47:05 GMT 45.188324 -84.590477 36,975 52 474 0
2022-01-16 03:47:02 GMT 45.182007 -84.602379 36,975 52 474 0
2022-01-16 03:46:55 GMT 45.174316 -84.616768 37,000 52 474 -64
2022-01-16 03:46:48 GMT 45.163788 -84.636581 37,000 52 474 -64
2022-01-16 03:46:44 GMT 45.160465 -84.642822 37,000 52 474 0
2022-01-16 03:46:41 GMT 45.155319 -84.652473 37,000 52 474 -64
2022-01-16 03:46:37 GMT 45.150009 -84.662346 37,000 52 474 0
2022-01-16 03:46:34 GMT 45.146072 -84.669800 37,000 52 475 0
2022-01-16 03:46:25 GMT 45.133621 -84.693016 36,975 52 474 0
2022-01-16 03:46:17 GMT 45.122498 -84.713745 36,975 52 474 -64
2022-01-16 03:46:14 GMT 45.119732 -84.718925 36,975 52 474 -64
2022-01-16 03:46:04 GMT 45.106613 -84.743370 37,000 52 475 -128
2022-01-16 03:45:54 GMT 45.092175 -84.770309 37,000 52 475 -64
2022-01-16 03:45:49 GMT 45.086700 -84.780380 37,000 52 474 0
2022-01-16 03:45:43 GMT 45.078629 -84.795494 37,000 52 475 -64
2022-01-16 03:45:37 GMT 45.069084 -84.813248 37,000 52 474 0
2022-01-16 03:45:33 GMT 45.065407 -84.820145 37,000 52 474 0
2022-01-16 03:45:30 GMT 45.061569 -84.827271 36,975 52 474 64
2022-01-16 03:45:23 GMT 45.051224 -84.846497 36,975 52 473 64
2022-01-16 03:45:19 GMT 45.046967 -84.854347 36,975 52 473 64
2022-01-16 03:45:12 GMT 45.037994 -84.871086 36,975 52 473 0
2022-01-16 03:45:09 GMT 45.034122 -84.878227 36,975 52 473 0
2022-01-16 03:45:02 GMT 45.024578 -84.895912 36,975 52 473 -64
2022-01-16 03:44:54 GMT 45.012817 -84.917839 36,975 52 473 -128
2022-01-16 03:44:51 GMT 45.010521 -84.921974 36,975 52 473 -128
2022-01-16 03:44:48 GMT 45.005356 -84.931572 36,975 52 473 -128
2022-01-16 03:44:41 GMT 44.996887 -84.947273 37,000 52 473 -64
2022-01-16 03:44:37 GMT 44.991714 -84.956871 37,000 52 473 64
2022-01-16 03:44:31 GMT 44.983612 -84.971855 36,975 52 473 192
2022-01-16 03:44:26 GMT 44.977478 -84.983170 36,950 52 473 320
2022-01-16 03:44:22 GMT 44.971230 -84.994659 36,900 52 473 512
2022-01-16 03:44:18 GMT 44.964752 -85.006714 36,875 52 474 576
2022-01-16 03:44:11 GMT 44.955589 -85.023659 36,800 52 474 640
2022-01-16 03:44:05 GMT 44.948547 -85.036667 36,750 52 474 640
2022-01-16 03:44:01 GMT 44.942688 -85.047455 36,625 52 475 640
2022-01-16 03:43:57 GMT 44.937332 -85.057266 36,650 52 475 640
2022-01-16 03:43:51 GMT 44.929642 -85.071518 36,575 52 475 576
2022-01-16 03:43:45 GMT 44.922180 -85.085320 36,525 52 474 512
2022-01-16 03:43:40 GMT 44.916206 -85.096344 36,475 52 472 256
2022-01-16 03:43:35 GMT 44.909271 -85.109077 36,450 52 474 448
2022-01-16 03:43:30 GMT 44.902496 -85.121613 36,400 52 474 384
2022-01-16 03:43:26 GMT 44.896088 -85.133316 36,375 52 473 384
2022-01-16 03:43:19 GMT 44.888397 -85.147507 36,350 52 472 256
2022-01-16 03:43:13 GMT 44.880268 -85.162399 36,325 52 472 256
2022-01-16 03:43:08 GMT 44.872074 -85.177467 36,275 52 471 256
2022-01-16 03:43:04 GMT 44.866489 -85.187721 36,275 52 470 256
2022-01-16 03:42:57 GMT 44.857910 -85.203484 35,650 52 468 512
2022-01-16 03:42:53 GMT 44.853149 -85.212181 36,075 52 468 512
2022-01-16 03:42:47 GMT 44.845230 -85.226700 36,150 52 468 448
2022-01-16 03:42:42 GMT 44.838791 -85.238564 36,075 52 468 512
2022-01-16 03:42:37 GMT 44.830875 -85.253105 36,075 52 468 512
2022-01-16 03:42:33 GMT 44.825336 -85.263222 36,050 52 468 576
2022-01-16 03:42:26 GMT 44.817307 -85.277908 35,975 52 467 768
2022-01-16 03:42:23 GMT 44.813465 -85.284920 35,925 52 468 768
2022-01-16 03:42:20 GMT 44.809509 -85.292160 35,750 52 469 832
2022-01-16 03:42:16 GMT 44.804760 -85.300797 35,800 52 469 832
2022-01-16 03:42:13 GMT 44.799454 -85.310516 35,775 52 469 768
2022-01-16 03:42:09 GMT 44.795883 -85.317009 35,750 52 469 832
2022-01-16 03:42:05 GMT 44.783581 -85.339455 35,650 52 470 896
2022-01-16 03:42:00 GMT 44.783581 -85.339455 35,625 52 470 832
2022-01-16 03:41:56 GMT 44.777481 -85.350571 35,425 52 470 896
2022-01-16 03:41:53 GMT 44.774036 -85.356873 35,425 52 470 896
2022-01-16 03:41:50 GMT 44.768829 -85.366318 35,450 52 470 896
2022-01-16 03:41:45 GMT 44.761917 -85.378944 34,750 52 474 960
2022-01-16 03:41:41 GMT 44.756763 -85.388351 35,300 52 472 896
2022-01-16 03:41:33 GMT 44.747818 -85.404640 35,200 52 472 896
2022-01-16 03:41:30 GMT 44.743057 -85.413338 35,150 52 472 960
2022-01-16 03:41:23 GMT 44.733444 -85.430862 35,025 52 473 1024
2022-01-16 03:41:19 GMT 44.728363 -85.440086 34,950 52 473 1024
2022-01-16 03:41:14 GMT 44.721573 -85.452461 34,850 52 474 960
2022-01-16 03:41:10 GMT 44.714634 -85.465126 34,775 52 475 896
2022-01-16 03:41:03 GMT 44.705704 -85.481544 34,675 52 475 896
2022-01-16 03:40:59 GMT 44.701721 -85.488869 34,625 52 474 896
2022-01-16 03:40:53 GMT 44.692291 -85.505524 34,525 50 475 832
2022-01-16 03:40:48 GMT 44.686844 -85.514702 34,475 48 473 832
2022-01-16 03:40:42 GMT 44.676647 -85.531242 34,375 48 473 832
2022-01-16 03:40:37 GMT 44.671387 -85.539413 34,325 47 474 768
2022-01-16 03:40:32 GMT 44.663010 -85.551941 34,225 45 473 768
2022-01-16 03:40:28 GMT 44.656769 -85.560997 34,175 45 473 768
2022-01-16 03:40:21 GMT 44.647110 -85.574272 34,075 42 472 768
2022-01-16 03:40:18 GMT 44.639965 -85.583763 34,050 42 472 768
2022-01-16 03:40:10 GMT 44.628559 -85.598030 33,925 41 472 832
2022-01-16 03:40:07 GMT 44.622803 -85.605011 33,875 41 472 896
2022-01-16 03:40:00 GMT 44.611313 -85.619072 33,775 41 472 960
2022-01-16 03:39:56 GMT 44.606003 -85.625481 33,725 40 472 1024
2022-01-16 03:39:51 GMT 44.595108 -85.638756 33,600 41 473 1152
2022-01-16 03:39:47 GMT 44.588665 -85.646599 33,525 40 474 1152
2022-01-16 03:39:43 GMT 44.582752 -85.653831 33,450 40 474 1216
2022-01-16 03:39:39 GMT 44.575607 -85.662491 33,350 41 474 1216
2022-01-16 03:39:36 GMT 44.572311 -85.666550 33,325 40 475 1216
2022-01-16 03:39:31 GMT 44.564026 -85.676620 33,175 41 476 1216
2022-01-16 03:39:28 GMT 44.559525 -85.682106 33,150 41 476 1216
2022-01-16 03:39:25 GMT 44.555054 -85.687538 33,100 41 477 1216
2022-01-16 03:39:20 GMT 44.545883 -85.698715 33,000 41 477 1152
2022-01-16 03:39:16 GMT 44.537922 -85.708435 32,900 41 478 1152
2022-01-16 03:39:12 GMT 44.532394 -85.715134 32,825 41 478 1152
2022-01-16 03:39:08 GMT 44.526077 -85.722855 32,750 40 479 1152
2022-01-16 03:39:05 GMT 44.520885 -85.729134 32,675 41 479 1152
2022-01-16 03:38:58 GMT 44.507477 -85.745407 32,525 40 480 1152
2022-01-16 03:38:54 GMT 44.503475 -85.750298 32,475 40 480 1152
2022-01-16 03:38:50 GMT 44.494583 -85.761040 32,375 40 480 1088
2022-01-16 03:38:47 GMT 44.489368 -85.767380 32,300 40 482 1088
2022-01-16 03:38:44 GMT 44.485317 -85.772270 32,275 40 482 1088
2022-01-16 03:38:39 GMT 44.476776 -85.782692 32,175 40 482 1088
2022-01-16 03:38:36 GMT 44.471867 -85.788551 32,125 40 482 1088
2022-01-16 03:38:33 GMT 44.466980 -85.794456 32,075 40 482 1088
2022-01-16 03:38:28 GMT 44.457062 -85.806572 31,850 40 483 1152
2022-01-16 03:38:24 GMT 44.450962 -85.813873 31,875 40 483 1088
2022-01-16 03:38:20 GMT 44.446262 -85.819633 31,825 40 484 1088
2022-01-16 03:38:17 GMT 44.441345 -85.825584 31,775 40 484 1152
2022-01-16 03:38:14 GMT 44.433243 -85.835396 31,675 40 484 1152
2022-01-16 03:38:11 GMT 44.428802 -85.840691 31,625 40 484 1152
2022-01-16 03:38:07 GMT 44.422195 -85.848709 31,550 40 485 1216
2022-01-16 03:38:03 GMT 44.415939 -85.856323 31,475 40 485 1216
2022-01-16 03:37:58 GMT 44.407791 -85.866135 31,375 40 485 1280
2022-01-16 03:37:53 GMT 44.398270 -85.877640 31,275 40 487 1280
2022-01-16 03:37:50 GMT 44.394356 -85.882339 31,200 40 487 1280
2022-01-16 03:37:47 GMT 44.390259 -85.887299 31,025 40 487 1280
2022-01-16 03:37:42 GMT 44.380390 -85.899216 31,025 40 488 1280
2022-01-16 03:37:38 GMT 44.373871 -85.907059 30,950 40 488 1280
2022-01-16 03:37:35 GMT 44.367729 -85.914429 30,875 40 489 1344
2022-01-16 03:37:32 GMT 44.362747 -85.920410 30,800 40 490 1408
2022-01-16 03:37:27 GMT 44.355019 -85.929703 30,675 40 490 1408
2022-01-16 03:37:23 GMT 44.348648 -85.937347 30,600 40 492 1408
2022-01-16 03:37:20 GMT 44.342262 -85.944977 30,525 40 492 1280
2022-01-16 03:37:17 GMT 44.337421 -85.950798 30,450 40 493 1216
2022-01-16 03:37:14 GMT 44.332764 -85.956444 30,325 40 493 1088
2022-01-16 03:37:11 GMT 44.326763 -85.963730 30,325 40 493 1088
2022-01-16 03:37:07 GMT 44.319500 -85.972443 30,250 40 494 1024
2022-01-16 03:37:03 GMT 44.313446 -85.979721 29,650 40 493 832
2022-01-16 03:37:00 GMT 44.299622 -85.996330 30,025 40 494 960
2022-01-16 03:36:55 GMT 44.299622 -85.996330 30,050 40 494 832
2022-01-16 03:36:50 GMT 44.290604 -86.007187 29,975 40 494 832
2022-01-16 03:36:44 GMT 44.279045 -86.021072 29,900 40 493 768
2022-01-16 03:36:40 GMT 44.272808 -86.028511 29,850 40 493 768
2022-01-16 03:36:36 GMT 44.265919 -86.036819 29,800 40 493 832
2022-01-16 03:36:32 GMT 44.260208 -86.043678 29,750 40 493 832
2022-01-16 03:36:28 GMT 44.253296 -86.051918 29,675 40 493 832
2022-01-16 03:36:23 GMT 44.243271 -86.063950 29,600 40 492 832
2022-01-16 03:36:18 GMT 44.235844 -86.072792 29,525 40 492 896
2022-01-16 03:36:15 GMT 44.230679 -86.079018 29,500 40 492 896
2022-01-16 03:36:12 GMT 44.226208 -86.084381 29,275 40 492 896
2022-01-16 03:36:09 GMT 44.218781 -86.093246 29,325 40 492 896
2022-01-16 03:36:04 GMT 44.212555 -86.100700 29,275 40 492 960
2022-01-16 03:36:00 GMT 44.205494 -86.109161 29,250 40 492 960
2022-01-16 03:35:56 GMT 44.197037 -86.119278 29,175 40 492 1024
2022-01-16 03:35:52 GMT 44.189072 -86.128792 29,100 40 492 960
2022-01-16 03:35:48 GMT 44.183056 -86.136017 29,025 40 492 1024
2022-01-16 03:35:44 GMT 44.177143 -86.143013 28,975 40 493 1024
2022-01-16 03:35:39 GMT 44.169556 -86.152107 28,900 40 492 1024
2022-01-16 03:35:37 GMT 44.164902 -86.157661 28,750 40 492 1024
2022-01-16 03:35:33 GMT 44.159363 -86.164238 28,800 40 492 1024
2022-01-16 03:35:30 GMT 44.154144 -86.170433 28,700 40 493 1088
2022-01-16 03:35:27 GMT 44.148094 -86.177673 28,650 40 494 1088
2022-01-16 03:35:24 GMT 44.141857 -86.185127 28,625 40 494 1088
2022-01-16 03:35:21 GMT 44.136314 -86.191734 28,550 40 494 1152
2022-01-16 03:35:17 GMT 44.128357 -86.201218 28,475 40 494 1152
2022-01-16 03:35:13 GMT 44.123840 -86.206581 28,400 40 495 1216
2022-01-16 03:35:10 GMT 44.118439 -86.212975 28,350 40 495 1216
2022-01-16 03:35:06 GMT 44.111691 -86.221092 28,225 40 495 1216
2022-01-16 03:35:03 GMT 44.106106 -86.227699 28,200 40 495 1216
2022-01-16 03:34:59 GMT 44.090416 -86.246407 28,050 40 497 1280
2022-01-16 03:34:54 GMT 44.090416 -86.246407 27,950 40 497 1280
2022-01-16 03:34:49 GMT 44.082035 -86.256340 27,900 40 497 1280
2022-01-16 03:34:46 GMT 44.075592 -86.264008 27,825 40 498 1216
2022-01-16 03:34:41 GMT 44.068222 -86.272758 27,750 40 499 1216
2022-01-16 03:34:38 GMT 44.062637 -86.279404 27,675 40 499 1152
2022-01-16 03:34:35 GMT 44.056850 -86.286293 27,625 40 500 1088
2022-01-16 03:34:29 GMT 44.046112 -86.299080 27,500 40 500 832
2022-01-16 03:34:25 GMT 44.038231 -86.308464 27,450 40 500 640
2022-01-16 03:34:20 GMT 44.024174 -86.325142 27,375 40 500 576
2022-01-16 03:34:17 GMT 44.024174 -86.325142 27,350 40 500 576
2022-01-16 03:34:14 GMT 44.020111 -86.329926 27,325 40 500 640
2022-01-16 03:34:07 GMT 44.009216 -86.342827 27,275 40 500 640
2022-01-16 03:34:04 GMT 44.001526 -86.352028 27,200 40 500 704
2022-01-16 03:33:59 GMT 43.994156 -86.360718 27,150 40 498 704
2022-01-16 03:33:56 GMT 43.989395 -86.366341 27,125 40 498 704
2022-01-16 03:33:53 GMT 43.983067 -86.373795 27,075 40 498 704
2022-01-16 03:33:47 GMT 43.972046 -86.386902 27,000 40 498 768
2022-01-16 03:33:44 GMT 43.968357 -86.391251 26,950 40 498 768
2022-01-16 03:33:41 GMT 43.961197 -86.399742 26,925 40 498 768
2022-01-16 03:33:36 GMT 43.946617 -86.416954 26,825 40 498 768
2022-01-16 03:33:32 GMT 43.946617 -86.416954 26,825 40 498 768
2022-01-16 03:33:28 GMT 43.939453 -86.425484 26,775 40 498 768
2022-01-16 03:33:25 GMT 43.931717 -86.434616 26,675 40 498 768
2022-01-16 03:33:22 GMT 43.927341 -86.439774 26,675 40 498 768
2022-01-16 03:33:16 GMT 43.919289 -86.449326 26,625 40 498 768
2022-01-16 03:33:14 GMT 43.915604 -86.453651 26,575 40 497 768
2022-01-16 03:33:11 GMT 43.909653 -86.460678 26,550 40 497 832
2022-01-16 03:33:08 GMT 43.903336 -86.468147 26,500 40 497 832
2022-01-16 03:33:04 GMT 43.897923 -86.474503 26,400 40 497 832
2022-01-16 03:33:01 GMT 43.891590 -86.481956 26,400 40 497 832
2022-01-16 03:32:56 GMT 43.884235 -86.490654 26,325 40 497 768
2022-01-16 03:32:53 GMT 43.878975 -86.496864 26,275 40 497 768
2022-01-16 03:32:50 GMT 43.872849 -86.504051 26,250 40 497 768
2022-01-16 03:32:47 GMT 43.867950 -86.509865 26,225 40 497 768
2022-01-16 03:32:39 GMT 43.854443 -86.525772 26,125 40 497 704
2022-01-16 03:32:36 GMT 43.849182 -86.531914 26,075 40 497 704
2022-01-16 03:32:34 GMT 43.844101 -86.537903 26,050 40 497 704
2022-01-16 03:32:31 GMT 43.838516 -86.544479 26,000 40 497 704
2022-01-16 03:32:27 GMT 43.826420 -86.558662 25,950 40 497 704
2022-01-16 03:32:23 GMT 43.826420 -86.558662 25,925 40 497 704
2022-01-16 03:32:20 GMT 43.820507 -86.565659 25,875 40 496 704
2022-01-16 03:32:17 GMT 43.814713 -86.572456 25,850 40 496 640
2022-01-16 03:32:13 GMT 43.808216 -86.580048 25,800 40 496 640
2022-01-16 03:32:09 GMT 43.799332 -86.590469 25,750 40 495 704
2022-01-16 03:32:06 GMT 43.796860 -86.593346 25,725 40 495 704
2022-01-16 03:32:03 GMT 43.790760 -86.600517 25,675 40 495 704
2022-01-16 03:32:00 GMT 43.783585 -86.608932 25,625 40 495 704
2022-01-16 03:31:55 GMT 43.776947 -86.616722 25,600 40 494 704
2022-01-16 03:31:51 GMT 43.770676 -86.624069 25,550 40 494 768
2022-01-16 03:31:48 GMT 43.763718 -86.632240 25,500 40 494 704
2022-01-16 03:31:45 GMT 43.760036 -86.636551 25,475 40 494 704
2022-01-16 03:31:42 GMT 43.753750 -86.643875 25,425 40 494 704
2022-01-16 03:31:39 GMT 43.747696 -86.651024 25,375 40 494 704
2022-01-16 03:31:36 GMT 43.743851 -86.655495 25,350 40 494 704
2022-01-16 03:31:34 GMT 43.741058 -86.658752 25,325 40 493 704
2022-01-16 03:31:31 GMT 43.736340 -86.664276 25,275 40 493 704
2022-01-16 03:31:28 GMT 43.729729 -86.671989 25,250 40 493 704
2022-01-16 03:31:25 GMT 43.724514 -86.678139 25,225 40 493 704
2022-01-16 03:31:21 GMT 43.716507 -86.687492 25,175 40 493 704
2022-01-16 03:31:16 GMT 43.708008 -86.697456 25,100 40 493 768
2022-01-16 03:31:11 GMT 43.693039 -86.714897 25,050 40 493 704
2022-01-16 03:31:08 GMT 43.693039 -86.714897 25,000 40 493 704
2022-01-16 03:31:05 GMT 43.690437 -86.717964 24,975 40 492 704
2022-01-16 03:31:00 GMT 43.682281 -86.727478 24,925 40 491 768
2022-01-16 03:30:57 GMT 43.676891 -86.733788 24,875 40 491 768
2022-01-16 03:30:54 GMT 43.671352 -86.740265 24,825 40 491 768
2022-01-16 03:30:51 GMT 43.664246 -86.748558 24,775 40 491 768
2022-01-16 03:30:47 GMT 43.656967 -86.757050 24,725 40 491 768
2022-01-16 03:30:44 GMT 43.653664 -86.760933 24,700 40 490 768
2022-01-16 03:30:40 GMT 43.646942 -86.768806 24,650 40 490 704
2022-01-16 03:30:36 GMT 43.639297 -86.777687 24,600 40 490 704
2022-01-16 03:30:33 GMT 43.634491 -86.783371 24,575 40 490 704
2022-01-16 03:30:30 GMT 43.623413 -86.796272 24,250 40 489 704
2022-01-16 03:30:27 GMT 43.623413 -86.796272 24,475 40 489 704
2022-01-16 03:30:23 GMT 43.616329 -86.804482 24,450 40 489 704
2022-01-16 03:30:20 GMT 43.610088 -86.811745 24,400 40 489 768
2022-01-16 03:30:16 GMT 43.603363 -86.819519 24,350 40 488 768
2022-01-16 03:30:13 GMT 43.599884 -86.823547 24,325 40 488 768
2022-01-16 03:30:07 GMT 43.587650 -86.837769 24,225 40 488 768
2022-01-16 03:30:03 GMT 43.581940 -86.844437 24,200 40 487 704
2022-01-16 03:29:59 GMT 43.574387 -86.853180 24,125 40 487 768
2022-01-16 03:29:56 GMT 43.570427 -86.857780 24,025 40 486 768
2022-01-16 03:29:52 GMT 43.563721 -86.865578 24,050 40 486 768
2022-01-16 03:29:48 GMT 43.556488 -86.873940 24,000 40 486 768
2022-01-16 03:29:43 GMT 43.547012 -86.884918 23,925 40 486 768
2022-01-16 03:29:39 GMT 43.540867 -86.892113 23,875 40 485 768
2022-01-16 03:29:36 GMT 43.534836 -86.899109 23,825 40 485 768
2022-01-16 03:29:32 GMT 43.529709 -86.905052 23,800 40 485 768
2022-01-16 03:29:30 GMT 43.524216 -86.911438 23,750 40 484 768
2022-01-16 03:29:25 GMT 43.517220 -86.919579 23,700 40 483 768
2022-01-16 03:29:21 GMT 43.510002 -86.927879 23,625 40 483 768
2022-01-16 03:29:17 GMT 43.503159 -86.935860 23,575 40 482 768
2022-01-16 03:29:14 GMT 43.498901 -86.940758 23,550 40 483 768
2022-01-16 03:29:11 GMT 43.491570 -86.949265 23,500 40 482 768
2022-01-16 03:29:07 GMT 43.484398 -86.957573 23,425 40 481 832
2022-01-16 03:29:04 GMT 43.479279 -86.963524 23,400 40 482 768
2022-01-16 03:29:01 GMT 43.476746 -86.966431 23,375 40 481 768
2022-01-16 03:28:57 GMT 43.466335 -86.978500 23,150 40 481 704
2022-01-16 03:28:53 GMT 43.462936 -86.982422 23,225 40 479 832
2022-01-16 03:28:50 GMT 43.459030 -86.986938 23,250 40 480 768
2022-01-16 03:28:48 GMT 43.455116 -86.991447 23,225 40 479 768
2022-01-16 03:28:44 GMT 43.446487 -87.001434 23,150 40 479 832
2022-01-16 03:28:41 GMT 43.442413 -87.006165 23,125 40 478 832
2022-01-16 03:28:39 GMT 43.437653 -87.011658 23,075 40 478 832
2022-01-16 03:28:34 GMT 43.429047 -87.021591 22,975 40 478 832
2022-01-16 03:28:31 GMT 43.425652 -87.025520 22,975 40 478 832
2022-01-16 03:28:28 GMT 43.420761 -87.031197 22,925 40 477 768
2022-01-16 03:28:24 GMT 43.412292 -87.040970 22,850 40 476 768
2022-01-16 03:28:21 GMT 43.407726 -87.046249 22,825 40 476 768
2022-01-16 03:28:18 GMT 43.403351 -87.051285 22,800 40 476 704
2022-01-16 03:28:15 GMT 43.397461 -87.058090 22,750 40 475 768
2022-01-16 03:28:11 GMT 43.390224 -87.066452 22,700 40 475 832
2022-01-16 03:28:08 GMT 43.385197 -87.072273 22,650 40 474 832
2022-01-16 03:28:03 GMT 43.376770 -87.081955 22,575 40 474 832
2022-01-16 03:27:59 GMT 43.371918 -87.087540 22,550 40 474 832
2022-01-16 03:27:55 GMT 43.356171 -87.105675 22,175 40 472 832
2022-01-16 03:27:50 GMT 43.356171 -87.105675 22,400 39 472 832
2022-01-16 03:27:47 GMT 43.350327 -87.112358 22,350 40 471 768
2022-01-16 03:27:44 GMT 43.345139 -87.118324 22,325 40 471 832
2022-01-16 03:27:40 GMT 43.339462 -87.124840 22,275 40 470 960
2022-01-16 03:27:38 GMT 43.335991 -87.128906 22,225 40 470 960
2022-01-16 03:27:35 GMT 43.332314 -87.133095 22,200 39 469 960
2022-01-16 03:27:31 GMT 43.322632 -87.144211 22,100 39 469 960
2022-01-16 03:27:28 GMT 43.319138 -87.148216 22,075 39 469 960
2022-01-16 03:27:24 GMT 43.311172 -87.157417 21,975 40 469 960
2022-01-16 03:27:21 GMT 43.307686 -87.161407 21,925 39 468 960
2022-01-16 03:27:18 GMT 43.301029 -87.169060 21,875 39 468 960
2022-01-16 03:27:15 GMT 43.298050 -87.172462 21,850 39 468 960
2022-01-16 03:27:12 GMT 43.293068 -87.178215 21,800 39 467 960
2022-01-16 03:27:09 GMT 43.288925 -87.182968 21,775 39 467 960
2022-01-16 03:27:06 GMT 43.282288 -87.190567 21,700 39 467 960
2022-01-16 03:27:03 GMT 43.277985 -87.195480 21,675 39 467 960
2022-01-16 03:26:59 GMT 43.271839 -87.202477 21,600 39 466 960
2022-01-16 03:26:56 GMT 43.265076 -87.210236 21,525 39 465 1024
2022-01-16 03:26:52 GMT 43.259125 -87.217072 21,025 39 465 1024
2022-01-16 03:26:49 GMT 43.255188 -87.221611 21,425 39 465 1024
2022-01-16 03:26:45 GMT 43.248917 -87.228760 21,325 39 465 1024
2022-01-16 03:26:42 GMT 43.243286 -87.235214 21,300 39 464 1024
2022-01-16 03:26:39 GMT 43.238834 -87.240273 21,250 39 464 1024
2022-01-16 03:26:35 GMT 43.232224 -87.247795 21,150 39 463 1088
2022-01-16 03:26:32 GMT 43.221054 -87.260612 21,100 39 463 1088
2022-01-16 03:26:28 GMT 43.221054 -87.260612 21,075 39 462 1088
2022-01-16 03:26:25 GMT 43.215466 -87.266953 20,975 39 462 1024
2022-01-16 03:26:22 GMT 43.209412 -87.273926 20,925 39 462 960
2022-01-16 03:26:19 GMT 43.205475 -87.278397 20,900 39 461 960
2022-01-16 03:26:15 GMT 43.198105 -87.286835 20,825 39 461 1024
2022-01-16 03:26:10 GMT 43.191055 -87.294868 20,750 39 460 1088
2022-01-16 03:26:07 GMT 43.187954 -87.298409 20,725 39 460 1152
2022-01-16 03:26:05 GMT 43.176502 -87.311485 20,550 39 460 1152
2022-01-16 03:26:02 GMT 43.176502 -87.311485 20,575 39 460 1152
2022-01-16 03:25:58 GMT 43.171616 -87.317116 20,525 39 460 1152
2022-01-16 03:25:55 GMT 43.166077 -87.323456 20,450 39 458 1152
2022-01-16 03:25:51 GMT 43.159557 -87.330849 19,725 39 457 1088
2022-01-16 03:25:48 GMT 43.154995 -87.336075 20,325 39 458 1088
2022-01-16 03:25:45 GMT 43.149780 -87.342026 20,125 39 457 1088
2022-01-16 03:25:41 GMT 43.142807 -87.349930 20,200 39 457 1088
2022-01-16 03:25:38 GMT 43.137268 -87.356255 20,125 39 457 1088
2022-01-16 03:25:33 GMT 43.129486 -87.365135 20,025 39 457 1088
2022-01-16 03:25:28 GMT 43.121849 -87.373810 19,950 39 455 1088
2022-01-16 03:25:25 GMT 43.117813 -87.378418 19,875 39 455 1088
2022-01-16 03:25:22 GMT 43.112446 -87.384468 19,850 39 455 1088
2022-01-16 03:25:17 GMT 43.105324 -87.392578 19,750 39 454 1088
2022-01-16 03:25:15 GMT 43.101288 -87.397202 19,675 39 453 1088
2022-01-16 03:25:12 GMT 43.095474 -87.403778 19,650 39 453 1088
2022-01-16 03:25:08 GMT 43.089870 -87.410172 19,475 39 452 1216
2022-01-16 03:25:05 GMT 43.083572 -87.417320 19,525 39 452 1152
2022-01-16 03:25:01 GMT 43.078556 -87.422989 19,450 39 452 1216
2022-01-16 03:24:58 GMT 43.072952 -87.429329 19,375 39 452 1216
2022-01-16 03:24:55 GMT 43.069897 -87.432793 19,375 39 452 1216
2022-01-16 03:24:52 GMT 43.065216 -87.438080 19,275 39 451 1280
2022-01-16 03:24:49 GMT 43.057980 -87.446266 19,175 39 450 1280
2022-01-16 03:24:46 GMT 43.053185 -87.451759 19,100 39 450 1280
2022-01-16 03:24:43 GMT 43.050949 -87.454308 19,050 39 450 1280
2022-01-16 03:24:40 GMT 43.044525 -87.461571 19,000 39 450 1280
2022-01-16 03:24:35 GMT 43.035095 -87.472252 18,675 39 449 1344
2022-01-16 03:24:31 GMT 43.031570 -87.476273 18,825 39 450 1344
2022-01-16 03:24:26 GMT 43.022919 -87.486046 18,700 39 448 1344
2022-01-16 03:24:22 GMT 43.014313 -87.495819 18,600 39 448 1280
2022-01-16 03:24:19 GMT 43.009987 -87.500740 18,525 39 448 1280
2022-01-16 03:24:16 GMT 43.006989 -87.504120 18,500 39 448 1280
2022-01-16 03:24:13 GMT 43.000443 -87.511528 18,400 39 447 1280
2022-01-16 03:24:10 GMT 42.996300 -87.516243 18,350 39 447 1280
2022-01-16 03:24:06 GMT 42.989922 -87.523430 18,250 39 447 1280
2022-01-16 03:24:03 GMT 42.985497 -87.528534 18,200 39 446 1280
2022-01-16 03:24:00 GMT 42.982452 -87.531906 18,150 39 446 1280
2022-01-16 03:23:56 GMT 42.973892 -87.541618 18,050 39 445 1280
2022-01-16 03:23:52 GMT 42.969131 -87.547050 17,875 39 445 1280
2022-01-16 03:23:48 GMT 42.960407 -87.556915 17,850 39 445 1280
2022-01-16 03:23:45 GMT 42.956963 -87.560837 17,775 39 444 1280
2022-01-16 03:23:42 GMT 42.952698 -87.565697 17,750 39 443 1280
2022-01-16 03:23:39 GMT 42.948898 -87.569977 17,700 39 443 1280
2022-01-16 03:23:35 GMT 42.942112 -87.577644 17,600 39 442 1216
2022-01-16 03:23:32 GMT 42.937866 -87.582497 17,550 39 442 1216
2022-01-16 03:23:29 GMT 42.931870 -87.589264 17,475 39 442 1152
2022-01-16 03:23:25 GMT 42.925598 -87.596359 17,375 39 441 1088
2022-01-16 03:23:22 GMT 42.916489 -87.606644 17,300 39 440 1088
2022-01-16 03:23:18 GMT 42.916489 -87.606644 17,250 39 440 1024
2022-01-16 03:23:15 GMT 42.909760 -87.614265 17,175 39 438 1088
2022-01-16 03:23:12 GMT 42.905663 -87.618843 17,150 39 438 1152
2022-01-16 03:23:09 GMT 42.900074 -87.625191 17,100 39 438 1152
2022-01-16 03:23:04 GMT 42.892410 -87.633850 17,000 39 436 1216
2022-01-16 03:23:01 GMT 42.888702 -87.638069 16,875 39 435 1216
2022-01-16 03:22:58 GMT 42.883713 -87.643623 16,825 39 435 1216
2022-01-16 03:22:55 GMT 42.879089 -87.648926 16,850 39 435 1216
2022-01-16 03:22:51 GMT 42.873028 -87.655724 16,750 39 434 1216
2022-01-16 03:22:47 GMT 42.866837 -87.662727 16,625 39 433 1280
2022-01-16 03:22:44 GMT 42.862381 -87.667770 16,600 39 433 1280
2022-01-16 03:22:42 GMT 42.859158 -87.671425 16,575 39 433 1280
2022-01-16 03:22:39 GMT 42.855431 -87.675606 16,500 39 433 1280
2022-01-16 03:22:36 GMT 42.849152 -87.682777 16,425 39 431 1216
2022-01-16 03:22:32 GMT 42.843746 -87.688820 15,800 39 430 1216
2022-01-16 03:22:29 GMT 42.838394 -87.694916 16,275 39 430 1216
2022-01-16 03:22:26 GMT 42.835182 -87.698563 16,175 39 429 1216
2022-01-16 03:22:22 GMT 42.829514 -87.704941 16,175 39 429 1216
2022-01-16 03:22:20 GMT 42.825531 -87.709412 16,100 39 428 1216
2022-01-16 03:22:17 GMT 42.819763 -87.715996 16,025 39 428 1216
2022-01-16 03:22:12 GMT 42.814270 -87.722191 15,925 39 426 1216
2022-01-16 03:22:10 GMT 42.810463 -87.726418 15,900 39 426 1216
2022-01-16 03:22:05 GMT 42.803154 -87.734642 15,800 39 426 1280
2022-01-16 03:22:02 GMT 42.798592 -87.739754 15,750 39 425 1344
2022-01-16 03:22:00 GMT 42.793423 -87.745506 15,650 39 424 1408
2022-01-16 03:21:57 GMT 42.789188 -87.750298 15,550 39 424 1408
2022-01-16 03:21:52 GMT 42.783600 -87.756538 15,475 39 424 1408
2022-01-16 03:21:49 GMT 42.776756 -87.764153 15,400 39 423 1344
2022-01-16 03:21:45 GMT 42.772846 -87.768562 15,250 39 422 1280
2022-01-16 03:21:41 GMT 42.766842 -87.775398 15,275 39 421 1216
2022-01-16 03:21:37 GMT 42.761444 -87.781464 15,150 37 420 1216
2022-01-16 03:21:34 GMT 42.756554 -87.786705 15,125 36 420 1152
2022-01-16 03:21:30 GMT 42.748642 -87.794304 15,025 31 418 1216
2022-01-16 03:21:27 GMT 42.742813 -87.799049 14,950 28 418 1280
2022-01-16 03:21:24 GMT 42.740433 -87.800797 14,925 26 417 1344
2022-01-16 03:21:21 GMT 42.733696 -87.805290 14,825 22 416 1408
2022-01-16 03:21:18 GMT 42.729088 -87.807976 14,775 20 415 1408
2022-01-16 03:21:14 GMT 42.722198 -87.811356 14,675 17 415 1408
2022-01-16 03:21:11 GMT 42.715542 -87.813972 14,600 13 414 1344
2022-01-16 03:21:07 GMT 42.709396 -87.815903 14,475 8 413 1280
2022-01-16 03:21:04 GMT 42.703159 -87.817360 14,450 6 413 1344
2022-01-16 03:21:00 GMT 42.696644 -87.818253 14,375 2 413 1408
2022-01-16 03:20:57 GMT 42.689426 -87.818642 14,325 1 413 1472
2022-01-16 03:20:54 GMT 42.684631 -87.818588 14,250 359 413 1600
2022-01-16 03:20:51 GMT 42.677181 -87.818192 14,125 358 412 1536
2022-01-16 03:20:48 GMT 42.670486 -87.817780 13,900 358 410 1600
2022-01-16 03:20:44 GMT 42.663254 -87.817276 13,950 358 411 1536
2022-01-16 03:20:40 GMT 42.657166 -87.816902 13,850 358 411 1536
2022-01-16 03:20:36 GMT 42.649567 -87.816406 13,775 358 410 1600
2022-01-16 03:20:33 GMT 42.643341 -87.816017 13,525 358 409 1472
2022-01-16 03:20:29 GMT 42.637661 -87.815636 13,600 358 409 1536
2022-01-16 03:20:25 GMT 42.627228 -87.814903 13,450 358 408 1408
2022-01-16 03:20:22 GMT 42.624207 -87.814720 13,425 358 408 1408
2022-01-16 03:20:19 GMT 42.617065 -87.814285 13,325 358 407 1344
2022-01-16 03:20:16 GMT 42.611755 -87.813911 13,225 358 405 1344
2022-01-16 03:20:13 GMT 42.605587 -87.813530 13,150 358 405 1344
2022-01-16 03:20:09 GMT 42.599030 -87.813095 13,125 358 404 1344
2022-01-16 03:20:06 GMT 42.591156 -87.812660 13,025 358 403 1344
2022-01-16 03:20:02 GMT 42.583328 -87.812157 12,925 358 402 1280
2022-01-16 03:19:58 GMT 42.577934 -87.811806 12,875 358 401 1152
2022-01-16 03:19:55 GMT 42.572571 -87.811470 12,800 358 400 1088
2022-01-16 03:19:51 GMT 42.563129 -87.810913 12,725 358 398 832
2022-01-16 03:19:46 GMT 42.554703 -87.810333 12,550 358 394 704
2022-01-16 03:19:39 GMT 42.543018 -87.809631 12,575 358 390 768
2022-01-16 03:19:36 GMT 42.537991 -87.809311 12,575 358 390 768
2022-01-16 03:19:33 GMT 42.533112 -87.808975 12,525 358 388 768
2022-01-16 03:19:30 GMT 42.525238 -87.808479 12,475 358 384 768
2022-01-16 03:19:26 GMT 42.520115 -87.808098 12,425 358 383 768
2022-01-16 03:19:23 GMT 42.512833 -87.807602 12,375 358 380 832
2022-01-16 03:19:20 GMT 42.509502 -87.807335 12,350 358 379 832
2022-01-16 03:19:16 GMT 42.502148 -87.806953 12,300 359 376 896
2022-01-16 03:19:14 GMT 42.498825 -87.806793 12,250 0 374 960
2022-01-16 03:19:10 GMT 42.493286 -87.806664 12,175 0 372 1152
2022-01-16 03:19:07 GMT 42.487427 -87.806602 12,125 0 370 1408
2022-01-16 03:19:04 GMT 42.481430 -87.806694 12,050 1 369 1536
2022-01-16 03:19:01 GMT 42.476311 -87.806824 12,050 1 369 1536
2022-01-16 03:18:55 GMT 42.466278 -87.807228 11,850 2 366 1472
2022-01-16 03:18:52 GMT 42.460831 -87.807602 11,750 3 364 1216
2022-01-16 03:18:49 GMT 42.456665 -87.807976 11,725 3 363 1152
2022-01-16 03:18:45 GMT 42.448792 -87.808792 11,650 5 361 960
2022-01-16 03:18:43 GMT 42.445957 -87.809120 11,625 5 359 960
2022-01-16 03:18:40 GMT 42.441956 -87.809631 11,525 5 356 960
2022-01-16 03:18:37 GMT 42.437531 -87.810287 11,525 5 356 960
2022-01-16 03:18:33 GMT 42.429806 -87.811356 11,475 5 354 1024
2022-01-16 03:18:30 GMT 42.425446 -87.811974 11,400 5 351 1024
2022-01-16 03:18:27 GMT 42.420727 -87.812637 11,300 5 347 960
2022-01-16 03:18:24 GMT 42.415100 -87.813408 11,300 5 347 960
2022-01-16 03:18:22 GMT 42.411896 -87.813843 11,275 5 345 960
2022-01-16 03:18:19 GMT 42.406342 -87.814613 11,150 5 338 896
2022-01-16 03:18:14 GMT 42.398754 -87.815704 11,125 5 340 896
2022-01-16 03:18:11 GMT 42.395462 -87.816154 11,100 5 338 896
2022-01-16 03:18:05 GMT 42.385719 -87.817490 11,000 6 333 896
2022-01-16 03:18:02 GMT 42.381546 -87.818092 10,975 6 332 896
2022-01-16 03:17:59 GMT 42.376053 -87.818840 10,750 5 329 896
2022-01-16 03:17:56 GMT 42.371941 -87.819466 10,875 5 327 896
2022-01-16 03:17:53 GMT 42.366539 -87.820175 10,750 5 313 768
2022-01-16 03:17:51 GMT 42.364609 -87.820465 10,775 5 320 832
2022-01-16 03:17:48 GMT 42.359093 -87.821259 10,775 5 320 832
2022-01-16 03:17:44 GMT 42.353943 -87.821960 10,700 5 317 768
2022-01-16 03:17:41 GMT 42.348999 -87.822647 10,650 6 314 768
2022-01-16 03:17:37 GMT 42.341915 -87.823624 10,550 5 308 704
2022-01-16 03:17:32 GMT 42.336235 -87.824455 10,550 5 306 704
2022-01-16 03:17:29 GMT 42.330460 -87.825203 10,500 5 302 640
2022-01-16 03:17:26 GMT 42.328491 -87.825516 10,450 5 299 640
2022-01-16 03:17:23 GMT 42.324326 -87.826080 10,450 5 299 640
2022-01-16 03:17:20 GMT 42.319382 -87.826767 10,425 5 295 704
2022-01-16 03:17:17 GMT 42.316544 -87.827133 10,350 5 291 768
2022-01-16 03:17:14 GMT 42.311050 -87.827888 10,125 5 284 1344
2022-01-16 03:17:10 GMT 42.305603 -87.828606 10,250 5 285 1216
2022-01-16 03:17:07 GMT 42.302158 -87.829048 10,175 5 283 1728
2022-01-16 03:17:04 GMT 42.298645 -87.829514 10,125 5 282 1920
2022-01-16 03:17:01 GMT 42.294250 -87.830139 10,025 6 281 2048
2022-01-16 03:16:57 GMT 42.289032 -87.830887 9,900 6 281 2048
2022-01-16 03:16:53 GMT 42.284409 -87.831512 9,725 6 280 2048
2022-01-16 03:16:49 GMT 42.279346 -87.832245 9,600 5 280 1984
2022-01-16 03:16:46 GMT 42.274971 -87.832886 9,425 5 279 1984
2022-01-16 03:16:43 GMT 42.270317 -87.833519 9,400 5 279 2048
2022-01-16 03:16:40 GMT 42.266876 -87.834007 9,300 5 278 2048
2022-01-16 03:16:38 GMT 42.265045 -87.834259 9,250 5 278 2048
2022-01-16 03:16:34 GMT 42.258770 -87.835121 9,075 5 277 2048
2022-01-16 03:16:31 GMT 42.254562 -87.835754 8,975 5 277 2048
2022-01-16 03:16:28 GMT 42.248062 -87.836655 8,850 6 276 1984
2022-01-16 03:16:25 GMT 42.248062 -87.836655 8,775 6 276 2048
2022-01-16 03:16:21 GMT 42.242989 -87.837418 8,650 6 275 2112
2022-01-16 03:16:18 GMT 42.238194 -87.838058 8,500 5 274 2112
2022-01-16 03:16:12 GMT 42.231865 -87.838951 8,325 5 274 2176
2022-01-16 03:16:08 GMT 42.222042 -87.840294 8,125 5 273 2176
2022-01-16 03:16:05 GMT 42.222042 -87.840294 8,025 6 273 2176
2022-01-16 03:16:02 GMT 42.219406 -87.840691 7,950 6 273 2176
2022-01-16 03:15:57 GMT 42.211853 -87.841751 7,725 5 272 2112
2022-01-16 03:15:53 GMT 42.205730 -87.841400 6,400 7 264 2144
2022-01-16 03:15:52 GMT 42.204521 -87.841621 6,400 7 264 1216
2022-01-16 03:15:51 GMT 42.203308 -87.841843 6,400 7 264 1216
2022-01-16 03:15:49 GMT 42.200890 -87.842278 6,400 7 264 1216
2022-01-16 03:15:48 GMT 42.199680 -87.842499 6,400 7 264 1216
2022-01-16 03:15:47 GMT 42.198471 -87.842720 6,400 7 264 1216
2022-01-16 03:15:46 GMT 42.197250 -87.842934 6,400 7 264 1216
2022-01-16 03:15:45 GMT 42.194832 -87.843369 6,400 7 264 1216
2022-01-16 03:15:43 GMT 42.193619 -87.843590 6,400 7 264 1216
2022-01-16 03:15:42 GMT 42.192410 -87.843811 6,400 7 264 1216
2022-01-16 03:15:41 GMT 42.191200 -87.844032 6,400 7 264 1216
2022-01-16 03:15:40 GMT 42.189991 -87.844254 6,400 7 264 1216
2022-01-16 03:15:39 GMT 42.188782 -87.844460 6,400 7 264 1216
2022-01-16 03:15:37 GMT 42.186359 -87.844902 6,400 7 264 1216
2022-01-16 03:15:36 GMT 42.185150 -87.845123 6,400 7 264 1216
2022-01-16 03:15:35 GMT 42.183941 -87.845337 6,400 7 264 1216
2022-01-16 03:15:34 GMT 42.182732 -87.845558 6,400 7 264 1216
2022-01-16 03:15:33 GMT 42.181519 -87.845772 6,400 7 264 1216
2022-01-16 03:15:31 GMT 42.179089 -87.846207 6,400 7 264 1216
2022-01-16 03:15:30 GMT 42.177879 -87.846428 6,400 7 264 1216
2022-01-16 03:15:29 GMT 42.176670 -87.846649 6,400 7 264 1216
2022-01-16 03:15:28 GMT 42.175461 -87.846870 6,400 7 264 1216
2022-01-16 03:15:27 GMT 42.174252 -87.847076 6,400 7 264 1216
2022-01-16 03:15:25 GMT 42.171829 -87.847519 6,400 7 264 1216
2022-01-16 03:15:24 GMT 42.170620 -87.847740 6,400 7 264 1216
2022-01-16 03:15:23 GMT 42.169411 -87.847961 6,400 7 264 1216
2022-01-16 03:15:22 GMT 42.168171 -87.848122 6,200 6 265 1216
2022-01-16 03:15:21 GMT 42.166962 -87.848328 6,200 6 265 1216
2022-01-16 03:15:19 GMT 42.164532 -87.848732 6,200 6 265 1216
2022-01-16 03:15:18 GMT 42.163311 -87.848938 6,200 6 265 1216
2022-01-16 03:15:17 GMT 42.162449 -87.849243 6,000 4 276 1216
2022-01-16 03:15:16 GMT 42.161179 -87.849411 6,000 4 276 1216
2022-01-16 03:15:14 GMT 42.158649 -87.849747 6,000 4 276 1216
2022-01-16 03:15:13 GMT 42.157429 -87.850372 5,800 1 274 1216
2022-01-16 03:15:12 GMT 42.156158 -87.850471 5,800 1 274 1216
2022-01-16 03:15:11 GMT 42.154888 -87.850571 5,800 1 274 1216
2022-01-16 03:15:10 GMT 42.153629 -87.850670 5,800 1 274 1216
2022-01-16 03:15:09 GMT 42.150982 -87.852203 5,400 357 267 1216
2022-01-16 03:15:07 GMT 42.149738 -87.852142 5,400 357 267 1216
2022-01-16 03:15:06 GMT 42.148499 -87.852089 5,400 357 267 1216
2022-01-16 03:15:05 GMT 42.147270 -87.852028 5,400 357 267 1216
2022-01-16 03:15:03 GMT 42.144730 -87.852402 5,400 356 265 1216
2022-01-16 03:15:02 GMT 42.143501 -87.852310 5,400 356 265 1216
2022-01-16 03:15:01 GMT 42.142281 -87.852219 5,400 356 265 1216
2022-01-16 03:15:00 GMT 42.141048 -87.852127 5,400 356 265 1216
2022-01-16 03:14:59 GMT 42.139778 -87.852463 5,200 355 264 1216
2022-01-16 03:14:58 GMT 42.137341 -87.852226 5,200 355 264 1216
2022-01-16 03:14:56 GMT 42.136120 -87.852112 5,200 355 264 1216
2022-01-16 03:14:55 GMT 42.134899 -87.851997 5,200 355 264 1216
2022-01-16 03:14:54 GMT 42.133709 -87.852112 5,000 355 264 1216
2022-01-16 03:14:53 GMT 42.132488 -87.851967 5,000 355 264 1216
2022-01-16 03:14:52 GMT 42.131271 -87.851837 5,000 355 264 1216
2022-01-16 03:14:51 GMT 42.130051 -87.851707 5,000 355 264 384
2022-01-16 03:14:49 GMT 42.127579 -87.851631 4,900 354 264 384
2022-01-16 03:14:48 GMT 42.126369 -87.851479 4,900 354 264 384
2022-01-16 03:14:47 GMT 42.125149 -87.851341 4,900 354 264 384
2022-01-16 03:14:46 GMT 42.123932 -87.851189 4,900 354 264 384
2022-01-16 03:14:44 GMT 42.121460 -87.850952 4,700 354 263 384
2022-01-16 03:14:43 GMT 42.120251 -87.850800 4,700 354 263 384
2022-01-16 03:14:42 GMT 42.119041 -87.850647 4,700 354 263 384
2022-01-16 03:14:41 GMT 42.117908 -87.850418 4,700 355 265 384
2022-01-16 03:14:39 GMT 42.115471 -87.850143 4,700 355 265 384
2022-01-16 03:14:38 GMT 42.114250 -87.849998 4,700 355 265 384
2022-01-16 03:14:37 GMT 42.113022 -87.849861 4,700 355 265 384
2022-01-16 03:14:36 GMT 42.111912 -87.849678 4,700 355 267 384
2022-01-16 03:14:35 GMT 42.110680 -87.849548 4,700 355 267 384
2022-01-16 03:14:34 GMT 42.109329 -87.849518 4,700 354 264 384
2022-01-16 03:14:32 GMT 42.106892 -87.849220 4,700 354 264 384
2022-01-16 03:14:31 GMT 42.105671 -87.848969 4,700 355 264 384
2022-01-16 03:14:30 GMT 42.104488 -87.848869 4,600 355 265 -96
2022-01-16 03:14:29 GMT 42.103271 -87.848732 4,600 355 265 -96
2022-01-16 03:14:28 GMT 42.102051 -87.848587 4,600 355 265 -96
2022-01-16 03:14:26 GMT 42.099651 -87.848213 4,600 355 267 -96
2022-01-16 03:14:25 GMT 42.098358 -87.848167 4,600 355 265 1920
2022-01-16 03:14:24 GMT 42.097141 -87.848030 4,600 355 265 1920
2022-01-16 03:14:23 GMT 42.095921 -87.847893 4,600 355 265 1920
2022-01-16 03:14:21 GMT 42.093491 -87.847542 4,600 355 266 1920
2022-01-16 03:14:20 GMT 42.092350 -87.847473 4,500 355 269 1920
2022-01-16 03:14:19 GMT 42.091110 -87.847321 4,500 355 269 1920
2022-01-16 03:14:17 GMT 42.088619 -87.846939 4,500 355 267 1920
2022-01-16 03:14:16 GMT 42.087189 -87.846916 4,500 355 262 1920
2022-01-16 03:14:15 GMT 42.085979 -87.846779 4,500 355 262 1920
2022-01-16 03:14:14 GMT 42.084770 -87.846642 4,500 355 262 1920
2022-01-16 03:14:12 GMT 42.082329 -87.846313 4,500 355 261 1920
2022-01-16 03:14:11 GMT 42.081200 -87.846092 4,400 356 265 1920
2022-01-16 03:14:10 GMT 42.079971 -87.845970 4,400 356 265 1920
2022-01-16 03:14:09 GMT 42.078751 -87.845848 4,400 356 265 1920
2022-01-16 03:14:08 GMT 42.077770 -87.845497 4,300 356 273 1920
2022-01-16 03:14:06 GMT 42.075031 -87.845520 4,300 354 261 1920
2022-01-16 03:14:05 GMT 42.073830 -87.845390 4,300 354 261 1920
2022-01-16 03:14:04 GMT 42.072559 -87.845352 4,200 353 256 1920
2022-01-16 03:14:03 GMT 42.071388 -87.845177 4,200 353 256 1920
2022-01-16 03:14:02 GMT 42.069950 -87.845207 4,200 353 250 1920
2022-01-16 03:14:00 GMT 42.067661 -87.844841 4,200 353 250 1920
2022-01-16 03:13:59 GMT 42.066559 -87.844482 4,000 353 250 1920
2022-01-16 03:13:58 GMT 42.064789 -87.844742 4,000 351 233 1920
2022-01-16 03:13:57 GMT 42.063721 -87.844521 4,000 351 233 1920
2022-01-16 03:13:56 GMT 42.062649 -87.844299 4,000 351 233 1920
2022-01-16 03:13:54 GMT 42.060532 -87.843781 4,000 351 236 1920
2022-01-16 03:13:53 GMT 42.059422 -87.843719 3,800 351 239 1920
2022-01-16 03:13:52 GMT 42.058331 -87.843491 3,800 351 239 1920
2022-01-16 03:13:51 GMT 42.057232 -87.843269 3,800 351 239 800
2022-01-16 03:13:50 GMT 42.056301 -87.842957 3,800 352 249 800
2022-01-16 03:13:49 GMT 42.055161 -87.842758 3,800 352 249 800
2022-01-16 03:13:47 GMT 42.052952 -87.842346 3,500 353 254 800
2022-01-16 03:13:46 GMT 42.051819 -87.842133 3,500 353 256 800
2022-01-16 03:13:45 GMT 42.050659 -87.841949 3,500 353 257 800
2022-01-16 03:13:44 GMT 42.049519 -87.841759 3,500 353 260 800
2022-01-16 03:13:43 GMT 42.048290 -87.841560 3,500 353 258 800
2022-01-16 03:13:42 GMT 42.047070 -87.841408 3,500 353 255 800
2022-01-16 03:13:40 GMT 42.044689 -87.841072 3,400 353 254 800
2022-01-16 03:13:39 GMT 42.043549 -87.840881 3,200 353 255 800
2022-01-16 03:13:38 GMT 42.042351 -87.840691 3,200 353 253 800
2022-01-16 03:13:37 GMT 42.041180 -87.840446 3,200 353 252 800
2022-01-16 03:13:36 GMT 42.040058 -87.840286 3,200 353 255 800
2022-01-16 03:13:34 GMT 42.037651 -87.840012 3,200 353 251 800
2022-01-16 03:13:33 GMT 42.036469 -87.839859 3,200 352 249 800
2022-01-16 03:13:32 GMT 42.035339 -87.839661 3,125 352 250 800
2022-01-16 03:13:31 GMT 42.034199 -87.839478 3,125 352 251 800
2022-01-16 03:13:30 GMT 42.033070 -87.839256 3,000 353 254 800
2022-01-16 03:13:28 GMT 42.030739 -87.838898 3,000 353 252 800
2022-01-16 03:13:27 GMT 42.029579 -87.838722 3,000 353 250 800
2022-01-16 03:13:26 GMT 42.028419 -87.838608 3,000 352 251 800
2022-01-16 03:13:25 GMT 42.027290 -87.838409 2,950 352 252 800
2022-01-16 03:13:24 GMT 42.024990 -87.838020 2,900 353 251 800
2022-01-16 03:13:22 GMT 42.023811 -87.837860 2,900 352 247 800
2022-01-16 03:13:21 GMT 42.022621 -87.837631 2,800 353 242 800
2022-01-16 03:13:20 GMT 42.020351 -87.837334 2,800 352 237 800
2022-01-16 03:13:18 GMT 42.019310 -87.837112 2,800 353 244 800
2022-01-16 03:13:17 GMT 42.018162 -87.836990 2,800 352 242 800
2022-01-16 03:13:16 GMT 42.017071 -87.836761 2,700 352 241 800
2022-01-16 03:13:15 GMT 42.015900 -87.836601 2,700 352 236 800
2022-01-16 03:13:13 GMT 42.013699 -87.836273 2,675 352 234 800
2022-01-16 03:13:12 GMT 42.012650 -87.836029 2,675 353 236 800
2022-01-16 03:13:11 GMT 42.011532 -87.835953 2,600 351 232 800
2022-01-16 03:13:10 GMT 42.010471 -87.835709 2,600 352 230 800
2022-01-16 03:13:09 GMT 42.009430 -87.835510 2,600 353 234 800
2022-01-16 03:13:08 GMT 42.007290 -87.835190 2,600 352 233 800
2022-01-16 03:13:06 GMT 42.006210 -87.835030 2,600 352 231 800
2022-01-16 03:13:05 GMT 42.005150 -87.834862 2,550 353 230 800
2022-01-16 03:13:04 GMT 42.004101 -87.834709 2,525 353 229 800
2022-01-16 03:13:03 GMT 42.003040 -87.834557 2,525 353 228 800
2022-01-16 03:13:01 GMT 42.000900 -87.834312 2,500 353 222 800
2022-01-16 03:13:00 GMT 41.999882 -87.834183 2,500 353 221 800
2022-01-16 03:12:59 GMT 41.998829 -87.834068 2,500 353 218 800
2022-01-16 03:12:58 GMT 41.997849 -87.833939 2,450 354 219 800
2022-01-16 03:12:57 GMT 41.996849 -87.833801 2,450 355 219 800
2022-01-16 03:12:55 GMT 41.994820 -87.833641 2,450 356 215 800
2022-01-16 03:12:54 GMT 41.993832 -87.833580 2,400 357 213 800
2022-01-16 03:12:53 GMT 41.992851 -87.833519 2,400 358 213 800
2022-01-16 03:12:52 GMT 41.991859 -87.833481 2,400 0 212 800
2022-01-16 03:12:51 GMT 41.990929 -87.833450 2,400 2 214 800
2022-01-16 03:12:49 GMT 41.988991 -87.833611 2,350 4 212 0
2022-01-16 03:12:48 GMT 41.988029 -87.833687 2,300 6 211 0
2022-01-16 03:12:47 GMT 41.987030 -87.833778 2,300 9 206 0
2022-01-16 03:12:45 GMT 41.985149 -87.834183 2,300 14 202 0
2022-01-16 03:12:44 GMT 41.984230 -87.834412 2,300 17 200 0
2022-01-16 03:12:43 GMT 41.983360 -87.834747 2,300 18 201 0
2022-01-16 03:12:42 GMT 41.982491 -87.835098 2,175 21 201 0
2022-01-16 03:12:41 GMT 41.981621 -87.835518 2,175 23 198 0
2022-01-16 03:12:40 GMT 41.980801 -87.835968 2,175 25 199 0
2022-01-16 03:12:38 GMT 41.979149 -87.836952 2,100 31 197 0
2022-01-16 03:12:37 GMT 41.978359 -87.837563 2,100 34 196 0
2022-01-16 03:12:36 GMT 41.977612 -87.838173 2,100 37 196 0
2022-01-16 03:12:35 GMT 41.976879 -87.838837 1,900 39 195 0
2022-01-16 03:12:33 GMT 41.975510 -87.840302 1,900 44 195 0
2022-01-16 03:12:32 GMT 41.974861 -87.841110 1,900 47 194 0
2022-01-16 03:12:31 GMT 41.974239 -87.841904 1,900 49 194 0
2022-01-16 03:12:30 GMT 41.973640 -87.842819 1,900 52 190 0
2022-01-16 03:12:29 GMT 41.973049 -87.843742 1,900 55 185 0
2022-01-16 03:12:27 GMT 41.972050 -87.845551 1,900 60 182 0
2022-01-16 03:12:26 GMT 41.971611 -87.846489 1,875 63 182 0
2022-01-16 03:12:25 GMT 41.971191 -87.847443 1,825 66 181 0
2022-01-16 03:12:24 GMT 41.970852 -87.848457 1,825 67 180 0
2022-01-16 03:12:23 GMT 41.970509 -87.849487 1,825 70 177 0
2022-01-16 03:12:21 GMT 41.969910 -87.851540 1,800 76 172 0
2022-01-16 03:12:20 GMT 41.969662 -87.852631 1,800 79 168 2816
2022-01-16 03:12:19 GMT 41.969479 -87.853622 1,750 81 168 2816
2022-01-16 03:12:18 GMT 41.969349 -87.854637 1,750 83 169 2816
2022-01-16 03:12:16 GMT 41.969120 -87.856712 1,750 86 168 2816
2022-01-16 03:12:15 GMT 41.969051 -87.857681 1,675 87 172 2816
2022-01-16 03:12:14 GMT 41.968971 -87.859863 1,675 89 165 2816
2022-01-16 03:12:12 GMT 41.968960 -87.860878 1,600 89 167 2816
2022-01-16 03:12:11 GMT 41.968929 -87.861900 1,600 89 168 2816
2022-01-16 03:12:10 GMT 41.968929 -87.862869 1,400 89 172 2816
2022-01-16 03:12:09 GMT 41.968941 -87.863937 1,400 89 171 2816
2022-01-16 03:12:07 GMT 41.968910 -87.866051 1,400 90 169 2816
2022-01-16 03:12:06 GMT 41.968948 -87.867081 1,400 89 169 2816
2022-01-16 03:12:05 GMT 41.968929 -87.868156 1,325 89 165 2816
2022-01-16 03:12:04 GMT 41.968941 -87.869133 1,300 89 170 2816
2022-01-16 03:12:03 GMT 41.968922 -87.870140 1,250 90 175 2816
2022-01-16 03:12:02 GMT 41.968941 -87.872276 1,150 89 163 2816
2022-01-16 03:12:00 GMT 41.968899 -87.873260 1,100 91 167 2816
2022-01-16 03:11:59 GMT 41.968941 -87.874283 1,075 91 170 2816
2022-01-16 03:11:58 GMT 41.968948 -87.875328 1,025 90 168 2816
2022-01-16 03:11:56 GMT 41.968979 -87.877373 950 89 172 2816
2022-01-16 03:11:55 GMT 41.968941 -87.878464 900 91 167 2816
2022-01-16 03:11:54 GMT 41.968971 -87.879478 775 90 169 2816
2022-01-16 03:11:53 GMT 41.968960 -87.880547 775 90 164 2816
2022-01-16 03:11:52 GMT 41.968971 -87.881554 775 90 167 2816
2022-01-16 03:11:51 GMT 41.968990 -87.883629 700 90 167 2816
2022-01-16 03:11:49 GMT 41.969009 -87.884682 650 90 166 192
2022-01-16 03:11:48 GMT 41.969002 -87.885689 600 90 168 192
2022-01-16 03:11:47 GMT 41.969021 -87.886726 525 90 169 192
2022-01-16 03:11:46 GMT 41.969021 -87.887779 525 90 167 192
2022-01-16 03:11:45 GMT 41.969009 -87.888802 350 90 170 192
2022-01-16 03:11:43 GMT 41.969021 -87.890869 350 90 174 192
2022-01-16 03:11:42 GMT 41.969040 -87.891953 350 90 173 192
2022-01-16 03:11:41 GMT 41.969040 -87.893021 350 90 171 192
2022-01-16 03:11:40 GMT 41.969051 -87.894081 350 89 169 192
2022-01-16 03:11:39 GMT 41.969051 -87.895142 350 89 166 192
2022-01-16 03:11:37 GMT 41.969040 -87.897179 325 90 162 0
2022-01-16 03:11:36 GMT 41.969021 -87.898201 325 90 158 0
2022-01-16 03:11:35 GMT 41.969051 -87.899170 325 90 156 0
2022-01-16 03:11:34 GMT 41.969040 -87.900146 325 90 152 -32
2022-01-16 03:11:33 GMT 41.969070 -87.901108 325 89 149 -32
2022-01-16 03:11:31 GMT 41.969028 -87.902946 325 89 143 -32
2022-01-16 03:11:30 GMT 41.969040 -87.903847 325 89 140 -32
2022-01-16 03:11:28 GMT 41.969009 -87.905563 325 90 134 -32
2022-01-16 03:11:27 GMT 41.969002 -87.906380 325 90 131 -32
2022-01-16 03:11:26 GMT 41.969028 -87.907188 350 90 128 -32
2022-01-16 03:11:25 GMT 41.969040 -87.907990 350 89 124 0
2022-01-16 03:11:24 GMT 41.969028 -87.908768 350 89 119 0
2022-01-16 03:11:22 GMT 41.969021 -87.910240 350 90 112 0
2022-01-16 03:11:21 GMT 41.969021 -87.910942 350 89 108 0
2022-01-16 03:11:20 GMT 41.969009 -87.911613 0 90 104 -96
2022-01-16 03:11:19 GMT 41.969009 -87.912247 0 90 101 -96
2022-01-16 03:11:18 GMT 41.969028 -87.912933 0 89 95
2022-01-16 03:11:16 GMT 41.969021 -87.914062 0 89 90
2022-01-16 03:11:15 GMT 41.969021 -87.914642 0 89 84
2022-01-16 03:11:14 GMT 41.969009 -87.915169 0 90 81
2022-01-16 03:11:13 GMT 41.969002 -87.915680 0 90 76
2022-01-16 03:11:12 GMT 41.969021 -87.916161 0 88 71
2022-01-16 03:11:10 GMT 41.969002 -87.917038 0 89 62
2022-01-16 03:11:09 GMT 41.969002 -87.917427 0 89 57
2022-01-16 03:11:08 GMT 41.968990 -87.917801 0 90 53
2022-01-16 03:11:07 GMT 41.968990 -87.918152 0 91 47
2022-01-16 03:11:06 GMT 41.969009 -87.918739 0 89 38
2022-01-16 03:11:04 GMT 41.969002 -87.919006 0 89 32
2022-01-16 03:11:03 GMT 41.969009 -87.919228 0 88 28
2022-01-16 03:11:02 GMT 41.968990 -87.919693 0 94 14
2022-01-16 03:11:01 GMT 41.968979 -87.919853 0 99 8
2022-01-16 03:10:59 GMT 41.968979 -87.919899 0 98 7
2022-01-16 03:10:58 GMT 41.969009 -87.919983 0 89 6
2022-01-16 03:10:57 GMT 41.968990 -87.920052 0 89 2
2022-01-16 03:10:55 GMT 41.969021 -87.920067 0 89 1
2022-01-16 03:10:54 GMT 41.969021 -87.920097 0 89 2
2022-01-16 03:10:53 GMT 41.969009 -87.920059 0 89 2
2022-01-16 03:10:52 GMT 41.969028 -87.920059 0 89 2
2022-01-16 03:10:51 GMT 41.969051 -87.920067 0 89 4
2022-01-16 03:10:47 GMT 41.969044 -87.920090 0 89 0
2022-01-16 03:10:45 GMT 41.968990 -87.920090 0 88 3
2022-01-16 03:10:44 GMT 41.969009 -87.920120 0 86 1
2022-01-16 03:10:43 GMT 41.969009 -87.920090 0 83 3
2022-01-16 03:10:42 GMT 41.969002 -87.920097 0 79 4
2022-01-16 03:10:41 GMT 41.969009 -87.920097 0 74 6
2022-01-16 03:10:40 GMT 41.968971 -87.920174 0 90 7
2022-01-16 03:10:38 GMT 41.968979 -87.920227 0 88 6
2022-01-16 03:10:37 GMT 41.968979 -87.920273 0 88 4
2022-01-16 03:10:36 GMT 41.968971 -87.920303 0 90 5
2022-01-16 03:10:34 GMT 41.968979 -87.920349 0 91 6
2022-01-16 03:10:33 GMT 41.968960 -87.920410 0 94 4
2022-01-16 03:10:31 GMT 41.968971 -87.920433 0 94 5
2022-01-16 03:10:30 GMT 41.968979 -87.920486 0 100 3
2022-01-16 03:10:28 GMT 41.968971 -87.920517 0 92 4
2022-01-16 03:10:27 GMT 41.968979 -87.920563 0 90 2
2022-01-16 03:10:26 GMT 41.968990 -87.920570 0 90 3
2022-01-16 03:10:25 GMT 41.968960 -87.920547 0 94 6
2022-01-16 03:10:24 GMT 41.968960 -87.920593 0 98 5
2022-01-16 03:10:22 GMT 41.968979 -87.920639 0 106 3
2022-01-16 03:10:21 GMT 41.968960 -87.920677 0 113 3
2022-01-16 03:10:20 GMT 41.968979 -87.920700 0 110 3
2022-01-16 03:10:19 GMT 41.968971 -87.920700 0 109 5
2022-01-16 03:10:18 GMT 41.968979 -87.920761 0 107 3
2022-01-16 03:10:16 GMT 41.968990 -87.920776 0 138 5
2022-01-16 03:10:15 GMT 41.968979 -87.920807 0 158 6
2022-01-16 03:10:14 GMT 41.969002 -87.920837 0 162 6
2022-01-16 03:10:13 GMT 41.969051 -87.920853 0 152 3
2022-01-16 03:10:12 GMT 41.969070 -87.920883 0 177 6
2022-01-16 03:10:10 GMT 41.969090 -87.920883 0 179 7
2022-01-16 03:10:09 GMT 41.969139 -87.920898 0 184 4
2022-01-16 03:10:08 GMT 41.969151 -87.920883 0 187 5
2022-01-16 03:10:07 GMT 41.969158 -87.920898 0 195 6
2022-01-16 03:10:06 GMT 41.969181 -87.920921 0 191 7
2022-01-16 03:10:05 GMT 41.969189 -87.920883 0 184 10
2022-01-16 03:10:03 GMT 41.969292 -87.920868 0 181 8
2022-01-16 03:10:02 GMT 41.969318 -87.920853 0 179 9
2022-01-16 03:10:01 GMT 41.969372 -87.920868 0 179 8
2022-01-16 03:10:00 GMT 41.969421 -87.920853 0 174 7
2022-01-16 03:09:58 GMT 41.969479 -87.920853 0 174 9
2022-01-16 03:09:57 GMT 41.969521 -87.920837 0 173 9
2022-01-16 03:09:56 GMT 41.969570 -87.920883 0 180 8
2022-01-16 03:09:55 GMT 41.969608 -87.920883 0 176 8
2022-01-16 03:09:54 GMT 41.969639 -87.920868 0 170 9
2022-01-16 03:09:53 GMT 41.969730 -87.920883 0 182 8
2022-01-16 03:09:51 GMT 41.969780 -87.920921 0 191 5
2022-01-16 03:09:50 GMT 41.969799 -87.920914 0 184 6
2022-01-16 03:09:49 GMT 41.969818 -87.920898 0 177 7
2022-01-16 03:09:48 GMT 41.969841 -87.920891 0 175 8
2022-01-16 03:09:47 GMT 41.969910 -87.920883 0 170 8
2022-01-16 03:09:45 GMT 41.969990 -87.920883 0 162 6
2022-01-16 03:09:43 GMT 41.970020 -87.920891 0 167 6
2022-01-16 03:09:42 GMT 41.970039 -87.920921 0 177 6
2022-01-16 03:09:41 GMT 41.970070 -87.920952 0 189 6
2022-01-16 03:09:40 GMT 41.970100 -87.920921 0 179 5
2022-01-16 03:09:38 GMT 41.970139 -87.920937 0 202 5
2022-01-16 03:09:37 GMT 41.970181 -87.920937 0 218 2
2022-01-16 03:09:36 GMT 41.970181 -87.920959 0 219 5
2022-01-16 03:09:35 GMT 41.970200 -87.920929 0 211 3
2022-01-16 03:09:34 GMT 41.970200 -87.920914 0 205 4
2022-01-16 03:09:32 GMT 41.970242 -87.920891 0 219 4
2022-01-16 03:09:31 GMT 41.970261 -87.920921 0 225 5
2022-01-16 03:09:30 GMT 41.970280 -87.920868 0 222 3
2022-01-16 03:09:29 GMT 41.970291 -87.920868 0 232 3
2022-01-16 03:09:28 GMT 41.970299 -87.920837 0 240 3
2022-01-16 03:09:26 GMT 41.970329 -87.920837 0 246 3
2022-01-16 03:09:25 GMT 41.970348 -87.920822 0 254 2
2022-01-16 03:09:24 GMT 41.970348 -87.920792 0 254 1
2022-01-16 03:09:23 GMT 41.970348 -87.920830 0 257 5
2022-01-16 03:09:22 GMT 41.970371 -87.920792 0 267 5
2022-01-16 03:09:20 GMT 41.970379 -87.920700 0 266 0
2022-01-16 03:09:19 GMT 41.970360 -87.920731 0 266 3
2022-01-16 03:09:18 GMT 41.970371 -87.920708 0 269 3
2022-01-16 03:09:17 GMT 41.970379 -87.920700 0 272 3
2022-01-16 03:09:16 GMT 41.970390 -87.920677 0 271 2
2022-01-16 03:09:14 GMT 41.970371 -87.920670 0 263 3
2022-01-16 03:09:13 GMT 41.970360 -87.920639 0 265 3
2022-01-16 03:09:12 GMT 41.970390 -87.920624 0 265 2
2022-01-16 03:09:11 GMT 41.970379 -87.920601 0 264 1
2022-01-16 03:09:10 GMT 41.970371 -87.920609 0 268 4
2022-01-16 03:09:09 GMT 41.970379 -87.920609 0 268 5
2022-01-16 03:09:07 GMT 41.970379 -87.920540 0 273 5
2022-01-16 03:09:06 GMT 41.970379 -87.920509 0 281 4
2022-01-16 03:09:04 GMT 41.970409 -87.920448 0 278 3
2022-01-16 03:09:03 GMT 41.970402 -87.920448 0 277 3
2022-01-16 03:09:02 GMT 41.970379 -87.920441 0 277 2
2022-01-16 03:09:01 GMT 41.970379 -87.920433 0 276 4
2022-01-16 03:09:00 GMT 41.970390 -87.920403 0 276 4
2022-01-16 03:08:59 GMT 41.970402 -87.920349 0 275 4
2022-01-16 03:08:57 GMT 41.970360 -87.920341 0 273 2
2022-01-16 03:08:56 GMT 41.970371 -87.920349 0 275 3
2022-01-16 03:08:55 GMT 41.970360 -87.920326 0 277 3
2022-01-16 03:08:54 GMT 41.970371 -87.920319 0 270 5
2022-01-16 03:08:53 GMT 41.970371 -87.920288 0 270 7
2022-01-16 03:08:51 GMT 41.970360 -87.920242 0 263 6
2022-01-16 03:08:50 GMT 41.970360 -87.920212 0 266 8
2022-01-16 03:08:49 GMT 41.970360 -87.920158 0 274 7
2022-01-16 03:08:48 GMT 41.970390 -87.920113 0 276 7
2022-01-16 03:08:47 GMT 41.970348 -87.920036 0 258 6
2022-01-16 03:08:45 GMT 41.970360 -87.920013 0 261 7
2022-01-16 03:08:44 GMT 41.970371 -87.919968 0 263 7
2022-01-16 03:08:43 GMT 41.970371 -87.919922 0 263 7
2022-01-16 03:08:42 GMT 41.970379 -87.919861 0 264 6
2022-01-16 03:08:41 GMT 41.970371 -87.919838 0 270 8
2022-01-16 03:08:40 GMT 41.970390 -87.919731 0 270 5
2022-01-16 03:08:37 GMT 41.970379 -87.919701 0 269 9
2022-01-16 03:08:36 GMT 41.970390 -87.919640 0 268 8
2022-01-16 03:08:35 GMT 41.970379 -87.919594 0 267 8
2022-01-16 03:08:33 GMT 41.970379 -87.919456 0 262 7
2022-01-16 03:08:32 GMT 41.970371 -87.919434 0 260 8
2022-01-16 03:08:31 GMT 41.970371 -87.919403 0 265 9
2022-01-16 03:08:30 GMT 41.970402 -87.919357 0 276 11
2022-01-16 03:08:28 GMT 41.970390 -87.919220 0 276 10
2022-01-16 03:08:27 GMT 41.970390 -87.919151 0 273 10
2022-01-16 03:08:26 GMT 41.970379 -87.919113 0 270 11
2022-01-16 03:08:25 GMT 41.970371 -87.919037 0 266 11
2022-01-16 03:08:23 GMT 41.970390 -87.918892 0 270 10
2022-01-16 03:08:22 GMT 41.970379 -87.918861 0 269 13
2022-01-16 03:08:21 GMT 41.970379 -87.918770 0 270 12
2022-01-16 03:08:19 GMT 41.970390 -87.918633 0 273 15
2022-01-16 03:08:18 GMT 41.970402 -87.918541 0 280 15
2022-01-16 03:08:17 GMT 41.970360 -87.918449 0 265 15
2022-01-16 03:08:16 GMT 41.970360 -87.918358 0 263 15
2022-01-16 03:08:15 GMT 41.970371 -87.918266 0 265 15
2022-01-16 03:08:13 GMT 41.970379 -87.918083 0 271 15
2022-01-16 03:08:12 GMT 41.970371 -87.917976 0 265 15
2022-01-16 03:08:11 GMT 41.970390 -87.917870 0 272 13
2022-01-16 03:08:10 GMT 41.970390 -87.917793 0 271 14
2022-01-16 03:08:08 GMT 41.970371 -87.917603 0 262 14
2022-01-16 03:08:07 GMT 41.970371 -87.917519 0 259 15
2022-01-16 03:08:06 GMT 41.970379 -87.917442 0 262 16
2022-01-16 03:08:05 GMT 41.970409 -87.917351 0 274 16
2022-01-16 03:08:04 GMT 41.970402 -87.917282 0 269 19
2022-01-16 03:08:02 GMT 41.970402 -87.917030 0 269 17
2022-01-16 03:08:01 GMT 41.970409 -87.916939 0 271 20
2022-01-16 03:08:00 GMT 41.970409 -87.916687 0 272 19
2022-01-16 03:07:58 GMT 41.970390 -87.916573 0 269 18
2022-01-16 03:07:57 GMT 41.970379 -87.916458 0 265 19
2022-01-16 03:07:56 GMT 41.970402 -87.916344 0 270 18
2022-01-16 03:07:55 GMT 41.970402 -87.916237 0 268 18
2022-01-16 03:07:54 GMT 41.970402 -87.916031 0 270 21
2022-01-16 03:07:52 GMT 41.970421 -87.915878 0 274 20
2022-01-16 03:07:51 GMT 41.970402 -87.915779 0 270 21
2022-01-16 03:07:50 GMT 41.970390 -87.915619 0 264 19
2022-01-16 03:07:49 GMT 41.970409 -87.915489 0 272 18
2022-01-16 03:07:47 GMT 41.970409 -87.915268 0 273 20
2022-01-16 03:07:46 GMT 41.970390 -87.915154 0 269 20
2022-01-16 03:07:45 GMT 41.970390 -87.915001 0 271 18
2022-01-16 03:07:44 GMT 41.970379 -87.914909 0 268 20
2022-01-16 03:07:43 GMT 41.970371 -87.914787 0 264 21
2022-01-16 03:07:42 GMT 41.970402 -87.914528 0 270 21
2022-01-16 03:07:40 GMT 41.970402 -87.914398 0 270 21
2022-01-16 03:07:38 GMT 41.970402 -87.914139 0 270 20
2022-01-16 03:07:37 GMT 41.970421 -87.914009 0 275 21
2022-01-16 03:07:36 GMT 41.970402 -87.913872 0 272 20
2022-01-16 03:07:35 GMT 41.970402 -87.913773 0 272 22
2022-01-16 03:07:34 GMT 41.970379 -87.913620 0 268 21
2022-01-16 03:07:32 GMT 41.970379 -87.913368 0 268 21
2022-01-16 03:07:31 GMT 41.970371 -87.913231 0 266 21
2022-01-16 03:07:30 GMT 41.970371 -87.913109 0 264 22
2022-01-16 03:07:29 GMT 41.970390 -87.912971 0 265 21
2022-01-16 03:07:28 GMT 41.970440 -87.912842 0 281 21
2022-01-16 03:07:26 GMT 41.970371 -87.912598 0 268 23
2022-01-16 03:07:25 GMT 41.970371 -87.912437 0 267 22
2022-01-16 03:07:24 GMT 41.970371 -87.912300 0 265 22
2022-01-16 03:07:23 GMT 41.970390 -87.912064 0 267 22
2022-01-16 03:07:21 GMT 41.970409 -87.911919 0 272 21
2022-01-16 03:07:20 GMT 41.970390 -87.911797 0 266 22
2022-01-16 03:07:19 GMT 41.970390 -87.911652 0 265 22
2022-01-16 03:07:18 GMT 41.970402 -87.911507 0 269 20
2022-01-16 03:07:16 GMT 41.970402 -87.911247 0 267 20
2022-01-16 03:07:15 GMT 41.970409 -87.911133 0 269 20
2022-01-16 03:07:14 GMT 41.970440 -87.911034 0 278 23
2022-01-16 03:07:13 GMT 41.970402 -87.910873 0 271 20
2022-01-16 03:07:12 GMT 41.970390 -87.910599 0 265 19
2022-01-16 03:07:11 GMT 41.970421 -87.910477 0 273 20
2022-01-16 03:07:09 GMT 41.970421 -87.910362 0 272 20
2022-01-16 03:07:08 GMT 41.970409 -87.910233 0 269 20
2022-01-16 03:07:07 GMT 41.970402 -87.910103 0 268 20
2022-01-16 03:07:05 GMT 41.970409 -87.909866 0 271 22
2022-01-16 03:07:04 GMT 41.970421 -87.909721 0 274 21
2022-01-16 03:07:03 GMT 41.970390 -87.909576 0 266 20
2022-01-16 03:07:02 GMT 41.970390 -87.909470 0 265 22
2022-01-16 03:07:01 GMT 41.970402 -87.909340 0 265 24
2022-01-16 03:06:59 GMT 41.970428 -87.909019 0 273 19
2022-01-16 03:06:58 GMT 41.970421 -87.908920 0 271 21
2022-01-16 03:06:57 GMT 41.970409 -87.908791 0 269 21
2022-01-16 03:06:55 GMT 41.970409 -87.908546 0 268 22
2022-01-16 03:06:54 GMT 41.970428 -87.908417 0 274 23
2022-01-16 03:06:53 GMT 41.970409 -87.908272 0 271 22
2022-01-16 03:06:52 GMT 41.970402 -87.908119 0 267 20
2022-01-16 03:06:51 GMT 41.970409 -87.907867 0 264 20
2022-01-16 03:06:49 GMT 41.970440 -87.907761 0 272 21
2022-01-16 03:06:48 GMT 41.970451 -87.907639 0 275 22
2022-01-16 03:06:47 GMT 41.970428 -87.907501 0 273 22
2022-01-16 03:06:45 GMT 41.970428 -87.907227 0 275 21
2022-01-16 03:06:44 GMT 41.970421 -87.907097 0 272 21
2022-01-16 03:06:43 GMT 41.970402 -87.906960 0 268 19
2022-01-16 03:06:41 GMT 41.970402 -87.906738 0 266 22
2022-01-16 03:06:40 GMT 41.970409 -87.906593 0 267 20
2022-01-16 03:06:39 GMT 41.970421 -87.906342 0 273 21
2022-01-16 03:06:37 GMT 41.970402 -87.906219 0 269 21
2022-01-16 03:06:36 GMT 41.970402 -87.906097 0 268 22
2022-01-16 03:06:35 GMT 41.970402 -87.905952 0 267 20
2022-01-16 03:06:34 GMT 41.970409 -87.905807 0 268 19
2022-01-16 03:06:33 GMT 41.970421 -87.905693 0 272 18
2022-01-16 03:06:31 GMT 41.970409 -87.905449 0 269 20
2022-01-16 03:06:30 GMT 41.970390 -87.905342 0 265 21
2022-01-16 03:06:29 GMT 41.970409 -87.905197 0 267 20
2022-01-16 03:06:28 GMT 41.970409 -87.905083 0 267 20
2022-01-16 03:06:27 GMT 41.970440 -87.904831 0 272 20
2022-01-16 03:06:25 GMT 41.970409 -87.904709 0 267 20
2022-01-16 03:06:24 GMT 41.970409 -87.904587 0 266 21
2022-01-16 03:06:23 GMT 41.970421 -87.904472 0 269 21
2022-01-16 03:06:21 GMT 41.970440 -87.904182 0 277 18
2022-01-16 03:06:20 GMT 41.970428 -87.904083 0 274 20
2022-01-16 03:06:19 GMT 41.970409 -87.903969 0 270 21
2022-01-16 03:06:17 GMT 41.970409 -87.903709 0 268 20
2022-01-16 03:06:16 GMT 41.970409 -87.903580 0 268 19
2022-01-16 03:06:15 GMT 41.970421 -87.903473 0 271 19
2022-01-16 03:06:14 GMT 41.970421 -87.903358 0 270 20
2022-01-16 03:06:13 GMT 41.970428 -87.903252 0 273 22
2022-01-16 03:06:11 GMT 41.970390 -87.902962 0 265 19
2022-01-16 03:06:10 GMT 41.970409 -87.902847 0 268 20
2022-01-16 03:06:09 GMT 41.970390 -87.902718 0 264 19
2022-01-16 03:06:08 GMT 41.970421 -87.902603 0 271 19
2022-01-16 03:06:07 GMT 41.970402 -87.902359 0 263 20
2022-01-16 03:06:05 GMT 41.970421 -87.902237 0 268 19
2022-01-16 03:06:04 GMT 41.970440 -87.902130 0 274 21
2022-01-16 03:06:03 GMT 41.970409 -87.901978 0 265 18
2022-01-16 03:06:02 GMT 41.970428 -87.901878 0 270 19
2022-01-16 03:06:01 GMT 41.970428 -87.901756 0 270 20
2022-01-16 03:05:59 GMT 41.970421 -87.901520 0 270 19
2022-01-16 03:05:58 GMT 41.970421 -87.901413 0 270 19
2022-01-16 03:05:57 GMT 41.970428 -87.901283 0 274 19
2022-01-16 03:05:55 GMT 41.970402 -87.901047 0 262 18
2022-01-16 03:05:54 GMT 41.970421 -87.900932 0 266 18
2022-01-16 03:05:53 GMT 41.970428 -87.900833 0 268 19
2022-01-16 03:05:52 GMT 41.970440 -87.900711 0 269 17
2022-01-16 03:05:51 GMT 41.970440 -87.900612 0 271 18
2022-01-16 03:05:49 GMT 41.970440 -87.900421 0 274 20
2022-01-16 03:05:48 GMT 41.970428 -87.900284 0 271 18
2022-01-16 03:05:47 GMT 41.970428 -87.900146 0 272 16
2022-01-16 03:05:46 GMT 41.970421 -87.900070 0 269 18
2022-01-16 03:05:45 GMT 41.970421 -87.899963 0 267 18
2022-01-16 03:05:43 GMT 41.970409 -87.899727 0 263 15
2022-01-16 03:05:42 GMT 41.970428 -87.899643 0 267 15
2022-01-16 03:05:41 GMT 41.970451 -87.899544 0 277 15
2022-01-16 03:05:40 GMT 41.970421 -87.899361 0 268 17
2022-01-16 03:05:38 GMT 41.970421 -87.899246 0 265 16
2022-01-16 03:05:37 GMT 41.970421 -87.899139 0 265 15
2022-01-16 03:05:36 GMT 41.970428 -87.899063 0 270 15
2022-01-16 03:05:35 GMT 41.970440 -87.898941 0 268 13
2022-01-16 03:05:34 GMT 41.970428 -87.898857 0 268 13
2022-01-16 03:05:33 GMT 41.970440 -87.898697 0 274 15
2022-01-16 03:05:31 GMT 41.970428 -87.898613 0 272 15
2022-01-16 03:05:30 GMT 41.970421 -87.898529 0 270 17
2022-01-16 03:05:29 GMT 41.970421 -87.898399 0 267 13
2022-01-16 03:05:28 GMT 41.970421 -87.898300 0 268 12
2022-01-16 03:05:26 GMT 41.970428 -87.898170 0 269 15
2022-01-16 03:05:25 GMT 41.970428 -87.898071 0 269 14
2022-01-16 03:05:24 GMT 41.970421 -87.897980 0 269 13
2022-01-16 03:05:23 GMT 41.970440 -87.897903 0 275 14
2022-01-16 03:05:22 GMT 41.970440 -87.897812 0 271 13
2022-01-16 03:05:20 GMT 41.970421 -87.897652 0 267 11
2022-01-16 03:05:19 GMT 41.970428 -87.897568 0 272 11
2022-01-16 03:05:18 GMT 41.970440 -87.897507 0 274 12
2022-01-16 03:05:16 GMT 41.970428 -87.897377 0 272 12
2022-01-16 03:05:15 GMT 41.970428 -87.897293 0 274 11
2022-01-16 03:05:14 GMT 41.970421 -87.897232 0 273 12
2022-01-16 03:05:13 GMT 41.970421 -87.897133 0 269 9
2022-01-16 03:05:12 GMT 41.970409 -87.897079 0 267 9
2022-01-16 03:05:10 GMT 41.970409 -87.896957 0 266 9
2022-01-16 03:05:09 GMT 41.970421 -87.896889 0 269 9
2022-01-16 03:05:08 GMT 41.970409 -87.896851 0 263 11
2022-01-16 03:05:07 GMT 41.970409 -87.896782 0 263 10
2022-01-16 03:05:05 GMT 41.970428 -87.896652 0 269 9
2022-01-16 03:05:04 GMT 41.970451 -87.896568 0 276 7
2022-01-16 03:05:03 GMT 41.970440 -87.896538 0 272 9
2022-01-16 03:05:02 GMT 41.970428 -87.896492 0 270 9
2022-01-16 03:05:00 GMT 41.970440 -87.896378 0 275 8
2022-01-16 03:04:59 GMT 41.970428 -87.896317 0 270 7
2022-01-16 03:04:58 GMT 41.970421 -87.896278 0 264 8
2022-01-16 03:04:57 GMT 41.970421 -87.896240 0 269 8
2022-01-16 03:04:55 GMT 41.970428 -87.896141 0 267 8
2022-01-16 03:04:54 GMT 41.970421 -87.896088 0 264 8
2022-01-16 03:04:53 GMT 41.970428 -87.896042 0 268 7
2022-01-16 03:04:52 GMT 41.970421 -87.896011 0 269 9
2022-01-16 03:04:50 GMT 41.970428 -87.895897 0 269 7
2022-01-16 03:04:49 GMT 41.970428 -87.895859 0 267 6
2022-01-16 03:04:48 GMT 41.970428 -87.895828 0 266 6
2022-01-16 03:04:47 GMT 41.970421 -87.895798 0 262 8
2022-01-16 03:04:46 GMT 41.970428 -87.895691 0 262 5
2022-01-16 03:04:44 GMT 41.970451 -87.895668 0 273 6
2022-01-16 03:04:42 GMT 41.970451 -87.895599 0 273 6
2022-01-16 03:04:41 GMT 41.970440 -87.895561 0 270 6
2022-01-16 03:04:39 GMT 41.970428 -87.895470 0 262 4
2022-01-16 03:04:38 GMT 41.970428 -87.895447 0 273 5
2022-01-16 03:04:37 GMT 41.970428 -87.895416 0 280 4
2022-01-16 03:04:36 GMT 41.970459 -87.895409 0 283 6
2022-01-16 03:04:35 GMT 41.970459 -87.895363 0 281 6
2022-01-16 03:04:34 GMT 41.970428 -87.895302 0 272 6
2022-01-16 03:04:32 GMT 41.970451 -87.895287 0 276 7
2022-01-16 03:04:31 GMT 41.970428 -87.895241 0 273 7
2022-01-16 03:04:30 GMT 41.970421 -87.895172 0 273 5
2022-01-16 03:04:29 GMT 41.970421 -87.895157 0 279 5
2022-01-16 03:04:27 GMT 41.970428 -87.895103 0 276 7
2022-01-16 03:04:26 GMT 41.970402 -87.895050 0 269 5
2022-01-16 03:04:25 GMT 41.970409 -87.895020 0 270 5
2022-01-16 03:04:24 GMT 41.970402 -87.894997 0 274 6
2022-01-16 03:04:23 GMT 41.970402 -87.894974 0 280 7
2022-01-16 03:04:21 GMT 41.970409 -87.894897 0 282 9
2022-01-16 03:04:20 GMT 41.970390 -87.894814 0 279 6
2022-01-16 03:04:19 GMT 41.970390 -87.894783 0 266 6
2022-01-16 03:04:17 GMT 41.970379 -87.894730 0 267 9
2022-01-16 03:04:16 GMT 41.970360 -87.894661 0 255 6
2022-01-16 03:04:15 GMT 41.970341 -87.894569 0 233 7
2022-01-16 03:04:13 GMT 41.970371 -87.894531 0 227 7
2022-01-16 03:04:12 GMT 41.970379 -87.894501 0 220 7
2022-01-16 03:04:11 GMT 41.970409 -87.894470 0 202 6
2022-01-16 03:04:10 GMT 41.970409 -87.894409 0 180 7
2022-01-16 03:04:09 GMT 41.970459 -87.894363 0 177 7
2022-01-16 03:04:07 GMT 41.970490 -87.894379 0 184 7
2022-01-16 03:04:06 GMT 41.970539 -87.894402 0 184 6
2022-01-16 03:04:05 GMT 41.970551 -87.894379 0 184 7
2022-01-16 03:04:03 GMT 41.970612 -87.894371 0 175 9
2022-01-16 03:04:02 GMT 41.970661 -87.894348 0 171 9
2022-01-16 03:04:01 GMT 41.970692 -87.894363 0 172 11
2022-01-16 03:04:00 GMT 41.970760 -87.894371 0 186 8
2022-01-16 03:03:59 GMT 41.970791 -87.894417 0 189 8
2022-01-16 03:03:58 GMT 41.970840 -87.894363 0 179 10
2022-01-16 03:03:56 GMT 41.970901 -87.894402 0 187 9
2022-01-16 03:03:55 GMT 41.970940 -87.894409 0 183 9
2022-01-16 03:03:54 GMT 41.970970 -87.894371 0 171 9
2022-01-16 03:03:52 GMT 41.971050 -87.894371 0 177 9
2022-01-16 03:03:51 GMT 41.971100 -87.894386 0 185 8
2022-01-16 03:03:50 GMT 41.971130 -87.894402 0 183 8
2022-01-16 03:03:48 GMT 41.971191 -87.894379 0 181 7
2022-01-16 03:03:47 GMT 41.971199 -87.894386 0 181 10
2022-01-16 03:03:46 GMT 41.971260 -87.894371 0 176 9
2022-01-16 03:03:45 GMT 41.971329 -87.894379 0 175 6
2022-01-16 03:03:44 GMT 41.971340 -87.894371 0 171 8
2022-01-16 03:03:43 GMT 41.971371 -87.894348 0 168 9
2022-01-16 03:03:42 GMT 41.971439 -87.894386 0 177 9
2022-01-16 03:03:40 GMT 41.971470 -87.894417 0 180 10
2022-01-16 03:03:39 GMT 41.971531 -87.894409 0 164 7
2022-01-16 03:03:38 GMT 41.971600 -87.894379 0 149 4
2022-01-16 03:03:36 GMT 41.971600 -87.894402 0 173 8
2022-01-16 03:03:35 GMT 41.971630 -87.894440 0 183 8
2022-01-16 03:03:34 GMT 41.971668 -87.894447 0 189 9
2022-01-16 03:03:33 GMT 41.971699 -87.894440 0 187 10
2022-01-16 03:03:31 GMT 41.971790 -87.894463 0 215 9
2022-01-16 03:03:30 GMT 41.971840 -87.894470 0 232 8
2022-01-16 03:03:29 GMT 41.971882 -87.894463 0 244 8
2022-01-16 03:03:28 GMT 41.971909 -87.894417 0 259 8
2022-01-16 03:03:27 GMT 41.971951 -87.894363 0 272 6
2022-01-16 03:03:25 GMT 41.971951 -87.894272 0 260 4
2022-01-16 03:03:24 GMT 41.971951 -87.894249 0 264 5
2022-01-16 03:03:23 GMT 41.971951 -87.894211 0 265 4
2022-01-16 03:03:22 GMT 41.971951 -87.894150 0 257 3
2022-01-16 03:03:20 GMT 41.971958 -87.894157 0 274 5
2022-01-16 03:03:19 GMT 41.971970 -87.894112 0 280 4
2022-01-16 03:03:18 GMT 41.971989 -87.894096 0 286 5
2022-01-16 03:03:16 GMT 41.971958 -87.894051 0 270 5
2022-01-16 03:03:14 GMT 41.971951 -87.893982 0 273 4
2022-01-16 03:03:13 GMT 41.971958 -87.893959 0 279 4
2022-01-16 03:03:11 GMT 41.971981 -87.893921 0 279 4
2022-01-16 03:03:10 GMT 41.971951 -87.893883 0 267 2
2022-01-16 03:03:08 GMT 41.971920 -87.893867 0 267 4
2022-01-16 03:03:07 GMT 41.971909 -87.893829 0 268 3
2022-01-16 03:03:06 GMT 41.971931 -87.893799 0 269 1
2022-01-16 03:03:04 GMT 41.971931 -87.893806 0 275 4
2022-01-16 03:03:03 GMT 41.971931 -87.893799 0 283 5
2022-01-16 03:03:02 GMT 41.971958 -87.893791 0 283 6
2022-01-16 03:03:01 GMT 41.971951 -87.893730 0 279 5
2022-01-16 03:03:00 GMT 41.971939 -87.893700 0 279 4
2022-01-16 03:02:59 GMT 41.971939 -87.893669 0 279 3
2022-01-16 03:02:58 GMT 41.971939 -87.893677 0 271 5
2022-01-16 03:02:56 GMT 41.971909 -87.893608 0 273 5
2022-01-16 03:02:55 GMT 41.971931 -87.893562 0 281 2
2022-01-16 03:02:54 GMT 41.971920 -87.893562 0 281 3
2022-01-16 03:02:53 GMT 41.971931 -87.893532 0 275 4
2022-01-16 03:02:51 GMT 41.971920 -87.893509 0 258 5
2022-01-16 03:02:50 GMT 41.971909 -87.893471 0 246 4
2022-01-16 03:02:49 GMT 41.971901 -87.893440 0 234 6
2022-01-16 03:02:48 GMT 41.971909 -87.893417 0 224 6
2022-01-16 03:02:46 GMT 41.971931 -87.893333 0 203 7
2022-01-16 03:02:45 GMT 41.972000 -87.893272 0 202 1
2022-01-16 03:02:44 GMT 41.972000 -87.893288 0 201 3
2022-01-16 03:02:43 GMT 41.972019 -87.893280 0 200 3
2022-01-16 03:02:42 GMT 41.972012 -87.893288 0 197 4
2022-01-16 03:02:41 GMT 41.972000 -87.893257 0 187 7
2022-01-16 03:02:40 GMT 41.972061 -87.893250 0 175 8
2022-01-16 03:02:38 GMT 41.972111 -87.893211 0 158 6
2022-01-16 03:02:37 GMT 41.972130 -87.893211 0 149 7
2022-01-16 03:02:36 GMT 41.972179 -87.893204 0 147 6
2022-01-16 03:02:34 GMT 41.972221 -87.893288 0 173 6
2022-01-16 03:02:33 GMT 41.972240 -87.893272 0 166 7
2022-01-16 03:02:32 GMT 41.972260 -87.893280 0 176 8
2022-01-16 03:02:30 GMT 41.972321 -87.893333 0 189 8
2022-01-16 03:02:29 GMT 41.972382 -87.893333 0 190 6
2022-01-16 03:02:28 GMT 41.972401 -87.893303 0 186 7
2022-01-16 03:02:27 GMT 41.972431 -87.893303 0 187 6
2022-01-16 03:02:25 GMT 41.972500 -87.893303 0 202 5
2022-01-16 03:02:24 GMT 41.972511 -87.893333 0 210 8
2022-01-16 03:02:23 GMT 41.972549 -87.893280 0 212 5
2022-01-16 03:02:22 GMT 41.972569 -87.893280 0 225 5
2022-01-16 03:02:21 GMT 41.972591 -87.893272 0 236 5
2022-01-16 03:02:20 GMT 41.972660 -87.893227 0 257 5
2022-01-16 03:02:18 GMT 41.972672 -87.893211 0 261 5
2022-01-16 03:02:17 GMT 41.972679 -87.893181 0 270 6
2022-01-16 03:02:16 GMT 41.972710 -87.893097 0 278 6
2022-01-16 03:02:14 GMT 41.972691 -87.893066 0 270 6
2022-01-16 03:02:13 GMT 41.972698 -87.893028 0 272 6
2022-01-16 03:02:12 GMT 41.972672 -87.892960 0 264 6
2022-01-16 03:02:11 GMT 41.972679 -87.892929 0 263 7
2022-01-16 03:02:09 GMT 41.972679 -87.892899 0 263 9
2022-01-16 03:02:08 GMT 41.972679 -87.892830 0 263 8
2022-01-16 03:02:07 GMT 41.972691 -87.892769 0 271 6
2022-01-16 03:02:06 GMT 41.972729 -87.892700 0 278 9
2022-01-16 03:02:04 GMT 41.972698 -87.892639 0 273 9
2022-01-16 03:02:03 GMT 41.972691 -87.892578 0 267 8
2022-01-16 03:02:02 GMT 41.972679 -87.892548 0 264 10
2022-01-16 03:02:01 GMT 41.972679 -87.892479 0 266 9
2022-01-16 03:02:00 GMT 41.972691 -87.892410 0 269 8
2022-01-16 03:01:59 GMT 41.972710 -87.892349 0 275 7
2022-01-16 03:01:58 GMT 41.972698 -87.892281 0 276 10
2022-01-16 03:01:56 GMT 41.972721 -87.892212 0 284 10
2022-01-16 03:01:55 GMT 41.972691 -87.892181 0 267 11
2022-01-16 03:01:54 GMT 41.972660 -87.892113 0 261 12
2022-01-16 03:01:52 GMT 41.972691 -87.891930 0 271 7
2022-01-16 03:01:51 GMT 41.972710 -87.891899 0 277 8
2022-01-16 03:01:50 GMT 41.972698 -87.891861 0 275 9
2022-01-16 03:01:49 GMT 41.972698 -87.891800 0 277 8
2022-01-16 03:01:47 GMT 41.972698 -87.891693 0 273 7
2022-01-16 03:01:46 GMT 41.972691 -87.891663 0 272 8
2022-01-16 03:01:45 GMT 41.972691 -87.891617 0 268 10
2022-01-16 03:01:44 GMT 41.972660 -87.891510 0 260 10
2022-01-16 03:01:43 GMT 41.972672 -87.891441 0 263 10
2022-01-16 03:01:41 GMT 41.972698 -87.891373 0 266 7
2022-01-16 03:01:40 GMT 41.972691 -87.891350 0 258 10
2022-01-16 03:01:39 GMT 41.972679 -87.891258 0 255 8
2022-01-16 03:01:37 GMT 41.972729 -87.891182 0 275 11
2022-01-16 03:01:36 GMT 41.972740 -87.891098 0 273 9
2022-01-16 03:01:35 GMT 41.972691 -87.891029 0 267 8
2022-01-16 03:01:34 GMT 41.972698 -87.890984 0 270 8
2022-01-16 03:01:32 GMT 41.972729 -87.890869 0 277 7
2022-01-16 03:01:31 GMT 41.972721 -87.890823 0 273 6
2022-01-16 03:01:30 GMT 41.972698 -87.890823 0 267 9
2022-01-16 03:01:29 GMT 41.972698 -87.890778 0 270 10
2022-01-16 03:01:28 GMT 41.972710 -87.890694 0 271 8
2022-01-16 03:01:27 GMT 41.972698 -87.890602 0 266 8
2022-01-16 03:01:25 GMT 41.972698 -87.890549 0 264 8
2022-01-16 03:01:24 GMT 41.972691 -87.890511 0 263 9
2022-01-16 03:01:23 GMT 41.972698 -87.890472 0 263 9
2022-01-16 03:01:22 GMT 41.972698 -87.890404 0 265 9
2022-01-16 03:01:20 GMT 41.972721 -87.890282 0 268 8
2022-01-16 03:01:19 GMT 41.972721 -87.890228 0 271 7
2022-01-16 03:01:18 GMT 41.972721 -87.890190 0 271 8
2022-01-16 03:01:17 GMT 41.972729 -87.890152 0 273 8
2022-01-16 03:01:16 GMT 41.972721 -87.890099 0 275 8
2022-01-16 03:01:14 GMT 41.972752 -87.889977 0 288 6
2022-01-16 03:01:13 GMT 41.972740 -87.889931 0 286 6
2022-01-16 03:01:12 GMT 41.972729 -87.889923 0 276 7
2022-01-16 03:01:11 GMT 41.972698 -87.889893 0 269 7
2022-01-16 03:01:09 GMT 41.972698 -87.889778 0 268 6
2022-01-16 03:01:08 GMT 41.972698 -87.889748 0 267 6
2022-01-16 03:01:07 GMT 41.972691 -87.889717 0 268 7
2022-01-16 03:01:06 GMT 41.972698 -87.889679 0 270 7
2022-01-16 03:01:05 GMT 41.972698 -87.889664 0 267 9
2022-01-16 03:01:03 GMT 41.972691 -87.889526 0 269 7
2022-01-16 03:01:02 GMT 41.972698 -87.889481 0 273 6
2022-01-16 03:01:01 GMT 41.972710 -87.889427 0 276 5
2022-01-16 03:01:00 GMT 41.972721 -87.889412 0 277 6
2022-01-16 03:00:58 GMT 41.972698 -87.889351 0 273 6
2022-01-16 03:00:57 GMT 41.972710 -87.889313 0 274 7
2022-01-16 03:00:56 GMT 41.972710 -87.889267 0 266 7
2022-01-16 03:00:55 GMT 41.972672 -87.889229 0 256 7
2022-01-16 03:00:54 GMT 41.972672 -87.889168 0 263 5
2022-01-16 03:00:52 GMT 41.972710 -87.889107 0 273 6
2022-01-16 03:00:51 GMT 41.972698 -87.889053 0 269 4
2022-01-16 03:00:49 GMT 41.972698 -87.888962 0 270 4
2022-01-16 03:00:47 GMT 41.972698 -87.888939 0 270 4
2022-01-16 03:00:46 GMT 41.972698 -87.888901 0 267 4
2022-01-16 03:00:45 GMT 41.972691 -87.888901 0 262 5
2022-01-16 03:00:44 GMT 41.972698 -87.888863 0 263 5
2022-01-16 03:00:42 GMT 41.972698 -87.888802 0 266 3
2022-01-16 03:00:40 GMT 41.972698 -87.888771 0 263 4
2022-01-16 03:00:39 GMT 41.972710 -87.888748 0 251 4
2022-01-16 03:00:37 GMT 41.972691 -87.888687 0 246 3
2022-01-16 03:00:36 GMT 41.972710 -87.888657 0 244 3
2022-01-16 03:00:35 GMT 41.972710 -87.888649 0 243 3
2022-01-16 03:00:34 GMT 41.972710 -87.888634 0 243 3
2022-01-16 03:00:32 GMT 41.972698 -87.888580 0 241 1
2022-01-16 03:00:31 GMT 41.972698 -87.888588 0 241 2
2022-01-16 03:00:30 GMT 41.972710 -87.888573 0 238 2
2022-01-16 03:00:29 GMT 41.972660 -87.888588 0 237 4
2022-01-16 03:00:27 GMT 41.972672 -87.888527 0 236 2
2022-01-16 03:00:26 GMT 41.972679 -87.888519 0 236 2
2022-01-16 03:00:25 GMT 41.972679 -87.888496 0 235 0
2022-01-16 03:00:22 GMT 41.972672 -87.888496 0 234 0
2022-01-16 03:00:20 GMT 41.972698 -87.888496 0 234 0
2022-01-16 03:00:18 GMT 41.972698 -87.888519 0 234 0
2022-01-16 03:00:16 GMT 41.972698 -87.888489 0 234 0
2022-01-16 03:00:15 GMT 41.972698 -87.888481 0 234 0
2022-01-16 03:00:14 GMT 41.972698 -87.888519 0 234 0
2022-01-16 03:00:11 GMT 41.972691 -87.888458 0 234 0
2022-01-16 03:00:10 GMT 41.972691 -87.888451 0 234 0
2022-01-16 03:00:08 GMT 41.972691 -87.888481 0 234 0
2022-01-16 03:00:06 GMT 41.972691 -87.888474 0 234 0
2022-01-16 03:00:05 GMT 41.972698 -87.888527 0 234 0
2022-01-16 03:00:03 GMT 41.972691 -87.888512 0 234 0
2022-01-16 03:00:02 GMT 41.972691 -87.888489 0 233 0
2022-01-16 03:00:00 GMT 41.972691 -87.888481 0 233 0
2022-01-16 02:59:59 GMT 41.972698 -87.888481 0 233 0
2022-01-16 02:59:58 GMT 41.972698 -87.888496 0 232 0
2022-01-16 02:59:56 GMT 41.972691 -87.888412 0 232 1
2022-01-16 02:59:55 GMT 41.972691 -87.888481 0 232 1
2022-01-16 02:59:54 GMT 41.972698 -87.888451 0 233 1
2022-01-16 02:59:52 GMT 41.972698 -87.888412 0 236 2
2022-01-16 02:59:51 GMT 41.972698 -87.888451 0 236 1
2022-01-16 02:59:50 GMT 41.972691 -87.888542 0 238 0
2022-01-16 02:59:47 GMT 41.972691 -87.888557 0 238 0
2022-01-16 02:59:46 GMT 41.972691 -87.888550 0 238 0
2022-01-16 02:59:45 GMT 41.972698 -87.888542 0 238 0
2022-01-16 02:59:44 GMT 41.972691 -87.888527 0 238 0
2022-01-16 02:59:39 GMT 41.972691 -87.888557 0 238 0
2022-01-16 02:59:38 GMT 41.972698 -87.888550 0 238 0
2022-01-16 02:59:36 GMT 41.972691 -87.888542 0 238 0
2022-01-16 02:59:34 GMT 41.972691 -87.888527 0 238 0
2022-01-16 02:59:33 GMT 41.972698 -87.888512 0 238 0
2022-01-16 02:59:31 GMT 41.972691 -87.888496 0 238 0
2022-01-16 02:59:30 GMT 41.972691 -87.888489 0 238 0
2022-01-16 02:59:27 GMT 41.972698 -87.888512 0 236 0
2022-01-16 02:59:26 GMT 41.972698 -87.888527 0 234 0
2022-01-16 02:59:23 GMT 41.972694 -87.888405 0 232 0
2022-01-16 02:59:21 GMT 41.972691 -87.888557 0 232 0
2022-01-16 02:59:20 GMT 41.972691 -87.888550 0 232 0
2022-01-16 02:59:19 GMT 41.972691 -87.888496 0 232 0
2022-01-16 02:59:15 GMT 41.972698 -87.888496 0 232 0
2022-01-16 02:59:14 GMT 41.972691 -87.888512 0 232 0
2022-01-16 02:59:11 GMT 41.972710 -87.888512 0 232 1
2022-01-16 02:59:10 GMT 41.972698 -87.888519 0 232 0
2022-01-16 02:59:09 GMT 41.972698 -87.888542 0 231 0
2022-01-16 02:59:07 GMT 41.972698 -87.888542 0 229 0
2022-01-16 02:59:06 GMT 41.972691 -87.888557 0 228 0
2022-01-16 02:59:04 GMT 41.972691 -87.888512 0 226 0
2022-01-16 02:59:03 GMT 41.972691 -87.888496 0 225 0
2022-01-16 02:59:02 GMT 41.972691 -87.888481 0 225 0
2022-01-16 02:59:01 GMT 41.972691 -87.888474 0 225 0
2022-01-16 02:58:59 GMT 41.972679 -87.888489 0 225 1
2022-01-16 02:58:58 GMT 41.972679 -87.888474 0 226 1
2022-01-16 02:58:57 GMT 41.972679 -87.888443 0 226 0
2022-01-16 02:58:56 GMT 41.972691 -87.888420 0 226 0
2022-01-16 02:58:54 GMT 41.972691 -87.888420 0 226 0
2022-01-16 02:58:53 GMT 41.972698 -87.888420 0 226 0
2022-01-16 02:58:52 GMT 41.972698 -87.888412 0 225 0
2022-01-16 02:58:51 GMT 41.972679 -87.888481 0 224 1
2022-01-16 02:58:50 GMT 41.972679 -87.888474 0 224 2
2022-01-16 02:58:48 GMT 41.972691 -87.888428 0 222 0
2022-01-16 02:58:47 GMT 41.972691 -87.888451 0 221 1
2022-01-16 02:58:46 GMT 41.972691 -87.888443 0 220 1
2022-01-16 02:58:44 GMT 41.972698 -87.888474 0 218 1
2022-01-16 02:58:41 GMT 41.972691 -87.888443 0 217 0
2022-01-16 02:58:40 GMT 41.972679 -87.888451 0 217 0
2022-01-16 02:58:39 GMT 41.972691 -87.888474 0 218 1
2022-01-16 02:58:38 GMT 41.972691 -87.888458 0 218 0
2022-01-16 02:58:37 GMT 41.972691 -87.888443 0 218 0
2022-01-16 02:58:35 GMT 41.972672 -87.888451 0 220 1
2022-01-16 02:58:33 GMT 41.972672 -87.888420 0 220 2
2022-01-16 02:58:32 GMT 41.972679 -87.888428 0 220 1
2022-01-16 02:58:31 GMT 41.972691 -87.888443 0 220 0
2022-01-16 02:58:30 GMT 41.972698 -87.888428 0 220 1
2022-01-16 02:58:27 GMT 41.972679 -87.888458 0 219 1
2022-01-16 02:58:26 GMT 41.972698 -87.888527 0 218 5
2022-01-16 02:58:25 GMT 41.972691 -87.888496 0 203 5
2022-01-16 02:58:23 GMT 41.972721 -87.888634 0 109 10
2022-01-16 02:58:22 GMT 41.972698 -87.888481 0 109 1
2022-01-16 02:58:21 GMT 41.972698 -87.888329 0 109 1
2022-01-16 02:58:20 GMT 41.972698 -87.888344 0 110 1
2022-01-16 02:58:19 GMT 41.972679 -87.888229 0 111 2
2022-01-16 02:58:17 GMT 41.972672 -87.888321 0 111 4
2022-01-16 02:58:16 GMT 41.972679 -87.888344 0 113 4
2022-01-16 02:58:15 GMT 41.972679 -87.888321 0 117 4
2022-01-16 02:58:14 GMT 41.972660 -87.888107 0 125 10
2022-01-16 02:58:13 GMT 41.972672 -87.888260 0 137 6
2022-01-16 02:58:11 GMT 41.972679 -87.888412 0 147 1
2022-01-16 02:58:10 GMT 41.972679 -87.888420 0 147 1
2022-01-16 02:58:09 GMT 41.972698 -87.888474 0 147 0
2022-01-16 02:58:08 GMT 41.972710 -87.888489 0 149 0
2022-01-16 02:58:07 GMT 41.972721 -87.888512 0 152 0
2022-01-16 02:58:05 GMT 41.972721 -87.888512 0 154 0
2022-01-16 02:58:04 GMT 41.972710 -87.888573 0 154 1
2022-01-16 02:58:02 GMT 41.972710 -87.888573 0 153 1
2022-01-16 02:58:01 GMT 41.972710 -87.888550 0 152 0
2022-01-16 02:58:00 GMT 41.972710 -87.888542 0 150 0
2022-01-16 02:57:57 GMT 41.972691 -87.888496 0 149 1
2022-01-16 02:57:56 GMT 41.972691 -87.888489 0 148 1
2022-01-16 02:57:55 GMT 41.972691 -87.888496 0 147 1
2022-01-16 02:57:54 GMT 41.972679 -87.888496 0 146 1
2022-01-16 02:57:52 GMT 41.972672 -87.888458 0 145 2
2022-01-16 02:57:51 GMT 41.972672 -87.888451 0 145 1
2022-01-16 02:57:49 GMT 41.972698 -87.888428 0 145 1
2022-01-16 02:57:47 GMT 41.972672 -87.888443 0 144 1
2022-01-16 02:57:46 GMT 41.972679 -87.888443 0 144 0
2022-01-16 02:57:45 GMT 41.972679 -87.888458 0 143 1
2022-01-16 02:57:43 GMT 41.972698 -87.888451 0 140 1
2022-01-16 02:57:40 GMT 41.972691 -87.888428 0 138 0
2022-01-16 02:57:39 GMT 41.972710 -87.888443 0 138 0
2022-01-16 02:57:37 GMT 41.972710 -87.888420 0 138 1
2022-01-16 02:57:35 GMT 41.972710 -87.888428 0 138 1
2022-01-16 02:57:33 GMT 41.972698 -87.888451 0 138 0
2022-01-16 02:57:32 GMT 41.972698 -87.888428 0 138 1
2022-01-16 02:57:31 GMT 41.972698 -87.888458 0 138 0
2022-01-16 02:57:30 GMT 41.972698 -87.888474 0 138 1
2022-01-16 02:57:29 GMT 41.972679 -87.888481 0 133 1
2022-01-16 02:57:27 GMT 41.972679 -87.888458 0 131 1
2022-01-16 02:57:26 GMT 41.972679 -87.888451 0 130 1
2022-01-16 02:57:25 GMT 41.972691 -87.888443 0 127 0
2022-01-16 02:57:24 GMT 41.972691 -87.888474 0 124 0
2022-01-16 02:57:23 GMT 41.972691 -87.888451 0 122 0
2022-01-16 02:57:22 GMT 41.972679 -87.888443 0 122 1
2022-01-16 02:57:20 GMT 41.972691 -87.888443 0 122 1
2022-01-16 02:57:19 GMT 41.972691 -87.888496 0 122 0
2022-01-16 02:57:18 GMT 41.972698 -87.888496 0 119 1
2022-01-16 02:57:17 GMT 41.972691 -87.888489 0 117 0
2022-01-16 02:57:16 GMT 41.972691 -87.888573 0 113 1
2022-01-16 02:57:14 GMT 41.972691 -87.888573 0 110 1
2022-01-16 02:57:13 GMT 41.972679 -87.888542 0 108 1
2022-01-16 02:57:12 GMT 41.972691 -87.888512 0 107 1
2022-01-16 02:57:10 GMT 41.972691 -87.888496 0 104 1
2022-01-16 02:57:08 GMT 41.972691 -87.888458 0 104 1
2022-01-16 02:57:07 GMT 41.972691 -87.888428 0 104 1
2022-01-16 02:57:06 GMT 41.972691 -87.888412 0 104 1
2022-01-16 02:57:05 GMT 41.972691 -87.888420 0 104 1
2022-01-16 02:57:03 GMT 41.972698 -87.888443 0 272 0
2022-01-16 02:57:00 GMT 41.972710 -87.888420 0 104 0
2022-01-16 02:56:58 GMT 41.972691 -87.888443 0 104 0
2022-01-16 02:56:56 GMT 41.972691 -87.888443 0 103 0
2022-01-16 02:56:55 GMT 41.972698 -87.888443 0 103 0
2022-01-16 02:56:53 GMT 41.972691 -87.888443 0 103 0
2022-01-16 02:56:51 GMT 41.972698 -87.888428 0 103 1
2022-01-16 02:56:50 GMT 41.972698 -87.888443 0 105 1
2022-01-16 02:56:49 GMT 41.972691 -87.888428 0 106 1
2022-01-16 02:56:48 GMT 41.972679 -87.888451 0 105 1
2022-01-16 02:56:46 GMT 41.972691 -87.888458 0 100 1
2022-01-16 02:56:45 GMT 41.972698 -87.888451 0 99 2
2022-01-16 02:56:44 GMT 41.972710 -87.888474 0 98 2
2022-01-16 02:56:43 GMT 41.972710 -87.888496 0 101 1
2022-01-16 02:56:42 GMT 41.972698 -87.888489 0 101 2
2022-01-16 02:56:41 GMT 41.972691 -87.888519 0 101 2
2022-01-16 02:56:39 GMT 41.972698 -87.888496 0 104 2
2022-01-16 02:56:38 GMT 41.972691 -87.888519 0 104 1
2022-01-16 02:56:36 GMT 41.972679 -87.888527 0 104 2
2022-01-16 02:56:35 GMT 41.972698 -87.888519 0 105 4
2022-01-16 02:56:34 GMT 41.972691 -87.888550 0 105 2
2022-01-16 02:56:33 GMT 41.972672 -87.888588 0 105 3
2022-01-16 02:56:32 GMT 41.972691 -87.888580 0 104 2
2022-01-16 02:56:31 GMT 41.972698 -87.888573 0 104 3
2022-01-16 02:56:29 GMT 41.972729 -87.888634 0 104 2
2022-01-16 02:56:28 GMT 41.972710 -87.888618 0 105 1
2022-01-16 02:56:27 GMT 41.972679 -87.888611 0 105 3
2022-01-16 02:56:26 GMT 41.972679 -87.888618 0 93 4
2022-01-16 02:56:25 GMT 41.972698 -87.888618 0 44 5
2022-01-16 02:56:23 GMT 41.972740 -87.888672 0 40 4
2022-01-16 02:56:22 GMT 41.972740 -87.888687 0 38 4
2022-01-16 02:56:21 GMT 41.972752 -87.888741 0 38 1
2022-01-16 02:56:20 GMT 41.972740 -87.888733 0 38 2
2022-01-16 02:56:18 GMT 41.972729 -87.888763 0 37 1
2022-01-16 02:56:17 GMT 41.972752 -87.888771 0 37 2
2022-01-16 02:56:16 GMT 41.972721 -87.888779 0 37 1
2022-01-16 02:56:15 GMT 41.972721 -87.888763 0 34 2
2022-01-16 02:56:14 GMT 41.972710 -87.888786 0 31 3
2022-01-16 02:56:13 GMT 41.972729 -87.888779 0 21 4
2022-01-16 02:56:11 GMT 41.972759 -87.888809 0 18 1
2022-01-16 02:56:10 GMT 41.972759 -87.888817 0 16 1
2022-01-16 02:56:09 GMT 41.972759 -87.888832 0 16 2
2022-01-16 02:56:08 GMT 41.972771 -87.888832 0 14 2
2022-01-16 02:56:06 GMT 41.972771 -87.888878 0 12 1
2022-01-16 02:56:05 GMT 41.972759 -87.888863 0 11 1
2022-01-16 02:56:04 GMT 41.972752 -87.888870 0 7 2
2022-01-16 02:56:02 GMT 41.972771 -87.888870 0 0 3
2022-01-16 02:56:00 GMT 41.972778 -87.888908 0 351 2
2022-01-16 02:55:59 GMT 41.972778 -87.888931 0 348 1
2022-01-16 02:55:58 GMT 41.972790 -87.888931 0 345 1
2022-01-16 02:55:57 GMT 41.972801 -87.888931 0 340 2
2022-01-16 02:55:56 GMT 41.972820 -87.888962 0 337 1
2022-01-16 02:55:54 GMT 41.972801 -87.888939 0 331 2
2022-01-16 02:55:53 GMT 41.972790 -87.888947 0 327 2
2022-01-16 02:55:52 GMT 41.972809 -87.888969 0 322 1
2022-01-16 02:55:51 GMT 41.972801 -87.888962 0 319 2
2022-01-16 02:55:48 GMT 41.972843 -87.888985 0 298 2
2022-01-16 02:55:47 GMT 41.972847 -87.888992 0 300 2
2022-01-16 02:55:45 GMT 41.972858 -87.888992 0 300 2

Making use of Plane Finder data

You are free to use the raw flight data, aircraft information and images provided in this report for your own purposes provided the data is correctly attributed to Plane Finder. We ask that you please credit Plane Finder and link to planefinder.net in close proximity to the content.

Optionally one of the following logos (no smaller then 150x24px) can be used and must link to planefinder.net

Embedding the Plane Finder map

You are welcome to embed the Plane Finder playback map on your website to offer visitors a more interactive experience. We suggest using the following HTML code:

<iframe src="//planefinder.net/data/report/BA296-G-ZBLB-7700-squawk-2022-01-16/map" width="800" height="600" seamless="seamless"></iframe>

Where our data comes from

Plane Finder has a global network of data feeds and antenna radars that receive data broadcast directly from aircraft. The primary technologies used are ADS-B and MLAT. We also show feeds from the FAA and a FLARM glider feed.

Click here to find out more about the Plane Finder network.

How we collect our data